<?xml version="1.0" encoding="UTF-8" standalone="no" ?>
<gpx xmlns="http://www.topografix.com/GPX/1/1" xmlns:xsi="http://www.w3.org/2001/XMLSchema-instance" xsi:schemaLocation="http://www.topografix.com/GPX/1/1 http://www.topografix.com/GPX/1/1/gpx.xsd" version="1.1" creator="VisuGPX - https://www.visugpx.com">
  <metadata>
    <name>VTT ENDURO / Rocher des vierges</name>
    <desc><![CDATA[La sortie annuelle de cette année du groupe "Los Mandingos Bike Team" - en résumé : c'est la sortie préparée le 29/03/2017 avec en sus un petit bonus à la fin.]]></desc>
  </metadata>
  <trk>
    <name><![CDATA[VTT ENDURO / Rocher des vierges_1]]></name>
    <trkseg>
      <trkpt lat="43.70714" lon="3.46775">
        <ele>366.7</ele>
        <time>2017-04-09T06:14:33Z</time>
      </trkpt>
      <trkpt lat="43.70708" lon="3.46771">
        <ele>345.3</ele>
        <time>2017-04-09T06:20:18Z</time>
      </trkpt>
      <trkpt lat="43.70703" lon="3.4677">
        <ele>345</ele>
        <time>2017-04-09T06:20:27Z</time>
      </trkpt>
      <trkpt lat="43.70707" lon="3.46773">
        <ele>341.1</ele>
        <time>2017-04-09T06:23:51Z</time>
      </trkpt>
      <trkpt lat="43.70704" lon="3.46772">
        <ele>341</ele>
        <time>2017-04-09T06:23:58Z</time>
      </trkpt>
      <trkpt lat="43.70703" lon="3.46771">
        <ele>340.4</ele>
        <time>2017-04-09T06:24:19Z</time>
      </trkpt>
      <trkpt lat="43.70705" lon="3.46774">
        <ele>340.7</ele>
        <time>2017-04-09T06:23:50Z</time>
      </trkpt>
      <trkpt lat="43.70703" lon="3.46771">
        <ele>342.3</ele>
        <time>2017-04-09T06:26:13Z</time>
      </trkpt>
      <trkpt lat="43.70707" lon="3.46774">
        <ele>342.1</ele>
        <time>2017-04-09T06:26:20Z</time>
      </trkpt>
      <trkpt lat="43.7071" lon="3.46778">
        <ele>341.9</ele>
        <time>2017-04-09T06:26:27Z</time>
      </trkpt>
      <trkpt lat="43.70714" lon="3.46777">
        <ele>341.6</ele>
        <time>2017-04-09T06:26:34Z</time>
      </trkpt>
      <trkpt lat="43.7072" lon="3.46784">
        <ele>341.3</ele>
        <time>2017-04-09T06:26:40Z</time>
      </trkpt>
      <trkpt lat="43.70729" lon="3.46784">
        <ele>341.2</ele>
        <time>2017-04-09T06:26:46Z</time>
      </trkpt>
      <trkpt lat="43.70736" lon="3.46786">
        <ele>341.2</ele>
        <time>2017-04-09T06:26:50Z</time>
      </trkpt>
      <trkpt lat="43.70745" lon="3.4679">
        <ele>341.1</ele>
        <time>2017-04-09T06:26:55Z</time>
      </trkpt>
      <trkpt lat="43.70752" lon="3.46794">
        <ele>340.9</ele>
        <time>2017-04-09T06:26:59Z</time>
      </trkpt>
      <trkpt lat="43.7076" lon="3.46797">
        <ele>340.9</ele>
        <time>2017-04-09T06:27:03Z</time>
      </trkpt>
      <trkpt lat="43.70767" lon="3.46804">
        <ele>340.8</ele>
        <time>2017-04-09T06:27:07Z</time>
      </trkpt>
      <trkpt lat="43.70769" lon="3.46815">
        <ele>340.9</ele>
        <time>2017-04-09T06:27:11Z</time>
      </trkpt>
      <trkpt lat="43.70765" lon="3.46825">
        <ele>341</ele>
        <time>2017-04-09T06:27:15Z</time>
      </trkpt>
      <trkpt lat="43.7076" lon="3.46831">
        <ele>341.2</ele>
        <time>2017-04-09T06:27:19Z</time>
      </trkpt>
      <trkpt lat="43.70753" lon="3.46838">
        <ele>341</ele>
        <time>2017-04-09T06:27:24Z</time>
      </trkpt>
      <trkpt lat="43.70745" lon="3.46844">
        <ele>340.8</ele>
        <time>2017-04-09T06:27:29Z</time>
      </trkpt>
      <trkpt lat="43.70738" lon="3.4685">
        <ele>340.7</ele>
        <time>2017-04-09T06:27:34Z</time>
      </trkpt>
      <trkpt lat="43.70732" lon="3.46857">
        <ele>340.8</ele>
        <time>2017-04-09T06:27:38Z</time>
      </trkpt>
      <trkpt lat="43.70727" lon="3.46867">
        <ele>340.6</ele>
        <time>2017-04-09T06:27:42Z</time>
      </trkpt>
      <trkpt lat="43.70722" lon="3.46875">
        <ele>340.5</ele>
        <time>2017-04-09T06:27:47Z</time>
      </trkpt>
      <trkpt lat="43.70718" lon="3.46884">
        <ele>340.5</ele>
        <time>2017-04-09T06:27:51Z</time>
      </trkpt>
      <trkpt lat="43.70715" lon="3.46893">
        <ele>340.7</ele>
        <time>2017-04-09T06:27:55Z</time>
      </trkpt>
      <trkpt lat="43.70711" lon="3.46903">
        <ele>341.2</ele>
        <time>2017-04-09T06:28:00Z</time>
      </trkpt>
      <trkpt lat="43.70707" lon="3.46914">
        <ele>341.8</ele>
        <time>2017-04-09T06:28:05Z</time>
      </trkpt>
      <trkpt lat="43.70703" lon="3.46923">
        <ele>342.2</ele>
        <time>2017-04-09T06:28:09Z</time>
      </trkpt>
      <trkpt lat="43.707" lon="3.46934">
        <ele>342.9</ele>
        <time>2017-04-09T06:28:14Z</time>
      </trkpt>
      <trkpt lat="43.70696" lon="3.46944">
        <ele>343.8</ele>
        <time>2017-04-09T06:28:19Z</time>
      </trkpt>
      <trkpt lat="43.70693" lon="3.46954">
        <ele>345</ele>
        <time>2017-04-09T06:28:24Z</time>
      </trkpt>
      <trkpt lat="43.70691" lon="3.46965">
        <ele>346</ele>
        <time>2017-04-09T06:28:28Z</time>
      </trkpt>
      <trkpt lat="43.7069" lon="3.46975">
        <ele>347</ele>
        <time>2017-04-09T06:28:32Z</time>
      </trkpt>
      <trkpt lat="43.7069" lon="3.46985">
        <ele>347.9</ele>
        <time>2017-04-09T06:28:36Z</time>
      </trkpt>
      <trkpt lat="43.7069" lon="3.46995">
        <ele>348.8</ele>
        <time>2017-04-09T06:28:40Z</time>
      </trkpt>
      <trkpt lat="43.70692" lon="3.47005">
        <ele>349.5</ele>
        <time>2017-04-09T06:28:44Z</time>
      </trkpt>
      <trkpt lat="43.70694" lon="3.47015">
        <ele>350.2</ele>
        <time>2017-04-09T06:28:48Z</time>
      </trkpt>
      <trkpt lat="43.70696" lon="3.47026">
        <ele>350.8</ele>
        <time>2017-04-09T06:28:52Z</time>
      </trkpt>
      <trkpt lat="43.707" lon="3.47035">
        <ele>351.4</ele>
        <time>2017-04-09T06:28:56Z</time>
      </trkpt>
      <trkpt lat="43.70702" lon="3.47044">
        <ele>352</ele>
        <time>2017-04-09T06:29:00Z</time>
      </trkpt>
      <trkpt lat="43.70706" lon="3.47055">
        <ele>352.5</ele>
        <time>2017-04-09T06:29:04Z</time>
      </trkpt>
      <trkpt lat="43.70709" lon="3.47064">
        <ele>352.9</ele>
        <time>2017-04-09T06:29:08Z</time>
      </trkpt>
      <trkpt lat="43.70713" lon="3.47073">
        <ele>353.3</ele>
        <time>2017-04-09T06:29:12Z</time>
      </trkpt>
      <trkpt lat="43.70718" lon="3.47081">
        <ele>353.8</ele>
        <time>2017-04-09T06:29:16Z</time>
      </trkpt>
      <trkpt lat="43.70724" lon="3.47086">
        <ele>354</ele>
        <time>2017-04-09T06:29:20Z</time>
      </trkpt>
      <trkpt lat="43.70731" lon="3.47092">
        <ele>354.3</ele>
        <time>2017-04-09T06:29:24Z</time>
      </trkpt>
      <trkpt lat="43.70738" lon="3.47097">
        <ele>354.6</ele>
        <time>2017-04-09T06:29:28Z</time>
      </trkpt>
      <trkpt lat="43.70745" lon="3.47101">
        <ele>355</ele>
        <time>2017-04-09T06:29:32Z</time>
      </trkpt>
      <trkpt lat="43.70754" lon="3.47104">
        <ele>355.7</ele>
        <time>2017-04-09T06:29:37Z</time>
      </trkpt>
      <trkpt lat="43.7076" lon="3.47107">
        <ele>356</ele>
        <time>2017-04-09T06:29:41Z</time>
      </trkpt>
      <trkpt lat="43.70768" lon="3.47111">
        <ele>356.2</ele>
        <time>2017-04-09T06:29:45Z</time>
      </trkpt>
      <trkpt lat="43.70776" lon="3.47114">
        <ele>356.7</ele>
        <time>2017-04-09T06:29:49Z</time>
      </trkpt>
      <trkpt lat="43.70785" lon="3.47115">
        <ele>357.2</ele>
        <time>2017-04-09T06:29:54Z</time>
      </trkpt>
      <trkpt lat="43.70793" lon="3.47117">
        <ele>357.2</ele>
        <time>2017-04-09T06:29:59Z</time>
      </trkpt>
      <trkpt lat="43.70802" lon="3.47118">
        <ele>357.2</ele>
        <time>2017-04-09T06:30:04Z</time>
      </trkpt>
      <trkpt lat="43.70811" lon="3.47119">
        <ele>357.6</ele>
        <time>2017-04-09T06:30:09Z</time>
      </trkpt>
      <trkpt lat="43.7082" lon="3.47119">
        <ele>358.4</ele>
        <time>2017-04-09T06:30:14Z</time>
      </trkpt>
      <trkpt lat="43.70829" lon="3.4712">
        <ele>358.8</ele>
        <time>2017-04-09T06:30:18Z</time>
      </trkpt>
      <trkpt lat="43.70836" lon="3.47122">
        <ele>359.5</ele>
        <time>2017-04-09T06:30:22Z</time>
      </trkpt>
      <trkpt lat="43.70845" lon="3.47122">
        <ele>360.3</ele>
        <time>2017-04-09T06:30:27Z</time>
      </trkpt>
      <trkpt lat="43.70852" lon="3.47122">
        <ele>360.7</ele>
        <time>2017-04-09T06:30:30Z</time>
      </trkpt>
      <trkpt lat="43.70861" lon="3.47122">
        <ele>361.1</ele>
        <time>2017-04-09T06:30:34Z</time>
      </trkpt>
      <trkpt lat="43.7087" lon="3.47119">
        <ele>361.7</ele>
        <time>2017-04-09T06:30:38Z</time>
      </trkpt>
      <trkpt lat="43.70877" lon="3.47117">
        <ele>362.4</ele>
        <time>2017-04-09T06:30:42Z</time>
      </trkpt>
      <trkpt lat="43.70885" lon="3.47116">
        <ele>362.8</ele>
        <time>2017-04-09T06:30:46Z</time>
      </trkpt>
      <trkpt lat="43.70892" lon="3.47113">
        <ele>363</ele>
        <time>2017-04-09T06:30:49Z</time>
      </trkpt>
      <trkpt lat="43.709" lon="3.47112">
        <ele>363.4</ele>
        <time>2017-04-09T06:30:52Z</time>
      </trkpt>
      <trkpt lat="43.70908" lon="3.47109">
        <ele>363.7</ele>
        <time>2017-04-09T06:30:55Z</time>
      </trkpt>
      <trkpt lat="43.70916" lon="3.47106">
        <ele>364.3</ele>
        <time>2017-04-09T06:30:59Z</time>
      </trkpt>
      <trkpt lat="43.70923" lon="3.47102">
        <ele>364.8</ele>
        <time>2017-04-09T06:31:03Z</time>
      </trkpt>
      <trkpt lat="43.70931" lon="3.47097">
        <ele>365.5</ele>
        <time>2017-04-09T06:31:07Z</time>
      </trkpt>
      <trkpt lat="43.70938" lon="3.47092">
        <ele>366.3</ele>
        <time>2017-04-09T06:31:11Z</time>
      </trkpt>
      <trkpt lat="43.70945" lon="3.47087">
        <ele>367</ele>
        <time>2017-04-09T06:31:15Z</time>
      </trkpt>
      <trkpt lat="43.70952" lon="3.47081">
        <ele>367.7</ele>
        <time>2017-04-09T06:31:19Z</time>
      </trkpt>
      <trkpt lat="43.70959" lon="3.47074">
        <ele>368.3</ele>
        <time>2017-04-09T06:31:23Z</time>
      </trkpt>
      <trkpt lat="43.70966" lon="3.47068">
        <ele>368.9</ele>
        <time>2017-04-09T06:31:27Z</time>
      </trkpt>
      <trkpt lat="43.70972" lon="3.47061">
        <ele>369.5</ele>
        <time>2017-04-09T06:31:31Z</time>
      </trkpt>
      <trkpt lat="43.70978" lon="3.47054">
        <ele>370.3</ele>
        <time>2017-04-09T06:31:35Z</time>
      </trkpt>
      <trkpt lat="43.70985" lon="3.47047">
        <ele>371.2</ele>
        <time>2017-04-09T06:31:39Z</time>
      </trkpt>
      <trkpt lat="43.70991" lon="3.47041">
        <ele>372</ele>
        <time>2017-04-09T06:31:43Z</time>
      </trkpt>
      <trkpt lat="43.70997" lon="3.47033">
        <ele>372.6</ele>
        <time>2017-04-09T06:31:47Z</time>
      </trkpt>
      <trkpt lat="43.71004" lon="3.47025">
        <ele>373.4</ele>
        <time>2017-04-09T06:31:51Z</time>
      </trkpt>
      <trkpt lat="43.7101" lon="3.47018">
        <ele>374.2</ele>
        <time>2017-04-09T06:31:55Z</time>
      </trkpt>
      <trkpt lat="43.71016" lon="3.4701">
        <ele>375.1</ele>
        <time>2017-04-09T06:31:59Z</time>
      </trkpt>
      <trkpt lat="43.71022" lon="3.47003">
        <ele>375.8</ele>
        <time>2017-04-09T06:32:03Z</time>
      </trkpt>
      <trkpt lat="43.71028" lon="3.46995">
        <ele>376.4</ele>
        <time>2017-04-09T06:32:07Z</time>
      </trkpt>
      <trkpt lat="43.71035" lon="3.46987">
        <ele>377.2</ele>
        <time>2017-04-09T06:32:11Z</time>
      </trkpt>
      <trkpt lat="43.71041" lon="3.46981">
        <ele>378</ele>
        <time>2017-04-09T06:32:15Z</time>
      </trkpt>
      <trkpt lat="43.71049" lon="3.46975">
        <ele>378.8</ele>
        <time>2017-04-09T06:32:19Z</time>
      </trkpt>
      <trkpt lat="43.71057" lon="3.4697">
        <ele>379.6</ele>
        <time>2017-04-09T06:32:23Z</time>
      </trkpt>
      <trkpt lat="43.71065" lon="3.46966">
        <ele>380.4</ele>
        <time>2017-04-09T06:32:27Z</time>
      </trkpt>
      <trkpt lat="43.71073" lon="3.46962">
        <ele>381.3</ele>
        <time>2017-04-09T06:32:31Z</time>
      </trkpt>
      <trkpt lat="43.7108" lon="3.4696">
        <ele>382</ele>
        <time>2017-04-09T06:32:35Z</time>
      </trkpt>
      <trkpt lat="43.71088" lon="3.46957">
        <ele>382.3</ele>
        <time>2017-04-09T06:32:39Z</time>
      </trkpt>
      <trkpt lat="43.71097" lon="3.46956">
        <ele>382.8</ele>
        <time>2017-04-09T06:32:43Z</time>
      </trkpt>
      <trkpt lat="43.71105" lon="3.46954">
        <ele>383.4</ele>
        <time>2017-04-09T06:32:47Z</time>
      </trkpt>
      <trkpt lat="43.71114" lon="3.46951">
        <ele>384.1</ele>
        <time>2017-04-09T06:32:51Z</time>
      </trkpt>
      <trkpt lat="43.71121" lon="3.46949">
        <ele>384.7</ele>
        <time>2017-04-09T06:32:55Z</time>
      </trkpt>
      <trkpt lat="43.7113" lon="3.46947">
        <ele>385.3</ele>
        <time>2017-04-09T06:32:59Z</time>
      </trkpt>
      <trkpt lat="43.71139" lon="3.46945">
        <ele>386</ele>
        <time>2017-04-09T06:33:03Z</time>
      </trkpt>
      <trkpt lat="43.71148" lon="3.46943">
        <ele>386.7</ele>
        <time>2017-04-09T06:33:07Z</time>
      </trkpt>
      <trkpt lat="43.71156" lon="3.46941">
        <ele>387.3</ele>
        <time>2017-04-09T06:33:11Z</time>
      </trkpt>
      <trkpt lat="43.71166" lon="3.46939">
        <ele>388.1</ele>
        <time>2017-04-09T06:33:15Z</time>
      </trkpt>
      <trkpt lat="43.71174" lon="3.46936">
        <ele>388.8</ele>
        <time>2017-04-09T06:33:19Z</time>
      </trkpt>
      <trkpt lat="43.71181" lon="3.46934">
        <ele>389.5</ele>
        <time>2017-04-09T06:33:23Z</time>
      </trkpt>
      <trkpt lat="43.7119" lon="3.46932">
        <ele>390</ele>
        <time>2017-04-09T06:33:27Z</time>
      </trkpt>
      <trkpt lat="43.71199" lon="3.46931">
        <ele>390.4</ele>
        <time>2017-04-09T06:33:31Z</time>
      </trkpt>
      <trkpt lat="43.71207" lon="3.4693">
        <ele>390.9</ele>
        <time>2017-04-09T06:33:35Z</time>
      </trkpt>
      <trkpt lat="43.71216" lon="3.46933">
        <ele>391.3</ele>
        <time>2017-04-09T06:33:39Z</time>
      </trkpt>
      <trkpt lat="43.71224" lon="3.46938">
        <ele>391.8</ele>
        <time>2017-04-09T06:33:43Z</time>
      </trkpt>
      <trkpt lat="43.7123" lon="3.46946">
        <ele>392.4</ele>
        <time>2017-04-09T06:33:47Z</time>
      </trkpt>
      <trkpt lat="43.71234" lon="3.46957">
        <ele>393.1</ele>
        <time>2017-04-09T06:33:51Z</time>
      </trkpt>
      <trkpt lat="43.71238" lon="3.46969">
        <ele>393.9</ele>
        <time>2017-04-09T06:33:55Z</time>
      </trkpt>
      <trkpt lat="43.71242" lon="3.4698">
        <ele>394.6</ele>
        <time>2017-04-09T06:33:59Z</time>
      </trkpt>
      <trkpt lat="43.71249" lon="3.46989">
        <ele>395.4</ele>
        <time>2017-04-09T06:34:03Z</time>
      </trkpt>
      <trkpt lat="43.71258" lon="3.46988">
        <ele>396.1</ele>
        <time>2017-04-09T06:34:07Z</time>
      </trkpt>
      <trkpt lat="43.71262" lon="3.46981">
        <ele>396.6</ele>
        <time>2017-04-09T06:34:10Z</time>
      </trkpt>
      <trkpt lat="43.71266" lon="3.4697">
        <ele>396.9</ele>
        <time>2017-04-09T06:34:13Z</time>
      </trkpt>
      <trkpt lat="43.71268" lon="3.4696">
        <ele>397.4</ele>
        <time>2017-04-09T06:34:16Z</time>
      </trkpt>
      <trkpt lat="43.71271" lon="3.46948">
        <ele>398</ele>
        <time>2017-04-09T06:34:20Z</time>
      </trkpt>
      <trkpt lat="43.71274" lon="3.46938">
        <ele>398.5</ele>
        <time>2017-04-09T06:34:23Z</time>
      </trkpt>
      <trkpt lat="43.71277" lon="3.46925">
        <ele>399.1</ele>
        <time>2017-04-09T06:34:27Z</time>
      </trkpt>
      <trkpt lat="43.71281" lon="3.46915">
        <ele>399.7</ele>
        <time>2017-04-09T06:34:31Z</time>
      </trkpt>
      <trkpt lat="43.71285" lon="3.46907">
        <ele>400.1</ele>
        <time>2017-04-09T06:34:34Z</time>
      </trkpt>
      <trkpt lat="43.7129" lon="3.46898">
        <ele>400.5</ele>
        <time>2017-04-09T06:34:37Z</time>
      </trkpt>
      <trkpt lat="43.71295" lon="3.46891">
        <ele>400.9</ele>
        <time>2017-04-09T06:34:40Z</time>
      </trkpt>
      <trkpt lat="43.713" lon="3.46883">
        <ele>401.3</ele>
        <time>2017-04-09T06:34:43Z</time>
      </trkpt>
      <trkpt lat="43.71305" lon="3.46875">
        <ele>401.7</ele>
        <time>2017-04-09T06:34:46Z</time>
      </trkpt>
      <trkpt lat="43.7131" lon="3.46866">
        <ele>402.4</ele>
        <time>2017-04-09T06:34:50Z</time>
      </trkpt>
      <trkpt lat="43.71313" lon="3.46856">
        <ele>402.9</ele>
        <time>2017-04-09T06:34:53Z</time>
      </trkpt>
      <trkpt lat="43.71315" lon="3.46844">
        <ele>403.8</ele>
        <time>2017-04-09T06:34:57Z</time>
      </trkpt>
      <trkpt lat="43.71315" lon="3.46834">
        <ele>404.4</ele>
        <time>2017-04-09T06:35:00Z</time>
      </trkpt>
      <trkpt lat="43.71314" lon="3.46821">
        <ele>405.2</ele>
        <time>2017-04-09T06:35:04Z</time>
      </trkpt>
      <trkpt lat="43.71313" lon="3.46808">
        <ele>406.1</ele>
        <time>2017-04-09T06:35:08Z</time>
      </trkpt>
      <trkpt lat="43.71311" lon="3.46795">
        <ele>406.8</ele>
        <time>2017-04-09T06:35:12Z</time>
      </trkpt>
      <trkpt lat="43.71309" lon="3.46786">
        <ele>407.4</ele>
        <time>2017-04-09T06:35:15Z</time>
      </trkpt>
      <trkpt lat="43.71307" lon="3.46773">
        <ele>408.1</ele>
        <time>2017-04-09T06:35:19Z</time>
      </trkpt>
      <trkpt lat="43.71304" lon="3.4676">
        <ele>408.7</ele>
        <time>2017-04-09T06:35:23Z</time>
      </trkpt>
      <trkpt lat="43.71301" lon="3.46748">
        <ele>409.3</ele>
        <time>2017-04-09T06:35:27Z</time>
      </trkpt>
      <trkpt lat="43.71298" lon="3.46737">
        <ele>409.8</ele>
        <time>2017-04-09T06:35:31Z</time>
      </trkpt>
      <trkpt lat="43.71296" lon="3.46727">
        <ele>410.2</ele>
        <time>2017-04-09T06:35:34Z</time>
      </trkpt>
      <trkpt lat="43.71292" lon="3.46715">
        <ele>410.7</ele>
        <time>2017-04-09T06:35:38Z</time>
      </trkpt>
      <trkpt lat="43.71289" lon="3.46703">
        <ele>411.1</ele>
        <time>2017-04-09T06:35:42Z</time>
      </trkpt>
      <trkpt lat="43.71287" lon="3.46692">
        <ele>411.6</ele>
        <time>2017-04-09T06:35:45Z</time>
      </trkpt>
      <trkpt lat="43.71287" lon="3.46682">
        <ele>412.1</ele>
        <time>2017-04-09T06:35:48Z</time>
      </trkpt>
      <trkpt lat="43.71286" lon="3.46672">
        <ele>412.7</ele>
        <time>2017-04-09T06:35:51Z</time>
      </trkpt>
      <trkpt lat="43.71282" lon="3.46659">
        <ele>413.4</ele>
        <time>2017-04-09T06:35:55Z</time>
      </trkpt>
      <trkpt lat="43.71275" lon="3.46653">
        <ele>413.9</ele>
        <time>2017-04-09T06:35:58Z</time>
      </trkpt>
      <trkpt lat="43.71268" lon="3.46649">
        <ele>414.4</ele>
        <time>2017-04-09T06:36:01Z</time>
      </trkpt>
      <trkpt lat="43.7126" lon="3.46645">
        <ele>414.9</ele>
        <time>2017-04-09T06:36:04Z</time>
      </trkpt>
      <trkpt lat="43.71252" lon="3.4664">
        <ele>415.5</ele>
        <time>2017-04-09T06:36:08Z</time>
      </trkpt>
      <trkpt lat="43.71247" lon="3.46632">
        <ele>415.9</ele>
        <time>2017-04-09T06:36:11Z</time>
      </trkpt>
      <trkpt lat="43.71243" lon="3.46623">
        <ele>416.3</ele>
        <time>2017-04-09T06:36:14Z</time>
      </trkpt>
      <trkpt lat="43.71241" lon="3.46611">
        <ele>416.7</ele>
        <time>2017-04-09T06:36:17Z</time>
      </trkpt>
      <trkpt lat="43.71242" lon="3.46601">
        <ele>417</ele>
        <time>2017-04-09T06:36:20Z</time>
      </trkpt>
      <trkpt lat="43.71245" lon="3.4659">
        <ele>417.3</ele>
        <time>2017-04-09T06:36:23Z</time>
      </trkpt>
      <trkpt lat="43.71248" lon="3.46581">
        <ele>417.4</ele>
        <time>2017-04-09T06:36:26Z</time>
      </trkpt>
      <trkpt lat="43.71255" lon="3.46571">
        <ele>417.6</ele>
        <time>2017-04-09T06:36:30Z</time>
      </trkpt>
      <trkpt lat="43.71262" lon="3.46567">
        <ele>417.8</ele>
        <time>2017-04-09T06:36:34Z</time>
      </trkpt>
      <trkpt lat="43.71269" lon="3.46565">
        <ele>418</ele>
        <time>2017-04-09T06:36:37Z</time>
      </trkpt>
      <trkpt lat="43.71277" lon="3.46563">
        <ele>418.2</ele>
        <time>2017-04-09T06:36:41Z</time>
      </trkpt>
      <trkpt lat="43.71285" lon="3.46561">
        <ele>418.6</ele>
        <time>2017-04-09T06:36:45Z</time>
      </trkpt>
      <trkpt lat="43.71294" lon="3.46558">
        <ele>419</ele>
        <time>2017-04-09T06:36:49Z</time>
      </trkpt>
      <trkpt lat="43.71303" lon="3.46556">
        <ele>419.4</ele>
        <time>2017-04-09T06:36:53Z</time>
      </trkpt>
      <trkpt lat="43.71313" lon="3.46554">
        <ele>419.9</ele>
        <time>2017-04-09T06:36:57Z</time>
      </trkpt>
      <trkpt lat="43.7132" lon="3.46554">
        <ele>420.2</ele>
        <time>2017-04-09T06:37:00Z</time>
      </trkpt>
      <trkpt lat="43.71328" lon="3.46554">
        <ele>420.5</ele>
        <time>2017-04-09T06:37:03Z</time>
      </trkpt>
      <trkpt lat="43.71336" lon="3.46555">
        <ele>420.8</ele>
        <time>2017-04-09T06:37:06Z</time>
      </trkpt>
      <trkpt lat="43.71344" lon="3.46557">
        <ele>421.1</ele>
        <time>2017-04-09T06:37:09Z</time>
      </trkpt>
      <trkpt lat="43.71353" lon="3.46557">
        <ele>421.4</ele>
        <time>2017-04-09T06:37:12Z</time>
      </trkpt>
      <trkpt lat="43.71361" lon="3.46557">
        <ele>421.8</ele>
        <time>2017-04-09T06:37:15Z</time>
      </trkpt>
      <trkpt lat="43.71369" lon="3.46557">
        <ele>422.1</ele>
        <time>2017-04-09T06:37:18Z</time>
      </trkpt>
      <trkpt lat="43.71377" lon="3.46555">
        <ele>422.5</ele>
        <time>2017-04-09T06:37:21Z</time>
      </trkpt>
      <trkpt lat="43.71386" lon="3.46552">
        <ele>423</ele>
        <time>2017-04-09T06:37:24Z</time>
      </trkpt>
      <trkpt lat="43.71395" lon="3.46549">
        <ele>423.3</ele>
        <time>2017-04-09T06:37:27Z</time>
      </trkpt>
      <trkpt lat="43.71403" lon="3.46547">
        <ele>423.5</ele>
        <time>2017-04-09T06:37:30Z</time>
      </trkpt>
      <trkpt lat="43.71411" lon="3.46546">
        <ele>423.7</ele>
        <time>2017-04-09T06:37:33Z</time>
      </trkpt>
      <trkpt lat="43.71418" lon="3.46544">
        <ele>423.9</ele>
        <time>2017-04-09T06:37:36Z</time>
      </trkpt>
      <trkpt lat="43.71427" lon="3.46541">
        <ele>424.1</ele>
        <time>2017-04-09T06:37:39Z</time>
      </trkpt>
      <trkpt lat="43.71435" lon="3.46539">
        <ele>424.3</ele>
        <time>2017-04-09T06:37:42Z</time>
      </trkpt>
      <trkpt lat="43.71444" lon="3.46535">
        <ele>424.7</ele>
        <time>2017-04-09T06:37:46Z</time>
      </trkpt>
      <trkpt lat="43.71452" lon="3.46533">
        <ele>425</ele>
        <time>2017-04-09T06:37:49Z</time>
      </trkpt>
      <trkpt lat="43.71459" lon="3.4653">
        <ele>425.2</ele>
        <time>2017-04-09T06:37:52Z</time>
      </trkpt>
      <trkpt lat="43.71468" lon="3.46528">
        <ele>425.5</ele>
        <time>2017-04-09T06:37:56Z</time>
      </trkpt>
      <trkpt lat="43.71477" lon="3.46524">
        <ele>425.7</ele>
        <time>2017-04-09T06:38:00Z</time>
      </trkpt>
      <trkpt lat="43.71484" lon="3.46518">
        <ele>426</ele>
        <time>2017-04-09T06:38:03Z</time>
      </trkpt>
      <trkpt lat="43.71491" lon="3.46509">
        <ele>426.3</ele>
        <time>2017-04-09T06:38:07Z</time>
      </trkpt>
      <trkpt lat="43.71495" lon="3.46501">
        <ele>426.4</ele>
        <time>2017-04-09T06:38:10Z</time>
      </trkpt>
      <trkpt lat="43.71499" lon="3.46491">
        <ele>426.4</ele>
        <time>2017-04-09T06:38:13Z</time>
      </trkpt>
      <trkpt lat="43.71503" lon="3.4648">
        <ele>426.2</ele>
        <time>2017-04-09T06:38:17Z</time>
      </trkpt>
      <trkpt lat="43.71506" lon="3.4647">
        <ele>426.1</ele>
        <time>2017-04-09T06:38:20Z</time>
      </trkpt>
      <trkpt lat="43.7151" lon="3.46461">
        <ele>426.1</ele>
        <time>2017-04-09T06:38:23Z</time>
      </trkpt>
      <trkpt lat="43.71514" lon="3.46451">
        <ele>426.2</ele>
        <time>2017-04-09T06:38:26Z</time>
      </trkpt>
      <trkpt lat="43.7152" lon="3.4644">
        <ele>426.2</ele>
        <time>2017-04-09T06:38:29Z</time>
      </trkpt>
      <trkpt lat="43.71526" lon="3.46432">
        <ele>426.1</ele>
        <time>2017-04-09T06:38:31Z</time>
      </trkpt>
      <trkpt lat="43.71533" lon="3.46425">
        <ele>426</ele>
        <time>2017-04-09T06:38:34Z</time>
      </trkpt>
      <trkpt lat="43.71541" lon="3.46419">
        <ele>426</ele>
        <time>2017-04-09T06:38:37Z</time>
      </trkpt>
      <trkpt lat="43.71548" lon="3.46413">
        <ele>426</ele>
        <time>2017-04-09T06:38:40Z</time>
      </trkpt>
      <trkpt lat="43.71556" lon="3.46409">
        <ele>425.9</ele>
        <time>2017-04-09T06:38:43Z</time>
      </trkpt>
      <trkpt lat="43.71564" lon="3.46402">
        <ele>425.9</ele>
        <time>2017-04-09T06:38:46Z</time>
      </trkpt>
      <trkpt lat="43.71572" lon="3.46397">
        <ele>425.9</ele>
        <time>2017-04-09T06:38:49Z</time>
      </trkpt>
      <trkpt lat="43.7158" lon="3.46389">
        <ele>426</ele>
        <time>2017-04-09T06:38:52Z</time>
      </trkpt>
      <trkpt lat="43.71589" lon="3.46379">
        <ele>426.2</ele>
        <time>2017-04-09T06:38:55Z</time>
      </trkpt>
      <trkpt lat="43.71594" lon="3.46373">
        <ele>426.3</ele>
        <time>2017-04-09T06:38:57Z</time>
      </trkpt>
      <trkpt lat="43.71598" lon="3.46365">
        <ele>426.6</ele>
        <time>2017-04-09T06:38:59Z</time>
      </trkpt>
      <trkpt lat="43.71604" lon="3.46353">
        <ele>426.7</ele>
        <time>2017-04-09T06:39:02Z</time>
      </trkpt>
      <trkpt lat="43.71609" lon="3.46341">
        <ele>426.7</ele>
        <time>2017-04-09T06:39:05Z</time>
      </trkpt>
      <trkpt lat="43.71614" lon="3.46329">
        <ele>426.6</ele>
        <time>2017-04-09T06:39:08Z</time>
      </trkpt>
      <trkpt lat="43.71618" lon="3.4632">
        <ele>426.6</ele>
        <time>2017-04-09T06:39:10Z</time>
      </trkpt>
      <trkpt lat="43.71624" lon="3.4631">
        <ele>426.7</ele>
        <time>2017-04-09T06:39:13Z</time>
      </trkpt>
      <trkpt lat="43.7163" lon="3.46298">
        <ele>426.8</ele>
        <time>2017-04-09T06:39:16Z</time>
      </trkpt>
      <trkpt lat="43.71635" lon="3.46287">
        <ele>427</ele>
        <time>2017-04-09T06:39:19Z</time>
      </trkpt>
      <trkpt lat="43.71639" lon="3.46276">
        <ele>427.1</ele>
        <time>2017-04-09T06:39:22Z</time>
      </trkpt>
      <trkpt lat="43.71643" lon="3.46264">
        <ele>427.4</ele>
        <time>2017-04-09T06:39:25Z</time>
      </trkpt>
      <trkpt lat="43.71648" lon="3.46251">
        <ele>427.8</ele>
        <time>2017-04-09T06:39:28Z</time>
      </trkpt>
      <trkpt lat="43.7165" lon="3.46237">
        <ele>428.1</ele>
        <time>2017-04-09T06:39:31Z</time>
      </trkpt>
      <trkpt lat="43.71651" lon="3.46222">
        <ele>428.3</ele>
        <time>2017-04-09T06:39:34Z</time>
      </trkpt>
      <trkpt lat="43.71653" lon="3.46211">
        <ele>429.2</ele>
        <time>2017-04-09T06:39:36Z</time>
      </trkpt>
      <trkpt lat="43.71656" lon="3.46198">
        <ele>429.4</ele>
        <time>2017-04-09T06:39:39Z</time>
      </trkpt>
      <trkpt lat="43.7166" lon="3.46187">
        <ele>429.5</ele>
        <time>2017-04-09T06:39:42Z</time>
      </trkpt>
      <trkpt lat="43.71664" lon="3.46176">
        <ele>429.5</ele>
        <time>2017-04-09T06:39:45Z</time>
      </trkpt>
      <trkpt lat="43.7167" lon="3.46165">
        <ele>429.6</ele>
        <time>2017-04-09T06:39:48Z</time>
      </trkpt>
      <trkpt lat="43.71676" lon="3.46154">
        <ele>429.6</ele>
        <time>2017-04-09T06:39:51Z</time>
      </trkpt>
      <trkpt lat="43.71681" lon="3.46144">
        <ele>429.6</ele>
        <time>2017-04-09T06:39:54Z</time>
      </trkpt>
      <trkpt lat="43.71688" lon="3.46134">
        <ele>429.7</ele>
        <time>2017-04-09T06:39:57Z</time>
      </trkpt>
      <trkpt lat="43.71694" lon="3.46124">
        <ele>429.7</ele>
        <time>2017-04-09T06:40:00Z</time>
      </trkpt>
      <trkpt lat="43.71699" lon="3.46114">
        <ele>429.5</ele>
        <time>2017-04-09T06:40:03Z</time>
      </trkpt>
      <trkpt lat="43.71702" lon="3.46105">
        <ele>429.5</ele>
        <time>2017-04-09T06:40:05Z</time>
      </trkpt>
      <trkpt lat="43.71707" lon="3.46092">
        <ele>429.5</ele>
        <time>2017-04-09T06:40:08Z</time>
      </trkpt>
      <trkpt lat="43.7171" lon="3.46078">
        <ele>429.5</ele>
        <time>2017-04-09T06:40:11Z</time>
      </trkpt>
      <trkpt lat="43.71712" lon="3.46069">
        <ele>429.5</ele>
        <time>2017-04-09T06:40:13Z</time>
      </trkpt>
      <trkpt lat="43.71716" lon="3.46057">
        <ele>429.5</ele>
        <time>2017-04-09T06:40:16Z</time>
      </trkpt>
      <trkpt lat="43.71719" lon="3.46045">
        <ele>429.4</ele>
        <time>2017-04-09T06:40:19Z</time>
      </trkpt>
      <trkpt lat="43.71725" lon="3.46035">
        <ele>429.3</ele>
        <time>2017-04-09T06:40:22Z</time>
      </trkpt>
      <trkpt lat="43.71732" lon="3.46025">
        <ele>429.3</ele>
        <time>2017-04-09T06:40:25Z</time>
      </trkpt>
      <trkpt lat="43.71739" lon="3.46016">
        <ele>429.4</ele>
        <time>2017-04-09T06:40:28Z</time>
      </trkpt>
      <trkpt lat="43.71747" lon="3.46007">
        <ele>429.5</ele>
        <time>2017-04-09T06:40:31Z</time>
      </trkpt>
      <trkpt lat="43.71753" lon="3.46">
        <ele>429.7</ele>
        <time>2017-04-09T06:40:33Z</time>
      </trkpt>
      <trkpt lat="43.71757" lon="3.4599">
        <ele>429.9</ele>
        <time>2017-04-09T06:40:35Z</time>
      </trkpt>
      <trkpt lat="43.71762" lon="3.45979">
        <ele>430.2</ele>
        <time>2017-04-09T06:40:38Z</time>
      </trkpt>
      <trkpt lat="43.71768" lon="3.45968">
        <ele>430.6</ele>
        <time>2017-04-09T06:40:41Z</time>
      </trkpt>
      <trkpt lat="43.71774" lon="3.4596">
        <ele>430.8</ele>
        <time>2017-04-09T06:40:44Z</time>
      </trkpt>
      <trkpt lat="43.71782" lon="3.45957">
        <ele>431</ele>
        <time>2017-04-09T06:40:47Z</time>
      </trkpt>
      <trkpt lat="43.7179" lon="3.45956">
        <ele>431</ele>
        <time>2017-04-09T06:40:49Z</time>
      </trkpt>
      <trkpt lat="43.718" lon="3.45955">
        <ele>431.2</ele>
        <time>2017-04-09T06:40:52Z</time>
      </trkpt>
      <trkpt lat="43.71807" lon="3.45954">
        <ele>431.3</ele>
        <time>2017-04-09T06:40:54Z</time>
      </trkpt>
      <trkpt lat="43.71815" lon="3.45951">
        <ele>431.3</ele>
        <time>2017-04-09T06:40:56Z</time>
      </trkpt>
      <trkpt lat="43.71824" lon="3.45947">
        <ele>431.3</ele>
        <time>2017-04-09T06:40:59Z</time>
      </trkpt>
      <trkpt lat="43.71832" lon="3.45942">
        <ele>431.4</ele>
        <time>2017-04-09T06:41:02Z</time>
      </trkpt>
      <trkpt lat="43.71841" lon="3.45936">
        <ele>431.5</ele>
        <time>2017-04-09T06:41:05Z</time>
      </trkpt>
      <trkpt lat="43.7185" lon="3.45929">
        <ele>431.6</ele>
        <time>2017-04-09T06:41:08Z</time>
      </trkpt>
      <trkpt lat="43.71857" lon="3.4592">
        <ele>431.9</ele>
        <time>2017-04-09T06:41:11Z</time>
      </trkpt>
      <trkpt lat="43.71864" lon="3.45911">
        <ele>432.1</ele>
        <time>2017-04-09T06:41:14Z</time>
      </trkpt>
      <trkpt lat="43.7187" lon="3.45904">
        <ele>432.3</ele>
        <time>2017-04-09T06:41:16Z</time>
      </trkpt>
      <trkpt lat="43.71879" lon="3.45899">
        <ele>432.7</ele>
        <time>2017-04-09T06:41:19Z</time>
      </trkpt>
      <trkpt lat="43.71889" lon="3.45896">
        <ele>432.9</ele>
        <time>2017-04-09T06:41:22Z</time>
      </trkpt>
      <trkpt lat="43.71897" lon="3.45891">
        <ele>433</ele>
        <time>2017-04-09T06:41:25Z</time>
      </trkpt>
      <trkpt lat="43.71906" lon="3.45884">
        <ele>433.1</ele>
        <time>2017-04-09T06:41:28Z</time>
      </trkpt>
      <trkpt lat="43.71916" lon="3.45878">
        <ele>433.2</ele>
        <time>2017-04-09T06:41:31Z</time>
      </trkpt>
      <trkpt lat="43.71926" lon="3.45877">
        <ele>433.4</ele>
        <time>2017-04-09T06:41:34Z</time>
      </trkpt>
      <trkpt lat="43.71936" lon="3.45882">
        <ele>433.5</ele>
        <time>2017-04-09T06:41:37Z</time>
      </trkpt>
      <trkpt lat="43.71943" lon="3.45887">
        <ele>433.6</ele>
        <time>2017-04-09T06:41:39Z</time>
      </trkpt>
      <trkpt lat="43.71951" lon="3.45893">
        <ele>433.7</ele>
        <time>2017-04-09T06:41:42Z</time>
      </trkpt>
      <trkpt lat="43.71957" lon="3.459">
        <ele>433.8</ele>
        <time>2017-04-09T06:41:44Z</time>
      </trkpt>
      <trkpt lat="43.71964" lon="3.45906">
        <ele>434.9</ele>
        <time>2017-04-09T06:41:46Z</time>
      </trkpt>
      <trkpt lat="43.7197" lon="3.45913">
        <ele>435.4</ele>
        <time>2017-04-09T06:41:48Z</time>
      </trkpt>
      <trkpt lat="43.71977" lon="3.45919">
        <ele>436.1</ele>
        <time>2017-04-09T06:41:50Z</time>
      </trkpt>
      <trkpt lat="43.71986" lon="3.45926">
        <ele>436.1</ele>
        <time>2017-04-09T06:41:53Z</time>
      </trkpt>
      <trkpt lat="43.71996" lon="3.45934">
        <ele>436.1</ele>
        <time>2017-04-09T06:41:56Z</time>
      </trkpt>
      <trkpt lat="43.72001" lon="3.45941">
        <ele>436.2</ele>
        <time>2017-04-09T06:41:59Z</time>
      </trkpt>
      <trkpt lat="43.72008" lon="3.45949">
        <ele>436.4</ele>
        <time>2017-04-09T06:42:03Z</time>
      </trkpt>
      <trkpt lat="43.72014" lon="3.45959">
        <ele>436.6</ele>
        <time>2017-04-09T06:42:07Z</time>
      </trkpt>
      <trkpt lat="43.7202" lon="3.45966">
        <ele>436.9</ele>
        <time>2017-04-09T06:42:11Z</time>
      </trkpt>
      <trkpt lat="43.72028" lon="3.4597">
        <ele>437</ele>
        <time>2017-04-09T06:42:15Z</time>
      </trkpt>
      <trkpt lat="43.72037" lon="3.45967">
        <ele>437.1</ele>
        <time>2017-04-09T06:42:19Z</time>
      </trkpt>
      <trkpt lat="43.72048" lon="3.45964">
        <ele>437.6</ele>
        <time>2017-04-09T06:42:21Z</time>
      </trkpt>
      <trkpt lat="43.72058" lon="3.45958">
        <ele>437.5</ele>
        <time>2017-04-09T06:42:23Z</time>
      </trkpt>
      <trkpt lat="43.72069" lon="3.45948">
        <ele>436.9</ele>
        <time>2017-04-09T06:42:25Z</time>
      </trkpt>
      <trkpt lat="43.72075" lon="3.45942">
        <ele>436</ele>
        <time>2017-04-09T06:42:26Z</time>
      </trkpt>
      <trkpt lat="43.72082" lon="3.45936">
        <ele>435.7</ele>
        <time>2017-04-09T06:42:27Z</time>
      </trkpt>
      <trkpt lat="43.72089" lon="3.4593">
        <ele>435</ele>
        <time>2017-04-09T06:42:28Z</time>
      </trkpt>
      <trkpt lat="43.72096" lon="3.45923">
        <ele>434.2</ele>
        <time>2017-04-09T06:42:29Z</time>
      </trkpt>
      <trkpt lat="43.72104" lon="3.45917">
        <ele>433.7</ele>
        <time>2017-04-09T06:42:30Z</time>
      </trkpt>
      <trkpt lat="43.72111" lon="3.45912">
        <ele>433.2</ele>
        <time>2017-04-09T06:42:31Z</time>
      </trkpt>
      <trkpt lat="43.72118" lon="3.45907">
        <ele>432.8</ele>
        <time>2017-04-09T06:42:32Z</time>
      </trkpt>
      <trkpt lat="43.72126" lon="3.45902">
        <ele>432.2</ele>
        <time>2017-04-09T06:42:33Z</time>
      </trkpt>
      <trkpt lat="43.72133" lon="3.45899">
        <ele>431.7</ele>
        <time>2017-04-09T06:42:34Z</time>
      </trkpt>
      <trkpt lat="43.72141" lon="3.45896">
        <ele>430.9</ele>
        <time>2017-04-09T06:42:35Z</time>
      </trkpt>
      <trkpt lat="43.7215" lon="3.45892">
        <ele>430.3</ele>
        <time>2017-04-09T06:42:36Z</time>
      </trkpt>
      <trkpt lat="43.72159" lon="3.45888">
        <ele>429.7</ele>
        <time>2017-04-09T06:42:37Z</time>
      </trkpt>
      <trkpt lat="43.72168" lon="3.45883">
        <ele>429.2</ele>
        <time>2017-04-09T06:42:38Z</time>
      </trkpt>
      <trkpt lat="43.72177" lon="3.45878">
        <ele>428.9</ele>
        <time>2017-04-09T06:42:39Z</time>
      </trkpt>
      <trkpt lat="43.72185" lon="3.45873">
        <ele>428.5</ele>
        <time>2017-04-09T06:42:40Z</time>
      </trkpt>
      <trkpt lat="43.72194" lon="3.45866">
        <ele>427.8</ele>
        <time>2017-04-09T06:42:41Z</time>
      </trkpt>
      <trkpt lat="43.72203" lon="3.45859">
        <ele>427.1</ele>
        <time>2017-04-09T06:42:42Z</time>
      </trkpt>
      <trkpt lat="43.72211" lon="3.45852">
        <ele>426.6</ele>
        <time>2017-04-09T06:42:43Z</time>
      </trkpt>
      <trkpt lat="43.7222" lon="3.45847">
        <ele>425.9</ele>
        <time>2017-04-09T06:42:44Z</time>
      </trkpt>
      <trkpt lat="43.72228" lon="3.45842">
        <ele>425</ele>
        <time>2017-04-09T06:42:45Z</time>
      </trkpt>
      <trkpt lat="43.72238" lon="3.45839">
        <ele>424.3</ele>
        <time>2017-04-09T06:42:46Z</time>
      </trkpt>
      <trkpt lat="43.72247" lon="3.45836">
        <ele>423.6</ele>
        <time>2017-04-09T06:42:47Z</time>
      </trkpt>
      <trkpt lat="43.72256" lon="3.45833">
        <ele>422.8</ele>
        <time>2017-04-09T06:42:48Z</time>
      </trkpt>
      <trkpt lat="43.72264" lon="3.45831">
        <ele>422</ele>
        <time>2017-04-09T06:42:49Z</time>
      </trkpt>
      <trkpt lat="43.72274" lon="3.45829">
        <ele>421.3</ele>
        <time>2017-04-09T06:42:50Z</time>
      </trkpt>
      <trkpt lat="43.72282" lon="3.45827">
        <ele>420.6</ele>
        <time>2017-04-09T06:42:51Z</time>
      </trkpt>
      <trkpt lat="43.7229" lon="3.45825">
        <ele>420.2</ele>
        <time>2017-04-09T06:42:52Z</time>
      </trkpt>
      <trkpt lat="43.72297" lon="3.45822">
        <ele>419.8</ele>
        <time>2017-04-09T06:42:53Z</time>
      </trkpt>
      <trkpt lat="43.7231" lon="3.45817">
        <ele>419.1</ele>
        <time>2017-04-09T06:42:55Z</time>
      </trkpt>
      <trkpt lat="43.72322" lon="3.45812">
        <ele>418.3</ele>
        <time>2017-04-09T06:42:57Z</time>
      </trkpt>
      <trkpt lat="43.72334" lon="3.4581">
        <ele>417.6</ele>
        <time>2017-04-09T06:42:59Z</time>
      </trkpt>
      <trkpt lat="43.72341" lon="3.45809">
        <ele>416.9</ele>
        <time>2017-04-09T06:43:00Z</time>
      </trkpt>
      <trkpt lat="43.72348" lon="3.45808">
        <ele>416.3</ele>
        <time>2017-04-09T06:43:01Z</time>
      </trkpt>
      <trkpt lat="43.72361" lon="3.45801">
        <ele>415.5</ele>
        <time>2017-04-09T06:43:03Z</time>
      </trkpt>
      <trkpt lat="43.72368" lon="3.45796">
        <ele>415.2</ele>
        <time>2017-04-09T06:43:04Z</time>
      </trkpt>
      <trkpt lat="43.72375" lon="3.4579">
        <ele>414.7</ele>
        <time>2017-04-09T06:43:05Z</time>
      </trkpt>
      <trkpt lat="43.72386" lon="3.4578">
        <ele>413.8</ele>
        <time>2017-04-09T06:43:07Z</time>
      </trkpt>
      <trkpt lat="43.72397" lon="3.45769">
        <ele>413.7</ele>
        <time>2017-04-09T06:43:09Z</time>
      </trkpt>
      <trkpt lat="43.72401" lon="3.45757">
        <ele>413.9</ele>
        <time>2017-04-09T06:43:11Z</time>
      </trkpt>
      <trkpt lat="43.72403" lon="3.45747">
        <ele>414</ele>
        <time>2017-04-09T06:43:12Z</time>
      </trkpt>
      <trkpt lat="43.72404" lon="3.45732">
        <ele>413.5</ele>
        <time>2017-04-09T06:43:14Z</time>
      </trkpt>
      <trkpt lat="43.72407" lon="3.45719">
        <ele>413.9</ele>
        <time>2017-04-09T06:43:16Z</time>
      </trkpt>
      <trkpt lat="43.72413" lon="3.45707">
        <ele>414.7</ele>
        <time>2017-04-09T06:43:18Z</time>
      </trkpt>
      <trkpt lat="43.72419" lon="3.45696">
        <ele>414.2</ele>
        <time>2017-04-09T06:43:20Z</time>
      </trkpt>
      <trkpt lat="43.72425" lon="3.45684">
        <ele>414.1</ele>
        <time>2017-04-09T06:43:22Z</time>
      </trkpt>
      <trkpt lat="43.72431" lon="3.45671">
        <ele>413.7</ele>
        <time>2017-04-09T06:43:24Z</time>
      </trkpt>
      <trkpt lat="43.72438" lon="3.45658">
        <ele>413.4</ele>
        <time>2017-04-09T06:43:26Z</time>
      </trkpt>
      <trkpt lat="43.72444" lon="3.45647">
        <ele>413.6</ele>
        <time>2017-04-09T06:43:28Z</time>
      </trkpt>
      <trkpt lat="43.7245" lon="3.45637">
        <ele>414.2</ele>
        <time>2017-04-09T06:43:30Z</time>
      </trkpt>
      <trkpt lat="43.72456" lon="3.45625">
        <ele>414.9</ele>
        <time>2017-04-09T06:43:32Z</time>
      </trkpt>
      <trkpt lat="43.72461" lon="3.45615">
        <ele>415.5</ele>
        <time>2017-04-09T06:43:34Z</time>
      </trkpt>
      <trkpt lat="43.72465" lon="3.45605">
        <ele>415.8</ele>
        <time>2017-04-09T06:43:36Z</time>
      </trkpt>
      <trkpt lat="43.72469" lon="3.45596">
        <ele>415.1</ele>
        <time>2017-04-09T06:43:38Z</time>
      </trkpt>
      <trkpt lat="43.72473" lon="3.45587">
        <ele>414.8</ele>
        <time>2017-04-09T06:43:40Z</time>
      </trkpt>
      <trkpt lat="43.72478" lon="3.45576">
        <ele>415.5</ele>
        <time>2017-04-09T06:43:42Z</time>
      </trkpt>
      <trkpt lat="43.72481" lon="3.45566">
        <ele>416.2</ele>
        <time>2017-04-09T06:43:44Z</time>
      </trkpt>
      <trkpt lat="43.72485" lon="3.45554">
        <ele>417.5</ele>
        <time>2017-04-09T06:43:46Z</time>
      </trkpt>
      <trkpt lat="43.72488" lon="3.45542">
        <ele>417.8</ele>
        <time>2017-04-09T06:43:48Z</time>
      </trkpt>
      <trkpt lat="43.7249" lon="3.45527">
        <ele>416.9</ele>
        <time>2017-04-09T06:43:50Z</time>
      </trkpt>
      <trkpt lat="43.7249" lon="3.45513">
        <ele>416.4</ele>
        <time>2017-04-09T06:43:52Z</time>
      </trkpt>
      <trkpt lat="43.72489" lon="3.45498">
        <ele>416.4</ele>
        <time>2017-04-09T06:43:54Z</time>
      </trkpt>
      <trkpt lat="43.72488" lon="3.45482">
        <ele>416.5</ele>
        <time>2017-04-09T06:43:56Z</time>
      </trkpt>
      <trkpt lat="43.72489" lon="3.45468">
        <ele>417</ele>
        <time>2017-04-09T06:43:58Z</time>
      </trkpt>
      <trkpt lat="43.7249" lon="3.45453">
        <ele>417.7</ele>
        <time>2017-04-09T06:44:00Z</time>
      </trkpt>
      <trkpt lat="43.72492" lon="3.4544">
        <ele>419.6</ele>
        <time>2017-04-09T06:44:02Z</time>
      </trkpt>
      <trkpt lat="43.72495" lon="3.45427">
        <ele>420.3</ele>
        <time>2017-04-09T06:44:04Z</time>
      </trkpt>
      <trkpt lat="43.72496" lon="3.45417">
        <ele>419.2</ele>
        <time>2017-04-09T06:44:06Z</time>
      </trkpt>
      <trkpt lat="43.72498" lon="3.45406">
        <ele>419.1</ele>
        <time>2017-04-09T06:44:08Z</time>
      </trkpt>
      <trkpt lat="43.725" lon="3.45396">
        <ele>419.1</ele>
        <time>2017-04-09T06:44:10Z</time>
      </trkpt>
      <trkpt lat="43.72502" lon="3.45386">
        <ele>419.1</ele>
        <time>2017-04-09T06:44:12Z</time>
      </trkpt>
      <trkpt lat="43.72504" lon="3.45375">
        <ele>419.1</ele>
        <time>2017-04-09T06:44:14Z</time>
      </trkpt>
      <trkpt lat="43.72506" lon="3.45365">
        <ele>419</ele>
        <time>2017-04-09T06:44:16Z</time>
      </trkpt>
      <trkpt lat="43.72506" lon="3.45354">
        <ele>418.9</ele>
        <time>2017-04-09T06:44:18Z</time>
      </trkpt>
      <trkpt lat="43.72507" lon="3.45344">
        <ele>419.6</ele>
        <time>2017-04-09T06:44:20Z</time>
      </trkpt>
      <trkpt lat="43.72507" lon="3.4533">
        <ele>420.1</ele>
        <time>2017-04-09T06:44:22Z</time>
      </trkpt>
      <trkpt lat="43.72508" lon="3.45316">
        <ele>420.1</ele>
        <time>2017-04-09T06:44:25Z</time>
      </trkpt>
      <trkpt lat="43.72507" lon="3.45305">
        <ele>420.1</ele>
        <time>2017-04-09T06:44:27Z</time>
      </trkpt>
      <trkpt lat="43.72505" lon="3.45294">
        <ele>420</ele>
        <time>2017-04-09T06:44:29Z</time>
      </trkpt>
      <trkpt lat="43.72503" lon="3.45282">
        <ele>419.9</ele>
        <time>2017-04-09T06:44:32Z</time>
      </trkpt>
      <trkpt lat="43.72508" lon="3.45272">
        <ele>419.6</ele>
        <time>2017-04-09T06:44:34Z</time>
      </trkpt>
      <trkpt lat="43.72518" lon="3.45269">
        <ele>418.8</ele>
        <time>2017-04-09T06:44:37Z</time>
      </trkpt>
      <trkpt lat="43.72526" lon="3.45268">
        <ele>418.7</ele>
        <time>2017-04-09T06:44:39Z</time>
      </trkpt>
      <trkpt lat="43.72533" lon="3.45269">
        <ele>418.7</ele>
        <time>2017-04-09T06:44:41Z</time>
      </trkpt>
      <trkpt lat="43.7254" lon="3.4527">
        <ele>418.5</ele>
        <time>2017-04-09T06:44:43Z</time>
      </trkpt>
      <trkpt lat="43.72548" lon="3.45272">
        <ele>418.5</ele>
        <time>2017-04-09T06:44:45Z</time>
      </trkpt>
      <trkpt lat="43.72559" lon="3.45274">
        <ele>418.5</ele>
        <time>2017-04-09T06:44:48Z</time>
      </trkpt>
      <trkpt lat="43.72566" lon="3.45275">
        <ele>418.6</ele>
        <time>2017-04-09T06:44:50Z</time>
      </trkpt>
      <trkpt lat="43.72576" lon="3.45277">
        <ele>418.6</ele>
        <time>2017-04-09T06:44:53Z</time>
      </trkpt>
      <trkpt lat="43.72583" lon="3.45278">
        <ele>418.7</ele>
        <time>2017-04-09T06:44:55Z</time>
      </trkpt>
      <trkpt lat="43.72594" lon="3.45281">
        <ele>418.9</ele>
        <time>2017-04-09T06:44:58Z</time>
      </trkpt>
      <trkpt lat="43.72604" lon="3.45283">
        <ele>419.1</ele>
        <time>2017-04-09T06:45:01Z</time>
      </trkpt>
      <trkpt lat="43.72614" lon="3.45284">
        <ele>419.3</ele>
        <time>2017-04-09T06:45:04Z</time>
      </trkpt>
      <trkpt lat="43.72624" lon="3.45286">
        <ele>419.3</ele>
        <time>2017-04-09T06:45:07Z</time>
      </trkpt>
      <trkpt lat="43.72632" lon="3.45286">
        <ele>419.5</ele>
        <time>2017-04-09T06:45:10Z</time>
      </trkpt>
      <trkpt lat="43.72642" lon="3.45286">
        <ele>419.8</ele>
        <time>2017-04-09T06:45:13Z</time>
      </trkpt>
      <trkpt lat="43.72649" lon="3.45286">
        <ele>420</ele>
        <time>2017-04-09T06:45:15Z</time>
      </trkpt>
      <trkpt lat="43.7266" lon="3.45284">
        <ele>420.5</ele>
        <time>2017-04-09T06:45:18Z</time>
      </trkpt>
      <trkpt lat="43.7267" lon="3.45282">
        <ele>420.8</ele>
        <time>2017-04-09T06:45:21Z</time>
      </trkpt>
      <trkpt lat="43.7268" lon="3.4528">
        <ele>421</ele>
        <time>2017-04-09T06:45:24Z</time>
      </trkpt>
      <trkpt lat="43.72689" lon="3.45276">
        <ele>421.3</ele>
        <time>2017-04-09T06:45:27Z</time>
      </trkpt>
      <trkpt lat="43.72699" lon="3.45273">
        <ele>421.4</ele>
        <time>2017-04-09T06:45:30Z</time>
      </trkpt>
      <trkpt lat="43.72709" lon="3.45269">
        <ele>421.6</ele>
        <time>2017-04-09T06:45:33Z</time>
      </trkpt>
      <trkpt lat="43.72716" lon="3.45266">
        <ele>421.7</ele>
        <time>2017-04-09T06:45:35Z</time>
      </trkpt>
      <trkpt lat="43.72724" lon="3.45263">
        <ele>421.8</ele>
        <time>2017-04-09T06:45:37Z</time>
      </trkpt>
      <trkpt lat="43.72731" lon="3.45261">
        <ele>421.9</ele>
        <time>2017-04-09T06:45:39Z</time>
      </trkpt>
      <trkpt lat="43.7274" lon="3.45257">
        <ele>422.1</ele>
        <time>2017-04-09T06:45:42Z</time>
      </trkpt>
      <trkpt lat="43.72749" lon="3.45255">
        <ele>422.2</ele>
        <time>2017-04-09T06:45:45Z</time>
      </trkpt>
      <trkpt lat="43.72759" lon="3.45255">
        <ele>422.3</ele>
        <time>2017-04-09T06:45:48Z</time>
      </trkpt>
      <trkpt lat="43.72766" lon="3.45255">
        <ele>422.7</ele>
        <time>2017-04-09T06:45:51Z</time>
      </trkpt>
      <trkpt lat="43.72775" lon="3.45256">
        <ele>423</ele>
        <time>2017-04-09T06:45:53Z</time>
      </trkpt>
      <trkpt lat="43.72782" lon="3.45256">
        <ele>423.3</ele>
        <time>2017-04-09T06:45:56Z</time>
      </trkpt>
      <trkpt lat="43.7279" lon="3.45255">
        <ele>423.5</ele>
        <time>2017-04-09T06:45:58Z</time>
      </trkpt>
      <trkpt lat="43.728" lon="3.45254">
        <ele>423.8</ele>
        <time>2017-04-09T06:46:01Z</time>
      </trkpt>
      <trkpt lat="43.7281" lon="3.45253">
        <ele>424.2</ele>
        <time>2017-04-09T06:46:04Z</time>
      </trkpt>
      <trkpt lat="43.72819" lon="3.45253">
        <ele>424.5</ele>
        <time>2017-04-09T06:46:07Z</time>
      </trkpt>
      <trkpt lat="43.72828" lon="3.45253">
        <ele>424.7</ele>
        <time>2017-04-09T06:46:10Z</time>
      </trkpt>
      <trkpt lat="43.72839" lon="3.45254">
        <ele>424.8</ele>
        <time>2017-04-09T06:46:13Z</time>
      </trkpt>
      <trkpt lat="43.72846" lon="3.45255">
        <ele>424.9</ele>
        <time>2017-04-09T06:46:15Z</time>
      </trkpt>
      <trkpt lat="43.72856" lon="3.45255">
        <ele>425</ele>
        <time>2017-04-09T06:46:18Z</time>
      </trkpt>
      <trkpt lat="43.72867" lon="3.45254">
        <ele>425.3</ele>
        <time>2017-04-09T06:46:21Z</time>
      </trkpt>
      <trkpt lat="43.72874" lon="3.45254">
        <ele>426</ele>
        <time>2017-04-09T06:46:23Z</time>
      </trkpt>
      <trkpt lat="43.72885" lon="3.45252">
        <ele>426.2</ele>
        <time>2017-04-09T06:46:26Z</time>
      </trkpt>
      <trkpt lat="43.72893" lon="3.45251">
        <ele>426.3</ele>
        <time>2017-04-09T06:46:28Z</time>
      </trkpt>
      <trkpt lat="43.72904" lon="3.45249">
        <ele>426.5</ele>
        <time>2017-04-09T06:46:31Z</time>
      </trkpt>
      <trkpt lat="43.72914" lon="3.45248">
        <ele>426.8</ele>
        <time>2017-04-09T06:46:34Z</time>
      </trkpt>
      <trkpt lat="43.72922" lon="3.45247">
        <ele>427.1</ele>
        <time>2017-04-09T06:46:36Z</time>
      </trkpt>
      <trkpt lat="43.72932" lon="3.45246">
        <ele>427.5</ele>
        <time>2017-04-09T06:46:39Z</time>
      </trkpt>
      <trkpt lat="43.72943" lon="3.45244">
        <ele>428</ele>
        <time>2017-04-09T06:46:42Z</time>
      </trkpt>
      <trkpt lat="43.72952" lon="3.45242">
        <ele>428.4</ele>
        <time>2017-04-09T06:46:45Z</time>
      </trkpt>
      <trkpt lat="43.72959" lon="3.45238">
        <ele>428.9</ele>
        <time>2017-04-09T06:46:47Z</time>
      </trkpt>
      <trkpt lat="43.72966" lon="3.45233">
        <ele>429.3</ele>
        <time>2017-04-09T06:46:49Z</time>
      </trkpt>
      <trkpt lat="43.72973" lon="3.45229">
        <ele>431.3</ele>
        <time>2017-04-09T06:46:51Z</time>
      </trkpt>
      <trkpt lat="43.72982" lon="3.45225">
        <ele>432.2</ele>
        <time>2017-04-09T06:46:54Z</time>
      </trkpt>
      <trkpt lat="43.7299" lon="3.45223">
        <ele>432.5</ele>
        <time>2017-04-09T06:46:56Z</time>
      </trkpt>
      <trkpt lat="43.72997" lon="3.4522">
        <ele>432.6</ele>
        <time>2017-04-09T06:46:59Z</time>
      </trkpt>
      <trkpt lat="43.73006" lon="3.45216">
        <ele>432.8</ele>
        <time>2017-04-09T06:47:02Z</time>
      </trkpt>
      <trkpt lat="43.73015" lon="3.45211">
        <ele>432.9</ele>
        <time>2017-04-09T06:47:05Z</time>
      </trkpt>
      <trkpt lat="43.73024" lon="3.45207">
        <ele>433.1</ele>
        <time>2017-04-09T06:47:08Z</time>
      </trkpt>
      <trkpt lat="43.73033" lon="3.45202">
        <ele>433.2</ele>
        <time>2017-04-09T06:47:11Z</time>
      </trkpt>
      <trkpt lat="43.73041" lon="3.45198">
        <ele>433.3</ele>
        <time>2017-04-09T06:47:14Z</time>
      </trkpt>
      <trkpt lat="43.73049" lon="3.45195">
        <ele>433.5</ele>
        <time>2017-04-09T06:47:17Z</time>
      </trkpt>
      <trkpt lat="43.73057" lon="3.45199">
        <ele>433.7</ele>
        <time>2017-04-09T06:47:21Z</time>
      </trkpt>
      <trkpt lat="43.73061" lon="3.45208">
        <ele>434.1</ele>
        <time>2017-04-09T06:47:24Z</time>
      </trkpt>
      <trkpt lat="43.73067" lon="3.45216">
        <ele>434.9</ele>
        <time>2017-04-09T06:47:28Z</time>
      </trkpt>
      <trkpt lat="43.73072" lon="3.45225">
        <ele>435.6</ele>
        <time>2017-04-09T06:47:31Z</time>
      </trkpt>
      <trkpt lat="43.73077" lon="3.45234">
        <ele>436.5</ele>
        <time>2017-04-09T06:47:35Z</time>
      </trkpt>
      <trkpt lat="43.73082" lon="3.45242">
        <ele>437</ele>
        <time>2017-04-09T06:47:38Z</time>
      </trkpt>
      <trkpt lat="43.73087" lon="3.4525">
        <ele>437.5</ele>
        <time>2017-04-09T06:47:41Z</time>
      </trkpt>
      <trkpt lat="43.73093" lon="3.45258">
        <ele>438</ele>
        <time>2017-04-09T06:47:44Z</time>
      </trkpt>
      <trkpt lat="43.73098" lon="3.45266">
        <ele>438.5</ele>
        <time>2017-04-09T06:47:47Z</time>
      </trkpt>
      <trkpt lat="43.73105" lon="3.45275">
        <ele>439.3</ele>
        <time>2017-04-09T06:47:51Z</time>
      </trkpt>
      <trkpt lat="43.7311" lon="3.45282">
        <ele>439.7</ele>
        <time>2017-04-09T06:47:54Z</time>
      </trkpt>
      <trkpt lat="43.73115" lon="3.45291">
        <ele>440</ele>
        <time>2017-04-09T06:47:57Z</time>
      </trkpt>
      <trkpt lat="43.73118" lon="3.45301">
        <ele>440.7</ele>
        <time>2017-04-09T06:48:01Z</time>
      </trkpt>
      <trkpt lat="43.73119" lon="3.45314">
        <ele>441.2</ele>
        <time>2017-04-09T06:48:05Z</time>
      </trkpt>
      <trkpt lat="43.73118" lon="3.45324">
        <ele>441.4</ele>
        <time>2017-04-09T06:48:08Z</time>
      </trkpt>
      <trkpt lat="43.73116" lon="3.45334">
        <ele>441.4</ele>
        <time>2017-04-09T06:48:12Z</time>
      </trkpt>
      <trkpt lat="43.73112" lon="3.45346">
        <ele>441.3</ele>
        <time>2017-04-09T06:48:16Z</time>
      </trkpt>
      <trkpt lat="43.73115" lon="3.45356">
        <ele>441.4</ele>
        <time>2017-04-09T06:48:20Z</time>
      </trkpt>
      <trkpt lat="43.73121" lon="3.45349">
        <ele>441.6</ele>
        <time>2017-04-09T06:48:25Z</time>
      </trkpt>
      <trkpt lat="43.73124" lon="3.45339">
        <ele>442.1</ele>
        <time>2017-04-09T06:48:30Z</time>
      </trkpt>
      <trkpt lat="43.73128" lon="3.4533">
        <ele>442.5</ele>
        <time>2017-04-09T06:48:33Z</time>
      </trkpt>
      <trkpt lat="43.73132" lon="3.45321">
        <ele>442.9</ele>
        <time>2017-04-09T06:48:38Z</time>
      </trkpt>
      <trkpt lat="43.73138" lon="3.45312">
        <ele>443.8</ele>
        <time>2017-04-09T06:48:43Z</time>
      </trkpt>
      <trkpt lat="43.73143" lon="3.45303">
        <ele>444.6</ele>
        <time>2017-04-09T06:48:47Z</time>
      </trkpt>
      <trkpt lat="43.73147" lon="3.45294">
        <ele>445.3</ele>
        <time>2017-04-09T06:48:51Z</time>
      </trkpt>
      <trkpt lat="43.73153" lon="3.45284">
        <ele>446.1</ele>
        <time>2017-04-09T06:48:56Z</time>
      </trkpt>
      <trkpt lat="43.73158" lon="3.45276">
        <ele>446.7</ele>
        <time>2017-04-09T06:49:00Z</time>
      </trkpt>
      <trkpt lat="43.73164" lon="3.45268">
        <ele>447.4</ele>
        <time>2017-04-09T06:49:04Z</time>
      </trkpt>
      <trkpt lat="43.73166" lon="3.45256">
        <ele>447.8</ele>
        <time>2017-04-09T06:49:08Z</time>
      </trkpt>
      <trkpt lat="43.73166" lon="3.45245">
        <ele>448.4</ele>
        <time>2017-04-09T06:49:12Z</time>
      </trkpt>
      <trkpt lat="43.73165" lon="3.45234">
        <ele>448.9</ele>
        <time>2017-04-09T06:49:16Z</time>
      </trkpt>
      <trkpt lat="43.73165" lon="3.45223">
        <ele>449.7</ele>
        <time>2017-04-09T06:49:20Z</time>
      </trkpt>
      <trkpt lat="43.73167" lon="3.45212">
        <ele>450.5</ele>
        <time>2017-04-09T06:49:24Z</time>
      </trkpt>
      <trkpt lat="43.73169" lon="3.45203">
        <ele>451.2</ele>
        <time>2017-04-09T06:49:28Z</time>
      </trkpt>
      <trkpt lat="43.73175" lon="3.45196">
        <ele>451.9</ele>
        <time>2017-04-09T06:49:32Z</time>
      </trkpt>
      <trkpt lat="43.73183" lon="3.45191">
        <ele>452.7</ele>
        <time>2017-04-09T06:49:37Z</time>
      </trkpt>
      <trkpt lat="43.73191" lon="3.45186">
        <ele>453.4</ele>
        <time>2017-04-09T06:49:41Z</time>
      </trkpt>
      <trkpt lat="43.73198" lon="3.45183">
        <ele>454.2</ele>
        <time>2017-04-09T06:49:45Z</time>
      </trkpt>
      <trkpt lat="43.73206" lon="3.45184">
        <ele>455.3</ele>
        <time>2017-04-09T06:49:50Z</time>
      </trkpt>
      <trkpt lat="43.73213" lon="3.45186">
        <ele>456.3</ele>
        <time>2017-04-09T06:49:54Z</time>
      </trkpt>
      <trkpt lat="43.73221" lon="3.45185">
        <ele>457.3</ele>
        <time>2017-04-09T06:49:58Z</time>
      </trkpt>
      <trkpt lat="43.73228" lon="3.45183">
        <ele>458</ele>
        <time>2017-04-09T06:50:02Z</time>
      </trkpt>
      <trkpt lat="43.73234" lon="3.45175">
        <ele>458.8</ele>
        <time>2017-04-09T06:50:06Z</time>
      </trkpt>
      <trkpt lat="43.73238" lon="3.45167">
        <ele>459.7</ele>
        <time>2017-04-09T06:50:10Z</time>
      </trkpt>
      <trkpt lat="43.73241" lon="3.45157">
        <ele>461.3</ele>
        <time>2017-04-09T06:50:16Z</time>
      </trkpt>
      <trkpt lat="43.73245" lon="3.45145">
        <ele>462.3</ele>
        <time>2017-04-09T06:50:20Z</time>
      </trkpt>
      <trkpt lat="43.73247" lon="3.45135">
        <ele>463.2</ele>
        <time>2017-04-09T06:50:23Z</time>
      </trkpt>
      <trkpt lat="43.73249" lon="3.45125">
        <ele>464.1</ele>
        <time>2017-04-09T06:50:26Z</time>
      </trkpt>
      <trkpt lat="43.73248" lon="3.45114">
        <ele>465.1</ele>
        <time>2017-04-09T06:50:30Z</time>
      </trkpt>
      <trkpt lat="43.73248" lon="3.45104">
        <ele>465.8</ele>
        <time>2017-04-09T06:50:33Z</time>
      </trkpt>
      <trkpt lat="43.73249" lon="3.45093">
        <ele>466.5</ele>
        <time>2017-04-09T06:50:36Z</time>
      </trkpt>
      <trkpt lat="43.73248" lon="3.45082">
        <ele>467.2</ele>
        <time>2017-04-09T06:50:39Z</time>
      </trkpt>
      <trkpt lat="43.73244" lon="3.45071">
        <ele>468.1</ele>
        <time>2017-04-09T06:50:43Z</time>
      </trkpt>
      <trkpt lat="43.73242" lon="3.45057">
        <ele>468.8</ele>
        <time>2017-04-09T06:50:47Z</time>
      </trkpt>
      <trkpt lat="43.7324" lon="3.45047">
        <ele>469.7</ele>
        <time>2017-04-09T06:50:51Z</time>
      </trkpt>
      <trkpt lat="43.73237" lon="3.45037">
        <ele>470.4</ele>
        <time>2017-04-09T06:50:55Z</time>
      </trkpt>
      <trkpt lat="43.73234" lon="3.45026">
        <ele>471</ele>
        <time>2017-04-09T06:50:58Z</time>
      </trkpt>
      <trkpt lat="43.73233" lon="3.45015">
        <ele>471.8</ele>
        <time>2017-04-09T06:51:01Z</time>
      </trkpt>
      <trkpt lat="43.73228" lon="3.45003">
        <ele>472.8</ele>
        <time>2017-04-09T06:51:05Z</time>
      </trkpt>
      <trkpt lat="43.73223" lon="3.44995">
        <ele>473.5</ele>
        <time>2017-04-09T06:51:08Z</time>
      </trkpt>
      <trkpt lat="43.73217" lon="3.44986">
        <ele>474.3</ele>
        <time>2017-04-09T06:51:11Z</time>
      </trkpt>
      <trkpt lat="43.73211" lon="3.44976">
        <ele>475.6</ele>
        <time>2017-04-09T06:51:15Z</time>
      </trkpt>
      <trkpt lat="43.73206" lon="3.44966">
        <ele>476.9</ele>
        <time>2017-04-09T06:51:19Z</time>
      </trkpt>
      <trkpt lat="43.732" lon="3.44958">
        <ele>478.3</ele>
        <time>2017-04-09T06:51:23Z</time>
      </trkpt>
      <trkpt lat="43.73193" lon="3.44949">
        <ele>479.6</ele>
        <time>2017-04-09T06:51:27Z</time>
      </trkpt>
      <trkpt lat="43.73185" lon="3.44941">
        <ele>480.6</ele>
        <time>2017-04-09T06:51:31Z</time>
      </trkpt>
      <trkpt lat="43.73177" lon="3.44935">
        <ele>481.6</ele>
        <time>2017-04-09T06:51:35Z</time>
      </trkpt>
      <trkpt lat="43.73169" lon="3.44929">
        <ele>482.7</ele>
        <time>2017-04-09T06:51:39Z</time>
      </trkpt>
      <trkpt lat="43.73163" lon="3.44924">
        <ele>483.1</ele>
        <time>2017-04-09T06:51:42Z</time>
      </trkpt>
      <trkpt lat="43.73156" lon="3.44918">
        <ele>483.5</ele>
        <time>2017-04-09T06:51:45Z</time>
      </trkpt>
      <trkpt lat="43.73151" lon="3.44909">
        <ele>484</ele>
        <time>2017-04-09T06:51:48Z</time>
      </trkpt>
      <trkpt lat="43.73147" lon="3.44901">
        <ele>484.4</ele>
        <time>2017-04-09T06:51:51Z</time>
      </trkpt>
      <trkpt lat="43.73143" lon="3.44892">
        <ele>485.1</ele>
        <time>2017-04-09T06:51:54Z</time>
      </trkpt>
      <trkpt lat="43.73145" lon="3.44881">
        <ele>486.3</ele>
        <time>2017-04-09T06:52:00Z</time>
      </trkpt>
      <trkpt lat="43.73151" lon="3.44874">
        <ele>487</ele>
        <time>2017-04-09T06:52:05Z</time>
      </trkpt>
      <trkpt lat="43.73154" lon="3.44869">
        <ele>487.5</ele>
        <time>2017-04-09T06:52:12Z</time>
      </trkpt>
      <trkpt lat="43.73159" lon="3.4487">
        <ele>487.7</ele>
        <time>2017-04-09T06:52:19Z</time>
      </trkpt>
      <trkpt lat="43.73154" lon="3.4487">
        <ele>488.3</ele>
        <time>2017-04-09T06:52:26Z</time>
      </trkpt>
      <trkpt lat="43.73156" lon="3.44865">
        <ele>488.7</ele>
        <time>2017-04-09T06:52:33Z</time>
      </trkpt>
      <trkpt lat="43.7316" lon="3.44871">
        <ele>488.5</ele>
        <time>2017-04-09T06:52:40Z</time>
      </trkpt>
      <trkpt lat="43.73154" lon="3.44871">
        <ele>488.5</ele>
        <time>2017-04-09T06:52:47Z</time>
      </trkpt>
      <trkpt lat="43.73147" lon="3.44871">
        <ele>488.6</ele>
        <time>2017-04-09T06:52:53Z</time>
      </trkpt>
      <trkpt lat="43.73138" lon="3.44872">
        <ele>488.5</ele>
        <time>2017-04-09T06:52:59Z</time>
      </trkpt>
      <trkpt lat="43.73129" lon="3.44875">
        <ele>488.8</ele>
        <time>2017-04-09T06:53:03Z</time>
      </trkpt>
      <trkpt lat="43.73122" lon="3.44875">
        <ele>489.3</ele>
        <time>2017-04-09T06:53:07Z</time>
      </trkpt>
      <trkpt lat="43.73114" lon="3.44873">
        <ele>490.4</ele>
        <time>2017-04-09T06:53:13Z</time>
      </trkpt>
      <trkpt lat="43.73106" lon="3.44871">
        <ele>491.4</ele>
        <time>2017-04-09T06:53:18Z</time>
      </trkpt>
      <trkpt lat="43.73098" lon="3.44868">
        <ele>492.1</ele>
        <time>2017-04-09T06:53:22Z</time>
      </trkpt>
      <trkpt lat="43.73091" lon="3.44867">
        <ele>493</ele>
        <time>2017-04-09T06:53:26Z</time>
      </trkpt>
      <trkpt lat="43.73083" lon="3.44866">
        <ele>493.6</ele>
        <time>2017-04-09T06:53:29Z</time>
      </trkpt>
      <trkpt lat="43.73075" lon="3.44863">
        <ele>494.7</ele>
        <time>2017-04-09T06:53:34Z</time>
      </trkpt>
      <trkpt lat="43.73067" lon="3.44862">
        <ele>495.8</ele>
        <time>2017-04-09T06:53:38Z</time>
      </trkpt>
      <trkpt lat="43.73058" lon="3.44862">
        <ele>497.1</ele>
        <time>2017-04-09T06:53:43Z</time>
      </trkpt>
      <trkpt lat="43.7305" lon="3.44862">
        <ele>498.1</ele>
        <time>2017-04-09T06:53:48Z</time>
      </trkpt>
      <trkpt lat="43.73043" lon="3.44861">
        <ele>499.1</ele>
        <time>2017-04-09T06:53:53Z</time>
      </trkpt>
      <trkpt lat="43.73035" lon="3.4486">
        <ele>500.1</ele>
        <time>2017-04-09T06:53:57Z</time>
      </trkpt>
      <trkpt lat="43.73027" lon="3.44859">
        <ele>501.1</ele>
        <time>2017-04-09T06:54:01Z</time>
      </trkpt>
      <trkpt lat="43.73019" lon="3.44857">
        <ele>502.1</ele>
        <time>2017-04-09T06:54:05Z</time>
      </trkpt>
      <trkpt lat="43.73011" lon="3.44857">
        <ele>503</ele>
        <time>2017-04-09T06:54:09Z</time>
      </trkpt>
      <trkpt lat="43.73002" lon="3.44858">
        <ele>503.9</ele>
        <time>2017-04-09T06:54:13Z</time>
      </trkpt>
      <trkpt lat="43.72993" lon="3.44858">
        <ele>504.7</ele>
        <time>2017-04-09T06:54:17Z</time>
      </trkpt>
      <trkpt lat="43.72984" lon="3.4486">
        <ele>505.5</ele>
        <time>2017-04-09T06:54:21Z</time>
      </trkpt>
      <trkpt lat="43.72976" lon="3.44861">
        <ele>506</ele>
        <time>2017-04-09T06:54:24Z</time>
      </trkpt>
      <trkpt lat="43.72967" lon="3.44862">
        <ele>506.8</ele>
        <time>2017-04-09T06:54:28Z</time>
      </trkpt>
      <trkpt lat="43.72959" lon="3.44862">
        <ele>507.4</ele>
        <time>2017-04-09T06:54:31Z</time>
      </trkpt>
      <trkpt lat="43.72951" lon="3.44861">
        <ele>507.8</ele>
        <time>2017-04-09T06:54:34Z</time>
      </trkpt>
      <trkpt lat="43.72943" lon="3.4486">
        <ele>508.7</ele>
        <time>2017-04-09T06:54:38Z</time>
      </trkpt>
      <trkpt lat="43.72935" lon="3.44857">
        <ele>509.3</ele>
        <time>2017-04-09T06:54:41Z</time>
      </trkpt>
      <trkpt lat="43.72928" lon="3.44854">
        <ele>510</ele>
        <time>2017-04-09T06:54:44Z</time>
      </trkpt>
      <trkpt lat="43.7292" lon="3.44852">
        <ele>511.1</ele>
        <time>2017-04-09T06:54:48Z</time>
      </trkpt>
      <trkpt lat="43.72913" lon="3.44849">
        <ele>511.9</ele>
        <time>2017-04-09T06:54:51Z</time>
      </trkpt>
      <trkpt lat="43.72906" lon="3.44845">
        <ele>512.4</ele>
        <time>2017-04-09T06:54:54Z</time>
      </trkpt>
      <trkpt lat="43.72899" lon="3.44841">
        <ele>512.8</ele>
        <time>2017-04-09T06:54:56Z</time>
      </trkpt>
      <trkpt lat="43.7289" lon="3.44839">
        <ele>514.2</ele>
        <time>2017-04-09T06:54:58Z</time>
      </trkpt>
      <trkpt lat="43.72882" lon="3.44839">
        <ele>516.4</ele>
        <time>2017-04-09T06:55:00Z</time>
      </trkpt>
      <trkpt lat="43.72872" lon="3.44842">
        <ele>518.2</ele>
        <time>2017-04-09T06:55:02Z</time>
      </trkpt>
      <trkpt lat="43.7286" lon="3.44845">
        <ele>519.5</ele>
        <time>2017-04-09T06:55:04Z</time>
      </trkpt>
      <trkpt lat="43.72847" lon="3.44846">
        <ele>519.2</ele>
        <time>2017-04-09T06:55:06Z</time>
      </trkpt>
      <trkpt lat="43.72833" lon="3.44846">
        <ele>517.8</ele>
        <time>2017-04-09T06:55:08Z</time>
      </trkpt>
      <trkpt lat="43.72825" lon="3.44846">
        <ele>517.1</ele>
        <time>2017-04-09T06:55:09Z</time>
      </trkpt>
      <trkpt lat="43.72818" lon="3.44845">
        <ele>516.4</ele>
        <time>2017-04-09T06:55:10Z</time>
      </trkpt>
      <trkpt lat="43.72809" lon="3.44844">
        <ele>515.2</ele>
        <time>2017-04-09T06:55:11Z</time>
      </trkpt>
      <trkpt lat="43.72799" lon="3.44843">
        <ele>513.6</ele>
        <time>2017-04-09T06:55:12Z</time>
      </trkpt>
      <trkpt lat="43.7279" lon="3.44842">
        <ele>512.6</ele>
        <time>2017-04-09T06:55:13Z</time>
      </trkpt>
      <trkpt lat="43.72781" lon="3.4484">
        <ele>511.7</ele>
        <time>2017-04-09T06:55:14Z</time>
      </trkpt>
      <trkpt lat="43.72772" lon="3.44838">
        <ele>510.9</ele>
        <time>2017-04-09T06:55:15Z</time>
      </trkpt>
      <trkpt lat="43.72764" lon="3.44837">
        <ele>510.2</ele>
        <time>2017-04-09T06:55:16Z</time>
      </trkpt>
      <trkpt lat="43.72755" lon="3.44835">
        <ele>510</ele>
        <time>2017-04-09T06:55:17Z</time>
      </trkpt>
      <trkpt lat="43.7274" lon="3.44835">
        <ele>509.8</ele>
        <time>2017-04-09T06:55:19Z</time>
      </trkpt>
      <trkpt lat="43.72733" lon="3.44836">
        <ele>509</ele>
        <time>2017-04-09T06:55:20Z</time>
      </trkpt>
      <trkpt lat="43.72722" lon="3.44838">
        <ele>508.3</ele>
        <time>2017-04-09T06:55:22Z</time>
      </trkpt>
      <trkpt lat="43.72713" lon="3.44839">
        <ele>507.6</ele>
        <time>2017-04-09T06:55:24Z</time>
      </trkpt>
      <trkpt lat="43.72703" lon="3.44838">
        <ele>506.7</ele>
        <time>2017-04-09T06:55:26Z</time>
      </trkpt>
      <trkpt lat="43.72693" lon="3.44837">
        <ele>506.5</ele>
        <time>2017-04-09T06:55:28Z</time>
      </trkpt>
      <trkpt lat="43.72683" lon="3.44837">
        <ele>506.5</ele>
        <time>2017-04-09T06:55:31Z</time>
      </trkpt>
      <trkpt lat="43.72673" lon="3.44837">
        <ele>506.7</ele>
        <time>2017-04-09T06:55:34Z</time>
      </trkpt>
      <trkpt lat="43.72666" lon="3.44837">
        <ele>506.9</ele>
        <time>2017-04-09T06:55:36Z</time>
      </trkpt>
      <trkpt lat="43.72658" lon="3.44837">
        <ele>508.2</ele>
        <time>2017-04-09T06:55:38Z</time>
      </trkpt>
      <trkpt lat="43.72649" lon="3.44837">
        <ele>508.8</ele>
        <time>2017-04-09T06:55:40Z</time>
      </trkpt>
      <trkpt lat="43.7264" lon="3.44837">
        <ele>509.2</ele>
        <time>2017-04-09T06:55:42Z</time>
      </trkpt>
      <trkpt lat="43.7263" lon="3.44835">
        <ele>509.1</ele>
        <time>2017-04-09T06:55:44Z</time>
      </trkpt>
      <trkpt lat="43.72619" lon="3.44833">
        <ele>509.1</ele>
        <time>2017-04-09T06:55:46Z</time>
      </trkpt>
      <trkpt lat="43.72609" lon="3.44833">
        <ele>509.5</ele>
        <time>2017-04-09T06:55:48Z</time>
      </trkpt>
      <trkpt lat="43.72599" lon="3.44831">
        <ele>509.9</ele>
        <time>2017-04-09T06:55:50Z</time>
      </trkpt>
      <trkpt lat="43.72589" lon="3.44829">
        <ele>510</ele>
        <time>2017-04-09T06:55:52Z</time>
      </trkpt>
      <trkpt lat="43.72581" lon="3.44826">
        <ele>510.1</ele>
        <time>2017-04-09T06:55:54Z</time>
      </trkpt>
      <trkpt lat="43.72572" lon="3.44823">
        <ele>510.7</ele>
        <time>2017-04-09T06:55:56Z</time>
      </trkpt>
      <trkpt lat="43.72564" lon="3.44821">
        <ele>511.2</ele>
        <time>2017-04-09T06:55:58Z</time>
      </trkpt>
      <trkpt lat="43.72554" lon="3.4482">
        <ele>511.5</ele>
        <time>2017-04-09T06:56:00Z</time>
      </trkpt>
      <trkpt lat="43.72545" lon="3.44819">
        <ele>510.8</ele>
        <time>2017-04-09T06:56:02Z</time>
      </trkpt>
      <trkpt lat="43.72535" lon="3.44819">
        <ele>510.6</ele>
        <time>2017-04-09T06:56:04Z</time>
      </trkpt>
      <trkpt lat="43.72526" lon="3.4482">
        <ele>510.7</ele>
        <time>2017-04-09T06:56:06Z</time>
      </trkpt>
      <trkpt lat="43.72518" lon="3.44821">
        <ele>510.6</ele>
        <time>2017-04-09T06:56:08Z</time>
      </trkpt>
      <trkpt lat="43.72509" lon="3.44822">
        <ele>510.5</ele>
        <time>2017-04-09T06:56:10Z</time>
      </trkpt>
      <trkpt lat="43.72499" lon="3.44822">
        <ele>510.7</ele>
        <time>2017-04-09T06:56:12Z</time>
      </trkpt>
      <trkpt lat="43.7249" lon="3.44822">
        <ele>510.4</ele>
        <time>2017-04-09T06:56:14Z</time>
      </trkpt>
      <trkpt lat="43.72481" lon="3.44821">
        <ele>510.1</ele>
        <time>2017-04-09T06:56:16Z</time>
      </trkpt>
      <trkpt lat="43.72474" lon="3.4482">
        <ele>510.2</ele>
        <time>2017-04-09T06:56:18Z</time>
      </trkpt>
      <trkpt lat="43.72464" lon="3.44819">
        <ele>511.3</ele>
        <time>2017-04-09T06:56:20Z</time>
      </trkpt>
      <trkpt lat="43.72457" lon="3.44817">
        <ele>512.5</ele>
        <time>2017-04-09T06:56:22Z</time>
      </trkpt>
      <trkpt lat="43.72446" lon="3.44817">
        <ele>513.3</ele>
        <time>2017-04-09T06:56:24Z</time>
      </trkpt>
      <trkpt lat="43.72438" lon="3.44817">
        <ele>513.4</ele>
        <time>2017-04-09T06:56:26Z</time>
      </trkpt>
      <trkpt lat="43.72431" lon="3.4482">
        <ele>513.9</ele>
        <time>2017-04-09T06:56:28Z</time>
      </trkpt>
      <trkpt lat="43.72423" lon="3.44825">
        <ele>514.5</ele>
        <time>2017-04-09T06:56:30Z</time>
      </trkpt>
      <trkpt lat="43.72416" lon="3.44829">
        <ele>514.6</ele>
        <time>2017-04-09T06:56:32Z</time>
      </trkpt>
      <trkpt lat="43.72408" lon="3.44834">
        <ele>514.6</ele>
        <time>2017-04-09T06:56:34Z</time>
      </trkpt>
      <trkpt lat="43.724" lon="3.44837">
        <ele>514.5</ele>
        <time>2017-04-09T06:56:36Z</time>
      </trkpt>
      <trkpt lat="43.72393" lon="3.44839">
        <ele>514.4</ele>
        <time>2017-04-09T06:56:38Z</time>
      </trkpt>
      <trkpt lat="43.72386" lon="3.44841">
        <ele>514.3</ele>
        <time>2017-04-09T06:56:40Z</time>
      </trkpt>
      <trkpt lat="43.72375" lon="3.44841">
        <ele>514.3</ele>
        <time>2017-04-09T06:56:43Z</time>
      </trkpt>
      <trkpt lat="43.72366" lon="3.44842">
        <ele>514.2</ele>
        <time>2017-04-09T06:56:45Z</time>
      </trkpt>
      <trkpt lat="43.72356" lon="3.44842">
        <ele>513.6</ele>
        <time>2017-04-09T06:56:47Z</time>
      </trkpt>
      <trkpt lat="43.72347" lon="3.44841">
        <ele>512.9</ele>
        <time>2017-04-09T06:56:49Z</time>
      </trkpt>
      <trkpt lat="43.72339" lon="3.4484">
        <ele>512.2</ele>
        <time>2017-04-09T06:56:51Z</time>
      </trkpt>
      <trkpt lat="43.72332" lon="3.44838">
        <ele>512.2</ele>
        <time>2017-04-09T06:56:53Z</time>
      </trkpt>
      <trkpt lat="43.72322" lon="3.44835">
        <ele>512.3</ele>
        <time>2017-04-09T06:56:56Z</time>
      </trkpt>
      <trkpt lat="43.72311" lon="3.44831">
        <ele>512.5</ele>
        <time>2017-04-09T06:56:59Z</time>
      </trkpt>
      <trkpt lat="43.72304" lon="3.44825">
        <ele>512.8</ele>
        <time>2017-04-09T06:57:02Z</time>
      </trkpt>
      <trkpt lat="43.72298" lon="3.44818">
        <ele>513.1</ele>
        <time>2017-04-09T06:57:05Z</time>
      </trkpt>
      <trkpt lat="43.72292" lon="3.44812">
        <ele>513.3</ele>
        <time>2017-04-09T06:57:09Z</time>
      </trkpt>
      <trkpt lat="43.72285" lon="3.44809">
        <ele>513.4</ele>
        <time>2017-04-09T06:57:14Z</time>
      </trkpt>
      <trkpt lat="43.72277" lon="3.4481">
        <ele>513.5</ele>
        <time>2017-04-09T06:57:18Z</time>
      </trkpt>
      <trkpt lat="43.72268" lon="3.4481">
        <ele>513.4</ele>
        <time>2017-04-09T06:57:24Z</time>
      </trkpt>
      <trkpt lat="43.72262" lon="3.44804">
        <ele>513.6</ele>
        <time>2017-04-09T06:57:30Z</time>
      </trkpt>
      <trkpt lat="43.72255" lon="3.44799">
        <ele>513.6</ele>
        <time>2017-04-09T06:57:36Z</time>
      </trkpt>
      <trkpt lat="43.72254" lon="3.44807">
        <ele>513.3</ele>
        <time>2017-04-09T06:57:43Z</time>
      </trkpt>
      <trkpt lat="43.72262" lon="3.44805">
        <ele>512.9</ele>
        <time>2017-04-09T06:57:49Z</time>
      </trkpt>
      <trkpt lat="43.72267" lon="3.44811">
        <ele>512.6</ele>
        <time>2017-04-09T06:57:55Z</time>
      </trkpt>
      <trkpt lat="43.72271" lon="3.44812">
        <ele>512.9</ele>
        <time>2017-04-09T06:58:02Z</time>
      </trkpt>
      <trkpt lat="43.72265" lon="3.44791">
        <ele>513.2</ele>
        <time>2017-04-09T06:58:34Z</time>
      </trkpt>
      <trkpt lat="43.72267" lon="3.44781">
        <ele>513.5</ele>
        <time>2017-04-09T06:58:40Z</time>
      </trkpt>
      <trkpt lat="43.72273" lon="3.44778">
        <ele>513.9</ele>
        <time>2017-04-09T06:58:47Z</time>
      </trkpt>
      <trkpt lat="43.72268" lon="3.44769">
        <ele>514.6</ele>
        <time>2017-04-09T06:58:52Z</time>
      </trkpt>
      <trkpt lat="43.72264" lon="3.44761">
        <ele>515.5</ele>
        <time>2017-04-09T06:58:57Z</time>
      </trkpt>
      <trkpt lat="43.72258" lon="3.44752">
        <ele>516.6</ele>
        <time>2017-04-09T06:59:02Z</time>
      </trkpt>
      <trkpt lat="43.72256" lon="3.44743">
        <ele>517.8</ele>
        <time>2017-04-09T06:59:08Z</time>
      </trkpt>
      <trkpt lat="43.72259" lon="3.44738">
        <ele>518.6</ele>
        <time>2017-04-09T06:59:15Z</time>
      </trkpt>
      <trkpt lat="43.72264" lon="3.44735">
        <ele>519.8</ele>
        <time>2017-04-09T06:59:31Z</time>
      </trkpt>
      <trkpt lat="43.72265" lon="3.44727">
        <ele>521.2</ele>
        <time>2017-04-09T06:59:48Z</time>
      </trkpt>
      <trkpt lat="43.72266" lon="3.44713">
        <ele>523.3</ele>
        <time>2017-04-09T07:00:03Z</time>
      </trkpt>
      <trkpt lat="43.72271" lon="3.44705">
        <ele>524.2</ele>
        <time>2017-04-09T07:00:09Z</time>
      </trkpt>
      <trkpt lat="43.72279" lon="3.44704">
        <ele>525</ele>
        <time>2017-04-09T07:00:14Z</time>
      </trkpt>
      <trkpt lat="43.72286" lon="3.44704">
        <ele>525.8</ele>
        <time>2017-04-09T07:00:18Z</time>
      </trkpt>
      <trkpt lat="43.72294" lon="3.44702">
        <ele>527</ele>
        <time>2017-04-09T07:00:25Z</time>
      </trkpt>
      <trkpt lat="43.72301" lon="3.44698">
        <ele>527.5</ele>
        <time>2017-04-09T07:00:30Z</time>
      </trkpt>
      <trkpt lat="43.72298" lon="3.44688">
        <ele>528.6</ele>
        <time>2017-04-09T07:00:37Z</time>
      </trkpt>
      <trkpt lat="43.72294" lon="3.44679">
        <ele>529.5</ele>
        <time>2017-04-09T07:00:43Z</time>
      </trkpt>
      <trkpt lat="43.72295" lon="3.44677">
        <ele>529.7</ele>
        <time>2017-04-09T07:00:50Z</time>
      </trkpt>
      <trkpt lat="43.72294" lon="3.44678">
        <ele>530.1</ele>
        <time>2017-04-09T07:00:19Z</time>
      </trkpt>
      <trkpt lat="43.72292" lon="3.44677">
        <ele>530</ele>
        <time>2017-04-09T07:01:40Z</time>
      </trkpt>
      <trkpt lat="43.72296" lon="3.44673">
        <ele>531.6</ele>
        <time>2017-04-09T07:02:04Z</time>
      </trkpt>
      <trkpt lat="43.72293" lon="3.44674">
        <ele>530.9</ele>
        <time>2017-04-09T07:01:34Z</time>
      </trkpt>
      <trkpt lat="43.72295" lon="3.44675">
        <ele>530.9</ele>
        <time>2017-04-09T07:02:47Z</time>
      </trkpt>
      <trkpt lat="43.72294" lon="3.44676">
        <ele>531.4</ele>
        <time>2017-04-09T07:03:20Z</time>
      </trkpt>
      <trkpt lat="43.72295" lon="3.44676">
        <ele>531.4</ele>
        <time>2017-04-09T07:03:27Z</time>
      </trkpt>
      <trkpt lat="43.72302" lon="3.44671">
        <ele>531.2</ele>
        <time>2017-04-09T07:03:32Z</time>
      </trkpt>
      <trkpt lat="43.7231" lon="3.44663">
        <ele>531.4</ele>
        <time>2017-04-09T07:03:36Z</time>
      </trkpt>
      <trkpt lat="43.72317" lon="3.4466">
        <ele>531.4</ele>
        <time>2017-04-09T07:03:39Z</time>
      </trkpt>
      <trkpt lat="43.72326" lon="3.44658">
        <ele>531.1</ele>
        <time>2017-04-09T07:03:42Z</time>
      </trkpt>
      <trkpt lat="43.72331" lon="3.44649">
        <ele>530.8</ele>
        <time>2017-04-09T07:03:45Z</time>
      </trkpt>
      <trkpt lat="43.72335" lon="3.44634">
        <ele>530.4</ele>
        <time>2017-04-09T07:03:48Z</time>
      </trkpt>
      <trkpt lat="43.72338" lon="3.44622">
        <ele>529.9</ele>
        <time>2017-04-09T07:03:51Z</time>
      </trkpt>
      <trkpt lat="43.7234" lon="3.44611">
        <ele>529.5</ele>
        <time>2017-04-09T07:03:53Z</time>
      </trkpt>
      <trkpt lat="43.72342" lon="3.44601">
        <ele>528.9</ele>
        <time>2017-04-09T07:03:55Z</time>
      </trkpt>
      <trkpt lat="43.72343" lon="3.4459">
        <ele>528</ele>
        <time>2017-04-09T07:03:58Z</time>
      </trkpt>
      <trkpt lat="43.72347" lon="3.4458">
        <ele>527.2</ele>
        <time>2017-04-09T07:04:00Z</time>
      </trkpt>
      <trkpt lat="43.72353" lon="3.4457">
        <ele>525.7</ele>
        <time>2017-04-09T07:04:03Z</time>
      </trkpt>
      <trkpt lat="43.72361" lon="3.44562">
        <ele>524.3</ele>
        <time>2017-04-09T07:04:06Z</time>
      </trkpt>
      <trkpt lat="43.72366" lon="3.44554">
        <ele>523.3</ele>
        <time>2017-04-09T07:04:08Z</time>
      </trkpt>
      <trkpt lat="43.72372" lon="3.44544">
        <ele>521.5</ele>
        <time>2017-04-09T07:04:11Z</time>
      </trkpt>
      <trkpt lat="43.72378" lon="3.44537">
        <ele>518.6</ele>
        <time>2017-04-09T07:04:15Z</time>
      </trkpt>
      <trkpt lat="43.7238" lon="3.44524">
        <ele>516.8</ele>
        <time>2017-04-09T07:04:18Z</time>
      </trkpt>
      <trkpt lat="43.72382" lon="3.44511">
        <ele>514.6</ele>
        <time>2017-04-09T07:04:21Z</time>
      </trkpt>
      <trkpt lat="43.72382" lon="3.44499">
        <ele>512.3</ele>
        <time>2017-04-09T07:04:24Z</time>
      </trkpt>
      <trkpt lat="43.72376" lon="3.44485">
        <ele>503.8</ele>
        <time>2017-04-09T07:04:27Z</time>
      </trkpt>
      <trkpt lat="43.72373" lon="3.44473">
        <ele>497.5</ele>
        <time>2017-04-09T07:04:29Z</time>
      </trkpt>
      <trkpt lat="43.72372" lon="3.44463">
        <ele>496.6</ele>
        <time>2017-04-09T07:04:31Z</time>
      </trkpt>
      <trkpt lat="43.7237" lon="3.4445">
        <ele>495.8</ele>
        <time>2017-04-09T07:04:33Z</time>
      </trkpt>
      <trkpt lat="43.72368" lon="3.44437">
        <ele>486.5</ele>
        <time>2017-04-09T07:04:35Z</time>
      </trkpt>
      <trkpt lat="43.7237" lon="3.44424">
        <ele>481.8</ele>
        <time>2017-04-09T07:04:37Z</time>
      </trkpt>
      <trkpt lat="43.72369" lon="3.44414">
        <ele>477.5</ele>
        <time>2017-04-09T07:04:39Z</time>
      </trkpt>
      <trkpt lat="43.72363" lon="3.44402">
        <ele>471.1</ele>
        <time>2017-04-09T07:04:41Z</time>
      </trkpt>
      <trkpt lat="43.72358" lon="3.44396">
        <ele>470.3</ele>
        <time>2017-04-09T07:04:44Z</time>
      </trkpt>
      <trkpt lat="43.72355" lon="3.44386">
        <ele>469.7</ele>
        <time>2017-04-09T07:04:46Z</time>
      </trkpt>
      <trkpt lat="43.72355" lon="3.44374">
        <ele>465.9</ele>
        <time>2017-04-09T07:04:48Z</time>
      </trkpt>
      <trkpt lat="43.72358" lon="3.44363">
        <ele>462</ele>
        <time>2017-04-09T07:04:50Z</time>
      </trkpt>
      <trkpt lat="43.72359" lon="3.44347">
        <ele>456.1</ele>
        <time>2017-04-09T07:04:52Z</time>
      </trkpt>
      <trkpt lat="43.72362" lon="3.44332">
        <ele>451.5</ele>
        <time>2017-04-09T07:04:54Z</time>
      </trkpt>
      <trkpt lat="43.72366" lon="3.44317">
        <ele>447.9</ele>
        <time>2017-04-09T07:04:56Z</time>
      </trkpt>
      <trkpt lat="43.72367" lon="3.44305">
        <ele>446</ele>
        <time>2017-04-09T07:04:58Z</time>
      </trkpt>
      <trkpt lat="43.72366" lon="3.44294">
        <ele>445.8</ele>
        <time>2017-04-09T07:05:00Z</time>
      </trkpt>
      <trkpt lat="43.72366" lon="3.4429">
        <ele>445</ele>
        <time>2017-04-09T07:05:07Z</time>
      </trkpt>
      <trkpt lat="43.72368" lon="3.44289">
        <ele>443.6</ele>
        <time>2017-04-09T07:05:15Z</time>
      </trkpt>
      <trkpt lat="43.72363" lon="3.44288">
        <ele>441.5</ele>
        <time>2017-04-09T07:05:33Z</time>
      </trkpt>
      <trkpt lat="43.72369" lon="3.44285">
        <ele>438.9</ele>
        <time>2017-04-09T07:06:22Z</time>
      </trkpt>
      <trkpt lat="43.7237" lon="3.44275">
        <ele>438.8</ele>
        <time>2017-04-09T07:06:28Z</time>
      </trkpt>
      <trkpt lat="43.72369" lon="3.44276">
        <ele>441</ele>
        <time>2017-04-09T07:07:04Z</time>
      </trkpt>
      <trkpt lat="43.72371" lon="3.44278">
        <ele>441.7</ele>
        <time>2017-04-09T07:06:42Z</time>
      </trkpt>
      <trkpt lat="43.72373" lon="3.4428">
        <ele>441</ele>
        <time>2017-04-09T07:08:14Z</time>
      </trkpt>
      <trkpt lat="43.72373" lon="3.44282">
        <ele>441.8</ele>
        <time>2017-04-09T07:08:21Z</time>
      </trkpt>
      <trkpt lat="43.72374" lon="3.44279">
        <ele>442.2</ele>
        <time>2017-04-09T07:08:39Z</time>
      </trkpt>
      <trkpt lat="43.72372" lon="3.44283">
        <ele>442.3</ele>
        <time>2017-04-09T07:09:05Z</time>
      </trkpt>
      <trkpt lat="43.72371" lon="3.44279">
        <ele>442.4</ele>
        <time>2017-04-09T07:09:12Z</time>
      </trkpt>
      <trkpt lat="43.7237" lon="3.44277">
        <ele>442.2</ele>
        <time>2017-04-09T07:09:19Z</time>
      </trkpt>
      <trkpt lat="43.72374" lon="3.44268">
        <ele>440.4</ele>
        <time>2017-04-09T07:14:54Z</time>
      </trkpt>
      <trkpt lat="43.72377" lon="3.44257">
        <ele>440</ele>
        <time>2017-04-09T07:14:59Z</time>
      </trkpt>
      <trkpt lat="43.72382" lon="3.44249">
        <ele>439.9</ele>
        <time>2017-04-09T07:15:02Z</time>
      </trkpt>
      <trkpt lat="43.7239" lon="3.44245">
        <ele>439.8</ele>
        <time>2017-04-09T07:15:06Z</time>
      </trkpt>
      <trkpt lat="43.72393" lon="3.44235">
        <ele>439.6</ele>
        <time>2017-04-09T07:15:10Z</time>
      </trkpt>
      <trkpt lat="43.72395" lon="3.44225">
        <ele>439.5</ele>
        <time>2017-04-09T07:15:13Z</time>
      </trkpt>
      <trkpt lat="43.72398" lon="3.44216">
        <ele>439.1</ele>
        <time>2017-04-09T07:15:16Z</time>
      </trkpt>
      <trkpt lat="43.72404" lon="3.44205">
        <ele>438.8</ele>
        <time>2017-04-09T07:15:19Z</time>
      </trkpt>
      <trkpt lat="43.7241" lon="3.44198">
        <ele>438.3</ele>
        <time>2017-04-09T07:15:21Z</time>
      </trkpt>
      <trkpt lat="43.72411" lon="3.44187">
        <ele>437.7</ele>
        <time>2017-04-09T07:15:24Z</time>
      </trkpt>
      <trkpt lat="43.72411" lon="3.44175">
        <ele>437.4</ele>
        <time>2017-04-09T07:15:26Z</time>
      </trkpt>
      <trkpt lat="43.72412" lon="3.44164">
        <ele>437.1</ele>
        <time>2017-04-09T07:15:28Z</time>
      </trkpt>
      <trkpt lat="43.72411" lon="3.44149">
        <ele>436.4</ele>
        <time>2017-04-09T07:15:31Z</time>
      </trkpt>
      <trkpt lat="43.72407" lon="3.44137">
        <ele>435.9</ele>
        <time>2017-04-09T07:15:33Z</time>
      </trkpt>
      <trkpt lat="43.72402" lon="3.44128">
        <ele>435.5</ele>
        <time>2017-04-09T07:15:35Z</time>
      </trkpt>
      <trkpt lat="43.72399" lon="3.44119">
        <ele>435.1</ele>
        <time>2017-04-09T07:15:37Z</time>
      </trkpt>
      <trkpt lat="43.72404" lon="3.4411">
        <ele>433.9</ele>
        <time>2017-04-09T07:15:41Z</time>
      </trkpt>
      <trkpt lat="43.7241" lon="3.44101">
        <ele>432.7</ele>
        <time>2017-04-09T07:15:44Z</time>
      </trkpt>
      <trkpt lat="43.72417" lon="3.44096">
        <ele>430.7</ele>
        <time>2017-04-09T07:15:48Z</time>
      </trkpt>
      <trkpt lat="43.72426" lon="3.44096">
        <ele>428</ele>
        <time>2017-04-09T07:15:53Z</time>
      </trkpt>
      <trkpt lat="43.72436" lon="3.44099">
        <ele>426.3</ele>
        <time>2017-04-09T07:15:56Z</time>
      </trkpt>
      <trkpt lat="43.72443" lon="3.441">
        <ele>425.2</ele>
        <time>2017-04-09T07:15:58Z</time>
      </trkpt>
      <trkpt lat="43.72451" lon="3.44103">
        <ele>424.1</ele>
        <time>2017-04-09T07:16:00Z</time>
      </trkpt>
      <trkpt lat="43.72459" lon="3.44098">
        <ele>421.7</ele>
        <time>2017-04-09T07:16:04Z</time>
      </trkpt>
      <trkpt lat="43.72465" lon="3.44088">
        <ele>419.7</ele>
        <time>2017-04-09T07:16:07Z</time>
      </trkpt>
      <trkpt lat="43.72474" lon="3.44082">
        <ele>417.7</ele>
        <time>2017-04-09T07:16:10Z</time>
      </trkpt>
      <trkpt lat="43.72484" lon="3.4408">
        <ele>415.6</ele>
        <time>2017-04-09T07:16:13Z</time>
      </trkpt>
      <trkpt lat="43.72493" lon="3.44074">
        <ele>413.2</ele>
        <time>2017-04-09T07:16:16Z</time>
      </trkpt>
      <trkpt lat="43.72501" lon="3.4407">
        <ele>410.8</ele>
        <time>2017-04-09T07:16:19Z</time>
      </trkpt>
      <trkpt lat="43.72507" lon="3.44063">
        <ele>406.9</ele>
        <time>2017-04-09T07:16:24Z</time>
      </trkpt>
      <trkpt lat="43.72515" lon="3.44054">
        <ele>404.4</ele>
        <time>2017-04-09T07:16:27Z</time>
      </trkpt>
      <trkpt lat="43.7252" lon="3.44045">
        <ele>401.7</ele>
        <time>2017-04-09T07:16:30Z</time>
      </trkpt>
      <trkpt lat="43.72525" lon="3.44036">
        <ele>399.1</ele>
        <time>2017-04-09T07:16:33Z</time>
      </trkpt>
      <trkpt lat="43.72529" lon="3.44021">
        <ele>392.9</ele>
        <time>2017-04-09T07:16:40Z</time>
      </trkpt>
      <trkpt lat="43.72528" lon="3.44008">
        <ele>390.3</ele>
        <time>2017-04-09T07:16:43Z</time>
      </trkpt>
      <trkpt lat="43.72528" lon="3.44002">
        <ele>385.6</ele>
        <time>2017-04-09T07:16:50Z</time>
      </trkpt>
      <trkpt lat="43.72526" lon="3.44003">
        <ele>376.8</ele>
        <time>2017-04-09T07:17:22Z</time>
      </trkpt>
      <trkpt lat="43.72524" lon="3.44005">
        <ele>375.5</ele>
        <time>2017-04-09T07:17:29Z</time>
      </trkpt>
      <trkpt lat="43.72523" lon="3.44009">
        <ele>374.1</ele>
        <time>2017-04-09T07:17:35Z</time>
      </trkpt>
      <trkpt lat="43.72522" lon="3.44005">
        <ele>371.4</ele>
        <time>2017-04-09T07:17:48Z</time>
      </trkpt>
      <trkpt lat="43.72525" lon="3.44003">
        <ele>369.3</ele>
        <time>2017-04-09T07:18:01Z</time>
      </trkpt>
      <trkpt lat="43.72526" lon="3.44001">
        <ele>366.3</ele>
        <time>2017-04-09T07:18:20Z</time>
      </trkpt>
      <trkpt lat="43.72529" lon="3.44003">
        <ele>365.4</ele>
        <time>2017-04-09T07:18:27Z</time>
      </trkpt>
      <trkpt lat="43.72528" lon="3.44">
        <ele>364.8</ele>
        <time>2017-04-09T07:18:34Z</time>
      </trkpt>
      <trkpt lat="43.72529" lon="3.44001">
        <ele>363.5</ele>
        <time>2017-04-09T07:19:00Z</time>
      </trkpt>
      <trkpt lat="43.72527" lon="3.44">
        <ele>359.7</ele>
        <time>2017-04-09T07:19:40Z</time>
      </trkpt>
      <trkpt lat="43.72528" lon="3.44001">
        <ele>359</ele>
        <time>2017-04-09T07:19:47Z</time>
      </trkpt>
      <trkpt lat="43.72525" lon="3.43997">
        <ele>358.2</ele>
        <time>2017-04-09T07:19:54Z</time>
      </trkpt>
      <trkpt lat="43.7252" lon="3.43987">
        <ele>357.8</ele>
        <time>2017-04-09T07:19:58Z</time>
      </trkpt>
      <trkpt lat="43.72517" lon="3.43978">
        <ele>357.6</ele>
        <time>2017-04-09T07:20:01Z</time>
      </trkpt>
      <trkpt lat="43.72512" lon="3.43967">
        <ele>356.9</ele>
        <time>2017-04-09T07:20:05Z</time>
      </trkpt>
      <trkpt lat="43.72509" lon="3.43958">
        <ele>356.4</ele>
        <time>2017-04-09T07:20:08Z</time>
      </trkpt>
      <trkpt lat="43.72509" lon="3.43955">
        <ele>354.9</ele>
        <time>2017-04-09T07:20:15Z</time>
      </trkpt>
      <trkpt lat="43.7251" lon="3.43963">
        <ele>353.7</ele>
        <time>2017-04-09T07:20:22Z</time>
      </trkpt>
      <trkpt lat="43.72513" lon="3.43967">
        <ele>352.7</ele>
        <time>2017-04-09T07:20:28Z</time>
      </trkpt>
      <trkpt lat="43.72512" lon="3.43969">
        <ele>350.6</ele>
        <time>2017-04-09T07:20:58Z</time>
      </trkpt>
      <trkpt lat="43.72516" lon="3.43961">
        <ele>350.2</ele>
        <time>2017-04-09T07:21:09Z</time>
      </trkpt>
      <trkpt lat="43.72517" lon="3.43947">
        <ele>349.8</ele>
        <time>2017-04-09T07:21:12Z</time>
      </trkpt>
      <trkpt lat="43.72515" lon="3.43929">
        <ele>348.2</ele>
        <time>2017-04-09T07:21:14Z</time>
      </trkpt>
      <trkpt lat="43.72519" lon="3.43919">
        <ele>347.5</ele>
        <time>2017-04-09T07:21:17Z</time>
      </trkpt>
      <trkpt lat="43.72522" lon="3.43908">
        <ele>346.2</ele>
        <time>2017-04-09T07:21:21Z</time>
      </trkpt>
      <trkpt lat="43.72525" lon="3.43895">
        <ele>345.2</ele>
        <time>2017-04-09T07:21:24Z</time>
      </trkpt>
      <trkpt lat="43.72524" lon="3.43882">
        <ele>344.5</ele>
        <time>2017-04-09T07:21:26Z</time>
      </trkpt>
      <trkpt lat="43.72522" lon="3.4387">
        <ele>343.8</ele>
        <time>2017-04-09T07:21:28Z</time>
      </trkpt>
      <trkpt lat="43.7252" lon="3.43859">
        <ele>343</ele>
        <time>2017-04-09T07:21:30Z</time>
      </trkpt>
      <trkpt lat="43.72519" lon="3.43845">
        <ele>337.9</ele>
        <time>2017-04-09T07:21:32Z</time>
      </trkpt>
      <trkpt lat="43.72517" lon="3.43835">
        <ele>333.8</ele>
        <time>2017-04-09T07:21:34Z</time>
      </trkpt>
      <trkpt lat="43.72518" lon="3.43823">
        <ele>333.1</ele>
        <time>2017-04-09T07:21:36Z</time>
      </trkpt>
      <trkpt lat="43.72521" lon="3.43813">
        <ele>332.1</ele>
        <time>2017-04-09T07:21:39Z</time>
      </trkpt>
      <trkpt lat="43.72529" lon="3.43801">
        <ele>324.6</ele>
        <time>2017-04-09T07:21:42Z</time>
      </trkpt>
      <trkpt lat="43.72536" lon="3.43794">
        <ele>321.1</ele>
        <time>2017-04-09T07:21:44Z</time>
      </trkpt>
      <trkpt lat="43.72543" lon="3.43789">
        <ele>319.9</ele>
        <time>2017-04-09T07:21:47Z</time>
      </trkpt>
      <trkpt lat="43.72547" lon="3.4378">
        <ele>316.5</ele>
        <time>2017-04-09T07:22:01Z</time>
      </trkpt>
      <trkpt lat="43.72547" lon="3.43781">
        <ele>312.8</ele>
        <time>2017-04-09T07:22:31Z</time>
      </trkpt>
      <trkpt lat="43.72541" lon="3.43779">
        <ele>308.3</ele>
        <time>2017-04-09T07:22:57Z</time>
      </trkpt>
      <trkpt lat="43.72535" lon="3.4378">
        <ele>307.4</ele>
        <time>2017-04-09T07:23:04Z</time>
      </trkpt>
      <trkpt lat="43.72529" lon="3.43777">
        <ele>306.6</ele>
        <time>2017-04-09T07:23:11Z</time>
      </trkpt>
      <trkpt lat="43.72523" lon="3.43776">
        <ele>306.1</ele>
        <time>2017-04-09T07:23:18Z</time>
      </trkpt>
      <trkpt lat="43.72525" lon="3.43777">
        <ele>306</ele>
        <time>2017-04-09T07:23:24Z</time>
      </trkpt>
      <trkpt lat="43.72518" lon="3.43773">
        <ele>305.8</ele>
        <time>2017-04-09T07:23:32Z</time>
      </trkpt>
      <trkpt lat="43.72511" lon="3.43769">
        <ele>305.8</ele>
        <time>2017-04-09T07:23:39Z</time>
      </trkpt>
      <trkpt lat="43.72504" lon="3.43766">
        <ele>306.2</ele>
        <time>2017-04-09T07:23:46Z</time>
      </trkpt>
      <trkpt lat="43.72499" lon="3.43764">
        <ele>306.7</ele>
        <time>2017-04-09T07:23:53Z</time>
      </trkpt>
      <trkpt lat="43.72492" lon="3.43761">
        <ele>307.1</ele>
        <time>2017-04-09T07:24:00Z</time>
      </trkpt>
      <trkpt lat="43.72487" lon="3.43758">
        <ele>308</ele>
        <time>2017-04-09T07:24:07Z</time>
      </trkpt>
      <trkpt lat="43.7248" lon="3.43756">
        <ele>309</ele>
        <time>2017-04-09T07:24:14Z</time>
      </trkpt>
      <trkpt lat="43.72472" lon="3.43753">
        <ele>309.7</ele>
        <time>2017-04-09T07:24:21Z</time>
      </trkpt>
      <trkpt lat="43.72466" lon="3.43747">
        <ele>311.6</ele>
        <time>2017-04-09T07:24:35Z</time>
      </trkpt>
      <trkpt lat="43.72467" lon="3.43747">
        <ele>311.5</ele>
        <time>2017-04-09T07:25:00Z</time>
      </trkpt>
      <trkpt lat="43.72464" lon="3.4375">
        <ele>311.6</ele>
        <time>2017-04-09T07:25:07Z</time>
      </trkpt>
      <trkpt lat="43.72465" lon="3.43747">
        <ele>313.8</ele>
        <time>2017-04-09T07:25:18Z</time>
      </trkpt>
      <trkpt lat="43.72472" lon="3.43738">
        <ele>314.9</ele>
        <time>2017-04-09T07:25:25Z</time>
      </trkpt>
      <trkpt lat="43.72478" lon="3.43731">
        <ele>314.6</ele>
        <time>2017-04-09T07:25:28Z</time>
      </trkpt>
      <trkpt lat="43.72479" lon="3.4372">
        <ele>314.1</ele>
        <time>2017-04-09T07:25:32Z</time>
      </trkpt>
      <trkpt lat="43.72483" lon="3.4372">
        <ele>312.4</ele>
        <time>2017-04-09T07:25:46Z</time>
      </trkpt>
      <trkpt lat="43.72486" lon="3.43722">
        <ele>311.4</ele>
        <time>2017-04-09T07:25:53Z</time>
      </trkpt>
      <trkpt lat="43.72482" lon="3.43721">
        <ele>310.8</ele>
        <time>2017-04-09T07:26:03Z</time>
      </trkpt>
      <trkpt lat="43.72481" lon="3.4372">
        <ele>309.8</ele>
        <time>2017-04-09T07:26:23Z</time>
      </trkpt>
      <trkpt lat="43.72487" lon="3.43707">
        <ele>309.4</ele>
        <time>2017-04-09T07:26:29Z</time>
      </trkpt>
      <trkpt lat="43.72491" lon="3.43696">
        <ele>309.1</ele>
        <time>2017-04-09T07:26:31Z</time>
      </trkpt>
      <trkpt lat="43.72496" lon="3.43685">
        <ele>308.6</ele>
        <time>2017-04-09T07:26:34Z</time>
      </trkpt>
      <trkpt lat="43.72502" lon="3.4368">
        <ele>308.3</ele>
        <time>2017-04-09T07:26:36Z</time>
      </trkpt>
      <trkpt lat="43.72512" lon="3.43675">
        <ele>307.6</ele>
        <time>2017-04-09T07:26:39Z</time>
      </trkpt>
      <trkpt lat="43.72521" lon="3.43669">
        <ele>306.9</ele>
        <time>2017-04-09T07:26:42Z</time>
      </trkpt>
      <trkpt lat="43.72529" lon="3.43666">
        <ele>306</ele>
        <time>2017-04-09T07:26:45Z</time>
      </trkpt>
      <trkpt lat="43.72535" lon="3.43656">
        <ele>305</ele>
        <time>2017-04-09T07:26:48Z</time>
      </trkpt>
      <trkpt lat="43.7254" lon="3.43646">
        <ele>304.1</ele>
        <time>2017-04-09T07:26:51Z</time>
      </trkpt>
      <trkpt lat="43.72545" lon="3.43636">
        <ele>297.2</ele>
        <time>2017-04-09T07:26:53Z</time>
      </trkpt>
      <trkpt lat="43.72549" lon="3.43625">
        <ele>296.5</ele>
        <time>2017-04-09T07:26:55Z</time>
      </trkpt>
      <trkpt lat="43.72551" lon="3.43614">
        <ele>296</ele>
        <time>2017-04-09T07:26:57Z</time>
      </trkpt>
      <trkpt lat="43.72552" lon="3.43602">
        <ele>295.4</ele>
        <time>2017-04-09T07:26:59Z</time>
      </trkpt>
      <trkpt lat="43.72556" lon="3.43591">
        <ele>294.5</ele>
        <time>2017-04-09T07:27:02Z</time>
      </trkpt>
      <trkpt lat="43.72562" lon="3.43581">
        <ele>287</ele>
        <time>2017-04-09T07:27:04Z</time>
      </trkpt>
      <trkpt lat="43.72565" lon="3.43571">
        <ele>286.4</ele>
        <time>2017-04-09T07:27:06Z</time>
      </trkpt>
      <trkpt lat="43.72572" lon="3.43563">
        <ele>279.9</ele>
        <time>2017-04-09T07:27:08Z</time>
      </trkpt>
      <trkpt lat="43.72574" lon="3.43553">
        <ele>278.1</ele>
        <time>2017-04-09T07:27:13Z</time>
      </trkpt>
      <trkpt lat="43.7257" lon="3.43543">
        <ele>276.7</ele>
        <time>2017-04-09T07:27:18Z</time>
      </trkpt>
      <trkpt lat="43.72571" lon="3.43533">
        <ele>275.9</ele>
        <time>2017-04-09T07:27:21Z</time>
      </trkpt>
      <trkpt lat="43.7257" lon="3.4353">
        <ele>274</ele>
        <time>2017-04-09T07:27:28Z</time>
      </trkpt>
      <trkpt lat="43.72566" lon="3.43515">
        <ele>269.2</ele>
        <time>2017-04-09T07:27:53Z</time>
      </trkpt>
      <trkpt lat="43.72562" lon="3.43504">
        <ele>268</ele>
        <time>2017-04-09T07:27:57Z</time>
      </trkpt>
      <trkpt lat="43.7256" lon="3.43498">
        <ele>266.5</ele>
        <time>2017-04-09T07:28:04Z</time>
      </trkpt>
      <trkpt lat="43.72562" lon="3.43495">
        <ele>265.3</ele>
        <time>2017-04-09T07:28:16Z</time>
      </trkpt>
      <trkpt lat="43.72561" lon="3.43488">
        <ele>264.4</ele>
        <time>2017-04-09T07:28:23Z</time>
      </trkpt>
      <trkpt lat="43.72559" lon="3.43478">
        <ele>263.6</ele>
        <time>2017-04-09T07:28:29Z</time>
      </trkpt>
      <trkpt lat="43.7256" lon="3.43465">
        <ele>263.3</ele>
        <time>2017-04-09T07:28:33Z</time>
      </trkpt>
      <trkpt lat="43.72568" lon="3.43459">
        <ele>261.7</ele>
        <time>2017-04-09T07:28:36Z</time>
      </trkpt>
      <trkpt lat="43.72578" lon="3.43457">
        <ele>261.3</ele>
        <time>2017-04-09T07:28:40Z</time>
      </trkpt>
      <trkpt lat="43.72586" lon="3.43455">
        <ele>261</ele>
        <time>2017-04-09T07:28:43Z</time>
      </trkpt>
      <trkpt lat="43.72594" lon="3.4345">
        <ele>260.6</ele>
        <time>2017-04-09T07:28:47Z</time>
      </trkpt>
      <trkpt lat="43.72592" lon="3.43445">
        <ele>259.9</ele>
        <time>2017-04-09T07:28:54Z</time>
      </trkpt>
      <trkpt lat="43.72592" lon="3.4344">
        <ele>259.4</ele>
        <time>2017-04-09T07:29:01Z</time>
      </trkpt>
      <trkpt lat="43.72594" lon="3.43433">
        <ele>259.6</ele>
        <time>2017-04-09T07:29:08Z</time>
      </trkpt>
      <trkpt lat="43.72596" lon="3.43432">
        <ele>259</ele>
        <time>2017-04-09T07:29:15Z</time>
      </trkpt>
      <trkpt lat="43.72605" lon="3.43431">
        <ele>257.1</ele>
        <time>2017-04-09T07:30:04Z</time>
      </trkpt>
      <trkpt lat="43.72608" lon="3.43422">
        <ele>257.4</ele>
        <time>2017-04-09T07:30:09Z</time>
      </trkpt>
      <trkpt lat="43.72615" lon="3.43414">
        <ele>257.6</ele>
        <time>2017-04-09T07:30:13Z</time>
      </trkpt>
      <trkpt lat="43.72623" lon="3.4341">
        <ele>257.7</ele>
        <time>2017-04-09T07:30:17Z</time>
      </trkpt>
      <trkpt lat="43.72631" lon="3.43404">
        <ele>257.7</ele>
        <time>2017-04-09T07:30:21Z</time>
      </trkpt>
      <trkpt lat="43.72629" lon="3.43394">
        <ele>258</ele>
        <time>2017-04-09T07:30:27Z</time>
      </trkpt>
      <trkpt lat="43.72622" lon="3.43389">
        <ele>259.1</ele>
        <time>2017-04-09T07:30:33Z</time>
      </trkpt>
      <trkpt lat="43.72616" lon="3.43381">
        <ele>260.6</ele>
        <time>2017-04-09T07:30:39Z</time>
      </trkpt>
      <trkpt lat="43.72609" lon="3.43375">
        <ele>261.8</ele>
        <time>2017-04-09T07:30:44Z</time>
      </trkpt>
      <trkpt lat="43.72601" lon="3.43369">
        <ele>262.5</ele>
        <time>2017-04-09T07:30:48Z</time>
      </trkpt>
      <trkpt lat="43.72594" lon="3.43362">
        <ele>263.3</ele>
        <time>2017-04-09T07:30:52Z</time>
      </trkpt>
      <trkpt lat="43.72586" lon="3.43354">
        <ele>264</ele>
        <time>2017-04-09T07:30:56Z</time>
      </trkpt>
      <trkpt lat="43.7258" lon="3.43347">
        <ele>264.7</ele>
        <time>2017-04-09T07:31:00Z</time>
      </trkpt>
      <trkpt lat="43.72573" lon="3.4334">
        <ele>265.7</ele>
        <time>2017-04-09T07:31:04Z</time>
      </trkpt>
      <trkpt lat="43.72566" lon="3.43332">
        <ele>266.5</ele>
        <time>2017-04-09T07:31:08Z</time>
      </trkpt>
      <trkpt lat="43.72562" lon="3.43324">
        <ele>266.9</ele>
        <time>2017-04-09T07:31:11Z</time>
      </trkpt>
      <trkpt lat="43.72557" lon="3.43316">
        <ele>267.4</ele>
        <time>2017-04-09T07:31:15Z</time>
      </trkpt>
      <trkpt lat="43.72552" lon="3.43306">
        <ele>267.8</ele>
        <time>2017-04-09T07:31:19Z</time>
      </trkpt>
      <trkpt lat="43.72547" lon="3.43298">
        <ele>268.6</ele>
        <time>2017-04-09T07:31:24Z</time>
      </trkpt>
      <trkpt lat="43.72542" lon="3.43291">
        <ele>269.2</ele>
        <time>2017-04-09T07:31:28Z</time>
      </trkpt>
      <trkpt lat="43.72536" lon="3.43284">
        <ele>270.1</ele>
        <time>2017-04-09T07:31:33Z</time>
      </trkpt>
      <trkpt lat="43.72531" lon="3.43275">
        <ele>271.8</ele>
        <time>2017-04-09T07:31:39Z</time>
      </trkpt>
      <trkpt lat="43.72533" lon="3.43268">
        <ele>272.7</ele>
        <time>2017-04-09T07:31:46Z</time>
      </trkpt>
      <trkpt lat="43.72538" lon="3.43272">
        <ele>273.7</ele>
        <time>2017-04-09T07:31:53Z</time>
      </trkpt>
      <trkpt lat="43.72545" lon="3.43277">
        <ele>274.8</ele>
        <time>2017-04-09T07:31:58Z</time>
      </trkpt>
      <trkpt lat="43.72552" lon="3.4328">
        <ele>275.4</ele>
        <time>2017-04-09T07:32:02Z</time>
      </trkpt>
      <trkpt lat="43.7256" lon="3.43283">
        <ele>276.5</ele>
        <time>2017-04-09T07:32:09Z</time>
      </trkpt>
      <trkpt lat="43.72567" lon="3.43287">
        <ele>277.2</ele>
        <time>2017-04-09T07:32:13Z</time>
      </trkpt>
      <trkpt lat="43.72575" lon="3.43288">
        <ele>277.9</ele>
        <time>2017-04-09T07:32:17Z</time>
      </trkpt>
      <trkpt lat="43.72583" lon="3.43288">
        <ele>278.3</ele>
        <time>2017-04-09T07:32:21Z</time>
      </trkpt>
      <trkpt lat="43.72593" lon="3.43286">
        <ele>279</ele>
        <time>2017-04-09T07:32:26Z</time>
      </trkpt>
      <trkpt lat="43.726" lon="3.43283">
        <ele>279.5</ele>
        <time>2017-04-09T07:32:30Z</time>
      </trkpt>
      <trkpt lat="43.72607" lon="3.4328">
        <ele>279.9</ele>
        <time>2017-04-09T07:32:33Z</time>
      </trkpt>
      <trkpt lat="43.72614" lon="3.43274">
        <ele>280.4</ele>
        <time>2017-04-09T07:32:37Z</time>
      </trkpt>
      <trkpt lat="43.72621" lon="3.43268">
        <ele>280.8</ele>
        <time>2017-04-09T07:32:41Z</time>
      </trkpt>
      <trkpt lat="43.72627" lon="3.4326">
        <ele>281.6</ele>
        <time>2017-04-09T07:32:46Z</time>
      </trkpt>
      <trkpt lat="43.72634" lon="3.43252">
        <ele>282.4</ele>
        <time>2017-04-09T07:32:51Z</time>
      </trkpt>
      <trkpt lat="43.7264" lon="3.43247">
        <ele>283</ele>
        <time>2017-04-09T07:32:55Z</time>
      </trkpt>
      <trkpt lat="43.72646" lon="3.4324">
        <ele>283.6</ele>
        <time>2017-04-09T07:32:59Z</time>
      </trkpt>
      <trkpt lat="43.7265" lon="3.43229">
        <ele>284.7</ele>
        <time>2017-04-09T07:33:04Z</time>
      </trkpt>
      <trkpt lat="43.72654" lon="3.4322">
        <ele>285.8</ele>
        <time>2017-04-09T07:33:09Z</time>
      </trkpt>
      <trkpt lat="43.72657" lon="3.43208">
        <ele>287</ele>
        <time>2017-04-09T07:33:14Z</time>
      </trkpt>
      <trkpt lat="43.7266" lon="3.43196">
        <ele>288</ele>
        <time>2017-04-09T07:33:19Z</time>
      </trkpt>
      <trkpt lat="43.72662" lon="3.43183">
        <ele>288.6</ele>
        <time>2017-04-09T07:33:23Z</time>
      </trkpt>
      <trkpt lat="43.72662" lon="3.43172">
        <ele>289.2</ele>
        <time>2017-04-09T07:33:27Z</time>
      </trkpt>
      <trkpt lat="43.72663" lon="3.43161">
        <ele>290.1</ele>
        <time>2017-04-09T07:33:31Z</time>
      </trkpt>
      <trkpt lat="43.72663" lon="3.43151">
        <ele>290.9</ele>
        <time>2017-04-09T07:33:35Z</time>
      </trkpt>
      <trkpt lat="43.72665" lon="3.43139">
        <ele>291.6</ele>
        <time>2017-04-09T07:33:39Z</time>
      </trkpt>
      <trkpt lat="43.72666" lon="3.43128">
        <ele>292.1</ele>
        <time>2017-04-09T07:33:43Z</time>
      </trkpt>
      <trkpt lat="43.7267" lon="3.43116">
        <ele>292.7</ele>
        <time>2017-04-09T07:33:47Z</time>
      </trkpt>
      <trkpt lat="43.72673" lon="3.43105">
        <ele>293.2</ele>
        <time>2017-04-09T07:33:50Z</time>
      </trkpt>
      <trkpt lat="43.72677" lon="3.43095">
        <ele>293.6</ele>
        <time>2017-04-09T07:33:53Z</time>
      </trkpt>
      <trkpt lat="43.72683" lon="3.43085">
        <ele>293.9</ele>
        <time>2017-04-09T07:33:56Z</time>
      </trkpt>
      <trkpt lat="43.72692" lon="3.43086">
        <ele>294.4</ele>
        <time>2017-04-09T07:34:01Z</time>
      </trkpt>
      <trkpt lat="43.727" lon="3.43091">
        <ele>294.6</ele>
        <time>2017-04-09T07:34:04Z</time>
      </trkpt>
      <trkpt lat="43.72708" lon="3.43094">
        <ele>294.8</ele>
        <time>2017-04-09T07:34:07Z</time>
      </trkpt>
      <trkpt lat="43.72716" lon="3.43099">
        <ele>295.2</ele>
        <time>2017-04-09T07:34:11Z</time>
      </trkpt>
      <trkpt lat="43.72724" lon="3.43104">
        <ele>295.5</ele>
        <time>2017-04-09T07:34:15Z</time>
      </trkpt>
      <trkpt lat="43.72731" lon="3.43109">
        <ele>295.8</ele>
        <time>2017-04-09T07:34:19Z</time>
      </trkpt>
      <trkpt lat="43.72738" lon="3.43113">
        <ele>296.4</ele>
        <time>2017-04-09T07:34:24Z</time>
      </trkpt>
      <trkpt lat="43.72747" lon="3.43115">
        <ele>296.8</ele>
        <time>2017-04-09T07:34:28Z</time>
      </trkpt>
      <trkpt lat="43.72755" lon="3.43113">
        <ele>297.1</ele>
        <time>2017-04-09T07:34:32Z</time>
      </trkpt>
      <trkpt lat="43.72762" lon="3.43112">
        <ele>297.3</ele>
        <time>2017-04-09T07:34:36Z</time>
      </trkpt>
      <trkpt lat="43.72769" lon="3.43109">
        <ele>297.5</ele>
        <time>2017-04-09T07:34:40Z</time>
      </trkpt>
      <trkpt lat="43.72777" lon="3.43105">
        <ele>297.9</ele>
        <time>2017-04-09T07:34:45Z</time>
      </trkpt>
      <trkpt lat="43.72785" lon="3.43104">
        <ele>298.5</ele>
        <time>2017-04-09T07:34:50Z</time>
      </trkpt>
      <trkpt lat="43.72793" lon="3.43103">
        <ele>299.2</ele>
        <time>2017-04-09T07:34:55Z</time>
      </trkpt>
      <trkpt lat="43.72801" lon="3.43103">
        <ele>300</ele>
        <time>2017-04-09T07:35:00Z</time>
      </trkpt>
      <trkpt lat="43.72809" lon="3.43101">
        <ele>300.6</ele>
        <time>2017-04-09T07:35:05Z</time>
      </trkpt>
      <trkpt lat="43.72817" lon="3.43102">
        <ele>301.4</ele>
        <time>2017-04-09T07:35:11Z</time>
      </trkpt>
      <trkpt lat="43.72822" lon="3.43111">
        <ele>302.5</ele>
        <time>2017-04-09T07:35:17Z</time>
      </trkpt>
      <trkpt lat="43.72825" lon="3.43121">
        <ele>303.7</ele>
        <time>2017-04-09T07:35:23Z</time>
      </trkpt>
      <trkpt lat="43.72828" lon="3.43131">
        <ele>304.7</ele>
        <time>2017-04-09T07:35:28Z</time>
      </trkpt>
      <trkpt lat="43.72835" lon="3.43136">
        <ele>305.8</ele>
        <time>2017-04-09T07:35:34Z</time>
      </trkpt>
      <trkpt lat="43.72843" lon="3.43139">
        <ele>306.5</ele>
        <time>2017-04-09T07:35:38Z</time>
      </trkpt>
      <trkpt lat="43.72851" lon="3.43144">
        <ele>307.7</ele>
        <time>2017-04-09T07:35:44Z</time>
      </trkpt>
      <trkpt lat="43.72858" lon="3.43148">
        <ele>308.9</ele>
        <time>2017-04-09T07:35:50Z</time>
      </trkpt>
      <trkpt lat="43.72864" lon="3.43153">
        <ele>310.2</ele>
        <time>2017-04-09T07:35:55Z</time>
      </trkpt>
      <trkpt lat="43.7287" lon="3.43161">
        <ele>311.2</ele>
        <time>2017-04-09T07:35:59Z</time>
      </trkpt>
      <trkpt lat="43.72874" lon="3.43171">
        <ele>312.7</ele>
        <time>2017-04-09T07:36:06Z</time>
      </trkpt>
      <trkpt lat="43.72881" lon="3.43179">
        <ele>314.6</ele>
        <time>2017-04-09T07:36:13Z</time>
      </trkpt>
      <trkpt lat="43.72887" lon="3.43186">
        <ele>315.9</ele>
        <time>2017-04-09T07:36:18Z</time>
      </trkpt>
      <trkpt lat="43.72892" lon="3.43193">
        <ele>316.9</ele>
        <time>2017-04-09T07:36:23Z</time>
      </trkpt>
      <trkpt lat="43.72898" lon="3.43199">
        <ele>318.3</ele>
        <time>2017-04-09T07:36:29Z</time>
      </trkpt>
      <trkpt lat="43.72905" lon="3.43204">
        <ele>319.5</ele>
        <time>2017-04-09T07:36:34Z</time>
      </trkpt>
      <trkpt lat="43.72913" lon="3.43208">
        <ele>320.5</ele>
        <time>2017-04-09T07:36:39Z</time>
      </trkpt>
      <trkpt lat="43.7292" lon="3.43211">
        <ele>321.7</ele>
        <time>2017-04-09T07:36:44Z</time>
      </trkpt>
      <trkpt lat="43.72929" lon="3.43212">
        <ele>322.4</ele>
        <time>2017-04-09T07:36:48Z</time>
      </trkpt>
      <trkpt lat="43.72937" lon="3.43211">
        <ele>322.9</ele>
        <time>2017-04-09T07:36:52Z</time>
      </trkpt>
      <trkpt lat="43.72945" lon="3.43212">
        <ele>323.7</ele>
        <time>2017-04-09T07:36:57Z</time>
      </trkpt>
      <trkpt lat="43.72953" lon="3.43215">
        <ele>324.5</ele>
        <time>2017-04-09T07:37:02Z</time>
      </trkpt>
      <trkpt lat="43.7296" lon="3.43217">
        <ele>325.5</ele>
        <time>2017-04-09T07:37:07Z</time>
      </trkpt>
      <trkpt lat="43.72968" lon="3.43219">
        <ele>326.5</ele>
        <time>2017-04-09T07:37:12Z</time>
      </trkpt>
      <trkpt lat="43.72976" lon="3.4322">
        <ele>327.4</ele>
        <time>2017-04-09T07:37:17Z</time>
      </trkpt>
      <trkpt lat="43.72984" lon="3.43224">
        <ele>328.3</ele>
        <time>2017-04-09T07:37:21Z</time>
      </trkpt>
      <trkpt lat="43.72993" lon="3.43227">
        <ele>328.9</ele>
        <time>2017-04-09T07:37:25Z</time>
      </trkpt>
      <trkpt lat="43.73001" lon="3.43229">
        <ele>329.8</ele>
        <time>2017-04-09T07:37:29Z</time>
      </trkpt>
      <trkpt lat="43.7301" lon="3.43231">
        <ele>330.6</ele>
        <time>2017-04-09T07:37:34Z</time>
      </trkpt>
      <trkpt lat="43.73019" lon="3.43231">
        <ele>331.3</ele>
        <time>2017-04-09T07:37:38Z</time>
      </trkpt>
      <trkpt lat="43.73027" lon="3.43229">
        <ele>332</ele>
        <time>2017-04-09T07:37:43Z</time>
      </trkpt>
      <trkpt lat="43.73035" lon="3.43231">
        <ele>332.9</ele>
        <time>2017-04-09T07:37:48Z</time>
      </trkpt>
      <trkpt lat="43.73044" lon="3.4323">
        <ele>333.6</ele>
        <time>2017-04-09T07:37:52Z</time>
      </trkpt>
      <trkpt lat="43.73052" lon="3.43229">
        <ele>334.7</ele>
        <time>2017-04-09T07:37:58Z</time>
      </trkpt>
      <trkpt lat="43.73059" lon="3.43227">
        <ele>335.2</ele>
        <time>2017-04-09T07:38:02Z</time>
      </trkpt>
      <trkpt lat="43.73062" lon="3.43215">
        <ele>336.3</ele>
        <time>2017-04-09T07:38:08Z</time>
      </trkpt>
      <trkpt lat="43.73068" lon="3.43205">
        <ele>337.4</ele>
        <time>2017-04-09T07:38:12Z</time>
      </trkpt>
      <trkpt lat="43.73074" lon="3.43195">
        <ele>338.2</ele>
        <time>2017-04-09T07:38:16Z</time>
      </trkpt>
      <trkpt lat="43.73079" lon="3.43187">
        <ele>339.5</ele>
        <time>2017-04-09T07:38:21Z</time>
      </trkpt>
      <trkpt lat="43.73082" lon="3.43178">
        <ele>340.7</ele>
        <time>2017-04-09T07:38:27Z</time>
      </trkpt>
      <trkpt lat="43.73084" lon="3.43167">
        <ele>341.4</ele>
        <time>2017-04-09T07:38:31Z</time>
      </trkpt>
      <trkpt lat="43.73086" lon="3.43158">
        <ele>342.9</ele>
        <time>2017-04-09T07:38:37Z</time>
      </trkpt>
      <trkpt lat="43.73088" lon="3.43147">
        <ele>343.8</ele>
        <time>2017-04-09T07:38:41Z</time>
      </trkpt>
      <trkpt lat="43.7309" lon="3.43136">
        <ele>344.5</ele>
        <time>2017-04-09T07:38:45Z</time>
      </trkpt>
      <trkpt lat="43.73092" lon="3.43124">
        <ele>345.2</ele>
        <time>2017-04-09T07:38:50Z</time>
      </trkpt>
      <trkpt lat="43.73097" lon="3.43112">
        <ele>345.6</ele>
        <time>2017-04-09T07:38:54Z</time>
      </trkpt>
      <trkpt lat="43.73105" lon="3.43108">
        <ele>346.1</ele>
        <time>2017-04-09T07:38:58Z</time>
      </trkpt>
      <trkpt lat="43.73113" lon="3.43107">
        <ele>346.5</ele>
        <time>2017-04-09T07:39:02Z</time>
      </trkpt>
      <trkpt lat="43.73119" lon="3.43101">
        <ele>347</ele>
        <time>2017-04-09T07:39:06Z</time>
      </trkpt>
      <trkpt lat="43.73124" lon="3.43092">
        <ele>347.4</ele>
        <time>2017-04-09T07:39:09Z</time>
      </trkpt>
      <trkpt lat="43.73127" lon="3.43084">
        <ele>347.7</ele>
        <time>2017-04-09T07:39:12Z</time>
      </trkpt>
      <trkpt lat="43.73132" lon="3.43073">
        <ele>348.1</ele>
        <time>2017-04-09T07:39:16Z</time>
      </trkpt>
      <trkpt lat="43.73136" lon="3.43065">
        <ele>348.4</ele>
        <time>2017-04-09T07:39:19Z</time>
      </trkpt>
      <trkpt lat="43.73144" lon="3.43057">
        <ele>348.7</ele>
        <time>2017-04-09T07:39:23Z</time>
      </trkpt>
      <trkpt lat="43.73152" lon="3.43059">
        <ele>349.1</ele>
        <time>2017-04-09T07:39:28Z</time>
      </trkpt>
      <trkpt lat="43.73154" lon="3.43069">
        <ele>349.9</ele>
        <time>2017-04-09T07:39:32Z</time>
      </trkpt>
      <trkpt lat="43.73158" lon="3.4308">
        <ele>350.5</ele>
        <time>2017-04-09T07:39:36Z</time>
      </trkpt>
      <trkpt lat="43.73164" lon="3.43088">
        <ele>351.2</ele>
        <time>2017-04-09T07:39:40Z</time>
      </trkpt>
      <trkpt lat="43.73172" lon="3.43087">
        <ele>351.7</ele>
        <time>2017-04-09T07:39:44Z</time>
      </trkpt>
      <trkpt lat="43.7318" lon="3.43083">
        <ele>352.2</ele>
        <time>2017-04-09T07:39:48Z</time>
      </trkpt>
      <trkpt lat="43.73186" lon="3.43074">
        <ele>352.8</ele>
        <time>2017-04-09T07:39:52Z</time>
      </trkpt>
      <trkpt lat="43.73194" lon="3.43072">
        <ele>353</ele>
        <time>2017-04-09T07:39:55Z</time>
      </trkpt>
      <trkpt lat="43.73201" lon="3.43076">
        <ele>353.4</ele>
        <time>2017-04-09T07:39:58Z</time>
      </trkpt>
      <trkpt lat="43.73208" lon="3.43084">
        <ele>353.9</ele>
        <time>2017-04-09T07:40:02Z</time>
      </trkpt>
      <trkpt lat="43.73212" lon="3.43093">
        <ele>354.3</ele>
        <time>2017-04-09T07:40:05Z</time>
      </trkpt>
      <trkpt lat="43.73213" lon="3.43103">
        <ele>354.6</ele>
        <time>2017-04-09T07:40:08Z</time>
      </trkpt>
      <trkpt lat="43.73214" lon="3.43114">
        <ele>355</ele>
        <time>2017-04-09T07:40:12Z</time>
      </trkpt>
      <trkpt lat="43.73219" lon="3.43123">
        <ele>355.4</ele>
        <time>2017-04-09T07:40:16Z</time>
      </trkpt>
      <trkpt lat="43.73226" lon="3.43131">
        <ele>355.7</ele>
        <time>2017-04-09T07:40:19Z</time>
      </trkpt>
      <trkpt lat="43.73232" lon="3.43141">
        <ele>356.2</ele>
        <time>2017-04-09T07:40:23Z</time>
      </trkpt>
      <trkpt lat="43.73236" lon="3.43148">
        <ele>356.7</ele>
        <time>2017-04-09T07:40:26Z</time>
      </trkpt>
      <trkpt lat="43.73243" lon="3.43158">
        <ele>357.1</ele>
        <time>2017-04-09T07:40:30Z</time>
      </trkpt>
      <trkpt lat="43.73249" lon="3.43169">
        <ele>357.9</ele>
        <time>2017-04-09T07:40:35Z</time>
      </trkpt>
      <trkpt lat="43.73255" lon="3.43176">
        <ele>358.7</ele>
        <time>2017-04-09T07:40:41Z</time>
      </trkpt>
      <trkpt lat="43.73257" lon="3.43178">
        <ele>359.9</ele>
        <time>2017-04-09T07:40:48Z</time>
      </trkpt>
      <trkpt lat="43.73258" lon="3.4318">
        <ele>360.5</ele>
        <time>2017-04-09T07:41:01Z</time>
      </trkpt>
      <trkpt lat="43.73259" lon="3.43173">
        <ele>361</ele>
        <time>2017-04-09T07:41:17Z</time>
      </trkpt>
      <trkpt lat="43.73257" lon="3.43177">
        <ele>361.4</ele>
        <time>2017-04-09T07:41:24Z</time>
      </trkpt>
      <trkpt lat="43.73257" lon="3.43185">
        <ele>362.1</ele>
        <time>2017-04-09T07:41:19Z</time>
      </trkpt>
      <trkpt lat="43.73263" lon="3.43182">
        <ele>362.1</ele>
        <time>2017-04-09T07:43:09Z</time>
      </trkpt>
      <trkpt lat="43.73269" lon="3.43176">
        <ele>362.2</ele>
        <time>2017-04-09T07:43:12Z</time>
      </trkpt>
      <trkpt lat="43.73271" lon="3.43163">
        <ele>362.3</ele>
        <time>2017-04-09T07:43:16Z</time>
      </trkpt>
      <trkpt lat="43.73273" lon="3.4315">
        <ele>362.2</ele>
        <time>2017-04-09T07:43:19Z</time>
      </trkpt>
      <trkpt lat="43.73275" lon="3.4314">
        <ele>362</ele>
        <time>2017-04-09T07:43:21Z</time>
      </trkpt>
      <trkpt lat="43.73283" lon="3.43131">
        <ele>361.2</ele>
        <time>2017-04-09T07:43:25Z</time>
      </trkpt>
      <trkpt lat="43.73293" lon="3.43127">
        <ele>360.4</ele>
        <time>2017-04-09T07:43:28Z</time>
      </trkpt>
      <trkpt lat="43.73302" lon="3.43124">
        <ele>359.3</ele>
        <time>2017-04-09T07:43:31Z</time>
      </trkpt>
      <trkpt lat="43.73305" lon="3.43114">
        <ele>358.3</ele>
        <time>2017-04-09T07:43:34Z</time>
      </trkpt>
      <trkpt lat="43.73305" lon="3.43104">
        <ele>357.1</ele>
        <time>2017-04-09T07:43:37Z</time>
      </trkpt>
      <trkpt lat="43.73307" lon="3.43093">
        <ele>356.3</ele>
        <time>2017-04-09T07:43:39Z</time>
      </trkpt>
      <trkpt lat="43.73308" lon="3.43082">
        <ele>355.3</ele>
        <time>2017-04-09T07:43:41Z</time>
      </trkpt>
      <trkpt lat="43.73303" lon="3.43068">
        <ele>353.8</ele>
        <time>2017-04-09T07:43:44Z</time>
      </trkpt>
      <trkpt lat="43.73299" lon="3.43056">
        <ele>352.2</ele>
        <time>2017-04-09T07:43:47Z</time>
      </trkpt>
      <trkpt lat="43.73301" lon="3.43043">
        <ele>350.6</ele>
        <time>2017-04-09T07:43:50Z</time>
      </trkpt>
      <trkpt lat="43.73302" lon="3.4303">
        <ele>342.6</ele>
        <time>2017-04-09T07:43:54Z</time>
      </trkpt>
      <trkpt lat="43.7331" lon="3.43029">
        <ele>339</ele>
        <time>2017-04-09T07:44:00Z</time>
      </trkpt>
      <trkpt lat="43.73313" lon="3.43029">
        <ele>336.2</ele>
        <time>2017-04-09T07:44:07Z</time>
      </trkpt>
      <trkpt lat="43.73316" lon="3.43033">
        <ele>329.8</ele>
        <time>2017-04-09T07:44:27Z</time>
      </trkpt>
      <trkpt lat="43.73319" lon="3.43038">
        <ele>328.2</ele>
        <time>2017-04-09T07:44:34Z</time>
      </trkpt>
      <trkpt lat="43.73318" lon="3.4304">
        <ele>324</ele>
        <time>2017-04-09T07:44:48Z</time>
      </trkpt>
      <trkpt lat="43.73321" lon="3.43041">
        <ele>322.4</ele>
        <time>2017-04-09T07:44:55Z</time>
      </trkpt>
      <trkpt lat="43.73329" lon="3.43047">
        <ele>321.5</ele>
        <time>2017-04-09T07:45:01Z</time>
      </trkpt>
      <trkpt lat="43.73333" lon="3.43055">
        <ele>320.7</ele>
        <time>2017-04-09T07:45:06Z</time>
      </trkpt>
      <trkpt lat="43.73338" lon="3.43063">
        <ele>319.5</ele>
        <time>2017-04-09T07:45:13Z</time>
      </trkpt>
      <trkpt lat="43.73344" lon="3.4307">
        <ele>318.8</ele>
        <time>2017-04-09T07:45:19Z</time>
      </trkpt>
      <trkpt lat="43.7335" lon="3.43078">
        <ele>318.5</ele>
        <time>2017-04-09T07:45:24Z</time>
      </trkpt>
      <trkpt lat="43.73357" lon="3.43084">
        <ele>318.1</ele>
        <time>2017-04-09T07:45:31Z</time>
      </trkpt>
      <trkpt lat="43.73362" lon="3.43093">
        <ele>317.8</ele>
        <time>2017-04-09T07:45:38Z</time>
      </trkpt>
      <trkpt lat="43.73367" lon="3.431">
        <ele>317.8</ele>
        <time>2017-04-09T07:45:45Z</time>
      </trkpt>
      <trkpt lat="43.73371" lon="3.43107">
        <ele>317.8</ele>
        <time>2017-04-09T07:45:52Z</time>
      </trkpt>
      <trkpt lat="43.73379" lon="3.43117">
        <ele>318.2</ele>
        <time>2017-04-09T07:46:06Z</time>
      </trkpt>
      <trkpt lat="43.7338" lon="3.43118">
        <ele>318.6</ele>
        <time>2017-04-09T07:46:20Z</time>
      </trkpt>
      <trkpt lat="43.73383" lon="3.43122">
        <ele>319.5</ele>
        <time>2017-04-09T07:46:41Z</time>
      </trkpt>
      <trkpt lat="43.73385" lon="3.43121">
        <ele>319</ele>
        <time>2017-04-09T07:46:48Z</time>
      </trkpt>
      <trkpt lat="43.7339" lon="3.43111">
        <ele>318.6</ele>
        <time>2017-04-09T07:46:55Z</time>
      </trkpt>
      <trkpt lat="43.73391" lon="3.43101">
        <ele>318.5</ele>
        <time>2017-04-09T07:46:57Z</time>
      </trkpt>
      <trkpt lat="43.73388" lon="3.43091">
        <ele>318.3</ele>
        <time>2017-04-09T07:47:00Z</time>
      </trkpt>
      <trkpt lat="43.73389" lon="3.43079">
        <ele>317.9</ele>
        <time>2017-04-09T07:47:04Z</time>
      </trkpt>
      <trkpt lat="43.73393" lon="3.43069">
        <ele>317</ele>
        <time>2017-04-09T07:47:08Z</time>
      </trkpt>
      <trkpt lat="43.734" lon="3.43063">
        <ele>316.2</ele>
        <time>2017-04-09T07:47:12Z</time>
      </trkpt>
      <trkpt lat="43.73408" lon="3.43055">
        <ele>310.7</ele>
        <time>2017-04-09T07:47:15Z</time>
      </trkpt>
      <trkpt lat="43.73415" lon="3.43049">
        <ele>309.9</ele>
        <time>2017-04-09T07:47:17Z</time>
      </trkpt>
      <trkpt lat="43.73419" lon="3.43038">
        <ele>308.8</ele>
        <time>2017-04-09T07:47:20Z</time>
      </trkpt>
      <trkpt lat="43.73424" lon="3.43027">
        <ele>307.5</ele>
        <time>2017-04-09T07:47:23Z</time>
      </trkpt>
      <trkpt lat="43.73426" lon="3.43017">
        <ele>306.1</ele>
        <time>2017-04-09T07:47:26Z</time>
      </trkpt>
      <trkpt lat="43.73437" lon="3.43014">
        <ele>304</ele>
        <time>2017-04-09T07:47:30Z</time>
      </trkpt>
      <trkpt lat="43.73446" lon="3.43012">
        <ele>298.8</ele>
        <time>2017-04-09T07:47:32Z</time>
      </trkpt>
      <trkpt lat="43.73454" lon="3.43009">
        <ele>292.3</ele>
        <time>2017-04-09T07:47:34Z</time>
      </trkpt>
      <trkpt lat="43.73461" lon="3.43007">
        <ele>291.3</ele>
        <time>2017-04-09T07:47:37Z</time>
      </trkpt>
      <trkpt lat="43.7347" lon="3.43005">
        <ele>290.1</ele>
        <time>2017-04-09T07:47:40Z</time>
      </trkpt>
      <trkpt lat="43.73478" lon="3.4301">
        <ele>288.5</ele>
        <time>2017-04-09T07:47:44Z</time>
      </trkpt>
      <trkpt lat="43.73485" lon="3.43014">
        <ele>286.6</ele>
        <time>2017-04-09T07:47:49Z</time>
      </trkpt>
      <trkpt lat="43.73494" lon="3.43009">
        <ele>285.3</ele>
        <time>2017-04-09T07:47:53Z</time>
      </trkpt>
      <trkpt lat="43.73499" lon="3.42998">
        <ele>284.4</ele>
        <time>2017-04-09T07:47:56Z</time>
      </trkpt>
      <trkpt lat="43.73498" lon="3.42987">
        <ele>283.7</ele>
        <time>2017-04-09T07:47:58Z</time>
      </trkpt>
      <trkpt lat="43.73497" lon="3.42976">
        <ele>280</ele>
        <time>2017-04-09T07:48:00Z</time>
      </trkpt>
      <trkpt lat="43.73503" lon="3.42968">
        <ele>279.1</ele>
        <time>2017-04-09T07:48:03Z</time>
      </trkpt>
      <trkpt lat="43.73511" lon="3.42972">
        <ele>277.6</ele>
        <time>2017-04-09T07:48:08Z</time>
      </trkpt>
      <trkpt lat="43.73517" lon="3.42978">
        <ele>276.6</ele>
        <time>2017-04-09T07:48:12Z</time>
      </trkpt>
      <trkpt lat="43.73523" lon="3.42985">
        <ele>275.3</ele>
        <time>2017-04-09T07:48:18Z</time>
      </trkpt>
      <trkpt lat="43.73527" lon="3.42979">
        <ele>274</ele>
        <time>2017-04-09T07:48:25Z</time>
      </trkpt>
      <trkpt lat="43.7353" lon="3.42975">
        <ele>272.5</ele>
        <time>2017-04-09T07:48:32Z</time>
      </trkpt>
      <trkpt lat="43.73533" lon="3.42967">
        <ele>270.9</ele>
        <time>2017-04-09T07:48:39Z</time>
      </trkpt>
      <trkpt lat="43.73536" lon="3.4296">
        <ele>269.8</ele>
        <time>2017-04-09T07:48:46Z</time>
      </trkpt>
      <trkpt lat="43.73534" lon="3.42951">
        <ele>268.8</ele>
        <time>2017-04-09T07:49:00Z</time>
      </trkpt>
      <trkpt lat="43.73534" lon="3.42956">
        <ele>268.6</ele>
        <time>2017-04-09T07:49:09Z</time>
      </trkpt>
      <trkpt lat="43.73534" lon="3.42953">
        <ele>267.3</ele>
        <time>2017-04-09T07:49:23Z</time>
      </trkpt>
      <trkpt lat="43.73534" lon="3.42952">
        <ele>267.2</ele>
        <time>2017-04-09T07:49:30Z</time>
      </trkpt>
      <trkpt lat="43.73535" lon="3.42954">
        <ele>266.5</ele>
        <time>2017-04-09T07:49:22Z</time>
      </trkpt>
      <trkpt lat="43.73544" lon="3.42952">
        <ele>266.1</ele>
        <time>2017-04-09T07:49:33Z</time>
      </trkpt>
      <trkpt lat="43.73551" lon="3.42946">
        <ele>265.8</ele>
        <time>2017-04-09T07:50:41Z</time>
      </trkpt>
      <trkpt lat="43.73556" lon="3.42939">
        <ele>265.7</ele>
        <time>2017-04-09T07:50:45Z</time>
      </trkpt>
      <trkpt lat="43.73554" lon="3.42928">
        <ele>265.8</ele>
        <time>2017-04-09T07:50:49Z</time>
      </trkpt>
      <trkpt lat="43.73551" lon="3.42919">
        <ele>265.6</ele>
        <time>2017-04-09T07:50:54Z</time>
      </trkpt>
      <trkpt lat="43.73545" lon="3.42914">
        <ele>265.9</ele>
        <time>2017-04-09T07:50:58Z</time>
      </trkpt>
      <trkpt lat="43.73537" lon="3.42907">
        <ele>266.2</ele>
        <time>2017-04-09T07:51:03Z</time>
      </trkpt>
      <trkpt lat="43.73535" lon="3.42898">
        <ele>266.3</ele>
        <time>2017-04-09T07:51:09Z</time>
      </trkpt>
      <trkpt lat="43.73543" lon="3.42896">
        <ele>265.9</ele>
        <time>2017-04-09T07:51:15Z</time>
      </trkpt>
      <trkpt lat="43.7355" lon="3.42895">
        <ele>265.8</ele>
        <time>2017-04-09T07:51:20Z</time>
      </trkpt>
      <trkpt lat="43.73559" lon="3.42895">
        <ele>265.7</ele>
        <time>2017-04-09T07:51:25Z</time>
      </trkpt>
      <trkpt lat="43.73567" lon="3.42897">
        <ele>265.7</ele>
        <time>2017-04-09T07:51:30Z</time>
      </trkpt>
      <trkpt lat="43.73576" lon="3.429">
        <ele>265.8</ele>
        <time>2017-04-09T07:51:35Z</time>
      </trkpt>
      <trkpt lat="43.73585" lon="3.42904">
        <ele>266.1</ele>
        <time>2017-04-09T07:51:40Z</time>
      </trkpt>
      <trkpt lat="43.73592" lon="3.42904">
        <ele>266.3</ele>
        <time>2017-04-09T07:51:45Z</time>
      </trkpt>
      <trkpt lat="43.736" lon="3.42905">
        <ele>266.4</ele>
        <time>2017-04-09T07:51:49Z</time>
      </trkpt>
      <trkpt lat="43.73609" lon="3.42904">
        <ele>266.3</ele>
        <time>2017-04-09T07:51:53Z</time>
      </trkpt>
      <trkpt lat="43.73618" lon="3.42902">
        <ele>266.3</ele>
        <time>2017-04-09T07:51:56Z</time>
      </trkpt>
      <trkpt lat="43.73627" lon="3.429">
        <ele>266.5</ele>
        <time>2017-04-09T07:52:00Z</time>
      </trkpt>
      <trkpt lat="43.73634" lon="3.42905">
        <ele>267.5</ele>
        <time>2017-04-09T07:52:07Z</time>
      </trkpt>
      <trkpt lat="43.7364" lon="3.42914">
        <ele>268</ele>
        <time>2017-04-09T07:52:11Z</time>
      </trkpt>
      <trkpt lat="43.73645" lon="3.42924">
        <ele>268.4</ele>
        <time>2017-04-09T07:52:15Z</time>
      </trkpt>
      <trkpt lat="43.73649" lon="3.42937">
        <ele>269.4</ele>
        <time>2017-04-09T07:52:18Z</time>
      </trkpt>
      <trkpt lat="43.73655" lon="3.42947">
        <ele>269.9</ele>
        <time>2017-04-09T07:52:20Z</time>
      </trkpt>
      <trkpt lat="43.73664" lon="3.42955">
        <ele>269.5</ele>
        <time>2017-04-09T07:52:22Z</time>
      </trkpt>
      <trkpt lat="43.73675" lon="3.42959">
        <ele>268.8</ele>
        <time>2017-04-09T07:52:24Z</time>
      </trkpt>
      <trkpt lat="43.73687" lon="3.42962">
        <ele>268.1</ele>
        <time>2017-04-09T07:52:26Z</time>
      </trkpt>
      <trkpt lat="43.73699" lon="3.42962">
        <ele>266.8</ele>
        <time>2017-04-09T07:52:28Z</time>
      </trkpt>
      <trkpt lat="43.7371" lon="3.42961">
        <ele>265.6</ele>
        <time>2017-04-09T07:52:30Z</time>
      </trkpt>
      <trkpt lat="43.7372" lon="3.42961">
        <ele>264.5</ele>
        <time>2017-04-09T07:52:32Z</time>
      </trkpt>
      <trkpt lat="43.7373" lon="3.42962">
        <ele>263.4</ele>
        <time>2017-04-09T07:52:34Z</time>
      </trkpt>
      <trkpt lat="43.73739" lon="3.42963">
        <ele>262.8</ele>
        <time>2017-04-09T07:52:36Z</time>
      </trkpt>
      <trkpt lat="43.73749" lon="3.42965">
        <ele>262.8</ele>
        <time>2017-04-09T07:52:38Z</time>
      </trkpt>
      <trkpt lat="43.73758" lon="3.42967">
        <ele>263.6</ele>
        <time>2017-04-09T07:52:40Z</time>
      </trkpt>
      <trkpt lat="43.73765" lon="3.42969">
        <ele>264.5</ele>
        <time>2017-04-09T07:52:42Z</time>
      </trkpt>
      <trkpt lat="43.73773" lon="3.4297">
        <ele>265.1</ele>
        <time>2017-04-09T07:52:45Z</time>
      </trkpt>
      <trkpt lat="43.73781" lon="3.4297">
        <ele>265.8</ele>
        <time>2017-04-09T07:52:48Z</time>
      </trkpt>
      <trkpt lat="43.73789" lon="3.4297">
        <ele>266.1</ele>
        <time>2017-04-09T07:52:50Z</time>
      </trkpt>
      <trkpt lat="43.73799" lon="3.4297">
        <ele>266.7</ele>
        <time>2017-04-09T07:52:53Z</time>
      </trkpt>
      <trkpt lat="43.7381" lon="3.4297">
        <ele>267.3</ele>
        <time>2017-04-09T07:52:56Z</time>
      </trkpt>
      <trkpt lat="43.73819" lon="3.42969">
        <ele>267.9</ele>
        <time>2017-04-09T07:52:59Z</time>
      </trkpt>
      <trkpt lat="43.73827" lon="3.42969">
        <ele>268.5</ele>
        <time>2017-04-09T07:53:02Z</time>
      </trkpt>
      <trkpt lat="43.73834" lon="3.42969">
        <ele>269</ele>
        <time>2017-04-09T07:53:04Z</time>
      </trkpt>
      <trkpt lat="43.73843" lon="3.42972">
        <ele>269.6</ele>
        <time>2017-04-09T07:53:07Z</time>
      </trkpt>
      <trkpt lat="43.73851" lon="3.42973">
        <ele>270.3</ele>
        <time>2017-04-09T07:53:10Z</time>
      </trkpt>
      <trkpt lat="43.73862" lon="3.42974">
        <ele>270.9</ele>
        <time>2017-04-09T07:53:13Z</time>
      </trkpt>
      <trkpt lat="43.7387" lon="3.42973">
        <ele>271.2</ele>
        <time>2017-04-09T07:53:15Z</time>
      </trkpt>
      <trkpt lat="43.73877" lon="3.4297">
        <ele>271.5</ele>
        <time>2017-04-09T07:53:17Z</time>
      </trkpt>
      <trkpt lat="43.73885" lon="3.42969">
        <ele>272</ele>
        <time>2017-04-09T07:53:20Z</time>
      </trkpt>
      <trkpt lat="43.73895" lon="3.42968">
        <ele>272.6</ele>
        <time>2017-04-09T07:53:23Z</time>
      </trkpt>
      <trkpt lat="43.73903" lon="3.42968">
        <ele>273.2</ele>
        <time>2017-04-09T07:53:27Z</time>
      </trkpt>
      <trkpt lat="43.73911" lon="3.42965">
        <ele>273.5</ele>
        <time>2017-04-09T07:53:31Z</time>
      </trkpt>
      <trkpt lat="43.7392" lon="3.42965">
        <ele>274.1</ele>
        <time>2017-04-09T07:53:35Z</time>
      </trkpt>
      <trkpt lat="43.73929" lon="3.42965">
        <ele>274.4</ele>
        <time>2017-04-09T07:53:38Z</time>
      </trkpt>
      <trkpt lat="43.73938" lon="3.42966">
        <ele>275.1</ele>
        <time>2017-04-09T07:53:42Z</time>
      </trkpt>
      <trkpt lat="43.73946" lon="3.42962">
        <ele>275.7</ele>
        <time>2017-04-09T07:53:46Z</time>
      </trkpt>
      <trkpt lat="43.73954" lon="3.42961">
        <ele>276.2</ele>
        <time>2017-04-09T07:53:50Z</time>
      </trkpt>
      <trkpt lat="43.73962" lon="3.42959">
        <ele>276.8</ele>
        <time>2017-04-09T07:53:53Z</time>
      </trkpt>
      <trkpt lat="43.73969" lon="3.42958">
        <ele>277.4</ele>
        <time>2017-04-09T07:53:56Z</time>
      </trkpt>
      <trkpt lat="43.73978" lon="3.42955">
        <ele>278</ele>
        <time>2017-04-09T07:54:00Z</time>
      </trkpt>
      <trkpt lat="43.73987" lon="3.42954">
        <ele>278.5</ele>
        <time>2017-04-09T07:54:04Z</time>
      </trkpt>
      <trkpt lat="43.73995" lon="3.42952">
        <ele>278.7</ele>
        <time>2017-04-09T07:54:08Z</time>
      </trkpt>
      <trkpt lat="43.74003" lon="3.4295">
        <ele>279</ele>
        <time>2017-04-09T07:54:12Z</time>
      </trkpt>
      <trkpt lat="43.74011" lon="3.4295">
        <ele>279.4</ele>
        <time>2017-04-09T07:54:17Z</time>
      </trkpt>
      <trkpt lat="43.74019" lon="3.42951">
        <ele>279.7</ele>
        <time>2017-04-09T07:54:21Z</time>
      </trkpt>
      <trkpt lat="43.74026" lon="3.42954">
        <ele>280.1</ele>
        <time>2017-04-09T07:54:26Z</time>
      </trkpt>
      <trkpt lat="43.74033" lon="3.4296">
        <ele>280.5</ele>
        <time>2017-04-09T07:54:29Z</time>
      </trkpt>
      <trkpt lat="43.74038" lon="3.42969">
        <ele>281.5</ele>
        <time>2017-04-09T07:54:32Z</time>
      </trkpt>
      <trkpt lat="43.74045" lon="3.42975">
        <ele>282.5</ele>
        <time>2017-04-09T07:54:35Z</time>
      </trkpt>
      <trkpt lat="43.74054" lon="3.4298">
        <ele>283.4</ele>
        <time>2017-04-09T07:54:37Z</time>
      </trkpt>
      <trkpt lat="43.74063" lon="3.42983">
        <ele>287.4</ele>
        <time>2017-04-09T07:54:39Z</time>
      </trkpt>
      <trkpt lat="43.74071" lon="3.42987">
        <ele>287.9</ele>
        <time>2017-04-09T07:54:41Z</time>
      </trkpt>
      <trkpt lat="43.74079" lon="3.42988">
        <ele>288.2</ele>
        <time>2017-04-09T07:54:43Z</time>
      </trkpt>
      <trkpt lat="43.74087" lon="3.42993">
        <ele>288.7</ele>
        <time>2017-04-09T07:54:46Z</time>
      </trkpt>
      <trkpt lat="43.74093" lon="3.43">
        <ele>289.4</ele>
        <time>2017-04-09T07:54:49Z</time>
      </trkpt>
      <trkpt lat="43.74101" lon="3.4301">
        <ele>290</ele>
        <time>2017-04-09T07:54:52Z</time>
      </trkpt>
      <trkpt lat="43.74108" lon="3.43016">
        <ele>290.5</ele>
        <time>2017-04-09T07:54:55Z</time>
      </trkpt>
      <trkpt lat="43.74116" lon="3.43021">
        <ele>290.7</ele>
        <time>2017-04-09T07:54:57Z</time>
      </trkpt>
      <trkpt lat="43.74123" lon="3.43027">
        <ele>290.9</ele>
        <time>2017-04-09T07:54:59Z</time>
      </trkpt>
      <trkpt lat="43.74131" lon="3.43033">
        <ele>291.2</ele>
        <time>2017-04-09T07:55:01Z</time>
      </trkpt>
      <trkpt lat="43.74138" lon="3.43038">
        <ele>291.7</ele>
        <time>2017-04-09T07:55:03Z</time>
      </trkpt>
      <trkpt lat="43.74147" lon="3.43043">
        <ele>292.2</ele>
        <time>2017-04-09T07:55:05Z</time>
      </trkpt>
      <trkpt lat="43.74159" lon="3.43046">
        <ele>292.7</ele>
        <time>2017-04-09T07:55:08Z</time>
      </trkpt>
      <trkpt lat="43.74167" lon="3.43046">
        <ele>293</ele>
        <time>2017-04-09T07:55:10Z</time>
      </trkpt>
      <trkpt lat="43.7418" lon="3.43043">
        <ele>293.4</ele>
        <time>2017-04-09T07:55:12Z</time>
      </trkpt>
      <trkpt lat="43.74191" lon="3.43042">
        <ele>293.7</ele>
        <time>2017-04-09T07:55:14Z</time>
      </trkpt>
      <trkpt lat="43.74201" lon="3.43047">
        <ele>293.9</ele>
        <time>2017-04-09T07:55:17Z</time>
      </trkpt>
      <trkpt lat="43.7421" lon="3.43049">
        <ele>294</ele>
        <time>2017-04-09T07:55:20Z</time>
      </trkpt>
      <trkpt lat="43.74221" lon="3.43055">
        <ele>293.9</ele>
        <time>2017-04-09T07:55:24Z</time>
      </trkpt>
      <trkpt lat="43.74229" lon="3.4306">
        <ele>293.9</ele>
        <time>2017-04-09T07:55:26Z</time>
      </trkpt>
      <trkpt lat="43.74238" lon="3.43063">
        <ele>293.9</ele>
        <time>2017-04-09T07:55:28Z</time>
      </trkpt>
      <trkpt lat="43.74248" lon="3.43066">
        <ele>293.8</ele>
        <time>2017-04-09T07:55:31Z</time>
      </trkpt>
      <trkpt lat="43.74256" lon="3.4307">
        <ele>293.8</ele>
        <time>2017-04-09T07:55:34Z</time>
      </trkpt>
      <trkpt lat="43.74264" lon="3.43074">
        <ele>293.8</ele>
        <time>2017-04-09T07:55:36Z</time>
      </trkpt>
      <trkpt lat="43.74272" lon="3.43076">
        <ele>293.6</ele>
        <time>2017-04-09T07:55:38Z</time>
      </trkpt>
      <trkpt lat="43.7428" lon="3.43081">
        <ele>293.7</ele>
        <time>2017-04-09T07:55:41Z</time>
      </trkpt>
      <trkpt lat="43.74288" lon="3.43086">
        <ele>293.9</ele>
        <time>2017-04-09T07:55:44Z</time>
      </trkpt>
      <trkpt lat="43.74296" lon="3.43092">
        <ele>294.2</ele>
        <time>2017-04-09T07:55:47Z</time>
      </trkpt>
      <trkpt lat="43.74305" lon="3.43099">
        <ele>294.6</ele>
        <time>2017-04-09T07:55:50Z</time>
      </trkpt>
      <trkpt lat="43.74319" lon="3.43107">
        <ele>295.3</ele>
        <time>2017-04-09T07:55:52Z</time>
      </trkpt>
      <trkpt lat="43.7433" lon="3.43112">
        <ele>295.3</ele>
        <time>2017-04-09T07:55:54Z</time>
      </trkpt>
      <trkpt lat="43.74339" lon="3.43114">
        <ele>295.3</ele>
        <time>2017-04-09T07:55:56Z</time>
      </trkpt>
      <trkpt lat="43.74347" lon="3.43114">
        <ele>295.3</ele>
        <time>2017-04-09T07:55:58Z</time>
      </trkpt>
      <trkpt lat="43.74355" lon="3.43115">
        <ele>295.4</ele>
        <time>2017-04-09T07:56:00Z</time>
      </trkpt>
      <trkpt lat="43.74363" lon="3.43115">
        <ele>295.5</ele>
        <time>2017-04-09T07:56:02Z</time>
      </trkpt>
      <trkpt lat="43.74374" lon="3.43115">
        <ele>295.5</ele>
        <time>2017-04-09T07:56:05Z</time>
      </trkpt>
      <trkpt lat="43.74383" lon="3.43114">
        <ele>295.5</ele>
        <time>2017-04-09T07:56:07Z</time>
      </trkpt>
      <trkpt lat="43.74391" lon="3.43113">
        <ele>295.5</ele>
        <time>2017-04-09T07:56:09Z</time>
      </trkpt>
      <trkpt lat="43.74399" lon="3.43114">
        <ele>295.6</ele>
        <time>2017-04-09T07:56:11Z</time>
      </trkpt>
      <trkpt lat="43.74408" lon="3.43115">
        <ele>296.1</ele>
        <time>2017-04-09T07:56:13Z</time>
      </trkpt>
      <trkpt lat="43.74418" lon="3.43114">
        <ele>296.1</ele>
        <time>2017-04-09T07:56:15Z</time>
      </trkpt>
      <trkpt lat="43.74426" lon="3.43113">
        <ele>296.1</ele>
        <time>2017-04-09T07:56:17Z</time>
      </trkpt>
      <trkpt lat="43.74437" lon="3.43112">
        <ele>296.2</ele>
        <time>2017-04-09T07:56:19Z</time>
      </trkpt>
      <trkpt lat="43.74444" lon="3.4312">
        <ele>296.3</ele>
        <time>2017-04-09T07:56:22Z</time>
      </trkpt>
      <trkpt lat="43.74453" lon="3.4312">
        <ele>296.4</ele>
        <time>2017-04-09T07:56:24Z</time>
      </trkpt>
      <trkpt lat="43.74462" lon="3.4312">
        <ele>296.4</ele>
        <time>2017-04-09T07:56:26Z</time>
      </trkpt>
      <trkpt lat="43.74472" lon="3.43117">
        <ele>296.4</ele>
        <time>2017-04-09T07:56:29Z</time>
      </trkpt>
      <trkpt lat="43.7448" lon="3.43113">
        <ele>296.3</ele>
        <time>2017-04-09T07:56:32Z</time>
      </trkpt>
      <trkpt lat="43.74487" lon="3.43111">
        <ele>296.2</ele>
        <time>2017-04-09T07:56:35Z</time>
      </trkpt>
      <trkpt lat="43.74495" lon="3.43112">
        <ele>296.1</ele>
        <time>2017-04-09T07:56:38Z</time>
      </trkpt>
      <trkpt lat="43.74502" lon="3.43113">
        <ele>296.1</ele>
        <time>2017-04-09T07:56:41Z</time>
      </trkpt>
      <trkpt lat="43.74511" lon="3.43114">
        <ele>296</ele>
        <time>2017-04-09T07:56:45Z</time>
      </trkpt>
      <trkpt lat="43.74519" lon="3.43116">
        <ele>295.9</ele>
        <time>2017-04-09T07:56:48Z</time>
      </trkpt>
      <trkpt lat="43.74528" lon="3.43119">
        <ele>295.9</ele>
        <time>2017-04-09T07:56:53Z</time>
      </trkpt>
      <trkpt lat="43.74535" lon="3.43122">
        <ele>296.1</ele>
        <time>2017-04-09T07:56:57Z</time>
      </trkpt>
      <trkpt lat="43.74542" lon="3.43125">
        <ele>296.4</ele>
        <time>2017-04-09T07:57:00Z</time>
      </trkpt>
      <trkpt lat="43.74549" lon="3.43128">
        <ele>297.2</ele>
        <time>2017-04-09T07:57:04Z</time>
      </trkpt>
      <trkpt lat="43.74556" lon="3.43132">
        <ele>297.7</ele>
        <time>2017-04-09T07:57:07Z</time>
      </trkpt>
      <trkpt lat="43.74562" lon="3.43138">
        <ele>298.2</ele>
        <time>2017-04-09T07:57:10Z</time>
      </trkpt>
      <trkpt lat="43.7457" lon="3.43145">
        <ele>298.5</ele>
        <time>2017-04-09T07:57:12Z</time>
      </trkpt>
      <trkpt lat="43.74578" lon="3.43148">
        <ele>298.7</ele>
        <time>2017-04-09T07:57:15Z</time>
      </trkpt>
      <trkpt lat="43.74587" lon="3.43151">
        <ele>299.2</ele>
        <time>2017-04-09T07:57:19Z</time>
      </trkpt>
      <trkpt lat="43.74597" lon="3.43156">
        <ele>299.5</ele>
        <time>2017-04-09T07:57:22Z</time>
      </trkpt>
      <trkpt lat="43.74605" lon="3.43159">
        <ele>299.9</ele>
        <time>2017-04-09T07:57:26Z</time>
      </trkpt>
      <trkpt lat="43.74613" lon="3.43163">
        <ele>300.1</ele>
        <time>2017-04-09T07:57:29Z</time>
      </trkpt>
      <trkpt lat="43.74623" lon="3.43165">
        <ele>300.2</ele>
        <time>2017-04-09T07:57:32Z</time>
      </trkpt>
      <trkpt lat="43.74631" lon="3.43166">
        <ele>300.2</ele>
        <time>2017-04-09T07:57:35Z</time>
      </trkpt>
      <trkpt lat="43.7464" lon="3.43169">
        <ele>300.4</ele>
        <time>2017-04-09T07:57:39Z</time>
      </trkpt>
      <trkpt lat="43.74648" lon="3.43171">
        <ele>300.6</ele>
        <time>2017-04-09T07:57:42Z</time>
      </trkpt>
      <trkpt lat="43.74655" lon="3.43173">
        <ele>300.8</ele>
        <time>2017-04-09T07:57:44Z</time>
      </trkpt>
      <trkpt lat="43.7466" lon="3.4318">
        <ele>301</ele>
        <time>2017-04-09T07:57:47Z</time>
      </trkpt>
      <trkpt lat="43.74667" lon="3.43187">
        <ele>301.1</ele>
        <time>2017-04-09T07:57:51Z</time>
      </trkpt>
      <trkpt lat="43.74675" lon="3.43187">
        <ele>301.1</ele>
        <time>2017-04-09T07:57:55Z</time>
      </trkpt>
      <trkpt lat="43.74682" lon="3.43178">
        <ele>301.1</ele>
        <time>2017-04-09T07:57:58Z</time>
      </trkpt>
      <trkpt lat="43.74689" lon="3.43175">
        <ele>301.5</ele>
        <time>2017-04-09T07:58:01Z</time>
      </trkpt>
      <trkpt lat="43.74698" lon="3.43178">
        <ele>302</ele>
        <time>2017-04-09T07:58:05Z</time>
      </trkpt>
      <trkpt lat="43.74706" lon="3.43179">
        <ele>302.6</ele>
        <time>2017-04-09T07:58:09Z</time>
      </trkpt>
      <trkpt lat="43.74713" lon="3.43179">
        <ele>303.1</ele>
        <time>2017-04-09T07:58:13Z</time>
      </trkpt>
      <trkpt lat="43.74721" lon="3.43178">
        <ele>303.3</ele>
        <time>2017-04-09T07:58:16Z</time>
      </trkpt>
      <trkpt lat="43.74729" lon="3.4318">
        <ele>303.8</ele>
        <time>2017-04-09T07:58:21Z</time>
      </trkpt>
      <trkpt lat="43.74736" lon="3.43182">
        <ele>304.3</ele>
        <time>2017-04-09T07:58:25Z</time>
      </trkpt>
      <trkpt lat="43.74746" lon="3.43184">
        <ele>305.9</ele>
        <time>2017-04-09T07:58:32Z</time>
      </trkpt>
      <trkpt lat="43.74755" lon="3.43186">
        <ele>306.8</ele>
        <time>2017-04-09T07:58:36Z</time>
      </trkpt>
      <trkpt lat="43.74764" lon="3.43188">
        <ele>307.8</ele>
        <time>2017-04-09T07:58:40Z</time>
      </trkpt>
      <trkpt lat="43.74773" lon="3.4319">
        <ele>308.7</ele>
        <time>2017-04-09T07:58:44Z</time>
      </trkpt>
      <trkpt lat="43.7478" lon="3.43192">
        <ele>310</ele>
        <time>2017-04-09T07:58:49Z</time>
      </trkpt>
      <trkpt lat="43.74788" lon="3.43197">
        <ele>310.7</ele>
        <time>2017-04-09T07:58:52Z</time>
      </trkpt>
      <trkpt lat="43.74798" lon="3.432">
        <ele>311.4</ele>
        <time>2017-04-09T07:58:55Z</time>
      </trkpt>
      <trkpt lat="43.74806" lon="3.432">
        <ele>311.8</ele>
        <time>2017-04-09T07:58:58Z</time>
      </trkpt>
      <trkpt lat="43.74814" lon="3.432">
        <ele>312.1</ele>
        <time>2017-04-09T07:59:01Z</time>
      </trkpt>
      <trkpt lat="43.74823" lon="3.43201">
        <ele>312.4</ele>
        <time>2017-04-09T07:59:04Z</time>
      </trkpt>
      <trkpt lat="43.74832" lon="3.43202">
        <ele>313.2</ele>
        <time>2017-04-09T07:59:10Z</time>
      </trkpt>
      <trkpt lat="43.74839" lon="3.43204">
        <ele>313.4</ele>
        <time>2017-04-09T07:59:13Z</time>
      </trkpt>
      <trkpt lat="43.74848" lon="3.43208">
        <ele>313.7</ele>
        <time>2017-04-09T07:59:16Z</time>
      </trkpt>
      <trkpt lat="43.74856" lon="3.43208">
        <ele>314</ele>
        <time>2017-04-09T07:59:19Z</time>
      </trkpt>
      <trkpt lat="43.7486" lon="3.43209">
        <ele>314.5</ele>
        <time>2017-04-09T07:59:26Z</time>
      </trkpt>
      <trkpt lat="43.74869" lon="3.43209">
        <ele>314.5</ele>
        <time>2017-04-09T07:59:31Z</time>
      </trkpt>
      <trkpt lat="43.74877" lon="3.4321">
        <ele>314.5</ele>
        <time>2017-04-09T07:59:35Z</time>
      </trkpt>
      <trkpt lat="43.74885" lon="3.4321">
        <ele>314.9</ele>
        <time>2017-04-09T07:59:40Z</time>
      </trkpt>
      <trkpt lat="43.74892" lon="3.43211">
        <ele>315.2</ele>
        <time>2017-04-09T07:59:43Z</time>
      </trkpt>
      <trkpt lat="43.749" lon="3.43212">
        <ele>315.7</ele>
        <time>2017-04-09T07:59:47Z</time>
      </trkpt>
      <trkpt lat="43.74909" lon="3.43214">
        <ele>316.2</ele>
        <time>2017-04-09T07:59:50Z</time>
      </trkpt>
      <trkpt lat="43.74918" lon="3.43217">
        <ele>316.5</ele>
        <time>2017-04-09T07:59:53Z</time>
      </trkpt>
      <trkpt lat="43.74925" lon="3.43216">
        <ele>316.8</ele>
        <time>2017-04-09T07:59:56Z</time>
      </trkpt>
      <trkpt lat="43.74933" lon="3.43212">
        <ele>316.9</ele>
        <time>2017-04-09T07:59:59Z</time>
      </trkpt>
      <trkpt lat="43.74941" lon="3.43206">
        <ele>317</ele>
        <time>2017-04-09T08:00:02Z</time>
      </trkpt>
      <trkpt lat="43.74947" lon="3.43201">
        <ele>317</ele>
        <time>2017-04-09T08:00:06Z</time>
      </trkpt>
      <trkpt lat="43.74944" lon="3.43191">
        <ele>317.3</ele>
        <time>2017-04-09T08:00:12Z</time>
      </trkpt>
      <trkpt lat="43.74937" lon="3.43187">
        <ele>317.2</ele>
        <time>2017-04-09T08:00:17Z</time>
      </trkpt>
      <trkpt lat="43.74928" lon="3.43184">
        <ele>317.2</ele>
        <time>2017-04-09T08:00:21Z</time>
      </trkpt>
      <trkpt lat="43.74919" lon="3.43182">
        <ele>317.1</ele>
        <time>2017-04-09T08:00:25Z</time>
      </trkpt>
      <trkpt lat="43.74911" lon="3.43178">
        <ele>317</ele>
        <time>2017-04-09T08:00:28Z</time>
      </trkpt>
      <trkpt lat="43.74903" lon="3.43175">
        <ele>317</ele>
        <time>2017-04-09T08:00:32Z</time>
      </trkpt>
      <trkpt lat="43.74894" lon="3.43172">
        <ele>317.4</ele>
        <time>2017-04-09T08:00:36Z</time>
      </trkpt>
      <trkpt lat="43.74885" lon="3.43169">
        <ele>317.7</ele>
        <time>2017-04-09T08:00:40Z</time>
      </trkpt>
      <trkpt lat="43.74877" lon="3.43164">
        <ele>318</ele>
        <time>2017-04-09T08:00:44Z</time>
      </trkpt>
      <trkpt lat="43.74871" lon="3.43159">
        <ele>318.2</ele>
        <time>2017-04-09T08:00:47Z</time>
      </trkpt>
      <trkpt lat="43.74864" lon="3.43153">
        <ele>318.5</ele>
        <time>2017-04-09T08:00:50Z</time>
      </trkpt>
      <trkpt lat="43.74856" lon="3.43146">
        <ele>318.7</ele>
        <time>2017-04-09T08:00:53Z</time>
      </trkpt>
      <trkpt lat="43.74849" lon="3.43139">
        <ele>318.8</ele>
        <time>2017-04-09T08:00:56Z</time>
      </trkpt>
      <trkpt lat="43.74843" lon="3.43134">
        <ele>318.7</ele>
        <time>2017-04-09T08:00:58Z</time>
      </trkpt>
      <trkpt lat="43.74834" lon="3.43126">
        <ele>318.6</ele>
        <time>2017-04-09T08:01:01Z</time>
      </trkpt>
      <trkpt lat="43.74826" lon="3.43119">
        <ele>318.4</ele>
        <time>2017-04-09T08:01:04Z</time>
      </trkpt>
      <trkpt lat="43.74819" lon="3.43114">
        <ele>318.3</ele>
        <time>2017-04-09T08:01:07Z</time>
      </trkpt>
      <trkpt lat="43.74812" lon="3.43108">
        <ele>318.3</ele>
        <time>2017-04-09T08:01:10Z</time>
      </trkpt>
      <trkpt lat="43.74805" lon="3.43104">
        <ele>318.2</ele>
        <time>2017-04-09T08:01:13Z</time>
      </trkpt>
      <trkpt lat="43.74796" lon="3.43097">
        <ele>318.2</ele>
        <time>2017-04-09T08:01:17Z</time>
      </trkpt>
      <trkpt lat="43.74789" lon="3.43091">
        <ele>318.2</ele>
        <time>2017-04-09T08:01:20Z</time>
      </trkpt>
      <trkpt lat="43.74783" lon="3.43084">
        <ele>318.3</ele>
        <time>2017-04-09T08:01:23Z</time>
      </trkpt>
      <trkpt lat="43.74777" lon="3.43077">
        <ele>318.5</ele>
        <time>2017-04-09T08:01:26Z</time>
      </trkpt>
      <trkpt lat="43.74771" lon="3.43071">
        <ele>318.6</ele>
        <time>2017-04-09T08:01:29Z</time>
      </trkpt>
      <trkpt lat="43.74763" lon="3.43064">
        <ele>318.7</ele>
        <time>2017-04-09T08:01:32Z</time>
      </trkpt>
      <trkpt lat="43.74756" lon="3.43057">
        <ele>318.7</ele>
        <time>2017-04-09T08:01:35Z</time>
      </trkpt>
      <trkpt lat="43.74749" lon="3.43051">
        <ele>318.7</ele>
        <time>2017-04-09T08:01:38Z</time>
      </trkpt>
      <trkpt lat="43.74742" lon="3.43048">
        <ele>318.8</ele>
        <time>2017-04-09T08:01:40Z</time>
      </trkpt>
      <trkpt lat="43.74735" lon="3.43045">
        <ele>319</ele>
        <time>2017-04-09T08:01:43Z</time>
      </trkpt>
      <trkpt lat="43.74726" lon="3.43042">
        <ele>319.1</ele>
        <time>2017-04-09T08:01:46Z</time>
      </trkpt>
      <trkpt lat="43.74718" lon="3.43037">
        <ele>319.3</ele>
        <time>2017-04-09T08:01:49Z</time>
      </trkpt>
      <trkpt lat="43.74711" lon="3.43032">
        <ele>319.5</ele>
        <time>2017-04-09T08:01:52Z</time>
      </trkpt>
      <trkpt lat="43.74703" lon="3.43027">
        <ele>319.6</ele>
        <time>2017-04-09T08:01:55Z</time>
      </trkpt>
      <trkpt lat="43.74696" lon="3.43021">
        <ele>319.7</ele>
        <time>2017-04-09T08:01:58Z</time>
      </trkpt>
      <trkpt lat="43.74689" lon="3.43016">
        <ele>319.9</ele>
        <time>2017-04-09T08:02:01Z</time>
      </trkpt>
      <trkpt lat="43.74681" lon="3.4301">
        <ele>320.1</ele>
        <time>2017-04-09T08:02:04Z</time>
      </trkpt>
      <trkpt lat="43.74676" lon="3.43005">
        <ele>320.3</ele>
        <time>2017-04-09T08:02:07Z</time>
      </trkpt>
      <trkpt lat="43.74668" lon="3.42999">
        <ele>320.5</ele>
        <time>2017-04-09T08:02:10Z</time>
      </trkpt>
      <trkpt lat="43.7466" lon="3.42993">
        <ele>320.6</ele>
        <time>2017-04-09T08:02:13Z</time>
      </trkpt>
      <trkpt lat="43.74653" lon="3.42986">
        <ele>320.7</ele>
        <time>2017-04-09T08:02:16Z</time>
      </trkpt>
      <trkpt lat="43.74645" lon="3.4298">
        <ele>320.8</ele>
        <time>2017-04-09T08:02:20Z</time>
      </trkpt>
      <trkpt lat="43.74637" lon="3.42977">
        <ele>321</ele>
        <time>2017-04-09T08:02:23Z</time>
      </trkpt>
      <trkpt lat="43.74629" lon="3.42976">
        <ele>321.5</ele>
        <time>2017-04-09T08:02:27Z</time>
      </trkpt>
      <trkpt lat="43.7462" lon="3.42976">
        <ele>321.9</ele>
        <time>2017-04-09T08:02:30Z</time>
      </trkpt>
      <trkpt lat="43.74612" lon="3.42978">
        <ele>322.3</ele>
        <time>2017-04-09T08:02:33Z</time>
      </trkpt>
      <trkpt lat="43.74604" lon="3.42976">
        <ele>322.6</ele>
        <time>2017-04-09T08:02:36Z</time>
      </trkpt>
      <trkpt lat="43.74597" lon="3.42972">
        <ele>322.9</ele>
        <time>2017-04-09T08:02:39Z</time>
      </trkpt>
      <trkpt lat="43.74589" lon="3.42968">
        <ele>323.2</ele>
        <time>2017-04-09T08:02:42Z</time>
      </trkpt>
      <trkpt lat="43.74581" lon="3.42966">
        <ele>323.5</ele>
        <time>2017-04-09T08:02:45Z</time>
      </trkpt>
      <trkpt lat="43.74572" lon="3.42964">
        <ele>323.9</ele>
        <time>2017-04-09T08:02:48Z</time>
      </trkpt>
      <trkpt lat="43.74562" lon="3.42962">
        <ele>324.4</ele>
        <time>2017-04-09T08:02:52Z</time>
      </trkpt>
      <trkpt lat="43.74553" lon="3.42961">
        <ele>325</ele>
        <time>2017-04-09T08:02:56Z</time>
      </trkpt>
      <trkpt lat="43.74546" lon="3.42959">
        <ele>325.5</ele>
        <time>2017-04-09T08:02:59Z</time>
      </trkpt>
      <trkpt lat="43.74539" lon="3.42956">
        <ele>325.8</ele>
        <time>2017-04-09T08:03:02Z</time>
      </trkpt>
      <trkpt lat="43.7453" lon="3.42954">
        <ele>326.4</ele>
        <time>2017-04-09T08:03:07Z</time>
      </trkpt>
      <trkpt lat="43.74522" lon="3.42951">
        <ele>327.1</ele>
        <time>2017-04-09T08:03:11Z</time>
      </trkpt>
      <trkpt lat="43.74513" lon="3.4295">
        <ele>327.6</ele>
        <time>2017-04-09T08:03:14Z</time>
      </trkpt>
      <trkpt lat="43.74506" lon="3.42948">
        <ele>328</ele>
        <time>2017-04-09T08:03:17Z</time>
      </trkpt>
      <trkpt lat="43.74498" lon="3.42946">
        <ele>328.8</ele>
        <time>2017-04-09T08:03:22Z</time>
      </trkpt>
      <trkpt lat="43.7449" lon="3.42941">
        <ele>329.5</ele>
        <time>2017-04-09T08:03:26Z</time>
      </trkpt>
      <trkpt lat="43.74481" lon="3.42937">
        <ele>330.3</ele>
        <time>2017-04-09T08:03:30Z</time>
      </trkpt>
      <trkpt lat="43.74474" lon="3.42934">
        <ele>330.8</ele>
        <time>2017-04-09T08:03:33Z</time>
      </trkpt>
      <trkpt lat="43.74465" lon="3.42934">
        <ele>331.4</ele>
        <time>2017-04-09T08:03:37Z</time>
      </trkpt>
      <trkpt lat="43.74458" lon="3.42934">
        <ele>331.9</ele>
        <time>2017-04-09T08:03:40Z</time>
      </trkpt>
      <trkpt lat="43.74448" lon="3.42934">
        <ele>332.7</ele>
        <time>2017-04-09T08:03:45Z</time>
      </trkpt>
      <trkpt lat="43.74441" lon="3.42933">
        <ele>333.1</ele>
        <time>2017-04-09T08:03:48Z</time>
      </trkpt>
      <trkpt lat="43.74432" lon="3.4293">
        <ele>333.6</ele>
        <time>2017-04-09T08:03:52Z</time>
      </trkpt>
      <trkpt lat="43.74423" lon="3.42926">
        <ele>334</ele>
        <time>2017-04-09T08:03:55Z</time>
      </trkpt>
      <trkpt lat="43.74415" lon="3.42922">
        <ele>334.3</ele>
        <time>2017-04-09T08:03:58Z</time>
      </trkpt>
      <trkpt lat="43.74408" lon="3.42916">
        <ele>334.9</ele>
        <time>2017-04-09T08:04:02Z</time>
      </trkpt>
      <trkpt lat="43.74401" lon="3.42912">
        <ele>335.5</ele>
        <time>2017-04-09T08:04:06Z</time>
      </trkpt>
      <trkpt lat="43.74392" lon="3.42909">
        <ele>336.1</ele>
        <time>2017-04-09T08:04:10Z</time>
      </trkpt>
      <trkpt lat="43.74384" lon="3.42908">
        <ele>336.7</ele>
        <time>2017-04-09T08:04:13Z</time>
      </trkpt>
      <trkpt lat="43.74376" lon="3.42907">
        <ele>337.4</ele>
        <time>2017-04-09T08:04:17Z</time>
      </trkpt>
      <trkpt lat="43.74369" lon="3.42907">
        <ele>337.8</ele>
        <time>2017-04-09T08:04:20Z</time>
      </trkpt>
      <trkpt lat="43.74361" lon="3.42905">
        <ele>338.3</ele>
        <time>2017-04-09T08:04:23Z</time>
      </trkpt>
      <trkpt lat="43.74353" lon="3.42904">
        <ele>338.8</ele>
        <time>2017-04-09T08:04:27Z</time>
      </trkpt>
      <trkpt lat="43.74344" lon="3.429">
        <ele>339.4</ele>
        <time>2017-04-09T08:04:31Z</time>
      </trkpt>
      <trkpt lat="43.74336" lon="3.42897">
        <ele>339.9</ele>
        <time>2017-04-09T08:04:34Z</time>
      </trkpt>
      <trkpt lat="43.74326" lon="3.42894">
        <ele>340.5</ele>
        <time>2017-04-09T08:04:37Z</time>
      </trkpt>
      <trkpt lat="43.74317" lon="3.42893">
        <ele>341.2</ele>
        <time>2017-04-09T08:04:41Z</time>
      </trkpt>
      <trkpt lat="43.74308" lon="3.42892">
        <ele>341.8</ele>
        <time>2017-04-09T08:04:45Z</time>
      </trkpt>
      <trkpt lat="43.74299" lon="3.42889">
        <ele>342.5</ele>
        <time>2017-04-09T08:04:49Z</time>
      </trkpt>
      <trkpt lat="43.74292" lon="3.42888">
        <ele>343.1</ele>
        <time>2017-04-09T08:04:52Z</time>
      </trkpt>
      <trkpt lat="43.74284" lon="3.42885">
        <ele>343.9</ele>
        <time>2017-04-09T08:04:56Z</time>
      </trkpt>
      <trkpt lat="43.74277" lon="3.4288">
        <ele>344.4</ele>
        <time>2017-04-09T08:04:59Z</time>
      </trkpt>
      <trkpt lat="43.74269" lon="3.42876">
        <ele>345.2</ele>
        <time>2017-04-09T08:05:02Z</time>
      </trkpt>
      <trkpt lat="43.7426" lon="3.42869">
        <ele>346</ele>
        <time>2017-04-09T08:05:06Z</time>
      </trkpt>
      <trkpt lat="43.74254" lon="3.42863">
        <ele>346.4</ele>
        <time>2017-04-09T08:05:09Z</time>
      </trkpt>
      <trkpt lat="43.74248" lon="3.42856">
        <ele>346.8</ele>
        <time>2017-04-09T08:05:12Z</time>
      </trkpt>
      <trkpt lat="43.74242" lon="3.42847">
        <ele>347.1</ele>
        <time>2017-04-09T08:05:15Z</time>
      </trkpt>
      <trkpt lat="43.74237" lon="3.4284">
        <ele>347.3</ele>
        <time>2017-04-09T08:05:18Z</time>
      </trkpt>
      <trkpt lat="43.74232" lon="3.42832">
        <ele>347.8</ele>
        <time>2017-04-09T08:05:22Z</time>
      </trkpt>
      <trkpt lat="43.74227" lon="3.42824">
        <ele>348.3</ele>
        <time>2017-04-09T08:05:25Z</time>
      </trkpt>
      <trkpt lat="43.74222" lon="3.42814">
        <ele>349</ele>
        <time>2017-04-09T08:05:29Z</time>
      </trkpt>
      <trkpt lat="43.74217" lon="3.42805">
        <ele>349.7</ele>
        <time>2017-04-09T08:05:33Z</time>
      </trkpt>
      <trkpt lat="43.7421" lon="3.42797">
        <ele>350.4</ele>
        <time>2017-04-09T08:05:37Z</time>
      </trkpt>
      <trkpt lat="43.74202" lon="3.4279">
        <ele>351</ele>
        <time>2017-04-09T08:05:41Z</time>
      </trkpt>
      <trkpt lat="43.74195" lon="3.42786">
        <ele>351.5</ele>
        <time>2017-04-09T08:05:44Z</time>
      </trkpt>
      <trkpt lat="43.74188" lon="3.42783">
        <ele>352.1</ele>
        <time>2017-04-09T08:05:47Z</time>
      </trkpt>
      <trkpt lat="43.7418" lon="3.42778">
        <ele>352.6</ele>
        <time>2017-04-09T08:05:50Z</time>
      </trkpt>
      <trkpt lat="43.74173" lon="3.42774">
        <ele>353.1</ele>
        <time>2017-04-09T08:05:53Z</time>
      </trkpt>
      <trkpt lat="43.74166" lon="3.42771">
        <ele>353.7</ele>
        <time>2017-04-09T08:05:56Z</time>
      </trkpt>
      <trkpt lat="43.74158" lon="3.42766">
        <ele>354.8</ele>
        <time>2017-04-09T08:06:00Z</time>
      </trkpt>
      <trkpt lat="43.7415" lon="3.42761">
        <ele>356</ele>
        <time>2017-04-09T08:06:04Z</time>
      </trkpt>
      <trkpt lat="43.74142" lon="3.42757">
        <ele>357</ele>
        <time>2017-04-09T08:06:07Z</time>
      </trkpt>
      <trkpt lat="43.74135" lon="3.42753">
        <ele>357.9</ele>
        <time>2017-04-09T08:06:10Z</time>
      </trkpt>
      <trkpt lat="43.74128" lon="3.42751">
        <ele>358.7</ele>
        <time>2017-04-09T08:06:13Z</time>
      </trkpt>
      <trkpt lat="43.7412" lon="3.42749">
        <ele>359.1</ele>
        <time>2017-04-09T08:06:15Z</time>
      </trkpt>
      <trkpt lat="43.74111" lon="3.42748">
        <ele>359.3</ele>
        <time>2017-04-09T08:06:17Z</time>
      </trkpt>
      <trkpt lat="43.74103" lon="3.42746">
        <ele>359.6</ele>
        <time>2017-04-09T08:06:19Z</time>
      </trkpt>
      <trkpt lat="43.74092" lon="3.42743">
        <ele>360</ele>
        <time>2017-04-09T08:06:22Z</time>
      </trkpt>
      <trkpt lat="43.74083" lon="3.4274">
        <ele>360.3</ele>
        <time>2017-04-09T08:06:25Z</time>
      </trkpt>
      <trkpt lat="43.74075" lon="3.42737">
        <ele>360.6</ele>
        <time>2017-04-09T08:06:28Z</time>
      </trkpt>
      <trkpt lat="43.74066" lon="3.42733">
        <ele>361</ele>
        <time>2017-04-09T08:06:31Z</time>
      </trkpt>
      <trkpt lat="43.74057" lon="3.42729">
        <ele>361.4</ele>
        <time>2017-04-09T08:06:34Z</time>
      </trkpt>
      <trkpt lat="43.74047" lon="3.42725">
        <ele>361.9</ele>
        <time>2017-04-09T08:06:37Z</time>
      </trkpt>
      <trkpt lat="43.7404" lon="3.42721">
        <ele>362.5</ele>
        <time>2017-04-09T08:06:40Z</time>
      </trkpt>
      <trkpt lat="43.74033" lon="3.42717">
        <ele>362.9</ele>
        <time>2017-04-09T08:06:42Z</time>
      </trkpt>
      <trkpt lat="43.74025" lon="3.42712">
        <ele>363.5</ele>
        <time>2017-04-09T08:06:45Z</time>
      </trkpt>
      <trkpt lat="43.74018" lon="3.42707">
        <ele>364</ele>
        <time>2017-04-09T08:06:48Z</time>
      </trkpt>
      <trkpt lat="43.7401" lon="3.427">
        <ele>364.6</ele>
        <time>2017-04-09T08:06:51Z</time>
      </trkpt>
      <trkpt lat="43.74004" lon="3.42691">
        <ele>365</ele>
        <time>2017-04-09T08:06:54Z</time>
      </trkpt>
      <trkpt lat="43.73997" lon="3.42682">
        <ele>365.6</ele>
        <time>2017-04-09T08:06:58Z</time>
      </trkpt>
      <trkpt lat="43.7399" lon="3.42672">
        <ele>366.1</ele>
        <time>2017-04-09T08:07:01Z</time>
      </trkpt>
      <trkpt lat="43.73982" lon="3.42664">
        <ele>366.4</ele>
        <time>2017-04-09T08:07:04Z</time>
      </trkpt>
      <trkpt lat="43.73976" lon="3.42657">
        <ele>366.9</ele>
        <time>2017-04-09T08:07:07Z</time>
      </trkpt>
      <trkpt lat="43.7397" lon="3.4265">
        <ele>367.5</ele>
        <time>2017-04-09T08:07:10Z</time>
      </trkpt>
      <trkpt lat="43.73962" lon="3.42642">
        <ele>368.2</ele>
        <time>2017-04-09T08:07:14Z</time>
      </trkpt>
      <trkpt lat="43.73956" lon="3.42633">
        <ele>368.7</ele>
        <time>2017-04-09T08:07:17Z</time>
      </trkpt>
      <trkpt lat="43.73948" lon="3.42625">
        <ele>369.1</ele>
        <time>2017-04-09T08:07:20Z</time>
      </trkpt>
      <trkpt lat="43.73943" lon="3.42617">
        <ele>369.6</ele>
        <time>2017-04-09T08:07:23Z</time>
      </trkpt>
      <trkpt lat="43.73935" lon="3.42608">
        <ele>370.4</ele>
        <time>2017-04-09T08:07:27Z</time>
      </trkpt>
      <trkpt lat="43.73929" lon="3.42601">
        <ele>370.8</ele>
        <time>2017-04-09T08:07:30Z</time>
      </trkpt>
      <trkpt lat="43.73922" lon="3.42594">
        <ele>371.4</ele>
        <time>2017-04-09T08:07:33Z</time>
      </trkpt>
      <trkpt lat="43.73915" lon="3.42587">
        <ele>371.9</ele>
        <time>2017-04-09T08:07:36Z</time>
      </trkpt>
      <trkpt lat="43.73908" lon="3.42578">
        <ele>372.4</ele>
        <time>2017-04-09T08:07:39Z</time>
      </trkpt>
      <trkpt lat="43.73903" lon="3.42567">
        <ele>372.8</ele>
        <time>2017-04-09T08:07:42Z</time>
      </trkpt>
      <trkpt lat="43.7391" lon="3.42564">
        <ele>373.6</ele>
        <time>2017-04-09T08:07:49Z</time>
      </trkpt>
      <trkpt lat="43.73917" lon="3.42571">
        <ele>375</ele>
        <time>2017-04-09T08:07:55Z</time>
      </trkpt>
      <trkpt lat="43.73924" lon="3.42577">
        <ele>376</ele>
        <time>2017-04-09T08:08:00Z</time>
      </trkpt>
      <trkpt lat="43.73931" lon="3.42582">
        <ele>376.4</ele>
        <time>2017-04-09T08:08:02Z</time>
      </trkpt>
      <trkpt lat="43.73938" lon="3.42587">
        <ele>376.9</ele>
        <time>2017-04-09T08:08:05Z</time>
      </trkpt>
      <trkpt lat="43.73946" lon="3.42592">
        <ele>377.4</ele>
        <time>2017-04-09T08:08:08Z</time>
      </trkpt>
      <trkpt lat="43.73954" lon="3.42598">
        <ele>378.3</ele>
        <time>2017-04-09T08:08:12Z</time>
      </trkpt>
      <trkpt lat="43.7396" lon="3.42601">
        <ele>378.9</ele>
        <time>2017-04-09T08:08:16Z</time>
      </trkpt>
      <trkpt lat="43.73968" lon="3.42604">
        <ele>379.8</ele>
        <time>2017-04-09T08:08:20Z</time>
      </trkpt>
      <trkpt lat="43.73976" lon="3.42609">
        <ele>380.6</ele>
        <time>2017-04-09T08:08:24Z</time>
      </trkpt>
      <trkpt lat="43.73985" lon="3.42615">
        <ele>381.4</ele>
        <time>2017-04-09T08:08:29Z</time>
      </trkpt>
      <trkpt lat="43.73992" lon="3.42622">
        <ele>382.3</ele>
        <time>2017-04-09T08:08:34Z</time>
      </trkpt>
      <trkpt lat="43.73999" lon="3.42629">
        <ele>383</ele>
        <time>2017-04-09T08:08:38Z</time>
      </trkpt>
      <trkpt lat="43.74006" lon="3.42634">
        <ele>383.4</ele>
        <time>2017-04-09T08:08:41Z</time>
      </trkpt>
      <trkpt lat="43.74014" lon="3.42638">
        <ele>383.6</ele>
        <time>2017-04-09T08:08:44Z</time>
      </trkpt>
      <trkpt lat="43.74022" lon="3.42643">
        <ele>383.9</ele>
        <time>2017-04-09T08:08:48Z</time>
      </trkpt>
      <trkpt lat="43.7403" lon="3.42645">
        <ele>384.1</ele>
        <time>2017-04-09T08:08:51Z</time>
      </trkpt>
      <trkpt lat="43.74038" lon="3.42646">
        <ele>384.5</ele>
        <time>2017-04-09T08:08:54Z</time>
      </trkpt>
      <trkpt lat="43.74047" lon="3.42647">
        <ele>384.8</ele>
        <time>2017-04-09T08:08:57Z</time>
      </trkpt>
      <trkpt lat="43.74055" lon="3.42648">
        <ele>385.5</ele>
        <time>2017-04-09T08:09:01Z</time>
      </trkpt>
      <trkpt lat="43.74064" lon="3.42646">
        <ele>386.1</ele>
        <time>2017-04-09T08:09:05Z</time>
      </trkpt>
      <trkpt lat="43.74073" lon="3.42645">
        <ele>386.5</ele>
        <time>2017-04-09T08:09:09Z</time>
      </trkpt>
      <trkpt lat="43.74081" lon="3.42643">
        <ele>386.9</ele>
        <time>2017-04-09T08:09:12Z</time>
      </trkpt>
      <trkpt lat="43.74089" lon="3.42642">
        <ele>387.7</ele>
        <time>2017-04-09T08:09:16Z</time>
      </trkpt>
      <trkpt lat="43.741" lon="3.42643">
        <ele>388.8</ele>
        <time>2017-04-09T08:09:21Z</time>
      </trkpt>
      <trkpt lat="43.74108" lon="3.42643">
        <ele>389.5</ele>
        <time>2017-04-09T08:09:24Z</time>
      </trkpt>
      <trkpt lat="43.74117" lon="3.42644">
        <ele>390.3</ele>
        <time>2017-04-09T08:09:28Z</time>
      </trkpt>
      <trkpt lat="43.74125" lon="3.42645">
        <ele>390.8</ele>
        <time>2017-04-09T08:09:31Z</time>
      </trkpt>
      <trkpt lat="43.74135" lon="3.42646">
        <ele>391.3</ele>
        <time>2017-04-09T08:09:34Z</time>
      </trkpt>
      <trkpt lat="43.74142" lon="3.42642">
        <ele>392</ele>
        <time>2017-04-09T08:09:37Z</time>
      </trkpt>
      <trkpt lat="43.7415" lon="3.42636">
        <ele>392.4</ele>
        <time>2017-04-09T08:09:40Z</time>
      </trkpt>
      <trkpt lat="43.74157" lon="3.42629">
        <ele>392.5</ele>
        <time>2017-04-09T08:09:43Z</time>
      </trkpt>
      <trkpt lat="43.74164" lon="3.42622">
        <ele>392.7</ele>
        <time>2017-04-09T08:09:46Z</time>
      </trkpt>
      <trkpt lat="43.74171" lon="3.42612">
        <ele>392.9</ele>
        <time>2017-04-09T08:09:49Z</time>
      </trkpt>
      <trkpt lat="43.74177" lon="3.42603">
        <ele>393</ele>
        <time>2017-04-09T08:09:52Z</time>
      </trkpt>
      <trkpt lat="43.74183" lon="3.42595">
        <ele>393.1</ele>
        <time>2017-04-09T08:09:55Z</time>
      </trkpt>
      <trkpt lat="43.74189" lon="3.42586">
        <ele>393.2</ele>
        <time>2017-04-09T08:09:59Z</time>
      </trkpt>
      <trkpt lat="43.74196" lon="3.42574">
        <ele>393.3</ele>
        <time>2017-04-09T08:10:02Z</time>
      </trkpt>
      <trkpt lat="43.74202" lon="3.42565">
        <ele>393.4</ele>
        <time>2017-04-09T08:10:05Z</time>
      </trkpt>
      <trkpt lat="43.74207" lon="3.42557">
        <ele>393.5</ele>
        <time>2017-04-09T08:10:07Z</time>
      </trkpt>
      <trkpt lat="43.74211" lon="3.42548">
        <ele>393.5</ele>
        <time>2017-04-09T08:10:09Z</time>
      </trkpt>
      <trkpt lat="43.74218" lon="3.42539">
        <ele>393.5</ele>
        <time>2017-04-09T08:10:12Z</time>
      </trkpt>
      <trkpt lat="43.74224" lon="3.42528">
        <ele>393.6</ele>
        <time>2017-04-09T08:10:15Z</time>
      </trkpt>
      <trkpt lat="43.74228" lon="3.42517">
        <ele>393.8</ele>
        <time>2017-04-09T08:10:18Z</time>
      </trkpt>
      <trkpt lat="43.74233" lon="3.42506">
        <ele>394.1</ele>
        <time>2017-04-09T08:10:22Z</time>
      </trkpt>
      <trkpt lat="43.74237" lon="3.42495">
        <ele>394.4</ele>
        <time>2017-04-09T08:10:25Z</time>
      </trkpt>
      <trkpt lat="43.7424" lon="3.42486">
        <ele>394.4</ele>
        <time>2017-04-09T08:10:27Z</time>
      </trkpt>
      <trkpt lat="43.74242" lon="3.42472">
        <ele>394.6</ele>
        <time>2017-04-09T08:10:30Z</time>
      </trkpt>
      <trkpt lat="43.74244" lon="3.42458">
        <ele>394.7</ele>
        <time>2017-04-09T08:10:33Z</time>
      </trkpt>
      <trkpt lat="43.74246" lon="3.42448">
        <ele>394.9</ele>
        <time>2017-04-09T08:10:36Z</time>
      </trkpt>
      <trkpt lat="43.74248" lon="3.42433">
        <ele>395</ele>
        <time>2017-04-09T08:10:39Z</time>
      </trkpt>
      <trkpt lat="43.74248" lon="3.42423">
        <ele>395.2</ele>
        <time>2017-04-09T08:10:41Z</time>
      </trkpt>
      <trkpt lat="43.74248" lon="3.4241">
        <ele>395.4</ele>
        <time>2017-04-09T08:10:44Z</time>
      </trkpt>
      <trkpt lat="43.74247" lon="3.42397">
        <ele>395.4</ele>
        <time>2017-04-09T08:10:46Z</time>
      </trkpt>
      <trkpt lat="43.74246" lon="3.42382">
        <ele>395.3</ele>
        <time>2017-04-09T08:10:49Z</time>
      </trkpt>
      <trkpt lat="43.74244" lon="3.42371">
        <ele>395.2</ele>
        <time>2017-04-09T08:10:51Z</time>
      </trkpt>
      <trkpt lat="43.74243" lon="3.4236">
        <ele>395</ele>
        <time>2017-04-09T08:10:53Z</time>
      </trkpt>
      <trkpt lat="43.74242" lon="3.42349">
        <ele>394.7</ele>
        <time>2017-04-09T08:10:56Z</time>
      </trkpt>
      <trkpt lat="43.7424" lon="3.42338">
        <ele>394.6</ele>
        <time>2017-04-09T08:10:58Z</time>
      </trkpt>
      <trkpt lat="43.74239" lon="3.42326">
        <ele>394.5</ele>
        <time>2017-04-09T08:11:01Z</time>
      </trkpt>
      <trkpt lat="43.74237" lon="3.42313">
        <ele>394.3</ele>
        <time>2017-04-09T08:11:04Z</time>
      </trkpt>
      <trkpt lat="43.74234" lon="3.42298">
        <ele>394.3</ele>
        <time>2017-04-09T08:11:07Z</time>
      </trkpt>
      <trkpt lat="43.74231" lon="3.42284">
        <ele>394.2</ele>
        <time>2017-04-09T08:11:10Z</time>
      </trkpt>
      <trkpt lat="43.74229" lon="3.4227">
        <ele>394</ele>
        <time>2017-04-09T08:11:13Z</time>
      </trkpt>
      <trkpt lat="43.74225" lon="3.42258">
        <ele>393.9</ele>
        <time>2017-04-09T08:11:16Z</time>
      </trkpt>
      <trkpt lat="43.74216" lon="3.42251">
        <ele>393.7</ele>
        <time>2017-04-09T08:11:20Z</time>
      </trkpt>
      <trkpt lat="43.74207" lon="3.42247">
        <ele>393.4</ele>
        <time>2017-04-09T08:11:23Z</time>
      </trkpt>
      <trkpt lat="43.74198" lon="3.42242">
        <ele>393.2</ele>
        <time>2017-04-09T08:11:26Z</time>
      </trkpt>
      <trkpt lat="43.74189" lon="3.42236">
        <ele>393</ele>
        <time>2017-04-09T08:11:29Z</time>
      </trkpt>
      <trkpt lat="43.74182" lon="3.42231">
        <ele>393</ele>
        <time>2017-04-09T08:11:32Z</time>
      </trkpt>
      <trkpt lat="43.74174" lon="3.42221">
        <ele>393.3</ele>
        <time>2017-04-09T08:11:35Z</time>
      </trkpt>
      <trkpt lat="43.74168" lon="3.42214">
        <ele>393.5</ele>
        <time>2017-04-09T08:11:37Z</time>
      </trkpt>
      <trkpt lat="43.74162" lon="3.42206">
        <ele>394.6</ele>
        <time>2017-04-09T08:11:39Z</time>
      </trkpt>
      <trkpt lat="43.74156" lon="3.42198">
        <ele>395.7</ele>
        <time>2017-04-09T08:11:41Z</time>
      </trkpt>
      <trkpt lat="43.7415" lon="3.42193">
        <ele>395.7</ele>
        <time>2017-04-09T08:11:43Z</time>
      </trkpt>
      <trkpt lat="43.74143" lon="3.42189">
        <ele>395.7</ele>
        <time>2017-04-09T08:11:45Z</time>
      </trkpt>
      <trkpt lat="43.74133" lon="3.42184">
        <ele>395.6</ele>
        <time>2017-04-09T08:11:48Z</time>
      </trkpt>
      <trkpt lat="43.74123" lon="3.4218">
        <ele>395.4</ele>
        <time>2017-04-09T08:11:51Z</time>
      </trkpt>
      <trkpt lat="43.74113" lon="3.42176">
        <ele>395.2</ele>
        <time>2017-04-09T08:11:54Z</time>
      </trkpt>
      <trkpt lat="43.74103" lon="3.42173">
        <ele>395.1</ele>
        <time>2017-04-09T08:11:57Z</time>
      </trkpt>
      <trkpt lat="43.74094" lon="3.4217">
        <ele>395.6</ele>
        <time>2017-04-09T08:12:00Z</time>
      </trkpt>
      <trkpt lat="43.74087" lon="3.42167">
        <ele>395.7</ele>
        <time>2017-04-09T08:12:02Z</time>
      </trkpt>
      <trkpt lat="43.74079" lon="3.42165">
        <ele>395.7</ele>
        <time>2017-04-09T08:12:04Z</time>
      </trkpt>
      <trkpt lat="43.74071" lon="3.42164">
        <ele>395.8</ele>
        <time>2017-04-09T08:12:06Z</time>
      </trkpt>
      <trkpt lat="43.74062" lon="3.42163">
        <ele>396</ele>
        <time>2017-04-09T08:12:09Z</time>
      </trkpt>
      <trkpt lat="43.74053" lon="3.42165">
        <ele>396.1</ele>
        <time>2017-04-09T08:12:12Z</time>
      </trkpt>
      <trkpt lat="43.74045" lon="3.42165">
        <ele>396.4</ele>
        <time>2017-04-09T08:12:15Z</time>
      </trkpt>
      <trkpt lat="43.74037" lon="3.42162">
        <ele>396.9</ele>
        <time>2017-04-09T08:12:19Z</time>
      </trkpt>
      <trkpt lat="43.74029" lon="3.42157">
        <ele>397.5</ele>
        <time>2017-04-09T08:12:23Z</time>
      </trkpt>
      <trkpt lat="43.74023" lon="3.42152">
        <ele>397.8</ele>
        <time>2017-04-09T08:12:26Z</time>
      </trkpt>
      <trkpt lat="43.74016" lon="3.42146">
        <ele>398.5</ele>
        <time>2017-04-09T08:12:30Z</time>
      </trkpt>
      <trkpt lat="43.74008" lon="3.42142">
        <ele>399.2</ele>
        <time>2017-04-09T08:12:34Z</time>
      </trkpt>
      <trkpt lat="43.74" lon="3.42138">
        <ele>400</ele>
        <time>2017-04-09T08:12:39Z</time>
      </trkpt>
      <trkpt lat="43.73993" lon="3.42134">
        <ele>400.7</ele>
        <time>2017-04-09T08:12:43Z</time>
      </trkpt>
      <trkpt lat="43.73986" lon="3.42129">
        <ele>401.4</ele>
        <time>2017-04-09T08:12:47Z</time>
      </trkpt>
      <trkpt lat="43.73979" lon="3.42126">
        <ele>402.1</ele>
        <time>2017-04-09T08:12:51Z</time>
      </trkpt>
      <trkpt lat="43.73971" lon="3.4212">
        <ele>403.1</ele>
        <time>2017-04-09T08:12:57Z</time>
      </trkpt>
      <trkpt lat="43.73962" lon="3.42115">
        <ele>403.9</ele>
        <time>2017-04-09T08:13:01Z</time>
      </trkpt>
      <trkpt lat="43.73955" lon="3.42112">
        <ele>404.6</ele>
        <time>2017-04-09T08:13:05Z</time>
      </trkpt>
      <trkpt lat="43.73948" lon="3.42108">
        <ele>405.3</ele>
        <time>2017-04-09T08:13:09Z</time>
      </trkpt>
      <trkpt lat="43.73939" lon="3.42104">
        <ele>406.2</ele>
        <time>2017-04-09T08:13:13Z</time>
      </trkpt>
      <trkpt lat="43.73931" lon="3.421">
        <ele>407</ele>
        <time>2017-04-09T08:13:18Z</time>
      </trkpt>
      <trkpt lat="43.73923" lon="3.42096">
        <ele>408.1</ele>
        <time>2017-04-09T08:13:23Z</time>
      </trkpt>
      <trkpt lat="43.73915" lon="3.42093">
        <ele>408.8</ele>
        <time>2017-04-09T08:13:26Z</time>
      </trkpt>
      <trkpt lat="43.73906" lon="3.42092">
        <ele>409.7</ele>
        <time>2017-04-09T08:13:30Z</time>
      </trkpt>
      <trkpt lat="43.73898" lon="3.4209">
        <ele>410.3</ele>
        <time>2017-04-09T08:13:33Z</time>
      </trkpt>
      <trkpt lat="43.73889" lon="3.42089">
        <ele>411.1</ele>
        <time>2017-04-09T08:13:37Z</time>
      </trkpt>
      <trkpt lat="43.7388" lon="3.4209">
        <ele>411.7</ele>
        <time>2017-04-09T08:13:40Z</time>
      </trkpt>
      <trkpt lat="43.73871" lon="3.42089">
        <ele>412.3</ele>
        <time>2017-04-09T08:13:43Z</time>
      </trkpt>
      <trkpt lat="43.73862" lon="3.42088">
        <ele>412.8</ele>
        <time>2017-04-09T08:13:46Z</time>
      </trkpt>
      <trkpt lat="43.73855" lon="3.42087">
        <ele>413.3</ele>
        <time>2017-04-09T08:13:49Z</time>
      </trkpt>
      <trkpt lat="43.73845" lon="3.42085">
        <ele>414</ele>
        <time>2017-04-09T08:13:53Z</time>
      </trkpt>
      <trkpt lat="43.73838" lon="3.42084">
        <ele>414.5</ele>
        <time>2017-04-09T08:13:56Z</time>
      </trkpt>
      <trkpt lat="43.73829" lon="3.42083">
        <ele>415.1</ele>
        <time>2017-04-09T08:13:59Z</time>
      </trkpt>
      <trkpt lat="43.7382" lon="3.42081">
        <ele>415.5</ele>
        <time>2017-04-09T08:14:02Z</time>
      </trkpt>
      <trkpt lat="43.73813" lon="3.42078">
        <ele>416</ele>
        <time>2017-04-09T08:14:05Z</time>
      </trkpt>
      <trkpt lat="43.73806" lon="3.42073">
        <ele>416.6</ele>
        <time>2017-04-09T08:14:08Z</time>
      </trkpt>
      <trkpt lat="43.73796" lon="3.42069">
        <ele>417.4</ele>
        <time>2017-04-09T08:14:11Z</time>
      </trkpt>
      <trkpt lat="43.73789" lon="3.42066">
        <ele>417.9</ele>
        <time>2017-04-09T08:14:13Z</time>
      </trkpt>
      <trkpt lat="43.73782" lon="3.42063">
        <ele>418.7</ele>
        <time>2017-04-09T08:14:16Z</time>
      </trkpt>
      <trkpt lat="43.73774" lon="3.42065">
        <ele>422</ele>
        <time>2017-04-09T08:14:19Z</time>
      </trkpt>
      <trkpt lat="43.73763" lon="3.42068">
        <ele>422.6</ele>
        <time>2017-04-09T08:14:22Z</time>
      </trkpt>
      <trkpt lat="43.73753" lon="3.42071">
        <ele>423.4</ele>
        <time>2017-04-09T08:14:25Z</time>
      </trkpt>
      <trkpt lat="43.73743" lon="3.42071">
        <ele>424</ele>
        <time>2017-04-09T08:14:28Z</time>
      </trkpt>
      <trkpt lat="43.73734" lon="3.42067">
        <ele>426.2</ele>
        <time>2017-04-09T08:14:31Z</time>
      </trkpt>
      <trkpt lat="43.73724" lon="3.42061">
        <ele>426.4</ele>
        <time>2017-04-09T08:14:34Z</time>
      </trkpt>
      <trkpt lat="43.73716" lon="3.42059">
        <ele>426.6</ele>
        <time>2017-04-09T08:14:36Z</time>
      </trkpt>
      <trkpt lat="43.73709" lon="3.4206">
        <ele>426.6</ele>
        <time>2017-04-09T08:14:38Z</time>
      </trkpt>
      <trkpt lat="43.737" lon="3.42068">
        <ele>426.9</ele>
        <time>2017-04-09T08:14:41Z</time>
      </trkpt>
      <trkpt lat="43.73693" lon="3.42075">
        <ele>427</ele>
        <time>2017-04-09T08:14:43Z</time>
      </trkpt>
      <trkpt lat="43.73688" lon="3.42082">
        <ele>427.3</ele>
        <time>2017-04-09T08:14:45Z</time>
      </trkpt>
      <trkpt lat="43.7368" lon="3.42087">
        <ele>428.6</ele>
        <time>2017-04-09T08:14:47Z</time>
      </trkpt>
      <trkpt lat="43.73673" lon="3.42089">
        <ele>430</ele>
        <time>2017-04-09T08:14:49Z</time>
      </trkpt>
      <trkpt lat="43.73662" lon="3.4209">
        <ele>431.7</ele>
        <time>2017-04-09T08:14:52Z</time>
      </trkpt>
      <trkpt lat="43.73652" lon="3.4209">
        <ele>432.1</ele>
        <time>2017-04-09T08:14:54Z</time>
      </trkpt>
      <trkpt lat="43.73644" lon="3.42089">
        <ele>431.8</ele>
        <time>2017-04-09T08:14:57Z</time>
      </trkpt>
      <trkpt lat="43.73641" lon="3.42088">
        <ele>431.8</ele>
        <time>2017-04-09T08:15:04Z</time>
      </trkpt>
      <trkpt lat="43.73639" lon="3.42093">
        <ele>432</ele>
        <time>2017-04-09T08:15:36Z</time>
      </trkpt>
      <trkpt lat="43.73636" lon="3.42089">
        <ele>430.8</ele>
        <time>2017-04-09T08:16:05Z</time>
      </trkpt>
      <trkpt lat="43.73641" lon="3.42091">
        <ele>430.6</ele>
        <time>2017-04-09T08:16:24Z</time>
      </trkpt>
      <trkpt lat="43.73633" lon="3.42088">
        <ele>430.4</ele>
        <time>2017-04-09T08:16:31Z</time>
      </trkpt>
      <trkpt lat="43.73623" lon="3.42088">
        <ele>430</ele>
        <time>2017-04-09T08:16:33Z</time>
      </trkpt>
      <trkpt lat="43.73607" lon="3.42091">
        <ele>428.3</ele>
        <time>2017-04-09T08:16:35Z</time>
      </trkpt>
      <trkpt lat="43.73599" lon="3.42092">
        <ele>427</ele>
        <time>2017-04-09T08:16:36Z</time>
      </trkpt>
      <trkpt lat="43.73591" lon="3.42093">
        <ele>425.4</ele>
        <time>2017-04-09T08:16:37Z</time>
      </trkpt>
      <trkpt lat="43.73584" lon="3.42096">
        <ele>423.9</ele>
        <time>2017-04-09T08:16:38Z</time>
      </trkpt>
      <trkpt lat="43.73575" lon="3.42103">
        <ele>422.2</ele>
        <time>2017-04-09T08:16:40Z</time>
      </trkpt>
      <trkpt lat="43.73568" lon="3.42108">
        <ele>422.1</ele>
        <time>2017-04-09T08:16:42Z</time>
      </trkpt>
      <trkpt lat="43.73561" lon="3.42119">
        <ele>418.4</ele>
        <time>2017-04-09T08:16:45Z</time>
      </trkpt>
      <trkpt lat="43.73556" lon="3.4213">
        <ele>414.9</ele>
        <time>2017-04-09T08:16:47Z</time>
      </trkpt>
      <trkpt lat="43.73559" lon="3.42143">
        <ele>414.4</ele>
        <time>2017-04-09T08:16:50Z</time>
      </trkpt>
      <trkpt lat="43.73563" lon="3.42155">
        <ele>414</ele>
        <time>2017-04-09T08:16:52Z</time>
      </trkpt>
      <trkpt lat="43.73565" lon="3.42166">
        <ele>413.4</ele>
        <time>2017-04-09T08:16:55Z</time>
      </trkpt>
      <trkpt lat="43.73548" lon="3.4218">
        <ele>409.9</ele>
        <time>2017-04-09T08:17:25Z</time>
      </trkpt>
      <trkpt lat="43.73542" lon="3.42188">
        <ele>409.4</ele>
        <time>2017-04-09T08:17:27Z</time>
      </trkpt>
      <trkpt lat="43.7354" lon="3.42198">
        <ele>408.8</ele>
        <time>2017-04-09T08:17:29Z</time>
      </trkpt>
      <trkpt lat="43.73536" lon="3.42209">
        <ele>408.1</ele>
        <time>2017-04-09T08:17:32Z</time>
      </trkpt>
      <trkpt lat="43.73536" lon="3.42221">
        <ele>407.2</ele>
        <time>2017-04-09T08:17:35Z</time>
      </trkpt>
      <trkpt lat="43.73532" lon="3.42234">
        <ele>405.9</ele>
        <time>2017-04-09T08:17:38Z</time>
      </trkpt>
      <trkpt lat="43.73526" lon="3.42247">
        <ele>404.6</ele>
        <time>2017-04-09T08:17:41Z</time>
      </trkpt>
      <trkpt lat="43.73519" lon="3.42255">
        <ele>403.6</ele>
        <time>2017-04-09T08:17:43Z</time>
      </trkpt>
      <trkpt lat="43.7351" lon="3.42264">
        <ele>393.5</ele>
        <time>2017-04-09T08:17:45Z</time>
      </trkpt>
      <trkpt lat="43.735" lon="3.4227">
        <ele>386.3</ele>
        <time>2017-04-09T08:17:47Z</time>
      </trkpt>
      <trkpt lat="43.7349" lon="3.42274">
        <ele>381.5</ele>
        <time>2017-04-09T08:17:49Z</time>
      </trkpt>
      <trkpt lat="43.73484" lon="3.42283">
        <ele>379</ele>
        <time>2017-04-09T08:17:51Z</time>
      </trkpt>
      <trkpt lat="43.73477" lon="3.4229">
        <ele>374.5</ele>
        <time>2017-04-09T08:17:53Z</time>
      </trkpt>
      <trkpt lat="43.73468" lon="3.42297">
        <ele>371.5</ele>
        <time>2017-04-09T08:17:55Z</time>
      </trkpt>
      <trkpt lat="43.73463" lon="3.42305">
        <ele>371.1</ele>
        <time>2017-04-09T08:17:57Z</time>
      </trkpt>
      <trkpt lat="43.73456" lon="3.42309">
        <ele>366.5</ele>
        <time>2017-04-09T08:17:59Z</time>
      </trkpt>
      <trkpt lat="43.73456" lon="3.42321">
        <ele>366</ele>
        <time>2017-04-09T08:18:02Z</time>
      </trkpt>
      <trkpt lat="43.73456" lon="3.42331">
        <ele>365.6</ele>
        <time>2017-04-09T08:18:04Z</time>
      </trkpt>
      <trkpt lat="43.73465" lon="3.42343">
        <ele>361.7</ele>
        <time>2017-04-09T08:18:08Z</time>
      </trkpt>
      <trkpt lat="43.73465" lon="3.42354">
        <ele>361.2</ele>
        <time>2017-04-09T08:18:11Z</time>
      </trkpt>
      <trkpt lat="43.73456" lon="3.42359">
        <ele>357.5</ele>
        <time>2017-04-09T08:18:14Z</time>
      </trkpt>
      <trkpt lat="43.73447" lon="3.42363">
        <ele>356.2</ele>
        <time>2017-04-09T08:18:16Z</time>
      </trkpt>
      <trkpt lat="43.73439" lon="3.42371">
        <ele>354.1</ele>
        <time>2017-04-09T08:18:18Z</time>
      </trkpt>
      <trkpt lat="43.73431" lon="3.42383">
        <ele>350.8</ele>
        <time>2017-04-09T08:18:20Z</time>
      </trkpt>
      <trkpt lat="43.73427" lon="3.42394">
        <ele>348.9</ele>
        <time>2017-04-09T08:18:22Z</time>
      </trkpt>
      <trkpt lat="43.73429" lon="3.42406">
        <ele>348.6</ele>
        <time>2017-04-09T08:18:26Z</time>
      </trkpt>
      <trkpt lat="43.7343" lon="3.42417">
        <ele>348.2</ele>
        <time>2017-04-09T08:18:29Z</time>
      </trkpt>
      <trkpt lat="43.7344" lon="3.42432">
        <ele>345</ele>
        <time>2017-04-09T08:18:37Z</time>
      </trkpt>
      <trkpt lat="43.73438" lon="3.42441">
        <ele>343.2</ele>
        <time>2017-04-09T08:18:39Z</time>
      </trkpt>
      <trkpt lat="43.73438" lon="3.42453">
        <ele>341.2</ele>
        <time>2017-04-09T08:18:41Z</time>
      </trkpt>
      <trkpt lat="43.73437" lon="3.42463">
        <ele>340.9</ele>
        <time>2017-04-09T08:18:43Z</time>
      </trkpt>
      <trkpt lat="43.73436" lon="3.42477">
        <ele>340.5</ele>
        <time>2017-04-09T08:18:46Z</time>
      </trkpt>
      <trkpt lat="43.7344" lon="3.42487">
        <ele>340.1</ele>
        <time>2017-04-09T08:18:48Z</time>
      </trkpt>
      <trkpt lat="43.73444" lon="3.42496">
        <ele>339.4</ele>
        <time>2017-04-09T08:18:50Z</time>
      </trkpt>
      <trkpt lat="43.73442" lon="3.4251">
        <ele>331.7</ele>
        <time>2017-04-09T08:18:52Z</time>
      </trkpt>
      <trkpt lat="43.73436" lon="3.42521">
        <ele>326.3</ele>
        <time>2017-04-09T08:18:54Z</time>
      </trkpt>
      <trkpt lat="43.73431" lon="3.42529">
        <ele>324.4</ele>
        <time>2017-04-09T08:18:55Z</time>
      </trkpt>
      <trkpt lat="43.73425" lon="3.42539">
        <ele>321.5</ele>
        <time>2017-04-09T08:18:57Z</time>
      </trkpt>
      <trkpt lat="43.73416" lon="3.42551">
        <ele>319.1</ele>
        <time>2017-04-09T08:18:59Z</time>
      </trkpt>
      <trkpt lat="43.73407" lon="3.42557">
        <ele>317.2</ele>
        <time>2017-04-09T08:19:01Z</time>
      </trkpt>
      <trkpt lat="43.73401" lon="3.42564">
        <ele>316.2</ele>
        <time>2017-04-09T08:19:03Z</time>
      </trkpt>
      <trkpt lat="43.73395" lon="3.42574">
        <ele>316</ele>
        <time>2017-04-09T08:19:05Z</time>
      </trkpt>
      <trkpt lat="43.7339" lon="3.42586">
        <ele>314.7</ele>
        <time>2017-04-09T08:19:07Z</time>
      </trkpt>
      <trkpt lat="43.73384" lon="3.42601">
        <ele>312.3</ele>
        <time>2017-04-09T08:19:09Z</time>
      </trkpt>
      <trkpt lat="43.7338" lon="3.4261">
        <ele>312.1</ele>
        <time>2017-04-09T08:19:11Z</time>
      </trkpt>
      <trkpt lat="43.73377" lon="3.42621">
        <ele>311.3</ele>
        <time>2017-04-09T08:19:13Z</time>
      </trkpt>
      <trkpt lat="43.73371" lon="3.4263">
        <ele>311.1</ele>
        <time>2017-04-09T08:19:15Z</time>
      </trkpt>
      <trkpt lat="43.73368" lon="3.42642">
        <ele>310.5</ele>
        <time>2017-04-09T08:19:19Z</time>
      </trkpt>
      <trkpt lat="43.73367" lon="3.42656">
        <ele>308.8</ele>
        <time>2017-04-09T08:19:21Z</time>
      </trkpt>
      <trkpt lat="43.73366" lon="3.42666">
        <ele>308.5</ele>
        <time>2017-04-09T08:19:23Z</time>
      </trkpt>
      <trkpt lat="43.73365" lon="3.42681">
        <ele>307.7</ele>
        <time>2017-04-09T08:19:27Z</time>
      </trkpt>
      <trkpt lat="43.73364" lon="3.42695">
        <ele>307.1</ele>
        <time>2017-04-09T08:19:29Z</time>
      </trkpt>
      <trkpt lat="43.73365" lon="3.42706">
        <ele>303.2</ele>
        <time>2017-04-09T08:19:32Z</time>
      </trkpt>
      <trkpt lat="43.73366" lon="3.42716">
        <ele>302.7</ele>
        <time>2017-04-09T08:19:34Z</time>
      </trkpt>
      <trkpt lat="43.73368" lon="3.42726">
        <ele>302.1</ele>
        <time>2017-04-09T08:19:36Z</time>
      </trkpt>
      <trkpt lat="43.73374" lon="3.42735">
        <ele>300.7</ele>
        <time>2017-04-09T08:19:39Z</time>
      </trkpt>
      <trkpt lat="43.73378" lon="3.42746">
        <ele>295.9</ele>
        <time>2017-04-09T08:19:41Z</time>
      </trkpt>
      <trkpt lat="43.73377" lon="3.4276">
        <ele>291.5</ele>
        <time>2017-04-09T08:19:44Z</time>
      </trkpt>
      <trkpt lat="43.73371" lon="3.42766">
        <ele>287.6</ele>
        <time>2017-04-09T08:19:46Z</time>
      </trkpt>
      <trkpt lat="43.7337" lon="3.42768">
        <ele>286.7</ele>
        <time>2017-04-09T08:19:53Z</time>
      </trkpt>
      <trkpt lat="43.73363" lon="3.42774">
        <ele>275.5</ele>
        <time>2017-04-09T08:22:28Z</time>
      </trkpt>
      <trkpt lat="43.73355" lon="3.42788">
        <ele>273.8</ele>
        <time>2017-04-09T08:22:32Z</time>
      </trkpt>
      <trkpt lat="43.73348" lon="3.42798">
        <ele>269</ele>
        <time>2017-04-09T08:22:34Z</time>
      </trkpt>
      <trkpt lat="43.73339" lon="3.42808">
        <ele>264.4</ele>
        <time>2017-04-09T08:22:36Z</time>
      </trkpt>
      <trkpt lat="43.73331" lon="3.42817">
        <ele>262.3</ele>
        <time>2017-04-09T08:22:38Z</time>
      </trkpt>
      <trkpt lat="43.73322" lon="3.42814">
        <ele>261.7</ele>
        <time>2017-04-09T08:22:41Z</time>
      </trkpt>
      <trkpt lat="43.73315" lon="3.42808">
        <ele>261.4</ele>
        <time>2017-04-09T08:22:44Z</time>
      </trkpt>
      <trkpt lat="43.7331" lon="3.42805">
        <ele>261</ele>
        <time>2017-04-09T08:22:51Z</time>
      </trkpt>
      <trkpt lat="43.73302" lon="3.42798">
        <ele>261.6</ele>
        <time>2017-04-09T08:23:07Z</time>
      </trkpt>
      <trkpt lat="43.73295" lon="3.42792">
        <ele>261.6</ele>
        <time>2017-04-09T08:23:10Z</time>
      </trkpt>
      <trkpt lat="43.73287" lon="3.42786">
        <ele>261.6</ele>
        <time>2017-04-09T08:23:13Z</time>
      </trkpt>
      <trkpt lat="43.73278" lon="3.42779">
        <ele>261.6</ele>
        <time>2017-04-09T08:23:16Z</time>
      </trkpt>
      <trkpt lat="43.73269" lon="3.42773">
        <ele>261.6</ele>
        <time>2017-04-09T08:23:19Z</time>
      </trkpt>
      <trkpt lat="43.73262" lon="3.42767">
        <ele>261.6</ele>
        <time>2017-04-09T08:23:22Z</time>
      </trkpt>
      <trkpt lat="43.73253" lon="3.4276">
        <ele>261.6</ele>
        <time>2017-04-09T08:23:25Z</time>
      </trkpt>
      <trkpt lat="43.73247" lon="3.42754">
        <ele>261.5</ele>
        <time>2017-04-09T08:23:27Z</time>
      </trkpt>
      <trkpt lat="43.7324" lon="3.42749">
        <ele>261.2</ele>
        <time>2017-04-09T08:23:29Z</time>
      </trkpt>
      <trkpt lat="43.73233" lon="3.42743">
        <ele>260.9</ele>
        <time>2017-04-09T08:23:31Z</time>
      </trkpt>
      <trkpt lat="43.73223" lon="3.42737">
        <ele>260.2</ele>
        <time>2017-04-09T08:23:33Z</time>
      </trkpt>
      <trkpt lat="43.73212" lon="3.42731">
        <ele>259</ele>
        <time>2017-04-09T08:23:35Z</time>
      </trkpt>
      <trkpt lat="43.732" lon="3.42724">
        <ele>258.3</ele>
        <time>2017-04-09T08:23:37Z</time>
      </trkpt>
      <trkpt lat="43.73189" lon="3.42717">
        <ele>258.1</ele>
        <time>2017-04-09T08:23:39Z</time>
      </trkpt>
      <trkpt lat="43.73177" lon="3.42709">
        <ele>257.2</ele>
        <time>2017-04-09T08:23:41Z</time>
      </trkpt>
      <trkpt lat="43.73166" lon="3.42702">
        <ele>256.9</ele>
        <time>2017-04-09T08:23:43Z</time>
      </trkpt>
      <trkpt lat="43.73156" lon="3.42694">
        <ele>256.3</ele>
        <time>2017-04-09T08:23:45Z</time>
      </trkpt>
      <trkpt lat="43.73146" lon="3.42688">
        <ele>255.9</ele>
        <time>2017-04-09T08:23:47Z</time>
      </trkpt>
      <trkpt lat="43.73136" lon="3.42682">
        <ele>255.6</ele>
        <time>2017-04-09T08:23:49Z</time>
      </trkpt>
      <trkpt lat="43.73125" lon="3.42676">
        <ele>256</ele>
        <time>2017-04-09T08:23:51Z</time>
      </trkpt>
      <trkpt lat="43.73115" lon="3.4267">
        <ele>256</ele>
        <time>2017-04-09T08:23:53Z</time>
      </trkpt>
      <trkpt lat="43.73108" lon="3.42659">
        <ele>255.5</ele>
        <time>2017-04-09T08:23:55Z</time>
      </trkpt>
      <trkpt lat="43.73104" lon="3.42648">
        <ele>255.2</ele>
        <time>2017-04-09T08:23:57Z</time>
      </trkpt>
      <trkpt lat="43.73096" lon="3.42639">
        <ele>255.2</ele>
        <time>2017-04-09T08:24:00Z</time>
      </trkpt>
      <trkpt lat="43.73088" lon="3.42632">
        <ele>255.2</ele>
        <time>2017-04-09T08:24:03Z</time>
      </trkpt>
      <trkpt lat="43.73081" lon="3.42628">
        <ele>255.3</ele>
        <time>2017-04-09T08:24:06Z</time>
      </trkpt>
      <trkpt lat="43.73072" lon="3.42622">
        <ele>255.4</ele>
        <time>2017-04-09T08:24:09Z</time>
      </trkpt>
      <trkpt lat="43.73064" lon="3.42618">
        <ele>255.6</ele>
        <time>2017-04-09T08:24:13Z</time>
      </trkpt>
      <trkpt lat="43.73057" lon="3.42614">
        <ele>255.8</ele>
        <time>2017-04-09T08:24:16Z</time>
      </trkpt>
      <trkpt lat="43.7305" lon="3.4261">
        <ele>256.1</ele>
        <time>2017-04-09T08:24:19Z</time>
      </trkpt>
      <trkpt lat="43.73042" lon="3.42605">
        <ele>256.9</ele>
        <time>2017-04-09T08:24:23Z</time>
      </trkpt>
      <trkpt lat="43.73035" lon="3.42601">
        <ele>257.4</ele>
        <time>2017-04-09T08:24:26Z</time>
      </trkpt>
      <trkpt lat="43.73027" lon="3.42597">
        <ele>257.8</ele>
        <time>2017-04-09T08:24:29Z</time>
      </trkpt>
      <trkpt lat="43.7302" lon="3.42592">
        <ele>258.1</ele>
        <time>2017-04-09T08:24:32Z</time>
      </trkpt>
      <trkpt lat="43.73012" lon="3.42587">
        <ele>258.4</ele>
        <time>2017-04-09T08:24:35Z</time>
      </trkpt>
      <trkpt lat="43.73005" lon="3.42583">
        <ele>258.6</ele>
        <time>2017-04-09T08:24:37Z</time>
      </trkpt>
      <trkpt lat="43.72995" lon="3.42579">
        <ele>259.5</ele>
        <time>2017-04-09T08:24:40Z</time>
      </trkpt>
      <trkpt lat="43.72986" lon="3.42574">
        <ele>261</ele>
        <time>2017-04-09T08:24:42Z</time>
      </trkpt>
      <trkpt lat="43.72976" lon="3.42569">
        <ele>261.4</ele>
        <time>2017-04-09T08:24:44Z</time>
      </trkpt>
      <trkpt lat="43.72968" lon="3.42565">
        <ele>261.3</ele>
        <time>2017-04-09T08:24:46Z</time>
      </trkpt>
      <trkpt lat="43.72958" lon="3.42561">
        <ele>261.6</ele>
        <time>2017-04-09T08:24:48Z</time>
      </trkpt>
      <trkpt lat="43.72948" lon="3.42555">
        <ele>261.6</ele>
        <time>2017-04-09T08:24:50Z</time>
      </trkpt>
      <trkpt lat="43.72939" lon="3.42551">
        <ele>261.5</ele>
        <time>2017-04-09T08:24:52Z</time>
      </trkpt>
      <trkpt lat="43.72929" lon="3.42548">
        <ele>260.9</ele>
        <time>2017-04-09T08:24:54Z</time>
      </trkpt>
      <trkpt lat="43.72921" lon="3.42545">
        <ele>260.8</ele>
        <time>2017-04-09T08:24:56Z</time>
      </trkpt>
      <trkpt lat="43.72914" lon="3.42542">
        <ele>261.1</ele>
        <time>2017-04-09T08:24:58Z</time>
      </trkpt>
      <trkpt lat="43.72905" lon="3.42539">
        <ele>261.2</ele>
        <time>2017-04-09T08:25:01Z</time>
      </trkpt>
      <trkpt lat="43.72897" lon="3.42537">
        <ele>261.5</ele>
        <time>2017-04-09T08:25:03Z</time>
      </trkpt>
      <trkpt lat="43.72889" lon="3.42532">
        <ele>261.6</ele>
        <time>2017-04-09T08:25:05Z</time>
      </trkpt>
      <trkpt lat="43.72879" lon="3.42531">
        <ele>260.7</ele>
        <time>2017-04-09T08:25:07Z</time>
      </trkpt>
      <trkpt lat="43.72868" lon="3.4253">
        <ele>260.3</ele>
        <time>2017-04-09T08:25:09Z</time>
      </trkpt>
      <trkpt lat="43.72858" lon="3.42528">
        <ele>260.7</ele>
        <time>2017-04-09T08:25:11Z</time>
      </trkpt>
      <trkpt lat="43.7285" lon="3.42527">
        <ele>260.4</ele>
        <time>2017-04-09T08:25:13Z</time>
      </trkpt>
      <trkpt lat="43.7284" lon="3.42521">
        <ele>260.9</ele>
        <time>2017-04-09T08:25:15Z</time>
      </trkpt>
      <trkpt lat="43.72831" lon="3.42512">
        <ele>260.8</ele>
        <time>2017-04-09T08:25:17Z</time>
      </trkpt>
      <trkpt lat="43.7282" lon="3.42509">
        <ele>261</ele>
        <time>2017-04-09T08:25:19Z</time>
      </trkpt>
      <trkpt lat="43.72811" lon="3.42505">
        <ele>260.7</ele>
        <time>2017-04-09T08:25:21Z</time>
      </trkpt>
      <trkpt lat="43.728" lon="3.42501">
        <ele>260.1</ele>
        <time>2017-04-09T08:25:23Z</time>
      </trkpt>
      <trkpt lat="43.72789" lon="3.42499">
        <ele>259.1</ele>
        <time>2017-04-09T08:25:25Z</time>
      </trkpt>
      <trkpt lat="43.72777" lon="3.42498">
        <ele>258.8</ele>
        <time>2017-04-09T08:25:27Z</time>
      </trkpt>
      <trkpt lat="43.72764" lon="3.42498">
        <ele>258.2</ele>
        <time>2017-04-09T08:25:29Z</time>
      </trkpt>
      <trkpt lat="43.72756" lon="3.42499">
        <ele>257.6</ele>
        <time>2017-04-09T08:25:30Z</time>
      </trkpt>
      <trkpt lat="43.72749" lon="3.42499">
        <ele>257</ele>
        <time>2017-04-09T08:25:31Z</time>
      </trkpt>
      <trkpt lat="43.72741" lon="3.425">
        <ele>256.2</ele>
        <time>2017-04-09T08:25:32Z</time>
      </trkpt>
      <trkpt lat="43.72727" lon="3.42501">
        <ele>253.9</ele>
        <time>2017-04-09T08:25:34Z</time>
      </trkpt>
      <trkpt lat="43.72719" lon="3.42502">
        <ele>252.8</ele>
        <time>2017-04-09T08:25:35Z</time>
      </trkpt>
      <trkpt lat="43.72711" lon="3.42503">
        <ele>252.1</ele>
        <time>2017-04-09T08:25:36Z</time>
      </trkpt>
      <trkpt lat="43.72703" lon="3.42503">
        <ele>251.6</ele>
        <time>2017-04-09T08:25:37Z</time>
      </trkpt>
      <trkpt lat="43.72696" lon="3.42503">
        <ele>250.9</ele>
        <time>2017-04-09T08:25:38Z</time>
      </trkpt>
      <trkpt lat="43.72687" lon="3.42503">
        <ele>250.5</ele>
        <time>2017-04-09T08:25:39Z</time>
      </trkpt>
      <trkpt lat="43.72678" lon="3.42501">
        <ele>250.1</ele>
        <time>2017-04-09T08:25:40Z</time>
      </trkpt>
      <trkpt lat="43.7267" lon="3.42498">
        <ele>249.6</ele>
        <time>2017-04-09T08:25:41Z</time>
      </trkpt>
      <trkpt lat="43.72662" lon="3.42495">
        <ele>249.1</ele>
        <time>2017-04-09T08:25:42Z</time>
      </trkpt>
      <trkpt lat="43.72655" lon="3.42492">
        <ele>248.6</ele>
        <time>2017-04-09T08:25:43Z</time>
      </trkpt>
      <trkpt lat="43.72647" lon="3.42488">
        <ele>248.2</ele>
        <time>2017-04-09T08:25:44Z</time>
      </trkpt>
      <trkpt lat="43.7264" lon="3.42484">
        <ele>247.6</ele>
        <time>2017-04-09T08:25:45Z</time>
      </trkpt>
      <trkpt lat="43.72633" lon="3.42479">
        <ele>247</ele>
        <time>2017-04-09T08:25:46Z</time>
      </trkpt>
      <trkpt lat="43.72627" lon="3.42473">
        <ele>246.6</ele>
        <time>2017-04-09T08:25:47Z</time>
      </trkpt>
      <trkpt lat="43.72614" lon="3.42464">
        <ele>246.1</ele>
        <time>2017-04-09T08:25:49Z</time>
      </trkpt>
      <trkpt lat="43.72607" lon="3.4246">
        <ele>246</ele>
        <time>2017-04-09T08:25:50Z</time>
      </trkpt>
      <trkpt lat="43.72599" lon="3.42461">
        <ele>245.5</ele>
        <time>2017-04-09T08:25:51Z</time>
      </trkpt>
      <trkpt lat="43.72587" lon="3.42463">
        <ele>245.3</ele>
        <time>2017-04-09T08:25:53Z</time>
      </trkpt>
      <trkpt lat="43.72575" lon="3.42468">
        <ele>244.5</ele>
        <time>2017-04-09T08:25:55Z</time>
      </trkpt>
      <trkpt lat="43.72564" lon="3.42475">
        <ele>243.9</ele>
        <time>2017-04-09T08:25:57Z</time>
      </trkpt>
      <trkpt lat="43.72555" lon="3.42479">
        <ele>243.5</ele>
        <time>2017-04-09T08:25:59Z</time>
      </trkpt>
      <trkpt lat="43.72546" lon="3.42482">
        <ele>244</ele>
        <time>2017-04-09T08:26:01Z</time>
      </trkpt>
      <trkpt lat="43.72538" lon="3.42484">
        <ele>245.1</ele>
        <time>2017-04-09T08:26:03Z</time>
      </trkpt>
      <trkpt lat="43.72529" lon="3.42484">
        <ele>246.8</ele>
        <time>2017-04-09T08:26:05Z</time>
      </trkpt>
      <trkpt lat="43.72519" lon="3.42486">
        <ele>248.4</ele>
        <time>2017-04-09T08:26:08Z</time>
      </trkpt>
      <trkpt lat="43.72508" lon="3.42488">
        <ele>247.5</ele>
        <time>2017-04-09T08:26:10Z</time>
      </trkpt>
      <trkpt lat="43.72498" lon="3.42491">
        <ele>247.1</ele>
        <time>2017-04-09T08:26:12Z</time>
      </trkpt>
      <trkpt lat="43.72486" lon="3.42494">
        <ele>246.7</ele>
        <time>2017-04-09T08:26:14Z</time>
      </trkpt>
      <trkpt lat="43.72473" lon="3.42498">
        <ele>246.3</ele>
        <time>2017-04-09T08:26:16Z</time>
      </trkpt>
      <trkpt lat="43.72459" lon="3.425">
        <ele>245.5</ele>
        <time>2017-04-09T08:26:18Z</time>
      </trkpt>
      <trkpt lat="43.72451" lon="3.425">
        <ele>244.9</ele>
        <time>2017-04-09T08:26:19Z</time>
      </trkpt>
      <trkpt lat="43.72441" lon="3.42501">
        <ele>244.3</ele>
        <time>2017-04-09T08:26:20Z</time>
      </trkpt>
      <trkpt lat="43.72434" lon="3.42501">
        <ele>243.9</ele>
        <time>2017-04-09T08:26:21Z</time>
      </trkpt>
      <trkpt lat="43.72425" lon="3.425">
        <ele>243.2</ele>
        <time>2017-04-09T08:26:22Z</time>
      </trkpt>
      <trkpt lat="43.72417" lon="3.425">
        <ele>242.6</ele>
        <time>2017-04-09T08:26:23Z</time>
      </trkpt>
      <trkpt lat="43.72403" lon="3.42498">
        <ele>241.7</ele>
        <time>2017-04-09T08:26:25Z</time>
      </trkpt>
      <trkpt lat="43.7239" lon="3.42495">
        <ele>240.9</ele>
        <time>2017-04-09T08:26:27Z</time>
      </trkpt>
      <trkpt lat="43.72383" lon="3.42492">
        <ele>240.5</ele>
        <time>2017-04-09T08:26:28Z</time>
      </trkpt>
      <trkpt lat="43.7237" lon="3.42484">
        <ele>240</ele>
        <time>2017-04-09T08:26:30Z</time>
      </trkpt>
      <trkpt lat="43.72363" lon="3.42479">
        <ele>239.7</ele>
        <time>2017-04-09T08:26:31Z</time>
      </trkpt>
      <trkpt lat="43.72356" lon="3.42476">
        <ele>239.2</ele>
        <time>2017-04-09T08:26:32Z</time>
      </trkpt>
      <trkpt lat="43.72348" lon="3.42472">
        <ele>238.8</ele>
        <time>2017-04-09T08:26:33Z</time>
      </trkpt>
      <trkpt lat="43.72341" lon="3.42468">
        <ele>238.3</ele>
        <time>2017-04-09T08:26:34Z</time>
      </trkpt>
      <trkpt lat="43.72333" lon="3.42463">
        <ele>237.9</ele>
        <time>2017-04-09T08:26:35Z</time>
      </trkpt>
      <trkpt lat="43.72327" lon="3.42458">
        <ele>237.8</ele>
        <time>2017-04-09T08:26:36Z</time>
      </trkpt>
      <trkpt lat="43.72315" lon="3.42449">
        <ele>237.5</ele>
        <time>2017-04-09T08:26:38Z</time>
      </trkpt>
      <trkpt lat="43.72304" lon="3.42442">
        <ele>237.5</ele>
        <time>2017-04-09T08:26:40Z</time>
      </trkpt>
      <trkpt lat="43.72292" lon="3.42434">
        <ele>237.1</ele>
        <time>2017-04-09T08:26:42Z</time>
      </trkpt>
      <trkpt lat="43.72285" lon="3.4243">
        <ele>236.8</ele>
        <time>2017-04-09T08:26:43Z</time>
      </trkpt>
      <trkpt lat="43.72272" lon="3.42422">
        <ele>236.7</ele>
        <time>2017-04-09T08:26:45Z</time>
      </trkpt>
      <trkpt lat="43.72265" lon="3.42418">
        <ele>236.3</ele>
        <time>2017-04-09T08:26:46Z</time>
      </trkpt>
      <trkpt lat="43.72252" lon="3.42413">
        <ele>235.7</ele>
        <time>2017-04-09T08:26:48Z</time>
      </trkpt>
      <trkpt lat="43.7224" lon="3.42417">
        <ele>235.6</ele>
        <time>2017-04-09T08:26:50Z</time>
      </trkpt>
      <trkpt lat="43.72229" lon="3.4242">
        <ele>235.4</ele>
        <time>2017-04-09T08:26:52Z</time>
      </trkpt>
      <trkpt lat="43.72217" lon="3.42422">
        <ele>235</ele>
        <time>2017-04-09T08:26:54Z</time>
      </trkpt>
      <trkpt lat="43.72206" lon="3.42425">
        <ele>234.6</ele>
        <time>2017-04-09T08:26:56Z</time>
      </trkpt>
      <trkpt lat="43.72194" lon="3.42426">
        <ele>234.4</ele>
        <time>2017-04-09T08:26:58Z</time>
      </trkpt>
      <trkpt lat="43.72182" lon="3.42427">
        <ele>234.3</ele>
        <time>2017-04-09T08:27:00Z</time>
      </trkpt>
      <trkpt lat="43.72169" lon="3.42428">
        <ele>234.6</ele>
        <time>2017-04-09T08:27:02Z</time>
      </trkpt>
      <trkpt lat="43.72157" lon="3.42429">
        <ele>234.8</ele>
        <time>2017-04-09T08:27:04Z</time>
      </trkpt>
      <trkpt lat="43.72149" lon="3.42429">
        <ele>235.3</ele>
        <time>2017-04-09T08:27:06Z</time>
      </trkpt>
      <trkpt lat="43.7214" lon="3.42427">
        <ele>235.6</ele>
        <time>2017-04-09T08:27:08Z</time>
      </trkpt>
      <trkpt lat="43.72132" lon="3.42427">
        <ele>236.2</ele>
        <time>2017-04-09T08:27:10Z</time>
      </trkpt>
      <trkpt lat="43.7212" lon="3.42426">
        <ele>236.5</ele>
        <time>2017-04-09T08:27:12Z</time>
      </trkpt>
      <trkpt lat="43.7211" lon="3.42423">
        <ele>236.8</ele>
        <time>2017-04-09T08:27:14Z</time>
      </trkpt>
      <trkpt lat="43.72099" lon="3.42421">
        <ele>236.8</ele>
        <time>2017-04-09T08:27:16Z</time>
      </trkpt>
      <trkpt lat="43.72089" lon="3.42422">
        <ele>236.4</ele>
        <time>2017-04-09T08:27:18Z</time>
      </trkpt>
      <trkpt lat="43.72079" lon="3.42422">
        <ele>236.9</ele>
        <time>2017-04-09T08:27:20Z</time>
      </trkpt>
      <trkpt lat="43.72069" lon="3.4242">
        <ele>237</ele>
        <time>2017-04-09T08:27:22Z</time>
      </trkpt>
      <trkpt lat="43.72058" lon="3.42418">
        <ele>236.9</ele>
        <time>2017-04-09T08:27:24Z</time>
      </trkpt>
      <trkpt lat="43.72046" lon="3.42414">
        <ele>237.3</ele>
        <time>2017-04-09T08:27:26Z</time>
      </trkpt>
      <trkpt lat="43.72033" lon="3.42411">
        <ele>237.5</ele>
        <time>2017-04-09T08:27:28Z</time>
      </trkpt>
      <trkpt lat="43.7202" lon="3.4241">
        <ele>237.2</ele>
        <time>2017-04-09T08:27:30Z</time>
      </trkpt>
      <trkpt lat="43.72006" lon="3.4241">
        <ele>235.9</ele>
        <time>2017-04-09T08:27:32Z</time>
      </trkpt>
      <trkpt lat="43.71992" lon="3.42409">
        <ele>234.7</ele>
        <time>2017-04-09T08:27:34Z</time>
      </trkpt>
      <trkpt lat="43.7198" lon="3.42405">
        <ele>233.1</ele>
        <time>2017-04-09T08:27:36Z</time>
      </trkpt>
      <trkpt lat="43.71966" lon="3.42403">
        <ele>233.1</ele>
        <time>2017-04-09T08:27:38Z</time>
      </trkpt>
      <trkpt lat="43.71958" lon="3.42403">
        <ele>233</ele>
        <time>2017-04-09T08:27:39Z</time>
      </trkpt>
      <trkpt lat="43.7195" lon="3.42404">
        <ele>232.7</ele>
        <time>2017-04-09T08:27:40Z</time>
      </trkpt>
      <trkpt lat="43.71942" lon="3.42405">
        <ele>232.1</ele>
        <time>2017-04-09T08:27:41Z</time>
      </trkpt>
      <trkpt lat="43.71934" lon="3.42406">
        <ele>231.2</ele>
        <time>2017-04-09T08:27:42Z</time>
      </trkpt>
      <trkpt lat="43.71926" lon="3.42407">
        <ele>230.5</ele>
        <time>2017-04-09T08:27:43Z</time>
      </trkpt>
      <trkpt lat="43.71919" lon="3.42408">
        <ele>229.8</ele>
        <time>2017-04-09T08:27:44Z</time>
      </trkpt>
      <trkpt lat="43.71911" lon="3.42405">
        <ele>229.1</ele>
        <time>2017-04-09T08:27:45Z</time>
      </trkpt>
      <trkpt lat="43.71902" lon="3.42402">
        <ele>228.4</ele>
        <time>2017-04-09T08:27:46Z</time>
      </trkpt>
      <trkpt lat="43.71894" lon="3.42399">
        <ele>227.6</ele>
        <time>2017-04-09T08:27:47Z</time>
      </trkpt>
      <trkpt lat="43.71886" lon="3.42395">
        <ele>226.8</ele>
        <time>2017-04-09T08:27:48Z</time>
      </trkpt>
      <trkpt lat="43.71877" lon="3.42394">
        <ele>226.1</ele>
        <time>2017-04-09T08:27:49Z</time>
      </trkpt>
      <trkpt lat="43.7187" lon="3.42396">
        <ele>225.6</ele>
        <time>2017-04-09T08:27:50Z</time>
      </trkpt>
      <trkpt lat="43.71862" lon="3.42399">
        <ele>225.4</ele>
        <time>2017-04-09T08:27:51Z</time>
      </trkpt>
      <trkpt lat="43.7185" lon="3.42402">
        <ele>224.8</ele>
        <time>2017-04-09T08:27:53Z</time>
      </trkpt>
      <trkpt lat="43.7184" lon="3.42402">
        <ele>225</ele>
        <time>2017-04-09T08:27:55Z</time>
      </trkpt>
      <trkpt lat="43.7183" lon="3.42402">
        <ele>225</ele>
        <time>2017-04-09T08:27:57Z</time>
      </trkpt>
      <trkpt lat="43.7182" lon="3.424">
        <ele>224.5</ele>
        <time>2017-04-09T08:27:59Z</time>
      </trkpt>
      <trkpt lat="43.71809" lon="3.42399">
        <ele>223.9</ele>
        <time>2017-04-09T08:28:01Z</time>
      </trkpt>
      <trkpt lat="43.71797" lon="3.42396">
        <ele>223.6</ele>
        <time>2017-04-09T08:28:03Z</time>
      </trkpt>
      <trkpt lat="43.71787" lon="3.42393">
        <ele>222.9</ele>
        <time>2017-04-09T08:28:05Z</time>
      </trkpt>
      <trkpt lat="43.71774" lon="3.42387">
        <ele>222.6</ele>
        <time>2017-04-09T08:28:07Z</time>
      </trkpt>
      <trkpt lat="43.71762" lon="3.42383">
        <ele>221.8</ele>
        <time>2017-04-09T08:28:09Z</time>
      </trkpt>
      <trkpt lat="43.71749" lon="3.42377">
        <ele>221.3</ele>
        <time>2017-04-09T08:28:11Z</time>
      </trkpt>
      <trkpt lat="43.71738" lon="3.42371">
        <ele>221.1</ele>
        <time>2017-04-09T08:28:13Z</time>
      </trkpt>
      <trkpt lat="43.71727" lon="3.42364">
        <ele>221</ele>
        <time>2017-04-09T08:28:15Z</time>
      </trkpt>
      <trkpt lat="43.71717" lon="3.42359">
        <ele>220.8</ele>
        <time>2017-04-09T08:28:17Z</time>
      </trkpt>
      <trkpt lat="43.71706" lon="3.42355">
        <ele>220.2</ele>
        <time>2017-04-09T08:28:19Z</time>
      </trkpt>
      <trkpt lat="43.71695" lon="3.42352">
        <ele>219.5</ele>
        <time>2017-04-09T08:28:21Z</time>
      </trkpt>
      <trkpt lat="43.71685" lon="3.42349">
        <ele>219.8</ele>
        <time>2017-04-09T08:28:23Z</time>
      </trkpt>
      <trkpt lat="43.71676" lon="3.42348">
        <ele>220</ele>
        <time>2017-04-09T08:28:25Z</time>
      </trkpt>
      <trkpt lat="43.71665" lon="3.42347">
        <ele>219.2</ele>
        <time>2017-04-09T08:28:27Z</time>
      </trkpt>
      <trkpt lat="43.71654" lon="3.42347">
        <ele>218.6</ele>
        <time>2017-04-09T08:28:29Z</time>
      </trkpt>
      <trkpt lat="43.71644" lon="3.42348">
        <ele>218.3</ele>
        <time>2017-04-09T08:28:31Z</time>
      </trkpt>
      <trkpt lat="43.71635" lon="3.42349">
        <ele>217.7</ele>
        <time>2017-04-09T08:28:33Z</time>
      </trkpt>
      <trkpt lat="43.71627" lon="3.4235">
        <ele>217.8</ele>
        <time>2017-04-09T08:28:35Z</time>
      </trkpt>
      <trkpt lat="43.71618" lon="3.4235">
        <ele>218.7</ele>
        <time>2017-04-09T08:28:37Z</time>
      </trkpt>
      <trkpt lat="43.7161" lon="3.4235">
        <ele>219.2</ele>
        <time>2017-04-09T08:28:39Z</time>
      </trkpt>
      <trkpt lat="43.71602" lon="3.42351">
        <ele>220</ele>
        <time>2017-04-09T08:28:41Z</time>
      </trkpt>
      <trkpt lat="43.71591" lon="3.42352">
        <ele>220.4</ele>
        <time>2017-04-09T08:28:44Z</time>
      </trkpt>
      <trkpt lat="43.71584" lon="3.42352">
        <ele>220.5</ele>
        <time>2017-04-09T08:28:46Z</time>
      </trkpt>
      <trkpt lat="43.71575" lon="3.42352">
        <ele>220.5</ele>
        <time>2017-04-09T08:28:49Z</time>
      </trkpt>
      <trkpt lat="43.71566" lon="3.4235">
        <ele>220.6</ele>
        <time>2017-04-09T08:28:52Z</time>
      </trkpt>
      <trkpt lat="43.71558" lon="3.4235">
        <ele>220.5</ele>
        <time>2017-04-09T08:28:56Z</time>
      </trkpt>
      <trkpt lat="43.7155" lon="3.42351">
        <ele>220.8</ele>
        <time>2017-04-09T08:29:02Z</time>
      </trkpt>
      <trkpt lat="43.71549" lon="3.4235">
        <ele>221.1</ele>
        <time>2017-04-09T08:29:09Z</time>
      </trkpt>
      <trkpt lat="43.71528" lon="3.42362">
        <ele>220.7</ele>
        <time>2017-04-09T08:31:05Z</time>
      </trkpt>
      <trkpt lat="43.71519" lon="3.42365">
        <ele>221.4</ele>
        <time>2017-04-09T08:31:08Z</time>
      </trkpt>
      <trkpt lat="43.71511" lon="3.4237">
        <ele>221.5</ele>
        <time>2017-04-09T08:31:11Z</time>
      </trkpt>
      <trkpt lat="43.71511" lon="3.4238">
        <ele>221.7</ele>
        <time>2017-04-09T08:31:13Z</time>
      </trkpt>
      <trkpt lat="43.71514" lon="3.42393">
        <ele>222.7</ele>
        <time>2017-04-09T08:31:15Z</time>
      </trkpt>
      <trkpt lat="43.71514" lon="3.42407">
        <ele>222.8</ele>
        <time>2017-04-09T08:31:17Z</time>
      </trkpt>
      <trkpt lat="43.71514" lon="3.4242">
        <ele>222.8</ele>
        <time>2017-04-09T08:31:19Z</time>
      </trkpt>
      <trkpt lat="43.71508" lon="3.42427">
        <ele>222.3</ele>
        <time>2017-04-09T08:31:22Z</time>
      </trkpt>
      <trkpt lat="43.71498" lon="3.42427">
        <ele>221.7</ele>
        <time>2017-04-09T08:31:25Z</time>
      </trkpt>
      <trkpt lat="43.7149" lon="3.42427">
        <ele>221.3</ele>
        <time>2017-04-09T08:31:28Z</time>
      </trkpt>
      <trkpt lat="43.71482" lon="3.42425">
        <ele>221.1</ele>
        <time>2017-04-09T08:31:31Z</time>
      </trkpt>
      <trkpt lat="43.71474" lon="3.42425">
        <ele>220.8</ele>
        <time>2017-04-09T08:31:36Z</time>
      </trkpt>
      <trkpt lat="43.71473" lon="3.42438">
        <ele>220.8</ele>
        <time>2017-04-09T08:31:40Z</time>
      </trkpt>
      <trkpt lat="43.71474" lon="3.4245">
        <ele>220</ele>
        <time>2017-04-09T08:31:42Z</time>
      </trkpt>
      <trkpt lat="43.71474" lon="3.42464">
        <ele>218.8</ele>
        <time>2017-04-09T08:31:44Z</time>
      </trkpt>
      <trkpt lat="43.71475" lon="3.42479">
        <ele>218.2</ele>
        <time>2017-04-09T08:31:46Z</time>
      </trkpt>
      <trkpt lat="43.71476" lon="3.42496">
        <ele>216.8</ele>
        <time>2017-04-09T08:31:48Z</time>
      </trkpt>
      <trkpt lat="43.71477" lon="3.42513">
        <ele>215.8</ele>
        <time>2017-04-09T08:31:50Z</time>
      </trkpt>
      <trkpt lat="43.71476" lon="3.4253">
        <ele>214.2</ele>
        <time>2017-04-09T08:31:52Z</time>
      </trkpt>
      <trkpt lat="43.71476" lon="3.4254">
        <ele>213.5</ele>
        <time>2017-04-09T08:31:53Z</time>
      </trkpt>
      <trkpt lat="43.71474" lon="3.42557">
        <ele>211.9</ele>
        <time>2017-04-09T08:31:55Z</time>
      </trkpt>
      <trkpt lat="43.71473" lon="3.4257">
        <ele>211.4</ele>
        <time>2017-04-09T08:31:57Z</time>
      </trkpt>
      <trkpt lat="43.71471" lon="3.42583">
        <ele>213.5</ele>
        <time>2017-04-09T08:32:00Z</time>
      </trkpt>
      <trkpt lat="43.71465" lon="3.42591">
        <ele>213.9</ele>
        <time>2017-04-09T08:32:02Z</time>
      </trkpt>
      <trkpt lat="43.71456" lon="3.42598">
        <ele>214</ele>
        <time>2017-04-09T08:32:04Z</time>
      </trkpt>
      <trkpt lat="43.71449" lon="3.42603">
        <ele>214.5</ele>
        <time>2017-04-09T08:32:06Z</time>
      </trkpt>
      <trkpt lat="43.71442" lon="3.4261">
        <ele>214.6</ele>
        <time>2017-04-09T08:32:08Z</time>
      </trkpt>
      <trkpt lat="43.71436" lon="3.42617">
        <ele>214.6</ele>
        <time>2017-04-09T08:32:10Z</time>
      </trkpt>
      <trkpt lat="43.71431" lon="3.42626">
        <ele>214.6</ele>
        <time>2017-04-09T08:32:12Z</time>
      </trkpt>
      <trkpt lat="43.71426" lon="3.42634">
        <ele>214.6</ele>
        <time>2017-04-09T08:32:14Z</time>
      </trkpt>
      <trkpt lat="43.71422" lon="3.42643">
        <ele>214.5</ele>
        <time>2017-04-09T08:32:16Z</time>
      </trkpt>
      <trkpt lat="43.71417" lon="3.42655">
        <ele>214.4</ele>
        <time>2017-04-09T08:32:19Z</time>
      </trkpt>
      <trkpt lat="43.71412" lon="3.4267">
        <ele>213.8</ele>
        <time>2017-04-09T08:32:22Z</time>
      </trkpt>
      <trkpt lat="43.71408" lon="3.42682">
        <ele>213.3</ele>
        <time>2017-04-09T08:32:24Z</time>
      </trkpt>
      <trkpt lat="43.71406" lon="3.42695">
        <ele>213.1</ele>
        <time>2017-04-09T08:32:26Z</time>
      </trkpt>
      <trkpt lat="43.71405" lon="3.42705">
        <ele>214.8</ele>
        <time>2017-04-09T08:32:28Z</time>
      </trkpt>
      <trkpt lat="43.71404" lon="3.42718">
        <ele>215.8</ele>
        <time>2017-04-09T08:32:30Z</time>
      </trkpt>
      <trkpt lat="43.71402" lon="3.42731">
        <ele>216</ele>
        <time>2017-04-09T08:32:32Z</time>
      </trkpt>
      <trkpt lat="43.714" lon="3.42744">
        <ele>215.6</ele>
        <time>2017-04-09T08:32:34Z</time>
      </trkpt>
      <trkpt lat="43.71397" lon="3.42757">
        <ele>214.8</ele>
        <time>2017-04-09T08:32:36Z</time>
      </trkpt>
      <trkpt lat="43.71395" lon="3.42768">
        <ele>214.1</ele>
        <time>2017-04-09T08:32:38Z</time>
      </trkpt>
      <trkpt lat="43.71392" lon="3.42778">
        <ele>214.1</ele>
        <time>2017-04-09T08:32:40Z</time>
      </trkpt>
      <trkpt lat="43.71391" lon="3.42788">
        <ele>214.2</ele>
        <time>2017-04-09T08:32:42Z</time>
      </trkpt>
      <trkpt lat="43.71388" lon="3.42802">
        <ele>214.2</ele>
        <time>2017-04-09T08:32:45Z</time>
      </trkpt>
      <trkpt lat="43.71385" lon="3.42815">
        <ele>214.2</ele>
        <time>2017-04-09T08:32:48Z</time>
      </trkpt>
      <trkpt lat="43.71383" lon="3.42826">
        <ele>214.3</ele>
        <time>2017-04-09T08:32:51Z</time>
      </trkpt>
      <trkpt lat="43.7138" lon="3.4284">
        <ele>214.6</ele>
        <time>2017-04-09T08:32:54Z</time>
      </trkpt>
      <trkpt lat="43.71381" lon="3.42854">
        <ele>215</ele>
        <time>2017-04-09T08:32:57Z</time>
      </trkpt>
      <trkpt lat="43.71383" lon="3.42869">
        <ele>215.3</ele>
        <time>2017-04-09T08:33:00Z</time>
      </trkpt>
      <trkpt lat="43.71385" lon="3.42883">
        <ele>215.6</ele>
        <time>2017-04-09T08:33:03Z</time>
      </trkpt>
      <trkpt lat="43.71387" lon="3.42893">
        <ele>216</ele>
        <time>2017-04-09T08:33:06Z</time>
      </trkpt>
      <trkpt lat="43.71391" lon="3.42906">
        <ele>216.1</ele>
        <time>2017-04-09T08:33:09Z</time>
      </trkpt>
      <trkpt lat="43.71395" lon="3.42917">
        <ele>216.2</ele>
        <time>2017-04-09T08:33:12Z</time>
      </trkpt>
      <trkpt lat="43.714" lon="3.42927">
        <ele>216.5</ele>
        <time>2017-04-09T08:33:15Z</time>
      </trkpt>
      <trkpt lat="43.71404" lon="3.42938">
        <ele>216.7</ele>
        <time>2017-04-09T08:33:18Z</time>
      </trkpt>
      <trkpt lat="43.71408" lon="3.4295">
        <ele>216.9</ele>
        <time>2017-04-09T08:33:21Z</time>
      </trkpt>
      <trkpt lat="43.71413" lon="3.42962">
        <ele>217.2</ele>
        <time>2017-04-09T08:33:24Z</time>
      </trkpt>
      <trkpt lat="43.71415" lon="3.42972">
        <ele>217.4</ele>
        <time>2017-04-09T08:33:26Z</time>
      </trkpt>
      <trkpt lat="43.71418" lon="3.42983">
        <ele>217.6</ele>
        <time>2017-04-09T08:33:29Z</time>
      </trkpt>
      <trkpt lat="43.7142" lon="3.42995">
        <ele>218</ele>
        <time>2017-04-09T08:33:32Z</time>
      </trkpt>
      <trkpt lat="43.71422" lon="3.43008">
        <ele>218.3</ele>
        <time>2017-04-09T08:33:35Z</time>
      </trkpt>
      <trkpt lat="43.71423" lon="3.43021">
        <ele>218.7</ele>
        <time>2017-04-09T08:33:38Z</time>
      </trkpt>
      <trkpt lat="43.71424" lon="3.43034">
        <ele>219.1</ele>
        <time>2017-04-09T08:33:41Z</time>
      </trkpt>
      <trkpt lat="43.71423" lon="3.43047">
        <ele>219.5</ele>
        <time>2017-04-09T08:33:44Z</time>
      </trkpt>
      <trkpt lat="43.71422" lon="3.43061">
        <ele>219.9</ele>
        <time>2017-04-09T08:33:47Z</time>
      </trkpt>
      <trkpt lat="43.71419" lon="3.43073">
        <ele>220.2</ele>
        <time>2017-04-09T08:33:50Z</time>
      </trkpt>
      <trkpt lat="43.71416" lon="3.43087">
        <ele>220.6</ele>
        <time>2017-04-09T08:33:53Z</time>
      </trkpt>
      <trkpt lat="43.71413" lon="3.431">
        <ele>221</ele>
        <time>2017-04-09T08:33:56Z</time>
      </trkpt>
      <trkpt lat="43.71411" lon="3.43114">
        <ele>221.3</ele>
        <time>2017-04-09T08:33:59Z</time>
      </trkpt>
      <trkpt lat="43.71408" lon="3.43127">
        <ele>221.8</ele>
        <time>2017-04-09T08:34:02Z</time>
      </trkpt>
      <trkpt lat="43.71406" lon="3.4314">
        <ele>222.3</ele>
        <time>2017-04-09T08:34:05Z</time>
      </trkpt>
      <trkpt lat="43.71404" lon="3.4315">
        <ele>222.6</ele>
        <time>2017-04-09T08:34:07Z</time>
      </trkpt>
      <trkpt lat="43.71401" lon="3.43165">
        <ele>223.1</ele>
        <time>2017-04-09T08:34:10Z</time>
      </trkpt>
      <trkpt lat="43.71399" lon="3.43175">
        <ele>223.4</ele>
        <time>2017-04-09T08:34:12Z</time>
      </trkpt>
      <trkpt lat="43.71397" lon="3.43189">
        <ele>223.7</ele>
        <time>2017-04-09T08:34:15Z</time>
      </trkpt>
      <trkpt lat="43.71395" lon="3.43202">
        <ele>224.3</ele>
        <time>2017-04-09T08:34:18Z</time>
      </trkpt>
      <trkpt lat="43.71394" lon="3.43216">
        <ele>224.8</ele>
        <time>2017-04-09T08:34:21Z</time>
      </trkpt>
      <trkpt lat="43.71395" lon="3.43229">
        <ele>225.4</ele>
        <time>2017-04-09T08:34:24Z</time>
      </trkpt>
      <trkpt lat="43.71395" lon="3.43241">
        <ele>225.8</ele>
        <time>2017-04-09T08:34:26Z</time>
      </trkpt>
      <trkpt lat="43.71396" lon="3.43252">
        <ele>226</ele>
        <time>2017-04-09T08:34:28Z</time>
      </trkpt>
      <trkpt lat="43.71396" lon="3.43266">
        <ele>226.4</ele>
        <time>2017-04-09T08:34:31Z</time>
      </trkpt>
      <trkpt lat="43.71395" lon="3.4328">
        <ele>226.8</ele>
        <time>2017-04-09T08:34:34Z</time>
      </trkpt>
      <trkpt lat="43.71392" lon="3.43293">
        <ele>227.2</ele>
        <time>2017-04-09T08:34:37Z</time>
      </trkpt>
      <trkpt lat="43.71389" lon="3.43305">
        <ele>227.7</ele>
        <time>2017-04-09T08:34:40Z</time>
      </trkpt>
      <trkpt lat="43.71385" lon="3.43315">
        <ele>228.3</ele>
        <time>2017-04-09T08:34:43Z</time>
      </trkpt>
      <trkpt lat="43.71381" lon="3.43325">
        <ele>228.8</ele>
        <time>2017-04-09T08:34:46Z</time>
      </trkpt>
      <trkpt lat="43.71376" lon="3.43337">
        <ele>229.2</ele>
        <time>2017-04-09T08:34:49Z</time>
      </trkpt>
      <trkpt lat="43.71372" lon="3.43349">
        <ele>229.6</ele>
        <time>2017-04-09T08:34:52Z</time>
      </trkpt>
      <trkpt lat="43.71368" lon="3.43358">
        <ele>229.9</ele>
        <time>2017-04-09T08:34:54Z</time>
      </trkpt>
      <trkpt lat="43.71363" lon="3.43369">
        <ele>230.3</ele>
        <time>2017-04-09T08:34:57Z</time>
      </trkpt>
      <trkpt lat="43.7136" lon="3.43377">
        <ele>230.6</ele>
        <time>2017-04-09T08:34:59Z</time>
      </trkpt>
      <trkpt lat="43.71356" lon="3.43386">
        <ele>230.9</ele>
        <time>2017-04-09T08:35:01Z</time>
      </trkpt>
      <trkpt lat="43.71351" lon="3.43399">
        <ele>231.3</ele>
        <time>2017-04-09T08:35:04Z</time>
      </trkpt>
      <trkpt lat="43.71346" lon="3.43411">
        <ele>231.7</ele>
        <time>2017-04-09T08:35:07Z</time>
      </trkpt>
      <trkpt lat="43.71342" lon="3.43422">
        <ele>232</ele>
        <time>2017-04-09T08:35:10Z</time>
      </trkpt>
      <trkpt lat="43.71338" lon="3.43434">
        <ele>232.4</ele>
        <time>2017-04-09T08:35:13Z</time>
      </trkpt>
      <trkpt lat="43.71333" lon="3.43446">
        <ele>232.9</ele>
        <time>2017-04-09T08:35:16Z</time>
      </trkpt>
      <trkpt lat="43.71329" lon="3.43456">
        <ele>233.5</ele>
        <time>2017-04-09T08:35:19Z</time>
      </trkpt>
      <trkpt lat="43.71325" lon="3.43468">
        <ele>234.1</ele>
        <time>2017-04-09T08:35:22Z</time>
      </trkpt>
      <trkpt lat="43.71321" lon="3.43478">
        <ele>234.4</ele>
        <time>2017-04-09T08:35:24Z</time>
      </trkpt>
      <trkpt lat="43.71316" lon="3.43489">
        <ele>234.9</ele>
        <time>2017-04-09T08:35:27Z</time>
      </trkpt>
      <trkpt lat="43.71312" lon="3.43498">
        <ele>235.2</ele>
        <time>2017-04-09T08:35:29Z</time>
      </trkpt>
      <trkpt lat="43.71311" lon="3.4351">
        <ele>236</ele>
        <time>2017-04-09T08:35:33Z</time>
      </trkpt>
      <trkpt lat="43.71313" lon="3.43524">
        <ele>236.5</ele>
        <time>2017-04-09T08:35:36Z</time>
      </trkpt>
      <trkpt lat="43.71315" lon="3.43536">
        <ele>236.9</ele>
        <time>2017-04-09T08:35:39Z</time>
      </trkpt>
      <trkpt lat="43.71317" lon="3.43547">
        <ele>237.3</ele>
        <time>2017-04-09T08:35:42Z</time>
      </trkpt>
      <trkpt lat="43.71318" lon="3.4356">
        <ele>237.8</ele>
        <time>2017-04-09T08:35:45Z</time>
      </trkpt>
      <trkpt lat="43.71318" lon="3.43571">
        <ele>238.3</ele>
        <time>2017-04-09T08:35:48Z</time>
      </trkpt>
      <trkpt lat="43.71321" lon="3.43584">
        <ele>238.8</ele>
        <time>2017-04-09T08:35:51Z</time>
      </trkpt>
      <trkpt lat="43.71322" lon="3.43594">
        <ele>240.3</ele>
        <time>2017-04-09T08:35:53Z</time>
      </trkpt>
      <trkpt lat="43.71324" lon="3.43607">
        <ele>241.5</ele>
        <time>2017-04-09T08:35:55Z</time>
      </trkpt>
      <trkpt lat="43.71325" lon="3.43621">
        <ele>242.9</ele>
        <time>2017-04-09T08:35:57Z</time>
      </trkpt>
      <trkpt lat="43.71328" lon="3.43632">
        <ele>243.8</ele>
        <time>2017-04-09T08:35:59Z</time>
      </trkpt>
      <trkpt lat="43.71332" lon="3.43645">
        <ele>245</ele>
        <time>2017-04-09T08:36:02Z</time>
      </trkpt>
      <trkpt lat="43.71335" lon="3.43655">
        <ele>246.5</ele>
        <time>2017-04-09T08:36:04Z</time>
      </trkpt>
      <trkpt lat="43.71336" lon="3.43665">
        <ele>246.6</ele>
        <time>2017-04-09T08:36:06Z</time>
      </trkpt>
      <trkpt lat="43.71338" lon="3.43678">
        <ele>246.9</ele>
        <time>2017-04-09T08:36:09Z</time>
      </trkpt>
      <trkpt lat="43.71339" lon="3.4369">
        <ele>247.2</ele>
        <time>2017-04-09T08:36:13Z</time>
      </trkpt>
      <trkpt lat="43.71344" lon="3.437">
        <ele>247.4</ele>
        <time>2017-04-09T08:36:17Z</time>
      </trkpt>
      <trkpt lat="43.71349" lon="3.43706">
        <ele>247.5</ele>
        <time>2017-04-09T08:36:20Z</time>
      </trkpt>
      <trkpt lat="43.71356" lon="3.43714">
        <ele>247.7</ele>
        <time>2017-04-09T08:36:24Z</time>
      </trkpt>
      <trkpt lat="43.71363" lon="3.43722">
        <ele>247.9</ele>
        <time>2017-04-09T08:36:28Z</time>
      </trkpt>
      <trkpt lat="43.71368" lon="3.43729">
        <ele>248.1</ele>
        <time>2017-04-09T08:36:31Z</time>
      </trkpt>
      <trkpt lat="43.71375" lon="3.43735">
        <ele>248.4</ele>
        <time>2017-04-09T08:36:34Z</time>
      </trkpt>
      <trkpt lat="43.71383" lon="3.43741">
        <ele>248.6</ele>
        <time>2017-04-09T08:36:38Z</time>
      </trkpt>
      <trkpt lat="43.7139" lon="3.43747">
        <ele>249</ele>
        <time>2017-04-09T08:36:42Z</time>
      </trkpt>
      <trkpt lat="43.71399" lon="3.43752">
        <ele>249.5</ele>
        <time>2017-04-09T08:36:46Z</time>
      </trkpt>
      <trkpt lat="43.71406" lon="3.43756">
        <ele>249.8</ele>
        <time>2017-04-09T08:36:49Z</time>
      </trkpt>
      <trkpt lat="43.71413" lon="3.43761">
        <ele>250.1</ele>
        <time>2017-04-09T08:36:52Z</time>
      </trkpt>
      <trkpt lat="43.7142" lon="3.43767">
        <ele>250.6</ele>
        <time>2017-04-09T08:36:56Z</time>
      </trkpt>
      <trkpt lat="43.71428" lon="3.43773">
        <ele>251.3</ele>
        <time>2017-04-09T08:37:00Z</time>
      </trkpt>
      <trkpt lat="43.71435" lon="3.4378">
        <ele>252</ele>
        <time>2017-04-09T08:37:04Z</time>
      </trkpt>
      <trkpt lat="43.71442" lon="3.43785">
        <ele>252.4</ele>
        <time>2017-04-09T08:37:07Z</time>
      </trkpt>
      <trkpt lat="43.7145" lon="3.4379">
        <ele>252.9</ele>
        <time>2017-04-09T08:37:11Z</time>
      </trkpt>
      <trkpt lat="43.71458" lon="3.43796">
        <ele>253.6</ele>
        <time>2017-04-09T08:37:15Z</time>
      </trkpt>
      <trkpt lat="43.71467" lon="3.43801">
        <ele>254.3</ele>
        <time>2017-04-09T08:37:19Z</time>
      </trkpt>
      <trkpt lat="43.71475" lon="3.43804">
        <ele>255</ele>
        <time>2017-04-09T08:37:23Z</time>
      </trkpt>
      <trkpt lat="43.71483" lon="3.43809">
        <ele>255.7</ele>
        <time>2017-04-09T08:37:27Z</time>
      </trkpt>
      <trkpt lat="43.71491" lon="3.43814">
        <ele>256.5</ele>
        <time>2017-04-09T08:37:31Z</time>
      </trkpt>
      <trkpt lat="43.71499" lon="3.43818">
        <ele>257.2</ele>
        <time>2017-04-09T08:37:35Z</time>
      </trkpt>
      <trkpt lat="43.71506" lon="3.43821">
        <ele>257.7</ele>
        <time>2017-04-09T08:37:38Z</time>
      </trkpt>
      <trkpt lat="43.71515" lon="3.43824">
        <ele>258.5</ele>
        <time>2017-04-09T08:37:42Z</time>
      </trkpt>
      <trkpt lat="43.71522" lon="3.43829">
        <ele>259.1</ele>
        <time>2017-04-09T08:37:46Z</time>
      </trkpt>
      <trkpt lat="43.71528" lon="3.43838">
        <ele>259.9</ele>
        <time>2017-04-09T08:37:50Z</time>
      </trkpt>
      <trkpt lat="43.71534" lon="3.43847">
        <ele>260.6</ele>
        <time>2017-04-09T08:37:54Z</time>
      </trkpt>
      <trkpt lat="43.71539" lon="3.43855">
        <ele>261</ele>
        <time>2017-04-09T08:37:57Z</time>
      </trkpt>
      <trkpt lat="43.71546" lon="3.43864">
        <ele>261.8</ele>
        <time>2017-04-09T08:38:01Z</time>
      </trkpt>
      <trkpt lat="43.71551" lon="3.43872">
        <ele>262.3</ele>
        <time>2017-04-09T08:38:04Z</time>
      </trkpt>
      <trkpt lat="43.71556" lon="3.4388">
        <ele>262.8</ele>
        <time>2017-04-09T08:38:07Z</time>
      </trkpt>
      <trkpt lat="43.71562" lon="3.43886">
        <ele>263.2</ele>
        <time>2017-04-09T08:38:10Z</time>
      </trkpt>
      <trkpt lat="43.71568" lon="3.43892">
        <ele>263.8</ele>
        <time>2017-04-09T08:38:13Z</time>
      </trkpt>
      <trkpt lat="43.71575" lon="3.43896">
        <ele>264.4</ele>
        <time>2017-04-09T08:38:16Z</time>
      </trkpt>
      <trkpt lat="43.71582" lon="3.439">
        <ele>265</ele>
        <time>2017-04-09T08:38:19Z</time>
      </trkpt>
      <trkpt lat="43.71589" lon="3.43904">
        <ele>265.5</ele>
        <time>2017-04-09T08:38:22Z</time>
      </trkpt>
      <trkpt lat="43.71597" lon="3.4391">
        <ele>266.3</ele>
        <time>2017-04-09T08:38:26Z</time>
      </trkpt>
      <trkpt lat="43.71605" lon="3.43912">
        <ele>267</ele>
        <time>2017-04-09T08:38:30Z</time>
      </trkpt>
      <trkpt lat="43.71614" lon="3.43916">
        <ele>267.7</ele>
        <time>2017-04-09T08:38:34Z</time>
      </trkpt>
      <trkpt lat="43.7162" lon="3.4392">
        <ele>268.6</ele>
        <time>2017-04-09T08:38:38Z</time>
      </trkpt>
      <trkpt lat="43.71628" lon="3.43927">
        <ele>269.6</ele>
        <time>2017-04-09T08:38:43Z</time>
      </trkpt>
      <trkpt lat="43.71636" lon="3.43932">
        <ele>270.5</ele>
        <time>2017-04-09T08:38:47Z</time>
      </trkpt>
      <trkpt lat="43.71643" lon="3.43938">
        <ele>271.3</ele>
        <time>2017-04-09T08:38:51Z</time>
      </trkpt>
      <trkpt lat="43.7165" lon="3.43942">
        <ele>272.4</ele>
        <time>2017-04-09T08:38:55Z</time>
      </trkpt>
      <trkpt lat="43.71658" lon="3.43949">
        <ele>273.4</ele>
        <time>2017-04-09T08:38:59Z</time>
      </trkpt>
      <trkpt lat="43.71664" lon="3.43956">
        <ele>274.4</ele>
        <time>2017-04-09T08:39:03Z</time>
      </trkpt>
      <trkpt lat="43.7167" lon="3.43963">
        <ele>275.1</ele>
        <time>2017-04-09T08:39:07Z</time>
      </trkpt>
      <trkpt lat="43.71678" lon="3.4397">
        <ele>275.7</ele>
        <time>2017-04-09T08:39:11Z</time>
      </trkpt>
      <trkpt lat="43.71685" lon="3.43976">
        <ele>276.4</ele>
        <time>2017-04-09T08:39:15Z</time>
      </trkpt>
      <trkpt lat="43.71693" lon="3.43982">
        <ele>277.2</ele>
        <time>2017-04-09T08:39:20Z</time>
      </trkpt>
      <trkpt lat="43.717" lon="3.43987">
        <ele>277.9</ele>
        <time>2017-04-09T08:39:24Z</time>
      </trkpt>
      <trkpt lat="43.71707" lon="3.43991">
        <ele>278.5</ele>
        <time>2017-04-09T08:39:28Z</time>
      </trkpt>
      <trkpt lat="43.71715" lon="3.43999">
        <ele>279.1</ele>
        <time>2017-04-09T08:39:32Z</time>
      </trkpt>
      <trkpt lat="43.71722" lon="3.44006">
        <ele>280</ele>
        <time>2017-04-09T08:39:37Z</time>
      </trkpt>
      <trkpt lat="43.71729" lon="3.44012">
        <ele>280.9</ele>
        <time>2017-04-09T08:39:42Z</time>
      </trkpt>
      <trkpt lat="43.71735" lon="3.44021">
        <ele>281.8</ele>
        <time>2017-04-09T08:39:46Z</time>
      </trkpt>
      <trkpt lat="43.7174" lon="3.44028">
        <ele>282.6</ele>
        <time>2017-04-09T08:39:50Z</time>
      </trkpt>
      <trkpt lat="43.71746" lon="3.44036">
        <ele>283.6</ele>
        <time>2017-04-09T08:39:55Z</time>
      </trkpt>
      <trkpt lat="43.71752" lon="3.44042">
        <ele>284.5</ele>
        <time>2017-04-09T08:40:00Z</time>
      </trkpt>
      <trkpt lat="43.71759" lon="3.44049">
        <ele>285.3</ele>
        <time>2017-04-09T08:40:05Z</time>
      </trkpt>
      <trkpt lat="43.71768" lon="3.44054">
        <ele>285.9</ele>
        <time>2017-04-09T08:40:09Z</time>
      </trkpt>
      <trkpt lat="43.71775" lon="3.44056">
        <ele>286.6</ele>
        <time>2017-04-09T08:40:13Z</time>
      </trkpt>
      <trkpt lat="43.71783" lon="3.44057">
        <ele>287.6</ele>
        <time>2017-04-09T08:40:17Z</time>
      </trkpt>
      <trkpt lat="43.7179" lon="3.44062">
        <ele>288.5</ele>
        <time>2017-04-09T08:40:21Z</time>
      </trkpt>
      <trkpt lat="43.7179" lon="3.44072">
        <ele>289.6</ele>
        <time>2017-04-09T08:40:26Z</time>
      </trkpt>
      <trkpt lat="43.71784" lon="3.4408">
        <ele>290.3</ele>
        <time>2017-04-09T08:40:30Z</time>
      </trkpt>
      <trkpt lat="43.71775" lon="3.44081">
        <ele>291.1</ele>
        <time>2017-04-09T08:40:34Z</time>
      </trkpt>
      <trkpt lat="43.71767" lon="3.44083">
        <ele>291.7</ele>
        <time>2017-04-09T08:40:38Z</time>
      </trkpt>
      <trkpt lat="43.71759" lon="3.44085">
        <ele>292.5</ele>
        <time>2017-04-09T08:40:42Z</time>
      </trkpt>
      <trkpt lat="43.71751" lon="3.44088">
        <ele>293.4</ele>
        <time>2017-04-09T08:40:46Z</time>
      </trkpt>
      <trkpt lat="43.71744" lon="3.44093">
        <ele>294.3</ele>
        <time>2017-04-09T08:40:50Z</time>
      </trkpt>
      <trkpt lat="43.71736" lon="3.44098">
        <ele>295</ele>
        <time>2017-04-09T08:40:54Z</time>
      </trkpt>
      <trkpt lat="43.71727" lon="3.44102">
        <ele>295.9</ele>
        <time>2017-04-09T08:40:58Z</time>
      </trkpt>
      <trkpt lat="43.71719" lon="3.44106">
        <ele>296.9</ele>
        <time>2017-04-09T08:41:03Z</time>
      </trkpt>
      <trkpt lat="43.71711" lon="3.44108">
        <ele>297.6</ele>
        <time>2017-04-09T08:41:07Z</time>
      </trkpt>
      <trkpt lat="43.71703" lon="3.44111">
        <ele>298.1</ele>
        <time>2017-04-09T08:41:11Z</time>
      </trkpt>
      <trkpt lat="43.71695" lon="3.44114">
        <ele>298.7</ele>
        <time>2017-04-09T08:41:15Z</time>
      </trkpt>
      <trkpt lat="43.71687" lon="3.4412">
        <ele>299.4</ele>
        <time>2017-04-09T08:41:19Z</time>
      </trkpt>
      <trkpt lat="43.71679" lon="3.44127">
        <ele>300.1</ele>
        <time>2017-04-09T08:41:23Z</time>
      </trkpt>
      <trkpt lat="43.7167" lon="3.44132">
        <ele>300.7</ele>
        <time>2017-04-09T08:41:27Z</time>
      </trkpt>
      <trkpt lat="43.71662" lon="3.44135">
        <ele>301.1</ele>
        <time>2017-04-09T08:41:31Z</time>
      </trkpt>
      <trkpt lat="43.71653" lon="3.44142">
        <ele>301.5</ele>
        <time>2017-04-09T08:41:35Z</time>
      </trkpt>
      <trkpt lat="43.71656" lon="3.44151">
        <ele>302.3</ele>
        <time>2017-04-09T08:41:41Z</time>
      </trkpt>
      <trkpt lat="43.71665" lon="3.44151">
        <ele>303</ele>
        <time>2017-04-09T08:41:44Z</time>
      </trkpt>
      <trkpt lat="43.71673" lon="3.44149">
        <ele>303.7</ele>
        <time>2017-04-09T08:41:47Z</time>
      </trkpt>
      <trkpt lat="43.7168" lon="3.44148">
        <ele>304.4</ele>
        <time>2017-04-09T08:41:50Z</time>
      </trkpt>
      <trkpt lat="43.71688" lon="3.44146">
        <ele>305.1</ele>
        <time>2017-04-09T08:41:53Z</time>
      </trkpt>
      <trkpt lat="43.71697" lon="3.44145">
        <ele>306.2</ele>
        <time>2017-04-09T08:41:57Z</time>
      </trkpt>
      <trkpt lat="43.71706" lon="3.44144">
        <ele>307.3</ele>
        <time>2017-04-09T08:42:01Z</time>
      </trkpt>
      <trkpt lat="43.71716" lon="3.44145">
        <ele>308.3</ele>
        <time>2017-04-09T08:42:05Z</time>
      </trkpt>
      <trkpt lat="43.71725" lon="3.44146">
        <ele>309.2</ele>
        <time>2017-04-09T08:42:09Z</time>
      </trkpt>
      <trkpt lat="43.71733" lon="3.44146">
        <ele>310</ele>
        <time>2017-04-09T08:42:13Z</time>
      </trkpt>
      <trkpt lat="43.71741" lon="3.44147">
        <ele>310.5</ele>
        <time>2017-04-09T08:42:16Z</time>
      </trkpt>
      <trkpt lat="43.7175" lon="3.44148">
        <ele>311.2</ele>
        <time>2017-04-09T08:42:20Z</time>
      </trkpt>
      <trkpt lat="43.71757" lon="3.44149">
        <ele>311.8</ele>
        <time>2017-04-09T08:42:23Z</time>
      </trkpt>
      <trkpt lat="43.71765" lon="3.44151">
        <ele>312.4</ele>
        <time>2017-04-09T08:42:26Z</time>
      </trkpt>
      <trkpt lat="43.71773" lon="3.44154">
        <ele>313</ele>
        <time>2017-04-09T08:42:29Z</time>
      </trkpt>
      <trkpt lat="43.71779" lon="3.44159">
        <ele>313.5</ele>
        <time>2017-04-09T08:42:32Z</time>
      </trkpt>
      <trkpt lat="43.71787" lon="3.44169">
        <ele>314</ele>
        <time>2017-04-09T08:42:36Z</time>
      </trkpt>
      <trkpt lat="43.71791" lon="3.44178">
        <ele>314.3</ele>
        <time>2017-04-09T08:42:39Z</time>
      </trkpt>
      <trkpt lat="43.71795" lon="3.44188">
        <ele>314.6</ele>
        <time>2017-04-09T08:42:42Z</time>
      </trkpt>
      <trkpt lat="43.71797" lon="3.44198">
        <ele>315</ele>
        <time>2017-04-09T08:42:45Z</time>
      </trkpt>
      <trkpt lat="43.71799" lon="3.44208">
        <ele>315.5</ele>
        <time>2017-04-09T08:42:48Z</time>
      </trkpt>
      <trkpt lat="43.71807" lon="3.44212">
        <ele>316.1</ele>
        <time>2017-04-09T08:42:51Z</time>
      </trkpt>
      <trkpt lat="43.71815" lon="3.44204">
        <ele>317.6</ele>
        <time>2017-04-09T08:42:56Z</time>
      </trkpt>
      <trkpt lat="43.7182" lon="3.44196">
        <ele>318.7</ele>
        <time>2017-04-09T08:42:59Z</time>
      </trkpt>
      <trkpt lat="43.71825" lon="3.44185">
        <ele>320.1</ele>
        <time>2017-04-09T08:43:03Z</time>
      </trkpt>
      <trkpt lat="43.71831" lon="3.44177">
        <ele>320.8</ele>
        <time>2017-04-09T08:43:06Z</time>
      </trkpt>
      <trkpt lat="43.71837" lon="3.44171">
        <ele>321.5</ele>
        <time>2017-04-09T08:43:09Z</time>
      </trkpt>
      <trkpt lat="43.71844" lon="3.44165">
        <ele>322.3</ele>
        <time>2017-04-09T08:43:12Z</time>
      </trkpt>
      <trkpt lat="43.71853" lon="3.44161">
        <ele>323.5</ele>
        <time>2017-04-09T08:43:16Z</time>
      </trkpt>
      <trkpt lat="43.7186" lon="3.44158">
        <ele>324.4</ele>
        <time>2017-04-09T08:43:19Z</time>
      </trkpt>
      <trkpt lat="43.71868" lon="3.44156">
        <ele>325.2</ele>
        <time>2017-04-09T08:43:22Z</time>
      </trkpt>
      <trkpt lat="43.71875" lon="3.44154">
        <ele>326.1</ele>
        <time>2017-04-09T08:43:25Z</time>
      </trkpt>
      <trkpt lat="43.71884" lon="3.44151">
        <ele>327.1</ele>
        <time>2017-04-09T08:43:29Z</time>
      </trkpt>
      <trkpt lat="43.71892" lon="3.44148">
        <ele>327.7</ele>
        <time>2017-04-09T08:43:32Z</time>
      </trkpt>
      <trkpt lat="43.71901" lon="3.44147">
        <ele>328.4</ele>
        <time>2017-04-09T08:43:36Z</time>
      </trkpt>
      <trkpt lat="43.71904" lon="3.44153">
        <ele>329.1</ele>
        <time>2017-04-09T08:43:43Z</time>
      </trkpt>
      <trkpt lat="43.71895" lon="3.44157">
        <ele>329.4</ele>
        <time>2017-04-09T08:43:47Z</time>
      </trkpt>
      <trkpt lat="43.71887" lon="3.44162">
        <ele>329.8</ele>
        <time>2017-04-09T08:43:51Z</time>
      </trkpt>
      <trkpt lat="43.71879" lon="3.4417">
        <ele>330.3</ele>
        <time>2017-04-09T08:43:55Z</time>
      </trkpt>
      <trkpt lat="43.71872" lon="3.44178">
        <ele>330.9</ele>
        <time>2017-04-09T08:43:59Z</time>
      </trkpt>
      <trkpt lat="43.71866" lon="3.44185">
        <ele>331.2</ele>
        <time>2017-04-09T08:44:02Z</time>
      </trkpt>
      <trkpt lat="43.71859" lon="3.44194">
        <ele>331.8</ele>
        <time>2017-04-09T08:44:06Z</time>
      </trkpt>
      <trkpt lat="43.71854" lon="3.44203">
        <ele>332</ele>
        <time>2017-04-09T08:44:09Z</time>
      </trkpt>
      <trkpt lat="43.71849" lon="3.44214">
        <ele>332.1</ele>
        <time>2017-04-09T08:44:12Z</time>
      </trkpt>
      <trkpt lat="43.71845" lon="3.44223">
        <ele>332.2</ele>
        <time>2017-04-09T08:44:15Z</time>
      </trkpt>
      <trkpt lat="43.71839" lon="3.44233">
        <ele>332.5</ele>
        <time>2017-04-09T08:44:19Z</time>
      </trkpt>
      <trkpt lat="43.71835" lon="3.44241">
        <ele>332.8</ele>
        <time>2017-04-09T08:44:22Z</time>
      </trkpt>
      <trkpt lat="43.71829" lon="3.44252">
        <ele>333.3</ele>
        <time>2017-04-09T08:44:26Z</time>
      </trkpt>
      <trkpt lat="43.71824" lon="3.4426">
        <ele>333.7</ele>
        <time>2017-04-09T08:44:29Z</time>
      </trkpt>
      <trkpt lat="43.71818" lon="3.44268">
        <ele>334.1</ele>
        <time>2017-04-09T08:44:32Z</time>
      </trkpt>
      <trkpt lat="43.71811" lon="3.44271">
        <ele>334.6</ele>
        <time>2017-04-09T08:44:35Z</time>
      </trkpt>
      <trkpt lat="43.71804" lon="3.44272">
        <ele>335.1</ele>
        <time>2017-04-09T08:44:38Z</time>
      </trkpt>
      <trkpt lat="43.71796" lon="3.44273">
        <ele>335.5</ele>
        <time>2017-04-09T08:44:41Z</time>
      </trkpt>
      <trkpt lat="43.71786" lon="3.44272">
        <ele>336</ele>
        <time>2017-04-09T08:44:45Z</time>
      </trkpt>
      <trkpt lat="43.71779" lon="3.44271">
        <ele>336.5</ele>
        <time>2017-04-09T08:44:48Z</time>
      </trkpt>
      <trkpt lat="43.7177" lon="3.44269">
        <ele>337.1</ele>
        <time>2017-04-09T08:44:51Z</time>
      </trkpt>
      <trkpt lat="43.71763" lon="3.4427">
        <ele>337.7</ele>
        <time>2017-04-09T08:44:54Z</time>
      </trkpt>
      <trkpt lat="43.71755" lon="3.44274">
        <ele>338.2</ele>
        <time>2017-04-09T08:44:57Z</time>
      </trkpt>
      <trkpt lat="43.71749" lon="3.44282">
        <ele>338.5</ele>
        <time>2017-04-09T08:45:00Z</time>
      </trkpt>
      <trkpt lat="43.71743" lon="3.44294">
        <ele>339</ele>
        <time>2017-04-09T08:45:03Z</time>
      </trkpt>
      <trkpt lat="43.71739" lon="3.44305">
        <ele>339.5</ele>
        <time>2017-04-09T08:45:06Z</time>
      </trkpt>
      <trkpt lat="43.71733" lon="3.44316">
        <ele>339.9</ele>
        <time>2017-04-09T08:45:09Z</time>
      </trkpt>
      <trkpt lat="43.7173" lon="3.44325">
        <ele>340.3</ele>
        <time>2017-04-09T08:45:12Z</time>
      </trkpt>
      <trkpt lat="43.71726" lon="3.44334">
        <ele>340.7</ele>
        <time>2017-04-09T08:45:15Z</time>
      </trkpt>
      <trkpt lat="43.7172" lon="3.44343">
        <ele>341.1</ele>
        <time>2017-04-09T08:45:18Z</time>
      </trkpt>
      <trkpt lat="43.71717" lon="3.44355">
        <ele>341.5</ele>
        <time>2017-04-09T08:45:21Z</time>
      </trkpt>
      <trkpt lat="43.71714" lon="3.44365">
        <ele>341.9</ele>
        <time>2017-04-09T08:45:24Z</time>
      </trkpt>
      <trkpt lat="43.71712" lon="3.44375">
        <ele>342.4</ele>
        <time>2017-04-09T08:45:27Z</time>
      </trkpt>
      <trkpt lat="43.71709" lon="3.44385">
        <ele>343</ele>
        <time>2017-04-09T08:45:30Z</time>
      </trkpt>
      <trkpt lat="43.71703" lon="3.44395">
        <ele>343.9</ele>
        <time>2017-04-09T08:45:34Z</time>
      </trkpt>
      <trkpt lat="43.71697" lon="3.44404">
        <ele>344.5</ele>
        <time>2017-04-09T08:45:37Z</time>
      </trkpt>
      <trkpt lat="43.71692" lon="3.44411">
        <ele>345.1</ele>
        <time>2017-04-09T08:45:40Z</time>
      </trkpt>
      <trkpt lat="43.71692" lon="3.44422">
        <ele>346</ele>
        <time>2017-04-09T08:45:44Z</time>
      </trkpt>
      <trkpt lat="43.71702" lon="3.44421">
        <ele>347.3</ele>
        <time>2017-04-09T08:45:49Z</time>
      </trkpt>
      <trkpt lat="43.71709" lon="3.44414">
        <ele>348.7</ele>
        <time>2017-04-09T08:45:53Z</time>
      </trkpt>
      <trkpt lat="43.71715" lon="3.44408">
        <ele>349.6</ele>
        <time>2017-04-09T08:45:56Z</time>
      </trkpt>
      <trkpt lat="43.71721" lon="3.44402">
        <ele>350.5</ele>
        <time>2017-04-09T08:45:59Z</time>
      </trkpt>
      <trkpt lat="43.71728" lon="3.44395">
        <ele>351.8</ele>
        <time>2017-04-09T08:46:03Z</time>
      </trkpt>
      <trkpt lat="43.71736" lon="3.44389">
        <ele>353</ele>
        <time>2017-04-09T08:46:07Z</time>
      </trkpt>
      <trkpt lat="43.71743" lon="3.44385">
        <ele>354.3</ele>
        <time>2017-04-09T08:46:11Z</time>
      </trkpt>
      <trkpt lat="43.71752" lon="3.44382">
        <ele>355.3</ele>
        <time>2017-04-09T08:46:15Z</time>
      </trkpt>
      <trkpt lat="43.7176" lon="3.44379">
        <ele>356.2</ele>
        <time>2017-04-09T08:46:19Z</time>
      </trkpt>
      <trkpt lat="43.71767" lon="3.44375">
        <ele>357.4</ele>
        <time>2017-04-09T08:46:24Z</time>
      </trkpt>
      <trkpt lat="43.7177" lon="3.4437">
        <ele>358.6</ele>
        <time>2017-04-09T08:46:31Z</time>
      </trkpt>
      <trkpt lat="43.71769" lon="3.44366">
        <ele>358.9</ele>
        <time>2017-04-09T08:46:38Z</time>
      </trkpt>
      <trkpt lat="43.71771" lon="3.44368">
        <ele>359.6</ele>
        <time>2017-04-09T08:46:51Z</time>
      </trkpt>
      <trkpt lat="43.7177" lon="3.44368">
        <ele>359.6</ele>
        <time>2017-04-09T08:47:09Z</time>
      </trkpt>
      <trkpt lat="43.71771" lon="3.44372">
        <ele>359.2</ele>
        <time>2017-04-09T08:47:44Z</time>
      </trkpt>
      <trkpt lat="43.7177" lon="3.44375">
        <ele>358.9</ele>
        <time>2017-04-09T08:48:14Z</time>
      </trkpt>
      <trkpt lat="43.71773" lon="3.4436">
        <ele>362.3</ele>
        <time>2017-04-09T08:49:53Z</time>
      </trkpt>
      <trkpt lat="43.71773" lon="3.44347">
        <ele>362.5</ele>
        <time>2017-04-09T08:49:55Z</time>
      </trkpt>
      <trkpt lat="43.71768" lon="3.44333">
        <ele>361.3</ele>
        <time>2017-04-09T08:49:57Z</time>
      </trkpt>
      <trkpt lat="43.71764" lon="3.44322">
        <ele>360.2</ele>
        <time>2017-04-09T08:49:59Z</time>
      </trkpt>
      <trkpt lat="43.71762" lon="3.44312">
        <ele>359</ele>
        <time>2017-04-09T08:50:01Z</time>
      </trkpt>
      <trkpt lat="43.7176" lon="3.44301">
        <ele>357.8</ele>
        <time>2017-04-09T08:50:03Z</time>
      </trkpt>
      <trkpt lat="43.71757" lon="3.44285">
        <ele>355.1</ele>
        <time>2017-04-09T08:50:05Z</time>
      </trkpt>
      <trkpt lat="43.71755" lon="3.4427">
        <ele>354.6</ele>
        <time>2017-04-09T08:50:08Z</time>
      </trkpt>
      <trkpt lat="43.71752" lon="3.44258">
        <ele>351.1</ele>
        <time>2017-04-09T08:50:10Z</time>
      </trkpt>
      <trkpt lat="43.71749" lon="3.44248">
        <ele>349.6</ele>
        <time>2017-04-09T08:50:12Z</time>
      </trkpt>
      <trkpt lat="43.71746" lon="3.44236">
        <ele>347.6</ele>
        <time>2017-04-09T08:50:14Z</time>
      </trkpt>
      <trkpt lat="43.71738" lon="3.44229">
        <ele>347.1</ele>
        <time>2017-04-09T08:50:17Z</time>
      </trkpt>
      <trkpt lat="43.71731" lon="3.44224">
        <ele>346.6</ele>
        <time>2017-04-09T08:50:19Z</time>
      </trkpt>
      <trkpt lat="43.7173" lon="3.4421">
        <ele>345.6</ele>
        <time>2017-04-09T08:50:23Z</time>
      </trkpt>
      <trkpt lat="43.71729" lon="3.44198">
        <ele>342.6</ele>
        <time>2017-04-09T08:50:25Z</time>
      </trkpt>
      <trkpt lat="43.71726" lon="3.44188">
        <ele>339.5</ele>
        <time>2017-04-09T08:50:27Z</time>
      </trkpt>
      <trkpt lat="43.71723" lon="3.44174">
        <ele>334.8</ele>
        <time>2017-04-09T08:50:30Z</time>
      </trkpt>
      <trkpt lat="43.71723" lon="3.44162">
        <ele>334.1</ele>
        <time>2017-04-09T08:50:33Z</time>
      </trkpt>
      <trkpt lat="43.71722" lon="3.44148">
        <ele>333.2</ele>
        <time>2017-04-09T08:50:36Z</time>
      </trkpt>
      <trkpt lat="43.71722" lon="3.44134">
        <ele>327.8</ele>
        <time>2017-04-09T08:50:38Z</time>
      </trkpt>
      <trkpt lat="43.71721" lon="3.44123">
        <ele>325.8</ele>
        <time>2017-04-09T08:50:40Z</time>
      </trkpt>
      <trkpt lat="43.71722" lon="3.44112">
        <ele>325.3</ele>
        <time>2017-04-09T08:50:43Z</time>
      </trkpt>
      <trkpt lat="43.71721" lon="3.44098">
        <ele>318.9</ele>
        <time>2017-04-09T08:50:46Z</time>
      </trkpt>
      <trkpt lat="43.71724" lon="3.44083">
        <ele>316.5</ele>
        <time>2017-04-09T08:51:07Z</time>
      </trkpt>
      <trkpt lat="43.71721" lon="3.44085">
        <ele>314.7</ele>
        <time>2017-04-09T08:51:31Z</time>
      </trkpt>
      <trkpt lat="43.7172" lon="3.44084">
        <ele>314.1</ele>
        <time>2017-04-09T08:51:38Z</time>
      </trkpt>
      <trkpt lat="43.71724" lon="3.4409">
        <ele>313.1</ele>
        <time>2017-04-09T08:51:46Z</time>
      </trkpt>
      <trkpt lat="43.71729" lon="3.44093">
        <ele>311.5</ele>
        <time>2017-04-09T08:52:00Z</time>
      </trkpt>
      <trkpt lat="43.71728" lon="3.44096">
        <ele>310.9</ele>
        <time>2017-04-09T08:52:16Z</time>
      </trkpt>
      <trkpt lat="43.71723" lon="3.44092">
        <ele>308.3</ele>
        <time>2017-04-09T08:52:39Z</time>
      </trkpt>
      <trkpt lat="43.71718" lon="3.44088">
        <ele>308</ele>
        <time>2017-04-09T08:52:46Z</time>
      </trkpt>
      <trkpt lat="43.71716" lon="3.44087">
        <ele>307.6</ele>
        <time>2017-04-09T08:52:53Z</time>
      </trkpt>
      <trkpt lat="43.7172" lon="3.44092">
        <ele>306.8</ele>
        <time>2017-04-09T08:53:12Z</time>
      </trkpt>
      <trkpt lat="43.71728" lon="3.44084">
        <ele>305.7</ele>
        <time>2017-04-09T08:55:10Z</time>
      </trkpt>
      <trkpt lat="43.71732" lon="3.44075">
        <ele>305.8</ele>
        <time>2017-04-09T08:55:12Z</time>
      </trkpt>
      <trkpt lat="43.71737" lon="3.44063">
        <ele>306.3</ele>
        <time>2017-04-09T08:55:14Z</time>
      </trkpt>
      <trkpt lat="43.71739" lon="3.44051">
        <ele>306.4</ele>
        <time>2017-04-09T08:55:16Z</time>
      </trkpt>
      <trkpt lat="43.71739" lon="3.44033">
        <ele>305.6</ele>
        <time>2017-04-09T08:55:18Z</time>
      </trkpt>
      <trkpt lat="43.71735" lon="3.44026">
        <ele>304.6</ele>
        <time>2017-04-09T08:55:25Z</time>
      </trkpt>
      <trkpt lat="43.7174" lon="3.4403">
        <ele>302.6</ele>
        <time>2017-04-09T08:55:39Z</time>
      </trkpt>
      <trkpt lat="43.71745" lon="3.44037">
        <ele>302.1</ele>
        <time>2017-04-09T08:55:45Z</time>
      </trkpt>
      <trkpt lat="43.71752" lon="3.4404">
        <ele>301.5</ele>
        <time>2017-04-09T08:55:50Z</time>
      </trkpt>
      <trkpt lat="43.71754" lon="3.44046">
        <ele>300.3</ele>
        <time>2017-04-09T08:55:57Z</time>
      </trkpt>
      <trkpt lat="43.71753" lon="3.44042">
        <ele>299.9</ele>
        <time>2017-04-09T08:56:04Z</time>
      </trkpt>
      <trkpt lat="43.71755" lon="3.44048">
        <ele>299</ele>
        <time>2017-04-09T08:56:11Z</time>
      </trkpt>
      <trkpt lat="43.71763" lon="3.44052">
        <ele>298.8</ele>
        <time>2017-04-09T08:56:15Z</time>
      </trkpt>
      <trkpt lat="43.7177" lon="3.44055">
        <ele>298.8</ele>
        <time>2017-04-09T08:56:19Z</time>
      </trkpt>
      <trkpt lat="43.71779" lon="3.44056">
        <ele>299</ele>
        <time>2017-04-09T08:56:24Z</time>
      </trkpt>
      <trkpt lat="43.71787" lon="3.4406">
        <ele>299.6</ele>
        <time>2017-04-09T08:56:29Z</time>
      </trkpt>
      <trkpt lat="43.7179" lon="3.4407">
        <ele>299.9</ele>
        <time>2017-04-09T08:56:34Z</time>
      </trkpt>
      <trkpt lat="43.71783" lon="3.44077">
        <ele>300.2</ele>
        <time>2017-04-09T08:56:39Z</time>
      </trkpt>
      <trkpt lat="43.71775" lon="3.44079">
        <ele>300.5</ele>
        <time>2017-04-09T08:56:42Z</time>
      </trkpt>
      <trkpt lat="43.71766" lon="3.44079">
        <ele>300.8</ele>
        <time>2017-04-09T08:56:46Z</time>
      </trkpt>
      <trkpt lat="43.71758" lon="3.44081">
        <ele>301.5</ele>
        <time>2017-04-09T08:56:50Z</time>
      </trkpt>
      <trkpt lat="43.7175" lon="3.44085">
        <ele>301.9</ele>
        <time>2017-04-09T08:56:54Z</time>
      </trkpt>
      <trkpt lat="43.71742" lon="3.44091">
        <ele>302.3</ele>
        <time>2017-04-09T08:56:58Z</time>
      </trkpt>
      <trkpt lat="43.71733" lon="3.44097">
        <ele>302.8</ele>
        <time>2017-04-09T08:57:02Z</time>
      </trkpt>
      <trkpt lat="43.71725" lon="3.441">
        <ele>303.2</ele>
        <time>2017-04-09T08:57:06Z</time>
      </trkpt>
      <trkpt lat="43.71717" lon="3.44103">
        <ele>303.7</ele>
        <time>2017-04-09T08:57:09Z</time>
      </trkpt>
      <trkpt lat="43.71709" lon="3.44106">
        <ele>304</ele>
        <time>2017-04-09T08:57:12Z</time>
      </trkpt>
      <trkpt lat="43.71701" lon="3.44108">
        <ele>304.1</ele>
        <time>2017-04-09T08:57:15Z</time>
      </trkpt>
      <trkpt lat="43.71694" lon="3.44111">
        <ele>304.1</ele>
        <time>2017-04-09T08:57:18Z</time>
      </trkpt>
      <trkpt lat="43.71688" lon="3.44117">
        <ele>304.3</ele>
        <time>2017-04-09T08:57:21Z</time>
      </trkpt>
      <trkpt lat="43.7168" lon="3.44124">
        <ele>304.5</ele>
        <time>2017-04-09T08:57:25Z</time>
      </trkpt>
      <trkpt lat="43.71673" lon="3.44127">
        <ele>304.8</ele>
        <time>2017-04-09T08:57:28Z</time>
      </trkpt>
      <trkpt lat="43.71664" lon="3.44132">
        <ele>305.2</ele>
        <time>2017-04-09T08:57:32Z</time>
      </trkpt>
      <trkpt lat="43.71656" lon="3.44135">
        <ele>305.8</ele>
        <time>2017-04-09T08:57:36Z</time>
      </trkpt>
      <trkpt lat="43.7165" lon="3.44142">
        <ele>306.4</ele>
        <time>2017-04-09T08:57:40Z</time>
      </trkpt>
      <trkpt lat="43.71658" lon="3.44148">
        <ele>307.1</ele>
        <time>2017-04-09T08:57:45Z</time>
      </trkpt>
      <trkpt lat="43.71665" lon="3.44148">
        <ele>308</ele>
        <time>2017-04-09T08:57:48Z</time>
      </trkpt>
      <trkpt lat="43.71672" lon="3.44148">
        <ele>309</ele>
        <time>2017-04-09T08:57:51Z</time>
      </trkpt>
      <trkpt lat="43.71681" lon="3.44147">
        <ele>310.5</ele>
        <time>2017-04-09T08:57:55Z</time>
      </trkpt>
      <trkpt lat="43.7169" lon="3.44146">
        <ele>311.9</ele>
        <time>2017-04-09T08:57:59Z</time>
      </trkpt>
      <trkpt lat="43.71699" lon="3.44145">
        <ele>313.7</ele>
        <time>2017-04-09T08:58:03Z</time>
      </trkpt>
      <trkpt lat="43.71706" lon="3.44144">
        <ele>314.8</ele>
        <time>2017-04-09T08:58:06Z</time>
      </trkpt>
      <trkpt lat="43.71715" lon="3.44144">
        <ele>316.3</ele>
        <time>2017-04-09T08:58:10Z</time>
      </trkpt>
      <trkpt lat="43.71723" lon="3.44145">
        <ele>317.6</ele>
        <time>2017-04-09T08:58:14Z</time>
      </trkpt>
      <trkpt lat="43.71732" lon="3.44146">
        <ele>318.3</ele>
        <time>2017-04-09T08:58:18Z</time>
      </trkpt>
      <trkpt lat="43.7174" lon="3.44147">
        <ele>319.2</ele>
        <time>2017-04-09T08:58:22Z</time>
      </trkpt>
      <trkpt lat="43.71748" lon="3.44148">
        <ele>319.9</ele>
        <time>2017-04-09T08:58:25Z</time>
      </trkpt>
      <trkpt lat="43.71757" lon="3.44149">
        <ele>320.8</ele>
        <time>2017-04-09T08:58:29Z</time>
      </trkpt>
      <trkpt lat="43.71766" lon="3.44151">
        <ele>321.6</ele>
        <time>2017-04-09T08:58:33Z</time>
      </trkpt>
      <trkpt lat="43.71773" lon="3.44154">
        <ele>322.2</ele>
        <time>2017-04-09T08:58:36Z</time>
      </trkpt>
      <trkpt lat="43.71779" lon="3.44158">
        <ele>322.7</ele>
        <time>2017-04-09T08:58:39Z</time>
      </trkpt>
      <trkpt lat="43.71786" lon="3.44165">
        <ele>323.1</ele>
        <time>2017-04-09T08:58:43Z</time>
      </trkpt>
      <trkpt lat="43.71792" lon="3.44175">
        <ele>323.5</ele>
        <time>2017-04-09T08:58:47Z</time>
      </trkpt>
      <trkpt lat="43.71796" lon="3.44187">
        <ele>323.8</ele>
        <time>2017-04-09T08:58:51Z</time>
      </trkpt>
      <trkpt lat="43.71798" lon="3.44198">
        <ele>324.1</ele>
        <time>2017-04-09T08:58:55Z</time>
      </trkpt>
      <trkpt lat="43.71802" lon="3.44208">
        <ele>324.2</ele>
        <time>2017-04-09T08:58:58Z</time>
      </trkpt>
      <trkpt lat="43.71809" lon="3.44209">
        <ele>324.6</ele>
        <time>2017-04-09T08:59:03Z</time>
      </trkpt>
      <trkpt lat="43.71816" lon="3.44202">
        <ele>325.1</ele>
        <time>2017-04-09T08:59:07Z</time>
      </trkpt>
      <trkpt lat="43.71822" lon="3.44192">
        <ele>325.8</ele>
        <time>2017-04-09T08:59:11Z</time>
      </trkpt>
      <trkpt lat="43.71827" lon="3.44181">
        <ele>326.5</ele>
        <time>2017-04-09T08:59:15Z</time>
      </trkpt>
      <trkpt lat="43.71833" lon="3.44174">
        <ele>326.9</ele>
        <time>2017-04-09T08:59:18Z</time>
      </trkpt>
      <trkpt lat="43.7184" lon="3.44167">
        <ele>327.7</ele>
        <time>2017-04-09T08:59:22Z</time>
      </trkpt>
      <trkpt lat="43.71849" lon="3.44161">
        <ele>328.8</ele>
        <time>2017-04-09T08:59:26Z</time>
      </trkpt>
      <trkpt lat="43.71858" lon="3.44158">
        <ele>329.9</ele>
        <time>2017-04-09T08:59:30Z</time>
      </trkpt>
      <trkpt lat="43.71868" lon="3.44155">
        <ele>331</ele>
        <time>2017-04-09T08:59:34Z</time>
      </trkpt>
      <trkpt lat="43.71877" lon="3.44152">
        <ele>331.7</ele>
        <time>2017-04-09T08:59:37Z</time>
      </trkpt>
      <trkpt lat="43.71885" lon="3.44148">
        <ele>332.7</ele>
        <time>2017-04-09T08:59:41Z</time>
      </trkpt>
      <trkpt lat="43.71893" lon="3.44146">
        <ele>333.7</ele>
        <time>2017-04-09T08:59:45Z</time>
      </trkpt>
      <trkpt lat="43.71901" lon="3.44144">
        <ele>334.5</ele>
        <time>2017-04-09T08:59:49Z</time>
      </trkpt>
      <trkpt lat="43.71908" lon="3.44149">
        <ele>334.8</ele>
        <time>2017-04-09T08:59:53Z</time>
      </trkpt>
      <trkpt lat="43.719" lon="3.44157">
        <ele>334.9</ele>
        <time>2017-04-09T08:59:59Z</time>
      </trkpt>
      <trkpt lat="43.71893" lon="3.44161">
        <ele>334.8</ele>
        <time>2017-04-09T09:00:02Z</time>
      </trkpt>
      <trkpt lat="43.71885" lon="3.44168">
        <ele>334.9</ele>
        <time>2017-04-09T09:00:06Z</time>
      </trkpt>
      <trkpt lat="43.71878" lon="3.44176">
        <ele>335.1</ele>
        <time>2017-04-09T09:00:10Z</time>
      </trkpt>
      <trkpt lat="43.71871" lon="3.44184">
        <ele>335.4</ele>
        <time>2017-04-09T09:00:14Z</time>
      </trkpt>
      <trkpt lat="43.71865" lon="3.4419">
        <ele>335.6</ele>
        <time>2017-04-09T09:00:17Z</time>
      </trkpt>
      <trkpt lat="43.71858" lon="3.44198">
        <ele>335.6</ele>
        <time>2017-04-09T09:00:20Z</time>
      </trkpt>
      <trkpt lat="43.71853" lon="3.44206">
        <ele>335.5</ele>
        <time>2017-04-09T09:00:23Z</time>
      </trkpt>
      <trkpt lat="43.71848" lon="3.44214">
        <ele>335.4</ele>
        <time>2017-04-09T09:00:26Z</time>
      </trkpt>
      <trkpt lat="43.71844" lon="3.44222">
        <ele>335.4</ele>
        <time>2017-04-09T09:00:29Z</time>
      </trkpt>
      <trkpt lat="43.71841" lon="3.44232">
        <ele>335.6</ele>
        <time>2017-04-09T09:00:32Z</time>
      </trkpt>
      <trkpt lat="43.71836" lon="3.44242">
        <ele>336.1</ele>
        <time>2017-04-09T09:00:36Z</time>
      </trkpt>
      <trkpt lat="43.7183" lon="3.44252">
        <ele>336.7</ele>
        <time>2017-04-09T09:00:40Z</time>
      </trkpt>
      <trkpt lat="43.71826" lon="3.4426">
        <ele>337.4</ele>
        <time>2017-04-09T09:00:43Z</time>
      </trkpt>
      <trkpt lat="43.71819" lon="3.44269">
        <ele>338.1</ele>
        <time>2017-04-09T09:00:47Z</time>
      </trkpt>
      <trkpt lat="43.71811" lon="3.44272">
        <ele>338.9</ele>
        <time>2017-04-09T09:00:51Z</time>
      </trkpt>
      <trkpt lat="43.71802" lon="3.44273">
        <ele>339.4</ele>
        <time>2017-04-09T09:00:54Z</time>
      </trkpt>
      <trkpt lat="43.71793" lon="3.44272">
        <ele>339.8</ele>
        <time>2017-04-09T09:00:57Z</time>
      </trkpt>
      <trkpt lat="43.71785" lon="3.44273">
        <ele>340.2</ele>
        <time>2017-04-09T09:01:00Z</time>
      </trkpt>
      <trkpt lat="43.71778" lon="3.44272">
        <ele>340.6</ele>
        <time>2017-04-09T09:01:03Z</time>
      </trkpt>
      <trkpt lat="43.7177" lon="3.44271">
        <ele>341</ele>
        <time>2017-04-09T09:01:06Z</time>
      </trkpt>
      <trkpt lat="43.71762" lon="3.44273">
        <ele>341.6</ele>
        <time>2017-04-09T09:01:09Z</time>
      </trkpt>
      <trkpt lat="43.71755" lon="3.44277">
        <ele>342.1</ele>
        <time>2017-04-09T09:01:12Z</time>
      </trkpt>
      <trkpt lat="43.71749" lon="3.44284">
        <ele>342.5</ele>
        <time>2017-04-09T09:01:15Z</time>
      </trkpt>
      <trkpt lat="43.71743" lon="3.44294">
        <ele>342.9</ele>
        <time>2017-04-09T09:01:18Z</time>
      </trkpt>
      <trkpt lat="43.71738" lon="3.44304">
        <ele>343</ele>
        <time>2017-04-09T09:01:21Z</time>
      </trkpt>
      <trkpt lat="43.71733" lon="3.44313">
        <ele>343.1</ele>
        <time>2017-04-09T09:01:24Z</time>
      </trkpt>
      <trkpt lat="43.71729" lon="3.44322">
        <ele>343.2</ele>
        <time>2017-04-09T09:01:27Z</time>
      </trkpt>
      <trkpt lat="43.71723" lon="3.44332">
        <ele>343.2</ele>
        <time>2017-04-09T09:01:31Z</time>
      </trkpt>
      <trkpt lat="43.71718" lon="3.4434">
        <ele>343.3</ele>
        <time>2017-04-09T09:01:34Z</time>
      </trkpt>
      <trkpt lat="43.71714" lon="3.44349">
        <ele>343.3</ele>
        <time>2017-04-09T09:01:37Z</time>
      </trkpt>
      <trkpt lat="43.71711" lon="3.44361">
        <ele>343.6</ele>
        <time>2017-04-09T09:01:41Z</time>
      </trkpt>
      <trkpt lat="43.7171" lon="3.44374">
        <ele>344.2</ele>
        <time>2017-04-09T09:01:45Z</time>
      </trkpt>
      <trkpt lat="43.71706" lon="3.44386">
        <ele>344.9</ele>
        <time>2017-04-09T09:01:49Z</time>
      </trkpt>
      <trkpt lat="43.71701" lon="3.44395">
        <ele>345.5</ele>
        <time>2017-04-09T09:01:52Z</time>
      </trkpt>
      <trkpt lat="43.71696" lon="3.44404">
        <ele>346.5</ele>
        <time>2017-04-09T09:01:56Z</time>
      </trkpt>
      <trkpt lat="43.7169" lon="3.44413">
        <ele>347.7</ele>
        <time>2017-04-09T09:02:00Z</time>
      </trkpt>
      <trkpt lat="43.71694" lon="3.44422">
        <ele>349.2</ele>
        <time>2017-04-09T09:02:05Z</time>
      </trkpt>
      <trkpt lat="43.71703" lon="3.44419">
        <ele>350.9</ele>
        <time>2017-04-09T09:02:09Z</time>
      </trkpt>
      <trkpt lat="43.71709" lon="3.44414">
        <ele>352.4</ele>
        <time>2017-04-09T09:02:12Z</time>
      </trkpt>
      <trkpt lat="43.71716" lon="3.44409">
        <ele>353.8</ele>
        <time>2017-04-09T09:02:15Z</time>
      </trkpt>
      <trkpt lat="43.71723" lon="3.44401">
        <ele>355.3</ele>
        <time>2017-04-09T09:02:19Z</time>
      </trkpt>
      <trkpt lat="43.71729" lon="3.44394">
        <ele>356.9</ele>
        <time>2017-04-09T09:02:23Z</time>
      </trkpt>
      <trkpt lat="43.71736" lon="3.44387">
        <ele>358.4</ele>
        <time>2017-04-09T09:02:27Z</time>
      </trkpt>
      <trkpt lat="43.71743" lon="3.44385">
        <ele>359.9</ele>
        <time>2017-04-09T09:02:31Z</time>
      </trkpt>
      <trkpt lat="43.71752" lon="3.44382">
        <ele>361</ele>
        <time>2017-04-09T09:02:35Z</time>
      </trkpt>
      <trkpt lat="43.71759" lon="3.44379">
        <ele>361.8</ele>
        <time>2017-04-09T09:02:39Z</time>
      </trkpt>
      <trkpt lat="43.71766" lon="3.44377">
        <ele>363.3</ele>
        <time>2017-04-09T09:02:46Z</time>
      </trkpt>
      <trkpt lat="43.71767" lon="3.44376">
        <ele>364.1</ele>
        <time>2017-04-09T09:03:47Z</time>
      </trkpt>
      <trkpt lat="43.71768" lon="3.44371">
        <ele>362</ele>
        <time>2017-04-09T09:04:59Z</time>
      </trkpt>
      <trkpt lat="43.7177" lon="3.44371">
        <ele>362</ele>
        <time>2017-04-09T09:05:10Z</time>
      </trkpt>
      <trkpt lat="43.71768" lon="3.44375">
        <ele>362</ele>
        <time>2017-04-09T09:05:17Z</time>
      </trkpt>
      <trkpt lat="43.71765" lon="3.44374">
        <ele>362.1</ele>
        <time>2017-04-09T09:05:24Z</time>
      </trkpt>
      <trkpt lat="43.7176" lon="3.44373">
        <ele>362.3</ele>
        <time>2017-04-09T09:05:52Z</time>
      </trkpt>
      <trkpt lat="43.7177" lon="3.44368">
        <ele>366.3</ele>
        <time>2017-04-09T09:07:01Z</time>
      </trkpt>
      <trkpt lat="43.71779" lon="3.44368">
        <ele>366.5</ele>
        <time>2017-04-09T09:07:04Z</time>
      </trkpt>
      <trkpt lat="43.71787" lon="3.44366">
        <ele>366.3</ele>
        <time>2017-04-09T09:07:07Z</time>
      </trkpt>
      <trkpt lat="43.71795" lon="3.44364">
        <ele>366.3</ele>
        <time>2017-04-09T09:07:10Z</time>
      </trkpt>
      <trkpt lat="43.71802" lon="3.4436">
        <ele>366.3</ele>
        <time>2017-04-09T09:07:13Z</time>
      </trkpt>
      <trkpt lat="43.71811" lon="3.44357">
        <ele>366.4</ele>
        <time>2017-04-09T09:07:16Z</time>
      </trkpt>
      <trkpt lat="43.71819" lon="3.44355">
        <ele>366.5</ele>
        <time>2017-04-09T09:07:20Z</time>
      </trkpt>
      <trkpt lat="43.71828" lon="3.44355">
        <ele>366.4</ele>
        <time>2017-04-09T09:07:23Z</time>
      </trkpt>
      <trkpt lat="43.71836" lon="3.44354">
        <ele>366.2</ele>
        <time>2017-04-09T09:07:26Z</time>
      </trkpt>
      <trkpt lat="43.71844" lon="3.44349">
        <ele>366.2</ele>
        <time>2017-04-09T09:07:29Z</time>
      </trkpt>
      <trkpt lat="43.71852" lon="3.44342">
        <ele>366.5</ele>
        <time>2017-04-09T09:07:33Z</time>
      </trkpt>
      <trkpt lat="43.71858" lon="3.44336">
        <ele>366.8</ele>
        <time>2017-04-09T09:07:36Z</time>
      </trkpt>
      <trkpt lat="43.71866" lon="3.44332">
        <ele>367.3</ele>
        <time>2017-04-09T09:07:39Z</time>
      </trkpt>
      <trkpt lat="43.71872" lon="3.44328">
        <ele>367.8</ele>
        <time>2017-04-09T09:07:42Z</time>
      </trkpt>
      <trkpt lat="43.71879" lon="3.44325">
        <ele>368.1</ele>
        <time>2017-04-09T09:07:45Z</time>
      </trkpt>
      <trkpt lat="43.71887" lon="3.44322">
        <ele>368.4</ele>
        <time>2017-04-09T09:07:49Z</time>
      </trkpt>
      <trkpt lat="43.71895" lon="3.4432">
        <ele>368.7</ele>
        <time>2017-04-09T09:07:52Z</time>
      </trkpt>
      <trkpt lat="43.71902" lon="3.44319">
        <ele>369.1</ele>
        <time>2017-04-09T09:07:55Z</time>
      </trkpt>
      <trkpt lat="43.71909" lon="3.44319">
        <ele>369.3</ele>
        <time>2017-04-09T09:07:58Z</time>
      </trkpt>
      <trkpt lat="43.71916" lon="3.44319">
        <ele>369.8</ele>
        <time>2017-04-09T09:08:01Z</time>
      </trkpt>
      <trkpt lat="43.71926" lon="3.44317">
        <ele>370.5</ele>
        <time>2017-04-09T09:08:05Z</time>
      </trkpt>
      <trkpt lat="43.71935" lon="3.44316">
        <ele>371.3</ele>
        <time>2017-04-09T09:08:09Z</time>
      </trkpt>
      <trkpt lat="43.71943" lon="3.44316">
        <ele>372</ele>
        <time>2017-04-09T09:08:13Z</time>
      </trkpt>
      <trkpt lat="43.71952" lon="3.44318">
        <ele>372.6</ele>
        <time>2017-04-09T09:08:17Z</time>
      </trkpt>
      <trkpt lat="43.71959" lon="3.44321">
        <ele>372.7</ele>
        <time>2017-04-09T09:08:20Z</time>
      </trkpt>
      <trkpt lat="43.71967" lon="3.44325">
        <ele>372.9</ele>
        <time>2017-04-09T09:08:23Z</time>
      </trkpt>
      <trkpt lat="43.71974" lon="3.44329">
        <ele>373.3</ele>
        <time>2017-04-09T09:08:26Z</time>
      </trkpt>
      <trkpt lat="43.71981" lon="3.44332">
        <ele>374.1</ele>
        <time>2017-04-09T09:08:29Z</time>
      </trkpt>
      <trkpt lat="43.71989" lon="3.44333">
        <ele>374.9</ele>
        <time>2017-04-09T09:08:32Z</time>
      </trkpt>
      <trkpt lat="43.71996" lon="3.44333">
        <ele>375.7</ele>
        <time>2017-04-09T09:08:35Z</time>
      </trkpt>
      <trkpt lat="43.72004" lon="3.44329">
        <ele>376.6</ele>
        <time>2017-04-09T09:08:38Z</time>
      </trkpt>
      <trkpt lat="43.72012" lon="3.44322">
        <ele>377.7</ele>
        <time>2017-04-09T09:08:42Z</time>
      </trkpt>
      <trkpt lat="43.72019" lon="3.44315">
        <ele>378.3</ele>
        <time>2017-04-09T09:08:46Z</time>
      </trkpt>
      <trkpt lat="43.72026" lon="3.4431">
        <ele>378.7</ele>
        <time>2017-04-09T09:08:49Z</time>
      </trkpt>
      <trkpt lat="43.72035" lon="3.44307">
        <ele>379.3</ele>
        <time>2017-04-09T09:08:53Z</time>
      </trkpt>
      <trkpt lat="43.72043" lon="3.44305">
        <ele>380.1</ele>
        <time>2017-04-09T09:08:56Z</time>
      </trkpt>
      <trkpt lat="43.7205" lon="3.44302">
        <ele>380.9</ele>
        <time>2017-04-09T09:08:59Z</time>
      </trkpt>
      <trkpt lat="43.72059" lon="3.44298">
        <ele>381.9</ele>
        <time>2017-04-09T09:09:03Z</time>
      </trkpt>
      <trkpt lat="43.72067" lon="3.44295">
        <ele>382.7</ele>
        <time>2017-04-09T09:09:06Z</time>
      </trkpt>
      <trkpt lat="43.72074" lon="3.4429">
        <ele>383.4</ele>
        <time>2017-04-09T09:09:09Z</time>
      </trkpt>
      <trkpt lat="43.72081" lon="3.44285">
        <ele>384</ele>
        <time>2017-04-09T09:09:12Z</time>
      </trkpt>
      <trkpt lat="43.72087" lon="3.44278">
        <ele>384.6</ele>
        <time>2017-04-09T09:09:15Z</time>
      </trkpt>
      <trkpt lat="43.72093" lon="3.44271">
        <ele>385</ele>
        <time>2017-04-09T09:09:18Z</time>
      </trkpt>
      <trkpt lat="43.721" lon="3.44263">
        <ele>385.2</ele>
        <time>2017-04-09T09:09:22Z</time>
      </trkpt>
      <trkpt lat="43.72105" lon="3.44257">
        <ele>385.2</ele>
        <time>2017-04-09T09:09:25Z</time>
      </trkpt>
      <trkpt lat="43.72112" lon="3.44247">
        <ele>385.3</ele>
        <time>2017-04-09T09:09:29Z</time>
      </trkpt>
      <trkpt lat="43.72118" lon="3.44239">
        <ele>385.6</ele>
        <time>2017-04-09T09:09:33Z</time>
      </trkpt>
      <trkpt lat="43.72124" lon="3.44231">
        <ele>385.8</ele>
        <time>2017-04-09T09:09:36Z</time>
      </trkpt>
      <trkpt lat="43.7213" lon="3.44225">
        <ele>386.1</ele>
        <time>2017-04-09T09:09:39Z</time>
      </trkpt>
      <trkpt lat="43.72137" lon="3.44217">
        <ele>386.5</ele>
        <time>2017-04-09T09:09:43Z</time>
      </trkpt>
      <trkpt lat="43.72142" lon="3.44209">
        <ele>386.6</ele>
        <time>2017-04-09T09:09:46Z</time>
      </trkpt>
      <trkpt lat="43.72149" lon="3.442">
        <ele>387</ele>
        <time>2017-04-09T09:09:50Z</time>
      </trkpt>
      <trkpt lat="43.72156" lon="3.44195">
        <ele>387.4</ele>
        <time>2017-04-09T09:09:53Z</time>
      </trkpt>
      <trkpt lat="43.72163" lon="3.44189">
        <ele>388.1</ele>
        <time>2017-04-09T09:09:56Z</time>
      </trkpt>
      <trkpt lat="43.72171" lon="3.44185">
        <ele>388.7</ele>
        <time>2017-04-09T09:09:59Z</time>
      </trkpt>
      <trkpt lat="43.72178" lon="3.44181">
        <ele>389.4</ele>
        <time>2017-04-09T09:10:02Z</time>
      </trkpt>
      <trkpt lat="43.72187" lon="3.44177">
        <ele>390.4</ele>
        <time>2017-04-09T09:10:06Z</time>
      </trkpt>
      <trkpt lat="43.72194" lon="3.44174">
        <ele>391.5</ele>
        <time>2017-04-09T09:10:10Z</time>
      </trkpt>
      <trkpt lat="43.72203" lon="3.4417">
        <ele>392.4</ele>
        <time>2017-04-09T09:10:14Z</time>
      </trkpt>
      <trkpt lat="43.7221" lon="3.4417">
        <ele>393.4</ele>
        <time>2017-04-09T09:10:19Z</time>
      </trkpt>
      <trkpt lat="43.72211" lon="3.4418">
        <ele>393.7</ele>
        <time>2017-04-09T09:10:24Z</time>
      </trkpt>
      <trkpt lat="43.72206" lon="3.4419">
        <ele>393.9</ele>
        <time>2017-04-09T09:10:28Z</time>
      </trkpt>
      <trkpt lat="43.72202" lon="3.44199">
        <ele>394.2</ele>
        <time>2017-04-09T09:10:32Z</time>
      </trkpt>
      <trkpt lat="43.72197" lon="3.44208">
        <ele>395.1</ele>
        <time>2017-04-09T09:10:37Z</time>
      </trkpt>
      <trkpt lat="43.72191" lon="3.44216">
        <ele>396</ele>
        <time>2017-04-09T09:10:41Z</time>
      </trkpt>
      <trkpt lat="43.72184" lon="3.44224">
        <ele>396.4</ele>
        <time>2017-04-09T09:10:44Z</time>
      </trkpt>
      <trkpt lat="43.7218" lon="3.44233">
        <ele>396.9</ele>
        <time>2017-04-09T09:10:48Z</time>
      </trkpt>
      <trkpt lat="43.72173" lon="3.44242">
        <ele>397.3</ele>
        <time>2017-04-09T09:10:51Z</time>
      </trkpt>
      <trkpt lat="43.72168" lon="3.44249">
        <ele>397.6</ele>
        <time>2017-04-09T09:10:54Z</time>
      </trkpt>
      <trkpt lat="43.72164" lon="3.44261">
        <ele>397.9</ele>
        <time>2017-04-09T09:10:58Z</time>
      </trkpt>
      <trkpt lat="43.72161" lon="3.44272">
        <ele>398.2</ele>
        <time>2017-04-09T09:11:02Z</time>
      </trkpt>
      <trkpt lat="43.72155" lon="3.44281">
        <ele>398.5</ele>
        <time>2017-04-09T09:11:06Z</time>
      </trkpt>
      <trkpt lat="43.7215" lon="3.4429">
        <ele>399</ele>
        <time>2017-04-09T09:11:10Z</time>
      </trkpt>
      <trkpt lat="43.72144" lon="3.44297">
        <ele>399.5</ele>
        <time>2017-04-09T09:11:14Z</time>
      </trkpt>
      <trkpt lat="43.72139" lon="3.44306">
        <ele>400</ele>
        <time>2017-04-09T09:11:18Z</time>
      </trkpt>
      <trkpt lat="43.72135" lon="3.44316">
        <ele>400.5</ele>
        <time>2017-04-09T09:11:21Z</time>
      </trkpt>
      <trkpt lat="43.72131" lon="3.44325">
        <ele>401.2</ele>
        <time>2017-04-09T09:11:25Z</time>
      </trkpt>
      <trkpt lat="43.72126" lon="3.44336">
        <ele>401.7</ele>
        <time>2017-04-09T09:11:29Z</time>
      </trkpt>
      <trkpt lat="43.72122" lon="3.44346">
        <ele>402.5</ele>
        <time>2017-04-09T09:11:33Z</time>
      </trkpt>
      <trkpt lat="43.72118" lon="3.44357">
        <ele>403</ele>
        <time>2017-04-09T09:11:37Z</time>
      </trkpt>
      <trkpt lat="43.72113" lon="3.44368">
        <ele>403.5</ele>
        <time>2017-04-09T09:11:41Z</time>
      </trkpt>
      <trkpt lat="43.72108" lon="3.44378">
        <ele>404.2</ele>
        <time>2017-04-09T09:11:45Z</time>
      </trkpt>
      <trkpt lat="43.72103" lon="3.44387">
        <ele>404.9</ele>
        <time>2017-04-09T09:11:49Z</time>
      </trkpt>
      <trkpt lat="43.72097" lon="3.44396">
        <ele>405.4</ele>
        <time>2017-04-09T09:11:52Z</time>
      </trkpt>
      <trkpt lat="43.72093" lon="3.44404">
        <ele>405.9</ele>
        <time>2017-04-09T09:11:55Z</time>
      </trkpt>
      <trkpt lat="43.72089" lon="3.44414">
        <ele>406.2</ele>
        <time>2017-04-09T09:11:58Z</time>
      </trkpt>
      <trkpt lat="43.72084" lon="3.44424">
        <ele>406.6</ele>
        <time>2017-04-09T09:12:02Z</time>
      </trkpt>
      <trkpt lat="43.72078" lon="3.44433">
        <ele>407.1</ele>
        <time>2017-04-09T09:12:06Z</time>
      </trkpt>
      <trkpt lat="43.7207" lon="3.44441">
        <ele>407.6</ele>
        <time>2017-04-09T09:12:10Z</time>
      </trkpt>
      <trkpt lat="43.72064" lon="3.44448">
        <ele>408</ele>
        <time>2017-04-09T09:12:13Z</time>
      </trkpt>
      <trkpt lat="43.72059" lon="3.44455">
        <ele>408.3</ele>
        <time>2017-04-09T09:12:16Z</time>
      </trkpt>
      <trkpt lat="43.72051" lon="3.44463">
        <ele>408.6</ele>
        <time>2017-04-09T09:12:20Z</time>
      </trkpt>
      <trkpt lat="43.72044" lon="3.44466">
        <ele>408.8</ele>
        <time>2017-04-09T09:12:23Z</time>
      </trkpt>
      <trkpt lat="43.72036" lon="3.4447">
        <ele>409.1</ele>
        <time>2017-04-09T09:12:26Z</time>
      </trkpt>
      <trkpt lat="43.72029" lon="3.44475">
        <ele>409.5</ele>
        <time>2017-04-09T09:12:30Z</time>
      </trkpt>
      <trkpt lat="43.72021" lon="3.4448">
        <ele>409.8</ele>
        <time>2017-04-09T09:12:34Z</time>
      </trkpt>
      <trkpt lat="43.72014" lon="3.44483">
        <ele>410.2</ele>
        <time>2017-04-09T09:12:38Z</time>
      </trkpt>
      <trkpt lat="43.72006" lon="3.44484">
        <ele>410.3</ele>
        <time>2017-04-09T09:12:42Z</time>
      </trkpt>
      <trkpt lat="43.71998" lon="3.44482">
        <ele>410.6</ele>
        <time>2017-04-09T09:12:46Z</time>
      </trkpt>
      <trkpt lat="43.7199" lon="3.44478">
        <ele>411.1</ele>
        <time>2017-04-09T09:12:50Z</time>
      </trkpt>
      <trkpt lat="43.71982" lon="3.44474">
        <ele>411.3</ele>
        <time>2017-04-09T09:12:53Z</time>
      </trkpt>
      <trkpt lat="43.71974" lon="3.4447">
        <ele>411.8</ele>
        <time>2017-04-09T09:12:57Z</time>
      </trkpt>
      <trkpt lat="43.71967" lon="3.44465">
        <ele>412</ele>
        <time>2017-04-09T09:13:01Z</time>
      </trkpt>
      <trkpt lat="43.71959" lon="3.44463">
        <ele>412.4</ele>
        <time>2017-04-09T09:13:04Z</time>
      </trkpt>
      <trkpt lat="43.71952" lon="3.44461">
        <ele>413</ele>
        <time>2017-04-09T09:13:07Z</time>
      </trkpt>
      <trkpt lat="43.71943" lon="3.44463">
        <ele>413.7</ele>
        <time>2017-04-09T09:13:11Z</time>
      </trkpt>
      <trkpt lat="43.71936" lon="3.44466">
        <ele>414.2</ele>
        <time>2017-04-09T09:13:14Z</time>
      </trkpt>
      <trkpt lat="43.7193" lon="3.44472">
        <ele>414.4</ele>
        <time>2017-04-09T09:13:17Z</time>
      </trkpt>
      <trkpt lat="43.71924" lon="3.44478">
        <ele>414.7</ele>
        <time>2017-04-09T09:13:20Z</time>
      </trkpt>
      <trkpt lat="43.71917" lon="3.44486">
        <ele>415.1</ele>
        <time>2017-04-09T09:13:24Z</time>
      </trkpt>
      <trkpt lat="43.71909" lon="3.44493">
        <ele>415.5</ele>
        <time>2017-04-09T09:13:28Z</time>
      </trkpt>
      <trkpt lat="43.71902" lon="3.44497">
        <ele>416.1</ele>
        <time>2017-04-09T09:13:32Z</time>
      </trkpt>
      <trkpt lat="43.71895" lon="3.44499">
        <ele>416.5</ele>
        <time>2017-04-09T09:13:35Z</time>
      </trkpt>
      <trkpt lat="43.71887" lon="3.44502">
        <ele>416.8</ele>
        <time>2017-04-09T09:13:38Z</time>
      </trkpt>
      <trkpt lat="43.7188" lon="3.44504">
        <ele>417</ele>
        <time>2017-04-09T09:13:40Z</time>
      </trkpt>
      <trkpt lat="43.71873" lon="3.44509">
        <ele>417.2</ele>
        <time>2017-04-09T09:13:43Z</time>
      </trkpt>
      <trkpt lat="43.71866" lon="3.44514">
        <ele>417.4</ele>
        <time>2017-04-09T09:13:46Z</time>
      </trkpt>
      <trkpt lat="43.7186" lon="3.44522">
        <ele>417.7</ele>
        <time>2017-04-09T09:13:49Z</time>
      </trkpt>
      <trkpt lat="43.71854" lon="3.4453">
        <ele>418</ele>
        <time>2017-04-09T09:13:52Z</time>
      </trkpt>
      <trkpt lat="43.71847" lon="3.4454">
        <ele>418.3</ele>
        <time>2017-04-09T09:13:56Z</time>
      </trkpt>
      <trkpt lat="43.71843" lon="3.44548">
        <ele>418.6</ele>
        <time>2017-04-09T09:13:59Z</time>
      </trkpt>
      <trkpt lat="43.71839" lon="3.44556">
        <ele>418.9</ele>
        <time>2017-04-09T09:14:02Z</time>
      </trkpt>
      <trkpt lat="43.71834" lon="3.44567">
        <ele>419.4</ele>
        <time>2017-04-09T09:14:05Z</time>
      </trkpt>
      <trkpt lat="43.7183" lon="3.44575">
        <ele>420</ele>
        <time>2017-04-09T09:14:08Z</time>
      </trkpt>
      <trkpt lat="43.71826" lon="3.44588">
        <ele>420.4</ele>
        <time>2017-04-09T09:14:11Z</time>
      </trkpt>
      <trkpt lat="43.7183" lon="3.44597">
        <ele>420.8</ele>
        <time>2017-04-09T09:14:15Z</time>
      </trkpt>
      <trkpt lat="43.71836" lon="3.44589">
        <ele>421.6</ele>
        <time>2017-04-09T09:14:19Z</time>
      </trkpt>
      <trkpt lat="43.7184" lon="3.4458">
        <ele>422.5</ele>
        <time>2017-04-09T09:14:22Z</time>
      </trkpt>
      <trkpt lat="43.71847" lon="3.4457">
        <ele>423.4</ele>
        <time>2017-04-09T09:14:25Z</time>
      </trkpt>
      <trkpt lat="43.71854" lon="3.44564">
        <ele>424</ele>
        <time>2017-04-09T09:14:28Z</time>
      </trkpt>
      <trkpt lat="43.71862" lon="3.44558">
        <ele>424.4</ele>
        <time>2017-04-09T09:14:31Z</time>
      </trkpt>
      <trkpt lat="43.71869" lon="3.44553">
        <ele>424.8</ele>
        <time>2017-04-09T09:14:34Z</time>
      </trkpt>
      <trkpt lat="43.71876" lon="3.44549">
        <ele>425.5</ele>
        <time>2017-04-09T09:14:37Z</time>
      </trkpt>
      <trkpt lat="43.71884" lon="3.44544">
        <ele>426.1</ele>
        <time>2017-04-09T09:14:40Z</time>
      </trkpt>
      <trkpt lat="43.71892" lon="3.44541">
        <ele>426.8</ele>
        <time>2017-04-09T09:14:43Z</time>
      </trkpt>
      <trkpt lat="43.71902" lon="3.44537">
        <ele>427.8</ele>
        <time>2017-04-09T09:14:47Z</time>
      </trkpt>
      <trkpt lat="43.71909" lon="3.44535">
        <ele>428.5</ele>
        <time>2017-04-09T09:14:50Z</time>
      </trkpt>
      <trkpt lat="43.71918" lon="3.44533">
        <ele>429.3</ele>
        <time>2017-04-09T09:14:53Z</time>
      </trkpt>
      <trkpt lat="43.71925" lon="3.44532">
        <ele>430</ele>
        <time>2017-04-09T09:14:56Z</time>
      </trkpt>
      <trkpt lat="43.71933" lon="3.44533">
        <ele>430.9</ele>
        <time>2017-04-09T09:14:59Z</time>
      </trkpt>
      <trkpt lat="43.7194" lon="3.44534">
        <ele>431.9</ele>
        <time>2017-04-09T09:15:02Z</time>
      </trkpt>
      <trkpt lat="43.71947" lon="3.44536">
        <ele>433</ele>
        <time>2017-04-09T09:15:05Z</time>
      </trkpt>
      <trkpt lat="43.71955" lon="3.44538">
        <ele>433.9</ele>
        <time>2017-04-09T09:15:08Z</time>
      </trkpt>
      <trkpt lat="43.71962" lon="3.44542">
        <ele>434.7</ele>
        <time>2017-04-09T09:15:11Z</time>
      </trkpt>
      <trkpt lat="43.71969" lon="3.44547">
        <ele>435.3</ele>
        <time>2017-04-09T09:15:14Z</time>
      </trkpt>
      <trkpt lat="43.71976" lon="3.4455">
        <ele>435.9</ele>
        <time>2017-04-09T09:15:17Z</time>
      </trkpt>
      <trkpt lat="43.71983" lon="3.44554">
        <ele>436.3</ele>
        <time>2017-04-09T09:15:20Z</time>
      </trkpt>
      <trkpt lat="43.7199" lon="3.44557">
        <ele>437</ele>
        <time>2017-04-09T09:15:23Z</time>
      </trkpt>
      <trkpt lat="43.71998" lon="3.44561">
        <ele>437.8</ele>
        <time>2017-04-09T09:15:26Z</time>
      </trkpt>
      <trkpt lat="43.72005" lon="3.44564">
        <ele>438.5</ele>
        <time>2017-04-09T09:15:29Z</time>
      </trkpt>
      <trkpt lat="43.72013" lon="3.44567">
        <ele>439.2</ele>
        <time>2017-04-09T09:15:32Z</time>
      </trkpt>
      <trkpt lat="43.72021" lon="3.44568">
        <ele>440.1</ele>
        <time>2017-04-09T09:15:35Z</time>
      </trkpt>
      <trkpt lat="43.72031" lon="3.44567">
        <ele>441</ele>
        <time>2017-04-09T09:15:38Z</time>
      </trkpt>
      <trkpt lat="43.7204" lon="3.44566">
        <ele>441.9</ele>
        <time>2017-04-09T09:15:41Z</time>
      </trkpt>
      <trkpt lat="43.72048" lon="3.44565">
        <ele>442.9</ele>
        <time>2017-04-09T09:15:44Z</time>
      </trkpt>
      <trkpt lat="43.72055" lon="3.44563">
        <ele>444</ele>
        <time>2017-04-09T09:15:47Z</time>
      </trkpt>
      <trkpt lat="43.72063" lon="3.44562">
        <ele>445.1</ele>
        <time>2017-04-09T09:15:50Z</time>
      </trkpt>
      <trkpt lat="43.72072" lon="3.4456">
        <ele>446</ele>
        <time>2017-04-09T09:15:53Z</time>
      </trkpt>
      <trkpt lat="43.72079" lon="3.44556">
        <ele>446.7</ele>
        <time>2017-04-09T09:15:56Z</time>
      </trkpt>
      <trkpt lat="43.72088" lon="3.44552">
        <ele>447.4</ele>
        <time>2017-04-09T09:16:00Z</time>
      </trkpt>
      <trkpt lat="43.72095" lon="3.44547">
        <ele>448</ele>
        <time>2017-04-09T09:16:03Z</time>
      </trkpt>
      <trkpt lat="43.72103" lon="3.44541">
        <ele>448.6</ele>
        <time>2017-04-09T09:16:06Z</time>
      </trkpt>
      <trkpt lat="43.72109" lon="3.44535">
        <ele>449.4</ele>
        <time>2017-04-09T09:16:09Z</time>
      </trkpt>
      <trkpt lat="43.72117" lon="3.44527">
        <ele>450.5</ele>
        <time>2017-04-09T09:16:13Z</time>
      </trkpt>
      <trkpt lat="43.72124" lon="3.44519">
        <ele>450.8</ele>
        <time>2017-04-09T09:16:16Z</time>
      </trkpt>
      <trkpt lat="43.72129" lon="3.44511">
        <ele>450.8</ele>
        <time>2017-04-09T09:16:20Z</time>
      </trkpt>
      <trkpt lat="43.72134" lon="3.44501">
        <ele>451.2</ele>
        <time>2017-04-09T09:16:24Z</time>
      </trkpt>
      <trkpt lat="43.72139" lon="3.44492">
        <ele>452</ele>
        <time>2017-04-09T09:16:28Z</time>
      </trkpt>
      <trkpt lat="43.72143" lon="3.44485">
        <ele>452.3</ele>
        <time>2017-04-09T09:16:30Z</time>
      </trkpt>
      <trkpt lat="43.72149" lon="3.44476">
        <ele>452.5</ele>
        <time>2017-04-09T09:16:32Z</time>
      </trkpt>
      <trkpt lat="43.72149" lon="3.44472">
        <ele>452.9</ele>
        <time>2017-04-09T09:16:39Z</time>
      </trkpt>
      <trkpt lat="43.72154" lon="3.44471">
        <ele>453</ele>
        <time>2017-04-09T09:16:50Z</time>
      </trkpt>
      <trkpt lat="43.72157" lon="3.4447">
        <ele>453.1</ele>
        <time>2017-04-09T09:16:57Z</time>
      </trkpt>
      <trkpt lat="43.72159" lon="3.44458">
        <ele>456.7</ele>
        <time>2017-04-09T09:17:31Z</time>
      </trkpt>
      <trkpt lat="43.7216" lon="3.44446">
        <ele>458.1</ele>
        <time>2017-04-09T09:17:33Z</time>
      </trkpt>
      <trkpt lat="43.72163" lon="3.44429">
        <ele>459.3</ele>
        <time>2017-04-09T09:17:35Z</time>
      </trkpt>
      <trkpt lat="43.72165" lon="3.44419">
        <ele>459.5</ele>
        <time>2017-04-09T09:17:36Z</time>
      </trkpt>
      <trkpt lat="43.72169" lon="3.4441">
        <ele>458.5</ele>
        <time>2017-04-09T09:17:37Z</time>
      </trkpt>
      <trkpt lat="43.72173" lon="3.444">
        <ele>457</ele>
        <time>2017-04-09T09:17:38Z</time>
      </trkpt>
      <trkpt lat="43.72178" lon="3.44391">
        <ele>455.4</ele>
        <time>2017-04-09T09:17:39Z</time>
      </trkpt>
      <trkpt lat="43.72184" lon="3.44384">
        <ele>453.2</ele>
        <time>2017-04-09T09:17:40Z</time>
      </trkpt>
      <trkpt lat="43.7219" lon="3.44377">
        <ele>451.2</ele>
        <time>2017-04-09T09:17:41Z</time>
      </trkpt>
      <trkpt lat="43.72197" lon="3.44371">
        <ele>449.6</ele>
        <time>2017-04-09T09:17:42Z</time>
      </trkpt>
      <trkpt lat="43.7221" lon="3.44365">
        <ele>447.6</ele>
        <time>2017-04-09T09:17:44Z</time>
      </trkpt>
      <trkpt lat="43.72222" lon="3.44364">
        <ele>447</ele>
        <time>2017-04-09T09:17:46Z</time>
      </trkpt>
      <trkpt lat="43.72233" lon="3.44364">
        <ele>447.2</ele>
        <time>2017-04-09T09:17:48Z</time>
      </trkpt>
      <trkpt lat="43.7224" lon="3.44362">
        <ele>446.6</ele>
        <time>2017-04-09T09:17:49Z</time>
      </trkpt>
      <trkpt lat="43.72252" lon="3.44355">
        <ele>446.4</ele>
        <time>2017-04-09T09:17:51Z</time>
      </trkpt>
      <trkpt lat="43.7226" lon="3.44349">
        <ele>446.1</ele>
        <time>2017-04-09T09:17:53Z</time>
      </trkpt>
      <trkpt lat="43.72267" lon="3.44343">
        <ele>445.5</ele>
        <time>2017-04-09T09:17:55Z</time>
      </trkpt>
      <trkpt lat="43.72275" lon="3.44336">
        <ele>445.4</ele>
        <time>2017-04-09T09:17:57Z</time>
      </trkpt>
      <trkpt lat="43.72283" lon="3.44328">
        <ele>445.3</ele>
        <time>2017-04-09T09:17:59Z</time>
      </trkpt>
      <trkpt lat="43.72291" lon="3.4432">
        <ele>445.2</ele>
        <time>2017-04-09T09:18:01Z</time>
      </trkpt>
      <trkpt lat="43.72297" lon="3.44313">
        <ele>444.3</ele>
        <time>2017-04-09T09:18:03Z</time>
      </trkpt>
      <trkpt lat="43.72302" lon="3.44305">
        <ele>444.3</ele>
        <time>2017-04-09T09:18:05Z</time>
      </trkpt>
      <trkpt lat="43.72308" lon="3.44295">
        <ele>444.2</ele>
        <time>2017-04-09T09:18:08Z</time>
      </trkpt>
      <trkpt lat="43.72315" lon="3.44283">
        <ele>444</ele>
        <time>2017-04-09T09:18:11Z</time>
      </trkpt>
      <trkpt lat="43.72322" lon="3.44271">
        <ele>444.1</ele>
        <time>2017-04-09T09:18:14Z</time>
      </trkpt>
      <trkpt lat="43.72329" lon="3.44263">
        <ele>444.2</ele>
        <time>2017-04-09T09:18:17Z</time>
      </trkpt>
      <trkpt lat="43.72336" lon="3.44259">
        <ele>444.2</ele>
        <time>2017-04-09T09:18:19Z</time>
      </trkpt>
      <trkpt lat="43.72346" lon="3.44258">
        <ele>444.3</ele>
        <time>2017-04-09T09:18:22Z</time>
      </trkpt>
      <trkpt lat="43.72354" lon="3.44261">
        <ele>445.2</ele>
        <time>2017-04-09T09:18:24Z</time>
      </trkpt>
      <trkpt lat="43.72362" lon="3.44265">
        <ele>445.7</ele>
        <time>2017-04-09T09:18:26Z</time>
      </trkpt>
      <trkpt lat="43.72369" lon="3.44271">
        <ele>445.8</ele>
        <time>2017-04-09T09:18:28Z</time>
      </trkpt>
      <trkpt lat="43.72376" lon="3.44278">
        <ele>445.5</ele>
        <time>2017-04-09T09:18:30Z</time>
      </trkpt>
      <trkpt lat="43.72386" lon="3.44289">
        <ele>445.1</ele>
        <time>2017-04-09T09:18:32Z</time>
      </trkpt>
      <trkpt lat="43.72396" lon="3.443">
        <ele>445.1</ele>
        <time>2017-04-09T09:18:34Z</time>
      </trkpt>
      <trkpt lat="43.72406" lon="3.44309">
        <ele>445.6</ele>
        <time>2017-04-09T09:18:36Z</time>
      </trkpt>
      <trkpt lat="43.72417" lon="3.44317">
        <ele>445.6</ele>
        <time>2017-04-09T09:18:38Z</time>
      </trkpt>
      <trkpt lat="43.72423" lon="3.44323">
        <ele>444.8</ele>
        <time>2017-04-09T09:18:39Z</time>
      </trkpt>
      <trkpt lat="43.72434" lon="3.44335">
        <ele>445.7</ele>
        <time>2017-04-09T09:18:41Z</time>
      </trkpt>
      <trkpt lat="43.72441" lon="3.44343">
        <ele>445.3</ele>
        <time>2017-04-09T09:18:42Z</time>
      </trkpt>
      <trkpt lat="43.72446" lon="3.44351">
        <ele>444.9</ele>
        <time>2017-04-09T09:18:43Z</time>
      </trkpt>
      <trkpt lat="43.72451" lon="3.44358">
        <ele>444.7</ele>
        <time>2017-04-09T09:18:44Z</time>
      </trkpt>
      <trkpt lat="43.72457" lon="3.44366">
        <ele>444.3</ele>
        <time>2017-04-09T09:18:45Z</time>
      </trkpt>
      <trkpt lat="43.72462" lon="3.44374">
        <ele>444</ele>
        <time>2017-04-09T09:18:46Z</time>
      </trkpt>
      <trkpt lat="43.72468" lon="3.44381">
        <ele>443.1</ele>
        <time>2017-04-09T09:18:47Z</time>
      </trkpt>
      <trkpt lat="43.72479" lon="3.44389">
        <ele>441.8</ele>
        <time>2017-04-09T09:18:49Z</time>
      </trkpt>
      <trkpt lat="43.7249" lon="3.4439">
        <ele>441.1</ele>
        <time>2017-04-09T09:18:51Z</time>
      </trkpt>
      <trkpt lat="43.72499" lon="3.44389">
        <ele>440.8</ele>
        <time>2017-04-09T09:18:53Z</time>
      </trkpt>
      <trkpt lat="43.72507" lon="3.44388">
        <ele>441.5</ele>
        <time>2017-04-09T09:18:55Z</time>
      </trkpt>
      <trkpt lat="43.72516" lon="3.44386">
        <ele>441.6</ele>
        <time>2017-04-09T09:18:57Z</time>
      </trkpt>
      <trkpt lat="43.72524" lon="3.44386">
        <ele>441.7</ele>
        <time>2017-04-09T09:19:02Z</time>
      </trkpt>
      <trkpt lat="43.72516" lon="3.44392">
        <ele>441.9</ele>
        <time>2017-04-09T09:19:07Z</time>
      </trkpt>
      <trkpt lat="43.72507" lon="3.44396">
        <ele>442</ele>
        <time>2017-04-09T09:19:10Z</time>
      </trkpt>
      <trkpt lat="43.72504" lon="3.44406">
        <ele>442.1</ele>
        <time>2017-04-09T09:19:14Z</time>
      </trkpt>
      <trkpt lat="43.72512" lon="3.44408">
        <ele>442.7</ele>
        <time>2017-04-09T09:19:19Z</time>
      </trkpt>
      <trkpt lat="43.72522" lon="3.44409">
        <ele>443.2</ele>
        <time>2017-04-09T09:19:22Z</time>
      </trkpt>
      <trkpt lat="43.72532" lon="3.44414">
        <ele>443.8</ele>
        <time>2017-04-09T09:19:25Z</time>
      </trkpt>
      <trkpt lat="43.72539" lon="3.44417">
        <ele>444.4</ele>
        <time>2017-04-09T09:19:28Z</time>
      </trkpt>
      <trkpt lat="43.72547" lon="3.44422">
        <ele>445</ele>
        <time>2017-04-09T09:19:31Z</time>
      </trkpt>
      <trkpt lat="43.72553" lon="3.44427">
        <ele>445.4</ele>
        <time>2017-04-09T09:19:34Z</time>
      </trkpt>
      <trkpt lat="43.7256" lon="3.44434">
        <ele>445.7</ele>
        <time>2017-04-09T09:19:37Z</time>
      </trkpt>
      <trkpt lat="43.72566" lon="3.4444">
        <ele>446</ele>
        <time>2017-04-09T09:19:40Z</time>
      </trkpt>
      <trkpt lat="43.72573" lon="3.44447">
        <ele>446.2</ele>
        <time>2017-04-09T09:19:43Z</time>
      </trkpt>
      <trkpt lat="43.7258" lon="3.44453">
        <ele>446.6</ele>
        <time>2017-04-09T09:19:46Z</time>
      </trkpt>
      <trkpt lat="43.72586" lon="3.44459">
        <ele>447</ele>
        <time>2017-04-09T09:19:49Z</time>
      </trkpt>
      <trkpt lat="43.72593" lon="3.44467">
        <ele>447.8</ele>
        <time>2017-04-09T09:19:53Z</time>
      </trkpt>
      <trkpt lat="43.72599" lon="3.44473">
        <ele>448.4</ele>
        <time>2017-04-09T09:19:56Z</time>
      </trkpt>
      <trkpt lat="43.72605" lon="3.44482">
        <ele>449</ele>
        <time>2017-04-09T09:20:00Z</time>
      </trkpt>
      <trkpt lat="43.72607" lon="3.44492">
        <ele>449.5</ele>
        <time>2017-04-09T09:20:03Z</time>
      </trkpt>
      <trkpt lat="43.72608" lon="3.44505">
        <ele>450</ele>
        <time>2017-04-09T09:20:07Z</time>
      </trkpt>
      <trkpt lat="43.72606" lon="3.44517">
        <ele>450.3</ele>
        <time>2017-04-09T09:20:11Z</time>
      </trkpt>
      <trkpt lat="43.72602" lon="3.44529">
        <ele>450.7</ele>
        <time>2017-04-09T09:20:16Z</time>
      </trkpt>
      <trkpt lat="43.726" lon="3.44541">
        <ele>451.3</ele>
        <time>2017-04-09T09:20:21Z</time>
      </trkpt>
      <trkpt lat="43.72603" lon="3.44551">
        <ele>451.3</ele>
        <time>2017-04-09T09:20:24Z</time>
      </trkpt>
      <trkpt lat="43.72608" lon="3.44559">
        <ele>451.3</ele>
        <time>2017-04-09T09:20:27Z</time>
      </trkpt>
      <trkpt lat="43.72615" lon="3.44567">
        <ele>451.6</ele>
        <time>2017-04-09T09:20:31Z</time>
      </trkpt>
      <trkpt lat="43.72622" lon="3.44573">
        <ele>452.2</ele>
        <time>2017-04-09T09:20:35Z</time>
      </trkpt>
      <trkpt lat="43.72628" lon="3.44578">
        <ele>453.4</ele>
        <time>2017-04-09T09:20:39Z</time>
      </trkpt>
      <trkpt lat="43.72635" lon="3.44584">
        <ele>454.3</ele>
        <time>2017-04-09T09:20:42Z</time>
      </trkpt>
      <trkpt lat="43.72643" lon="3.4459">
        <ele>455.3</ele>
        <time>2017-04-09T09:20:45Z</time>
      </trkpt>
      <trkpt lat="43.72649" lon="3.44595">
        <ele>456.2</ele>
        <time>2017-04-09T09:20:48Z</time>
      </trkpt>
      <trkpt lat="43.72656" lon="3.44602">
        <ele>457.2</ele>
        <time>2017-04-09T09:20:51Z</time>
      </trkpt>
      <trkpt lat="43.72663" lon="3.44609">
        <ele>458.2</ele>
        <time>2017-04-09T09:20:55Z</time>
      </trkpt>
      <trkpt lat="43.72669" lon="3.44616">
        <ele>459</ele>
        <time>2017-04-09T09:20:58Z</time>
      </trkpt>
      <trkpt lat="43.72673" lon="3.44625">
        <ele>459.7</ele>
        <time>2017-04-09T09:21:01Z</time>
      </trkpt>
      <trkpt lat="43.72679" lon="3.44633">
        <ele>460.4</ele>
        <time>2017-04-09T09:21:04Z</time>
      </trkpt>
      <trkpt lat="43.72686" lon="3.44641">
        <ele>461.6</ele>
        <time>2017-04-09T09:21:08Z</time>
      </trkpt>
      <trkpt lat="43.72693" lon="3.44646">
        <ele>462.4</ele>
        <time>2017-04-09T09:21:11Z</time>
      </trkpt>
      <trkpt lat="43.727" lon="3.44651">
        <ele>463.1</ele>
        <time>2017-04-09T09:21:14Z</time>
      </trkpt>
      <trkpt lat="43.72708" lon="3.44656">
        <ele>464</ele>
        <time>2017-04-09T09:21:18Z</time>
      </trkpt>
      <trkpt lat="43.72716" lon="3.44661">
        <ele>464.8</ele>
        <time>2017-04-09T09:21:21Z</time>
      </trkpt>
      <trkpt lat="43.72724" lon="3.44665">
        <ele>465.7</ele>
        <time>2017-04-09T09:21:24Z</time>
      </trkpt>
      <trkpt lat="43.72733" lon="3.44668">
        <ele>467.2</ele>
        <time>2017-04-09T09:21:28Z</time>
      </trkpt>
      <trkpt lat="43.72741" lon="3.44668">
        <ele>468.3</ele>
        <time>2017-04-09T09:21:31Z</time>
      </trkpt>
      <trkpt lat="43.72749" lon="3.44667">
        <ele>469.4</ele>
        <time>2017-04-09T09:21:34Z</time>
      </trkpt>
      <trkpt lat="43.72758" lon="3.44664">
        <ele>470.3</ele>
        <time>2017-04-09T09:21:37Z</time>
      </trkpt>
      <trkpt lat="43.72768" lon="3.44664">
        <ele>471.8</ele>
        <time>2017-04-09T09:21:41Z</time>
      </trkpt>
      <trkpt lat="43.72777" lon="3.44665">
        <ele>473</ele>
        <time>2017-04-09T09:21:44Z</time>
      </trkpt>
      <trkpt lat="43.72785" lon="3.44662">
        <ele>474.2</ele>
        <time>2017-04-09T09:21:47Z</time>
      </trkpt>
      <trkpt lat="43.72793" lon="3.44661">
        <ele>475.7</ele>
        <time>2017-04-09T09:21:51Z</time>
      </trkpt>
      <trkpt lat="43.72801" lon="3.44657">
        <ele>476.3</ele>
        <time>2017-04-09T09:21:53Z</time>
      </trkpt>
      <trkpt lat="43.72809" lon="3.44654">
        <ele>476.8</ele>
        <time>2017-04-09T09:21:56Z</time>
      </trkpt>
      <trkpt lat="43.72817" lon="3.44651">
        <ele>477.3</ele>
        <time>2017-04-09T09:21:59Z</time>
      </trkpt>
      <trkpt lat="43.72826" lon="3.44647">
        <ele>477.8</ele>
        <time>2017-04-09T09:22:03Z</time>
      </trkpt>
      <trkpt lat="43.72836" lon="3.44644">
        <ele>478.2</ele>
        <time>2017-04-09T09:22:08Z</time>
      </trkpt>
      <trkpt lat="43.72844" lon="3.44637">
        <ele>478.2</ele>
        <time>2017-04-09T09:22:10Z</time>
      </trkpt>
      <trkpt lat="43.72852" lon="3.4463">
        <ele>478.2</ele>
        <time>2017-04-09T09:22:13Z</time>
      </trkpt>
      <trkpt lat="43.72861" lon="3.44626">
        <ele>478.5</ele>
        <time>2017-04-09T09:22:17Z</time>
      </trkpt>
      <trkpt lat="43.72868" lon="3.44622">
        <ele>478.7</ele>
        <time>2017-04-09T09:22:20Z</time>
      </trkpt>
      <trkpt lat="43.72875" lon="3.44619">
        <ele>479.1</ele>
        <time>2017-04-09T09:22:23Z</time>
      </trkpt>
      <trkpt lat="43.72884" lon="3.44617">
        <ele>479.6</ele>
        <time>2017-04-09T09:22:26Z</time>
      </trkpt>
      <trkpt lat="43.72892" lon="3.44613">
        <ele>480.2</ele>
        <time>2017-04-09T09:22:29Z</time>
      </trkpt>
      <trkpt lat="43.72901" lon="3.44609">
        <ele>480.8</ele>
        <time>2017-04-09T09:22:32Z</time>
      </trkpt>
      <trkpt lat="43.7291" lon="3.44605">
        <ele>481.1</ele>
        <time>2017-04-09T09:22:35Z</time>
      </trkpt>
      <trkpt lat="43.72919" lon="3.44602">
        <ele>481.3</ele>
        <time>2017-04-09T09:22:38Z</time>
      </trkpt>
      <trkpt lat="43.72926" lon="3.44599">
        <ele>481.5</ele>
        <time>2017-04-09T09:22:40Z</time>
      </trkpt>
      <trkpt lat="43.72934" lon="3.44595">
        <ele>481.6</ele>
        <time>2017-04-09T09:22:44Z</time>
      </trkpt>
      <trkpt lat="43.72942" lon="3.44592">
        <ele>481.9</ele>
        <time>2017-04-09T09:22:47Z</time>
      </trkpt>
      <trkpt lat="43.7295" lon="3.44587">
        <ele>482.2</ele>
        <time>2017-04-09T09:22:50Z</time>
      </trkpt>
      <trkpt lat="43.72958" lon="3.44583">
        <ele>483.4</ele>
        <time>2017-04-09T09:22:55Z</time>
      </trkpt>
      <trkpt lat="43.72965" lon="3.44577">
        <ele>484.4</ele>
        <time>2017-04-09T09:22:59Z</time>
      </trkpt>
      <trkpt lat="43.72972" lon="3.44574">
        <ele>485.1</ele>
        <time>2017-04-09T09:23:01Z</time>
      </trkpt>
      <trkpt lat="43.72981" lon="3.44568">
        <ele>486.2</ele>
        <time>2017-04-09T09:23:04Z</time>
      </trkpt>
      <trkpt lat="43.72991" lon="3.44565">
        <ele>487.5</ele>
        <time>2017-04-09T09:23:08Z</time>
      </trkpt>
      <trkpt lat="43.72999" lon="3.44564">
        <ele>488.6</ele>
        <time>2017-04-09T09:23:11Z</time>
      </trkpt>
      <trkpt lat="43.73009" lon="3.44565">
        <ele>489.7</ele>
        <time>2017-04-09T09:23:14Z</time>
      </trkpt>
      <trkpt lat="43.73017" lon="3.44567">
        <ele>490.4</ele>
        <time>2017-04-09T09:23:17Z</time>
      </trkpt>
      <trkpt lat="43.73026" lon="3.44573">
        <ele>490.6</ele>
        <time>2017-04-09T09:23:20Z</time>
      </trkpt>
      <trkpt lat="43.73032" lon="3.4458">
        <ele>490.6</ele>
        <time>2017-04-09T09:23:23Z</time>
      </trkpt>
      <trkpt lat="43.73038" lon="3.44588">
        <ele>490.6</ele>
        <time>2017-04-09T09:23:26Z</time>
      </trkpt>
      <trkpt lat="43.73044" lon="3.44595">
        <ele>490.8</ele>
        <time>2017-04-09T09:23:29Z</time>
      </trkpt>
      <trkpt lat="43.7305" lon="3.44603">
        <ele>491</ele>
        <time>2017-04-09T09:23:32Z</time>
      </trkpt>
      <trkpt lat="43.73056" lon="3.44611">
        <ele>491</ele>
        <time>2017-04-09T09:23:35Z</time>
      </trkpt>
      <trkpt lat="43.7306" lon="3.44621">
        <ele>491.1</ele>
        <time>2017-04-09T09:23:38Z</time>
      </trkpt>
      <trkpt lat="43.73065" lon="3.44632">
        <ele>491.2</ele>
        <time>2017-04-09T09:23:42Z</time>
      </trkpt>
      <trkpt lat="43.73071" lon="3.44642">
        <ele>491.4</ele>
        <time>2017-04-09T09:23:46Z</time>
      </trkpt>
      <trkpt lat="43.73075" lon="3.4465">
        <ele>491.8</ele>
        <time>2017-04-09T09:23:49Z</time>
      </trkpt>
      <trkpt lat="43.73079" lon="3.4466">
        <ele>492.1</ele>
        <time>2017-04-09T09:23:52Z</time>
      </trkpt>
      <trkpt lat="43.73082" lon="3.44672">
        <ele>492.2</ele>
        <time>2017-04-09T09:23:55Z</time>
      </trkpt>
      <trkpt lat="43.73084" lon="3.44683">
        <ele>492.5</ele>
        <time>2017-04-09T09:23:59Z</time>
      </trkpt>
      <trkpt lat="43.73086" lon="3.44694">
        <ele>492.7</ele>
        <time>2017-04-09T09:24:02Z</time>
      </trkpt>
      <trkpt lat="43.73089" lon="3.44706">
        <ele>492.8</ele>
        <time>2017-04-09T09:24:07Z</time>
      </trkpt>
      <trkpt lat="43.73091" lon="3.44716">
        <ele>493</ele>
        <time>2017-04-09T09:24:10Z</time>
      </trkpt>
      <trkpt lat="43.73094" lon="3.44727">
        <ele>493.2</ele>
        <time>2017-04-09T09:24:13Z</time>
      </trkpt>
      <trkpt lat="43.73096" lon="3.44738">
        <ele>493.8</ele>
        <time>2017-04-09T09:24:17Z</time>
      </trkpt>
      <trkpt lat="43.73097" lon="3.44748">
        <ele>494.2</ele>
        <time>2017-04-09T09:24:20Z</time>
      </trkpt>
      <trkpt lat="43.73096" lon="3.44761">
        <ele>495.2</ele>
        <time>2017-04-09T09:24:24Z</time>
      </trkpt>
      <trkpt lat="43.73098" lon="3.44772">
        <ele>495.8</ele>
        <time>2017-04-09T09:24:27Z</time>
      </trkpt>
      <trkpt lat="43.73099" lon="3.44784">
        <ele>496.3</ele>
        <time>2017-04-09T09:24:30Z</time>
      </trkpt>
      <trkpt lat="43.73101" lon="3.44794">
        <ele>496.6</ele>
        <time>2017-04-09T09:24:33Z</time>
      </trkpt>
      <trkpt lat="43.73104" lon="3.44804">
        <ele>496.9</ele>
        <time>2017-04-09T09:24:36Z</time>
      </trkpt>
      <trkpt lat="43.73108" lon="3.44813">
        <ele>497.4</ele>
        <time>2017-04-09T09:24:40Z</time>
      </trkpt>
      <trkpt lat="43.73113" lon="3.44821">
        <ele>498</ele>
        <time>2017-04-09T09:24:44Z</time>
      </trkpt>
      <trkpt lat="43.7312" lon="3.44829">
        <ele>498.5</ele>
        <time>2017-04-09T09:24:47Z</time>
      </trkpt>
      <trkpt lat="43.73128" lon="3.44837">
        <ele>499</ele>
        <time>2017-04-09T09:24:50Z</time>
      </trkpt>
      <trkpt lat="43.73134" lon="3.44845">
        <ele>499.3</ele>
        <time>2017-04-09T09:24:53Z</time>
      </trkpt>
      <trkpt lat="43.7314" lon="3.44856">
        <ele>499.6</ele>
        <time>2017-04-09T09:24:56Z</time>
      </trkpt>
      <trkpt lat="43.73141" lon="3.44866">
        <ele>499.9</ele>
        <time>2017-04-09T09:24:59Z</time>
      </trkpt>
      <trkpt lat="43.73135" lon="3.44873">
        <ele>499.9</ele>
        <time>2017-04-09T09:25:04Z</time>
      </trkpt>
      <trkpt lat="43.73128" lon="3.44875">
        <ele>499.7</ele>
        <time>2017-04-09T09:25:07Z</time>
      </trkpt>
      <trkpt lat="43.7312" lon="3.44874">
        <ele>499.6</ele>
        <time>2017-04-09T09:25:10Z</time>
      </trkpt>
      <trkpt lat="43.73112" lon="3.44873">
        <ele>499.4</ele>
        <time>2017-04-09T09:25:14Z</time>
      </trkpt>
      <trkpt lat="43.73104" lon="3.44871">
        <ele>499.5</ele>
        <time>2017-04-09T09:25:18Z</time>
      </trkpt>
      <trkpt lat="43.73094" lon="3.4487">
        <ele>499.6</ele>
        <time>2017-04-09T09:25:21Z</time>
      </trkpt>
      <trkpt lat="43.73086" lon="3.44867">
        <ele>499.8</ele>
        <time>2017-04-09T09:25:25Z</time>
      </trkpt>
      <trkpt lat="43.73078" lon="3.44866">
        <ele>500.3</ele>
        <time>2017-04-09T09:25:30Z</time>
      </trkpt>
      <trkpt lat="43.73069" lon="3.44864">
        <ele>501</ele>
        <time>2017-04-09T09:25:35Z</time>
      </trkpt>
      <trkpt lat="43.73062" lon="3.44863">
        <ele>501.6</ele>
        <time>2017-04-09T09:25:39Z</time>
      </trkpt>
      <trkpt lat="43.73054" lon="3.44862">
        <ele>502.5</ele>
        <time>2017-04-09T09:25:44Z</time>
      </trkpt>
      <trkpt lat="43.73045" lon="3.44862">
        <ele>503.4</ele>
        <time>2017-04-09T09:25:49Z</time>
      </trkpt>
      <trkpt lat="43.73037" lon="3.44861">
        <ele>504.1</ele>
        <time>2017-04-09T09:25:53Z</time>
      </trkpt>
      <trkpt lat="43.73028" lon="3.44859">
        <ele>504.8</ele>
        <time>2017-04-09T09:25:57Z</time>
      </trkpt>
      <trkpt lat="43.7302" lon="3.44857">
        <ele>505.5</ele>
        <time>2017-04-09T09:26:01Z</time>
      </trkpt>
      <trkpt lat="43.73012" lon="3.44856">
        <ele>506.5</ele>
        <time>2017-04-09T09:26:06Z</time>
      </trkpt>
      <trkpt lat="43.73003" lon="3.44857">
        <ele>507.3</ele>
        <time>2017-04-09T09:26:10Z</time>
      </trkpt>
      <trkpt lat="43.72995" lon="3.44858">
        <ele>507.9</ele>
        <time>2017-04-09T09:26:14Z</time>
      </trkpt>
      <trkpt lat="43.72986" lon="3.4486">
        <ele>508.3</ele>
        <time>2017-04-09T09:26:18Z</time>
      </trkpt>
      <trkpt lat="43.72977" lon="3.44862">
        <ele>508.9</ele>
        <time>2017-04-09T09:26:22Z</time>
      </trkpt>
      <trkpt lat="43.72968" lon="3.44863">
        <ele>509.6</ele>
        <time>2017-04-09T09:26:26Z</time>
      </trkpt>
      <trkpt lat="43.7296" lon="3.44864">
        <ele>510</ele>
        <time>2017-04-09T09:26:29Z</time>
      </trkpt>
      <trkpt lat="43.72952" lon="3.44862">
        <ele>510.5</ele>
        <time>2017-04-09T09:26:32Z</time>
      </trkpt>
      <trkpt lat="43.72943" lon="3.44861">
        <ele>511.3</ele>
        <time>2017-04-09T09:26:37Z</time>
      </trkpt>
      <trkpt lat="43.72936" lon="3.44858">
        <ele>511.8</ele>
        <time>2017-04-09T09:26:40Z</time>
      </trkpt>
      <trkpt lat="43.72927" lon="3.44857">
        <ele>513</ele>
        <time>2017-04-09T09:26:45Z</time>
      </trkpt>
      <trkpt lat="43.72921" lon="3.44852">
        <ele>514.6</ele>
        <time>2017-04-09T09:26:49Z</time>
      </trkpt>
      <trkpt lat="43.72914" lon="3.44846">
        <ele>515.4</ele>
        <time>2017-04-09T09:26:52Z</time>
      </trkpt>
      <trkpt lat="43.72905" lon="3.44841">
        <ele>516</ele>
        <time>2017-04-09T09:26:56Z</time>
      </trkpt>
      <trkpt lat="43.72897" lon="3.44839">
        <ele>516.2</ele>
        <time>2017-04-09T09:26:59Z</time>
      </trkpt>
      <trkpt lat="43.72885" lon="3.4484">
        <ele>516.5</ele>
        <time>2017-04-09T09:27:01Z</time>
      </trkpt>
      <trkpt lat="43.72878" lon="3.44842">
        <ele>516.9</ele>
        <time>2017-04-09T09:27:02Z</time>
      </trkpt>
      <trkpt lat="43.72867" lon="3.44845">
        <ele>517.9</ele>
        <time>2017-04-09T09:27:04Z</time>
      </trkpt>
      <trkpt lat="43.72855" lon="3.44848">
        <ele>518.1</ele>
        <time>2017-04-09T09:27:06Z</time>
      </trkpt>
      <trkpt lat="43.72843" lon="3.44848">
        <ele>518.5</ele>
        <time>2017-04-09T09:27:08Z</time>
      </trkpt>
      <trkpt lat="43.72836" lon="3.44848">
        <ele>518.5</ele>
        <time>2017-04-09T09:27:09Z</time>
      </trkpt>
      <trkpt lat="43.72821" lon="3.44847">
        <ele>518.3</ele>
        <time>2017-04-09T09:27:11Z</time>
      </trkpt>
      <trkpt lat="43.72813" lon="3.44846">
        <ele>517.9</ele>
        <time>2017-04-09T09:27:12Z</time>
      </trkpt>
      <trkpt lat="43.72805" lon="3.44845">
        <ele>517.1</ele>
        <time>2017-04-09T09:27:13Z</time>
      </trkpt>
      <trkpt lat="43.72796" lon="3.44843">
        <ele>516.7</ele>
        <time>2017-04-09T09:27:14Z</time>
      </trkpt>
      <trkpt lat="43.72789" lon="3.44841">
        <ele>516.1</ele>
        <time>2017-04-09T09:27:15Z</time>
      </trkpt>
      <trkpt lat="43.7278" lon="3.4484">
        <ele>515.4</ele>
        <time>2017-04-09T09:27:16Z</time>
      </trkpt>
      <trkpt lat="43.72771" lon="3.44838">
        <ele>514.8</ele>
        <time>2017-04-09T09:27:17Z</time>
      </trkpt>
      <trkpt lat="43.72763" lon="3.44837">
        <ele>514</ele>
        <time>2017-04-09T09:27:18Z</time>
      </trkpt>
      <trkpt lat="43.72754" lon="3.44838">
        <ele>513.3</ele>
        <time>2017-04-09T09:27:19Z</time>
      </trkpt>
      <trkpt lat="43.72746" lon="3.4484">
        <ele>512.4</ele>
        <time>2017-04-09T09:27:20Z</time>
      </trkpt>
      <trkpt lat="43.72739" lon="3.44839">
        <ele>511.6</ele>
        <time>2017-04-09T09:27:21Z</time>
      </trkpt>
      <trkpt lat="43.72728" lon="3.44838">
        <ele>510.4</ele>
        <time>2017-04-09T09:27:23Z</time>
      </trkpt>
      <trkpt lat="43.72719" lon="3.44838">
        <ele>510.3</ele>
        <time>2017-04-09T09:27:26Z</time>
      </trkpt>
      <trkpt lat="43.72711" lon="3.44837">
        <ele>509.5</ele>
        <time>2017-04-09T09:27:28Z</time>
      </trkpt>
      <trkpt lat="43.72703" lon="3.44835">
        <ele>509.5</ele>
        <time>2017-04-09T09:27:30Z</time>
      </trkpt>
      <trkpt lat="43.72694" lon="3.44835">
        <ele>509.6</ele>
        <time>2017-04-09T09:27:33Z</time>
      </trkpt>
      <trkpt lat="43.72686" lon="3.44835">
        <ele>509.8</ele>
        <time>2017-04-09T09:27:37Z</time>
      </trkpt>
      <trkpt lat="43.72676" lon="3.44835">
        <ele>509.8</ele>
        <time>2017-04-09T09:27:41Z</time>
      </trkpt>
      <trkpt lat="43.72666" lon="3.44836">
        <ele>509.8</ele>
        <time>2017-04-09T09:27:43Z</time>
      </trkpt>
      <trkpt lat="43.72656" lon="3.44838">
        <ele>510.8</ele>
        <time>2017-04-09T09:27:46Z</time>
      </trkpt>
      <trkpt lat="43.72648" lon="3.44838">
        <ele>510.2</ele>
        <time>2017-04-09T09:27:48Z</time>
      </trkpt>
      <trkpt lat="43.72639" lon="3.44835">
        <ele>508.8</ele>
        <time>2017-04-09T09:27:50Z</time>
      </trkpt>
      <trkpt lat="43.7263" lon="3.44834">
        <ele>507.7</ele>
        <time>2017-04-09T09:27:52Z</time>
      </trkpt>
      <trkpt lat="43.72618" lon="3.44833">
        <ele>507.4</ele>
        <time>2017-04-09T09:27:54Z</time>
      </trkpt>
      <trkpt lat="43.72606" lon="3.44832">
        <ele>508.2</ele>
        <time>2017-04-09T09:27:56Z</time>
      </trkpt>
      <trkpt lat="43.72597" lon="3.44832">
        <ele>509.3</ele>
        <time>2017-04-09T09:27:58Z</time>
      </trkpt>
      <trkpt lat="43.72587" lon="3.44827">
        <ele>508.9</ele>
        <time>2017-04-09T09:28:00Z</time>
      </trkpt>
      <trkpt lat="43.72579" lon="3.44825">
        <ele>510.1</ele>
        <time>2017-04-09T09:28:02Z</time>
      </trkpt>
      <trkpt lat="43.7257" lon="3.44823">
        <ele>511.2</ele>
        <time>2017-04-09T09:28:04Z</time>
      </trkpt>
      <trkpt lat="43.7256" lon="3.44821">
        <ele>512</ele>
        <time>2017-04-09T09:28:07Z</time>
      </trkpt>
      <trkpt lat="43.72552" lon="3.4482">
        <ele>512.1</ele>
        <time>2017-04-09T09:28:09Z</time>
      </trkpt>
      <trkpt lat="43.72544" lon="3.44819">
        <ele>512.1</ele>
        <time>2017-04-09T09:28:11Z</time>
      </trkpt>
      <trkpt lat="43.72534" lon="3.4482">
        <ele>512.3</ele>
        <time>2017-04-09T09:28:13Z</time>
      </trkpt>
      <trkpt lat="43.72524" lon="3.4482">
        <ele>512.3</ele>
        <time>2017-04-09T09:28:15Z</time>
      </trkpt>
      <trkpt lat="43.72511" lon="3.44821">
        <ele>511.2</ele>
        <time>2017-04-09T09:28:17Z</time>
      </trkpt>
      <trkpt lat="43.725" lon="3.44822">
        <ele>510</ele>
        <time>2017-04-09T09:28:19Z</time>
      </trkpt>
      <trkpt lat="43.7249" lon="3.44821">
        <ele>510</ele>
        <time>2017-04-09T09:28:21Z</time>
      </trkpt>
      <trkpt lat="43.72479" lon="3.44821">
        <ele>510.8</ele>
        <time>2017-04-09T09:28:23Z</time>
      </trkpt>
      <trkpt lat="43.7247" lon="3.44819">
        <ele>511.2</ele>
        <time>2017-04-09T09:28:25Z</time>
      </trkpt>
      <trkpt lat="43.72458" lon="3.44817">
        <ele>510.9</ele>
        <time>2017-04-09T09:28:27Z</time>
      </trkpt>
      <trkpt lat="43.72449" lon="3.44815">
        <ele>510.5</ele>
        <time>2017-04-09T09:28:29Z</time>
      </trkpt>
      <trkpt lat="43.72442" lon="3.44815">
        <ele>510.8</ele>
        <time>2017-04-09T09:28:31Z</time>
      </trkpt>
      <trkpt lat="43.72434" lon="3.44818">
        <ele>510.8</ele>
        <time>2017-04-09T09:28:33Z</time>
      </trkpt>
      <trkpt lat="43.72425" lon="3.44822">
        <ele>510.9</ele>
        <time>2017-04-09T09:28:36Z</time>
      </trkpt>
      <trkpt lat="43.72418" lon="3.44826">
        <ele>511</ele>
        <time>2017-04-09T09:28:38Z</time>
      </trkpt>
      <trkpt lat="43.7241" lon="3.4483">
        <ele>511.1</ele>
        <time>2017-04-09T09:28:41Z</time>
      </trkpt>
      <trkpt lat="43.72402" lon="3.44834">
        <ele>511.2</ele>
        <time>2017-04-09T09:28:43Z</time>
      </trkpt>
      <trkpt lat="43.72395" lon="3.44837">
        <ele>511.4</ele>
        <time>2017-04-09T09:28:45Z</time>
      </trkpt>
      <trkpt lat="43.72383" lon="3.44839">
        <ele>512</ele>
        <time>2017-04-09T09:28:48Z</time>
      </trkpt>
      <trkpt lat="43.72372" lon="3.44842">
        <ele>512.2</ele>
        <time>2017-04-09T09:28:52Z</time>
      </trkpt>
      <trkpt lat="43.72362" lon="3.44843">
        <ele>512.2</ele>
        <time>2017-04-09T09:28:54Z</time>
      </trkpt>
      <trkpt lat="43.72355" lon="3.44842">
        <ele>512.2</ele>
        <time>2017-04-09T09:28:56Z</time>
      </trkpt>
      <trkpt lat="43.72345" lon="3.44841">
        <ele>512.2</ele>
        <time>2017-04-09T09:28:58Z</time>
      </trkpt>
      <trkpt lat="43.72337" lon="3.4484">
        <ele>512.2</ele>
        <time>2017-04-09T09:29:00Z</time>
      </trkpt>
      <trkpt lat="43.7233" lon="3.44836">
        <ele>512.2</ele>
        <time>2017-04-09T09:29:03Z</time>
      </trkpt>
      <trkpt lat="43.7232" lon="3.44834">
        <ele>512.1</ele>
        <time>2017-04-09T09:29:06Z</time>
      </trkpt>
      <trkpt lat="43.72312" lon="3.44831">
        <ele>512.2</ele>
        <time>2017-04-09T09:29:09Z</time>
      </trkpt>
      <trkpt lat="43.72303" lon="3.44825">
        <ele>512.3</ele>
        <time>2017-04-09T09:29:12Z</time>
      </trkpt>
      <trkpt lat="43.72296" lon="3.44819">
        <ele>512.5</ele>
        <time>2017-04-09T09:29:15Z</time>
      </trkpt>
      <trkpt lat="43.72289" lon="3.44812">
        <ele>512.9</ele>
        <time>2017-04-09T09:29:19Z</time>
      </trkpt>
      <trkpt lat="43.7228" lon="3.4481">
        <ele>513.4</ele>
        <time>2017-04-09T09:29:24Z</time>
      </trkpt>
      <trkpt lat="43.7227" lon="3.44814">
        <ele>513.5</ele>
        <time>2017-04-09T09:29:27Z</time>
      </trkpt>
      <trkpt lat="43.7226" lon="3.44819">
        <ele>513.8</ele>
        <time>2017-04-09T09:29:30Z</time>
      </trkpt>
      <trkpt lat="43.72252" lon="3.44826">
        <ele>514</ele>
        <time>2017-04-09T09:29:33Z</time>
      </trkpt>
      <trkpt lat="43.72244" lon="3.44831">
        <ele>514.3</ele>
        <time>2017-04-09T09:29:36Z</time>
      </trkpt>
      <trkpt lat="43.72237" lon="3.44836">
        <ele>514.6</ele>
        <time>2017-04-09T09:29:39Z</time>
      </trkpt>
      <trkpt lat="43.7223" lon="3.44841">
        <ele>514.8</ele>
        <time>2017-04-09T09:29:42Z</time>
      </trkpt>
      <trkpt lat="43.72223" lon="3.44851">
        <ele>515.1</ele>
        <time>2017-04-09T09:29:46Z</time>
      </trkpt>
      <trkpt lat="43.72217" lon="3.44859">
        <ele>515.8</ele>
        <time>2017-04-09T09:29:50Z</time>
      </trkpt>
      <trkpt lat="43.72211" lon="3.44865">
        <ele>516.2</ele>
        <time>2017-04-09T09:29:53Z</time>
      </trkpt>
      <trkpt lat="43.72203" lon="3.4487">
        <ele>516.4</ele>
        <time>2017-04-09T09:29:57Z</time>
      </trkpt>
      <trkpt lat="43.72194" lon="3.44874">
        <ele>516.6</ele>
        <time>2017-04-09T09:30:01Z</time>
      </trkpt>
      <trkpt lat="43.72187" lon="3.44877">
        <ele>516.7</ele>
        <time>2017-04-09T09:30:04Z</time>
      </trkpt>
      <trkpt lat="43.7218" lon="3.44881">
        <ele>517.1</ele>
        <time>2017-04-09T09:30:08Z</time>
      </trkpt>
      <trkpt lat="43.72172" lon="3.44883">
        <ele>517.4</ele>
        <time>2017-04-09T09:30:11Z</time>
      </trkpt>
      <trkpt lat="43.72165" lon="3.44884">
        <ele>517.6</ele>
        <time>2017-04-09T09:30:14Z</time>
      </trkpt>
      <trkpt lat="43.72157" lon="3.44885">
        <ele>517.8</ele>
        <time>2017-04-09T09:30:17Z</time>
      </trkpt>
      <trkpt lat="43.72149" lon="3.44884">
        <ele>518.4</ele>
        <time>2017-04-09T09:30:21Z</time>
      </trkpt>
      <trkpt lat="43.72142" lon="3.44881">
        <ele>518.9</ele>
        <time>2017-04-09T09:30:25Z</time>
      </trkpt>
      <trkpt lat="43.72134" lon="3.44876">
        <ele>519.3</ele>
        <time>2017-04-09T09:30:28Z</time>
      </trkpt>
      <trkpt lat="43.72125" lon="3.44872">
        <ele>522.1</ele>
        <time>2017-04-09T09:30:30Z</time>
      </trkpt>
      <trkpt lat="43.72112" lon="3.44868">
        <ele>523.5</ele>
        <time>2017-04-09T09:30:32Z</time>
      </trkpt>
      <trkpt lat="43.72098" lon="3.44862">
        <ele>524.4</ele>
        <time>2017-04-09T09:30:34Z</time>
      </trkpt>
      <trkpt lat="43.72084" lon="3.44857">
        <ele>524.6</ele>
        <time>2017-04-09T09:30:36Z</time>
      </trkpt>
      <trkpt lat="43.72073" lon="3.4485">
        <ele>524.2</ele>
        <time>2017-04-09T09:30:38Z</time>
      </trkpt>
      <trkpt lat="43.72062" lon="3.44844">
        <ele>524</ele>
        <time>2017-04-09T09:30:40Z</time>
      </trkpt>
      <trkpt lat="43.7205" lon="3.44837">
        <ele>524.2</ele>
        <time>2017-04-09T09:30:42Z</time>
      </trkpt>
      <trkpt lat="43.72039" lon="3.4483">
        <ele>524.1</ele>
        <time>2017-04-09T09:30:44Z</time>
      </trkpt>
      <trkpt lat="43.72026" lon="3.44823">
        <ele>523.5</ele>
        <time>2017-04-09T09:30:46Z</time>
      </trkpt>
      <trkpt lat="43.72018" lon="3.44818">
        <ele>523.3</ele>
        <time>2017-04-09T09:30:47Z</time>
      </trkpt>
      <trkpt lat="43.72011" lon="3.44815">
        <ele>522.4</ele>
        <time>2017-04-09T09:30:48Z</time>
      </trkpt>
      <trkpt lat="43.72002" lon="3.44815">
        <ele>521.3</ele>
        <time>2017-04-09T09:30:49Z</time>
      </trkpt>
      <trkpt lat="43.71994" lon="3.44814">
        <ele>520</ele>
        <time>2017-04-09T09:30:50Z</time>
      </trkpt>
      <trkpt lat="43.71985" lon="3.44816">
        <ele>518.8</ele>
        <time>2017-04-09T09:30:51Z</time>
      </trkpt>
      <trkpt lat="43.71978" lon="3.44821">
        <ele>517.9</ele>
        <time>2017-04-09T09:30:52Z</time>
      </trkpt>
      <trkpt lat="43.71967" lon="3.44833">
        <ele>516.5</ele>
        <time>2017-04-09T09:30:54Z</time>
      </trkpt>
      <trkpt lat="43.7196" lon="3.44849">
        <ele>515.6</ele>
        <time>2017-04-09T09:30:56Z</time>
      </trkpt>
      <trkpt lat="43.71957" lon="3.44865">
        <ele>515.5</ele>
        <time>2017-04-09T09:30:58Z</time>
      </trkpt>
      <trkpt lat="43.71955" lon="3.44876">
        <ele>516</ele>
        <time>2017-04-09T09:31:00Z</time>
      </trkpt>
      <trkpt lat="43.71951" lon="3.44887">
        <ele>515.9</ele>
        <time>2017-04-09T09:31:03Z</time>
      </trkpt>
      <trkpt lat="43.71946" lon="3.44902">
        <ele>515.9</ele>
        <time>2017-04-09T09:31:06Z</time>
      </trkpt>
      <trkpt lat="43.71943" lon="3.44912">
        <ele>516</ele>
        <time>2017-04-09T09:31:09Z</time>
      </trkpt>
      <trkpt lat="43.71939" lon="3.44923">
        <ele>516.1</ele>
        <time>2017-04-09T09:31:12Z</time>
      </trkpt>
      <trkpt lat="43.71934" lon="3.44933">
        <ele>516.4</ele>
        <time>2017-04-09T09:31:15Z</time>
      </trkpt>
      <trkpt lat="43.71929" lon="3.44943">
        <ele>516.7</ele>
        <time>2017-04-09T09:31:18Z</time>
      </trkpt>
      <trkpt lat="43.71925" lon="3.44955">
        <ele>517</ele>
        <time>2017-04-09T09:31:21Z</time>
      </trkpt>
      <trkpt lat="43.71923" lon="3.44965">
        <ele>517</ele>
        <time>2017-04-09T09:31:23Z</time>
      </trkpt>
      <trkpt lat="43.7192" lon="3.44977">
        <ele>517</ele>
        <time>2017-04-09T09:31:26Z</time>
      </trkpt>
      <trkpt lat="43.71918" lon="3.44989">
        <ele>517.3</ele>
        <time>2017-04-09T09:31:29Z</time>
      </trkpt>
      <trkpt lat="43.71916" lon="3.45">
        <ele>517.7</ele>
        <time>2017-04-09T09:31:32Z</time>
      </trkpt>
      <trkpt lat="43.71914" lon="3.45011">
        <ele>518.3</ele>
        <time>2017-04-09T09:31:35Z</time>
      </trkpt>
      <trkpt lat="43.71913" lon="3.45021">
        <ele>519</ele>
        <time>2017-04-09T09:31:38Z</time>
      </trkpt>
      <trkpt lat="43.71911" lon="3.45032">
        <ele>519.7</ele>
        <time>2017-04-09T09:31:41Z</time>
      </trkpt>
      <trkpt lat="43.71909" lon="3.45042">
        <ele>520.4</ele>
        <time>2017-04-09T09:31:44Z</time>
      </trkpt>
      <trkpt lat="43.71907" lon="3.45055">
        <ele>521.3</ele>
        <time>2017-04-09T09:31:48Z</time>
      </trkpt>
      <trkpt lat="43.71904" lon="3.45068">
        <ele>521.9</ele>
        <time>2017-04-09T09:31:51Z</time>
      </trkpt>
      <trkpt lat="43.71902" lon="3.45081">
        <ele>522.7</ele>
        <time>2017-04-09T09:31:55Z</time>
      </trkpt>
      <trkpt lat="43.71901" lon="3.45091">
        <ele>523.4</ele>
        <time>2017-04-09T09:31:59Z</time>
      </trkpt>
      <trkpt lat="43.71899" lon="3.45103">
        <ele>524.1</ele>
        <time>2017-04-09T09:32:03Z</time>
      </trkpt>
      <trkpt lat="43.71897" lon="3.45117">
        <ele>524.6</ele>
        <time>2017-04-09T09:32:06Z</time>
      </trkpt>
      <trkpt lat="43.71895" lon="3.45132">
        <ele>526.9</ele>
        <time>2017-04-09T09:32:09Z</time>
      </trkpt>
      <trkpt lat="43.71893" lon="3.45144">
        <ele>528.5</ele>
        <time>2017-04-09T09:32:11Z</time>
      </trkpt>
      <trkpt lat="43.71891" lon="3.45158">
        <ele>529.5</ele>
        <time>2017-04-09T09:32:13Z</time>
      </trkpt>
      <trkpt lat="43.71889" lon="3.45173">
        <ele>529.8</ele>
        <time>2017-04-09T09:32:15Z</time>
      </trkpt>
      <trkpt lat="43.71887" lon="3.45189">
        <ele>529.9</ele>
        <time>2017-04-09T09:32:17Z</time>
      </trkpt>
      <trkpt lat="43.71885" lon="3.45207">
        <ele>530</ele>
        <time>2017-04-09T09:32:19Z</time>
      </trkpt>
      <trkpt lat="43.71885" lon="3.45222">
        <ele>530</ele>
        <time>2017-04-09T09:32:21Z</time>
      </trkpt>
      <trkpt lat="43.71884" lon="3.45237">
        <ele>529.7</ele>
        <time>2017-04-09T09:32:23Z</time>
      </trkpt>
      <trkpt lat="43.71884" lon="3.45252">
        <ele>528.2</ele>
        <time>2017-04-09T09:32:25Z</time>
      </trkpt>
      <trkpt lat="43.71884" lon="3.45265">
        <ele>527.2</ele>
        <time>2017-04-09T09:32:27Z</time>
      </trkpt>
      <trkpt lat="43.71883" lon="3.45277">
        <ele>526.2</ele>
        <time>2017-04-09T09:32:29Z</time>
      </trkpt>
      <trkpt lat="43.71883" lon="3.45289">
        <ele>525.4</ele>
        <time>2017-04-09T09:32:31Z</time>
      </trkpt>
      <trkpt lat="43.71883" lon="3.45301">
        <ele>525.3</ele>
        <time>2017-04-09T09:32:33Z</time>
      </trkpt>
      <trkpt lat="43.71882" lon="3.45312">
        <ele>525.7</ele>
        <time>2017-04-09T09:32:35Z</time>
      </trkpt>
      <trkpt lat="43.71881" lon="3.45324">
        <ele>526.7</ele>
        <time>2017-04-09T09:32:37Z</time>
      </trkpt>
      <trkpt lat="43.7188" lon="3.45337">
        <ele>526.8</ele>
        <time>2017-04-09T09:32:39Z</time>
      </trkpt>
      <trkpt lat="43.71879" lon="3.45347">
        <ele>526.9</ele>
        <time>2017-04-09T09:32:41Z</time>
      </trkpt>
      <trkpt lat="43.71879" lon="3.45358">
        <ele>527</ele>
        <time>2017-04-09T09:32:43Z</time>
      </trkpt>
      <trkpt lat="43.7188" lon="3.45371">
        <ele>527.1</ele>
        <time>2017-04-09T09:32:46Z</time>
      </trkpt>
      <trkpt lat="43.71881" lon="3.45383">
        <ele>527.4</ele>
        <time>2017-04-09T09:32:49Z</time>
      </trkpt>
      <trkpt lat="43.7188" lon="3.45395">
        <ele>527.6</ele>
        <time>2017-04-09T09:32:52Z</time>
      </trkpt>
      <trkpt lat="43.71878" lon="3.45407">
        <ele>527.9</ele>
        <time>2017-04-09T09:32:54Z</time>
      </trkpt>
      <trkpt lat="43.71876" lon="3.45422">
        <ele>527.9</ele>
        <time>2017-04-09T09:32:56Z</time>
      </trkpt>
      <trkpt lat="43.71876" lon="3.45436">
        <ele>527.7</ele>
        <time>2017-04-09T09:32:58Z</time>
      </trkpt>
      <trkpt lat="43.71876" lon="3.45452">
        <ele>528</ele>
        <time>2017-04-09T09:33:00Z</time>
      </trkpt>
      <trkpt lat="43.71875" lon="3.45467">
        <ele>528.1</ele>
        <time>2017-04-09T09:33:02Z</time>
      </trkpt>
      <trkpt lat="43.71867" lon="3.45483">
        <ele>527.8</ele>
        <time>2017-04-09T09:33:04Z</time>
      </trkpt>
      <trkpt lat="43.7186" lon="3.45489">
        <ele>526.7</ele>
        <time>2017-04-09T09:33:05Z</time>
      </trkpt>
      <trkpt lat="43.71851" lon="3.45496">
        <ele>525.6</ele>
        <time>2017-04-09T09:33:06Z</time>
      </trkpt>
      <trkpt lat="43.71845" lon="3.45501">
        <ele>525</ele>
        <time>2017-04-09T09:33:07Z</time>
      </trkpt>
      <trkpt lat="43.71838" lon="3.45507">
        <ele>524.2</ele>
        <time>2017-04-09T09:33:08Z</time>
      </trkpt>
      <trkpt lat="43.71829" lon="3.4552">
        <ele>523.4</ele>
        <time>2017-04-09T09:33:10Z</time>
      </trkpt>
      <trkpt lat="43.71823" lon="3.45528">
        <ele>523</ele>
        <time>2017-04-09T09:33:12Z</time>
      </trkpt>
      <trkpt lat="43.71817" lon="3.45535">
        <ele>522.2</ele>
        <time>2017-04-09T09:33:14Z</time>
      </trkpt>
      <trkpt lat="43.71811" lon="3.45542">
        <ele>521.7</ele>
        <time>2017-04-09T09:33:16Z</time>
      </trkpt>
      <trkpt lat="43.71805" lon="3.45552">
        <ele>521.7</ele>
        <time>2017-04-09T09:33:18Z</time>
      </trkpt>
      <trkpt lat="43.718" lon="3.45563">
        <ele>521.2</ele>
        <time>2017-04-09T09:33:20Z</time>
      </trkpt>
      <trkpt lat="43.71792" lon="3.45578">
        <ele>521</ele>
        <time>2017-04-09T09:33:22Z</time>
      </trkpt>
      <trkpt lat="43.71787" lon="3.45586">
        <ele>521.1</ele>
        <time>2017-04-09T09:33:23Z</time>
      </trkpt>
      <trkpt lat="43.71784" lon="3.45596">
        <ele>521.3</ele>
        <time>2017-04-09T09:33:24Z</time>
      </trkpt>
      <trkpt lat="43.71779" lon="3.45613">
        <ele>521.1</ele>
        <time>2017-04-09T09:33:26Z</time>
      </trkpt>
      <trkpt lat="43.7178" lon="3.45625">
        <ele>521.2</ele>
        <time>2017-04-09T09:33:28Z</time>
      </trkpt>
      <trkpt lat="43.71781" lon="3.4563">
        <ele>521.3</ele>
        <time>2017-04-09T09:33:35Z</time>
      </trkpt>
      <trkpt lat="43.71778" lon="3.45642">
        <ele>523.7</ele>
        <time>2017-04-09T09:36:30Z</time>
      </trkpt>
      <trkpt lat="43.71777" lon="3.45659">
        <ele>522.9</ele>
        <time>2017-04-09T09:36:32Z</time>
      </trkpt>
      <trkpt lat="43.71775" lon="3.45674">
        <ele>520.5</ele>
        <time>2017-04-09T09:36:34Z</time>
      </trkpt>
      <trkpt lat="43.71769" lon="3.45681">
        <ele>517.8</ele>
        <time>2017-04-09T09:36:36Z</time>
      </trkpt>
      <trkpt lat="43.71763" lon="3.45691">
        <ele>515.7</ele>
        <time>2017-04-09T09:36:38Z</time>
      </trkpt>
      <trkpt lat="43.71757" lon="3.45701">
        <ele>514.8</ele>
        <time>2017-04-09T09:36:40Z</time>
      </trkpt>
      <trkpt lat="43.71753" lon="3.45708">
        <ele>514.7</ele>
        <time>2017-04-09T09:36:42Z</time>
      </trkpt>
      <trkpt lat="43.71744" lon="3.45711">
        <ele>512.3</ele>
        <time>2017-04-09T09:36:44Z</time>
      </trkpt>
      <trkpt lat="43.71734" lon="3.45718">
        <ele>509.7</ele>
        <time>2017-04-09T09:36:46Z</time>
      </trkpt>
      <trkpt lat="43.71726" lon="3.45719">
        <ele>508.9</ele>
        <time>2017-04-09T09:36:48Z</time>
      </trkpt>
      <trkpt lat="43.71718" lon="3.4572">
        <ele>507.7</ele>
        <time>2017-04-09T09:36:50Z</time>
      </trkpt>
      <trkpt lat="43.7171" lon="3.45727">
        <ele>507.6</ele>
        <time>2017-04-09T09:36:53Z</time>
      </trkpt>
      <trkpt lat="43.71703" lon="3.4574">
        <ele>506.9</ele>
        <time>2017-04-09T09:36:56Z</time>
      </trkpt>
      <trkpt lat="43.71695" lon="3.45748">
        <ele>506.5</ele>
        <time>2017-04-09T09:36:59Z</time>
      </trkpt>
      <trkpt lat="43.71688" lon="3.45754">
        <ele>506</ele>
        <time>2017-04-09T09:37:02Z</time>
      </trkpt>
      <trkpt lat="43.71688" lon="3.45758">
        <ele>505</ele>
        <time>2017-04-09T09:37:09Z</time>
      </trkpt>
      <trkpt lat="43.71677" lon="3.45763">
        <ele>502.1</ele>
        <time>2017-04-09T09:37:24Z</time>
      </trkpt>
      <trkpt lat="43.71672" lon="3.45773">
        <ele>500.8</ele>
        <time>2017-04-09T09:37:29Z</time>
      </trkpt>
      <trkpt lat="43.7167" lon="3.45785">
        <ele>500.1</ele>
        <time>2017-04-09T09:37:32Z</time>
      </trkpt>
      <trkpt lat="43.71665" lon="3.45797">
        <ele>499.3</ele>
        <time>2017-04-09T09:37:35Z</time>
      </trkpt>
      <trkpt lat="43.71659" lon="3.45805">
        <ele>498.8</ele>
        <time>2017-04-09T09:37:37Z</time>
      </trkpt>
      <trkpt lat="43.71652" lon="3.45806">
        <ele>497.8</ele>
        <time>2017-04-09T09:37:42Z</time>
      </trkpt>
      <trkpt lat="43.71651" lon="3.45806">
        <ele>497.4</ele>
        <time>2017-04-09T09:37:49Z</time>
      </trkpt>
      <trkpt lat="43.71636" lon="3.45805">
        <ele>496.1</ele>
        <time>2017-04-09T09:38:21Z</time>
      </trkpt>
      <trkpt lat="43.71631" lon="3.45808">
        <ele>495.6</ele>
        <time>2017-04-09T09:38:28Z</time>
      </trkpt>
      <trkpt lat="43.71626" lon="3.45811">
        <ele>495.3</ele>
        <time>2017-04-09T09:38:35Z</time>
      </trkpt>
      <trkpt lat="43.71622" lon="3.45814">
        <ele>495.3</ele>
        <time>2017-04-09T09:38:42Z</time>
      </trkpt>
      <trkpt lat="43.71616" lon="3.4582">
        <ele>495.2</ele>
        <time>2017-04-09T09:38:43Z</time>
      </trkpt>
      <trkpt lat="43.7161" lon="3.45824">
        <ele>495.5</ele>
        <time>2017-04-09T09:38:50Z</time>
      </trkpt>
      <trkpt lat="43.71609" lon="3.45825">
        <ele>496.1</ele>
        <time>2017-04-09T09:38:57Z</time>
      </trkpt>
      <trkpt lat="43.71604" lon="3.45828">
        <ele>497.3</ele>
        <time>2017-04-09T09:39:06Z</time>
      </trkpt>
      <trkpt lat="43.71599" lon="3.45842">
        <ele>497.9</ele>
        <time>2017-04-09T09:39:14Z</time>
      </trkpt>
      <trkpt lat="43.71598" lon="3.45848">
        <ele>498.7</ele>
        <time>2017-04-09T09:39:21Z</time>
      </trkpt>
      <trkpt lat="43.71597" lon="3.45854">
        <ele>499.4</ele>
        <time>2017-04-09T09:39:28Z</time>
      </trkpt>
      <trkpt lat="43.7159" lon="3.45863">
        <ele>500.3</ele>
        <time>2017-04-09T09:39:35Z</time>
      </trkpt>
      <trkpt lat="43.71601" lon="3.45889">
        <ele>505.8</ele>
        <time>2017-04-09T09:40:39Z</time>
      </trkpt>
      <trkpt lat="43.71608" lon="3.45904">
        <ele>506.5</ele>
        <time>2017-04-09T09:40:42Z</time>
      </trkpt>
      <trkpt lat="43.71609" lon="3.45916">
        <ele>506.8</ele>
        <time>2017-04-09T09:40:44Z</time>
      </trkpt>
      <trkpt lat="43.7161" lon="3.45931">
        <ele>506.1</ele>
        <time>2017-04-09T09:40:46Z</time>
      </trkpt>
      <trkpt lat="43.71609" lon="3.45947">
        <ele>504.9</ele>
        <time>2017-04-09T09:40:48Z</time>
      </trkpt>
      <trkpt lat="43.71605" lon="3.4596">
        <ele>503.6</ele>
        <time>2017-04-09T09:40:50Z</time>
      </trkpt>
      <trkpt lat="43.71605" lon="3.45973">
        <ele>503.6</ele>
        <time>2017-04-09T09:40:52Z</time>
      </trkpt>
      <trkpt lat="43.71605" lon="3.45989">
        <ele>503.4</ele>
        <time>2017-04-09T09:40:54Z</time>
      </trkpt>
      <trkpt lat="43.71605" lon="3.46006">
        <ele>502.1</ele>
        <time>2017-04-09T09:40:56Z</time>
      </trkpt>
      <trkpt lat="43.71606" lon="3.46017">
        <ele>501.4</ele>
        <time>2017-04-09T09:40:57Z</time>
      </trkpt>
      <trkpt lat="43.71605" lon="3.46035">
        <ele>498.4</ele>
        <time>2017-04-09T09:40:59Z</time>
      </trkpt>
      <trkpt lat="43.71603" lon="3.46054">
        <ele>495.5</ele>
        <time>2017-04-09T09:41:01Z</time>
      </trkpt>
      <trkpt lat="43.71597" lon="3.4607">
        <ele>492.9</ele>
        <time>2017-04-09T09:41:03Z</time>
      </trkpt>
      <trkpt lat="43.71591" lon="3.4609">
        <ele>491.3</ele>
        <time>2017-04-09T09:41:05Z</time>
      </trkpt>
      <trkpt lat="43.71589" lon="3.46108">
        <ele>489.3</ele>
        <time>2017-04-09T09:41:07Z</time>
      </trkpt>
      <trkpt lat="43.71587" lon="3.46123">
        <ele>487.6</ele>
        <time>2017-04-09T09:41:09Z</time>
      </trkpt>
      <trkpt lat="43.71584" lon="3.46137">
        <ele>485.4</ele>
        <time>2017-04-09T09:41:11Z</time>
      </trkpt>
      <trkpt lat="43.7158" lon="3.46152">
        <ele>483</ele>
        <time>2017-04-09T09:41:13Z</time>
      </trkpt>
      <trkpt lat="43.71579" lon="3.46164">
        <ele>482.9</ele>
        <time>2017-04-09T09:41:15Z</time>
      </trkpt>
      <trkpt lat="43.71577" lon="3.46181">
        <ele>481.3</ele>
        <time>2017-04-09T09:41:17Z</time>
      </trkpt>
      <trkpt lat="43.71573" lon="3.46193">
        <ele>481.2</ele>
        <time>2017-04-09T09:41:19Z</time>
      </trkpt>
      <trkpt lat="43.71569" lon="3.46203">
        <ele>481.1</ele>
        <time>2017-04-09T09:41:21Z</time>
      </trkpt>
      <trkpt lat="43.71565" lon="3.46213">
        <ele>481.1</ele>
        <time>2017-04-09T09:41:23Z</time>
      </trkpt>
      <trkpt lat="43.7156" lon="3.46224">
        <ele>481.2</ele>
        <time>2017-04-09T09:41:25Z</time>
      </trkpt>
      <trkpt lat="43.71557" lon="3.46236">
        <ele>481.1</ele>
        <time>2017-04-09T09:41:27Z</time>
      </trkpt>
      <trkpt lat="43.71554" lon="3.46246">
        <ele>481.1</ele>
        <time>2017-04-09T09:41:29Z</time>
      </trkpt>
      <trkpt lat="43.71554" lon="3.4626">
        <ele>479.8</ele>
        <time>2017-04-09T09:41:32Z</time>
      </trkpt>
      <trkpt lat="43.71553" lon="3.46273">
        <ele>477.6</ele>
        <time>2017-04-09T09:41:34Z</time>
      </trkpt>
      <trkpt lat="43.71552" lon="3.46286">
        <ele>475.7</ele>
        <time>2017-04-09T09:41:36Z</time>
      </trkpt>
      <trkpt lat="43.71548" lon="3.46295">
        <ele>475.4</ele>
        <time>2017-04-09T09:41:39Z</time>
      </trkpt>
      <trkpt lat="43.71541" lon="3.46305">
        <ele>473.8</ele>
        <time>2017-04-09T09:41:42Z</time>
      </trkpt>
      <trkpt lat="43.71534" lon="3.46308">
        <ele>473.6</ele>
        <time>2017-04-09T09:41:44Z</time>
      </trkpt>
      <trkpt lat="43.71522" lon="3.46312">
        <ele>471.4</ele>
        <time>2017-04-09T09:41:47Z</time>
      </trkpt>
      <trkpt lat="43.71512" lon="3.46319">
        <ele>469.5</ele>
        <time>2017-04-09T09:41:50Z</time>
      </trkpt>
      <trkpt lat="43.71505" lon="3.46325">
        <ele>467.5</ele>
        <time>2017-04-09T09:41:52Z</time>
      </trkpt>
      <trkpt lat="43.71496" lon="3.46336">
        <ele>466</ele>
        <time>2017-04-09T09:41:54Z</time>
      </trkpt>
      <trkpt lat="43.71489" lon="3.46344">
        <ele>464.3</ele>
        <time>2017-04-09T09:41:56Z</time>
      </trkpt>
      <trkpt lat="43.71487" lon="3.46355">
        <ele>464.2</ele>
        <time>2017-04-09T09:41:58Z</time>
      </trkpt>
      <trkpt lat="43.71483" lon="3.46363">
        <ele>463.8</ele>
        <time>2017-04-09T09:42:01Z</time>
      </trkpt>
      <trkpt lat="43.71481" lon="3.46364">
        <ele>463.4</ele>
        <time>2017-04-09T09:42:08Z</time>
      </trkpt>
      <trkpt lat="43.71473" lon="3.46357">
        <ele>462.8</ele>
        <time>2017-04-09T09:42:16Z</time>
      </trkpt>
      <trkpt lat="43.7147" lon="3.46355">
        <ele>462.4</ele>
        <time>2017-04-09T09:42:23Z</time>
      </trkpt>
      <trkpt lat="43.71465" lon="3.46352">
        <ele>462.4</ele>
        <time>2017-04-09T09:42:30Z</time>
      </trkpt>
      <trkpt lat="43.71457" lon="3.4635">
        <ele>462.5</ele>
        <time>2017-04-09T09:42:33Z</time>
      </trkpt>
      <trkpt lat="43.71457" lon="3.46351">
        <ele>462.5</ele>
        <time>2017-04-09T09:42:40Z</time>
      </trkpt>
      <trkpt lat="43.71449" lon="3.46349">
        <ele>462.6</ele>
        <time>2017-04-09T09:42:44Z</time>
      </trkpt>
      <trkpt lat="43.71441" lon="3.46346">
        <ele>463.1</ele>
        <time>2017-04-09T09:42:50Z</time>
      </trkpt>
      <trkpt lat="43.71434" lon="3.46345">
        <ele>463.7</ele>
        <time>2017-04-09T09:42:55Z</time>
      </trkpt>
      <trkpt lat="43.71425" lon="3.46346">
        <ele>464.3</ele>
        <time>2017-04-09T09:43:00Z</time>
      </trkpt>
      <trkpt lat="43.71417" lon="3.46348">
        <ele>464.7</ele>
        <time>2017-04-09T09:43:05Z</time>
      </trkpt>
      <trkpt lat="43.7141" lon="3.46351">
        <ele>465.2</ele>
        <time>2017-04-09T09:43:09Z</time>
      </trkpt>
      <trkpt lat="43.71402" lon="3.46354">
        <ele>465.7</ele>
        <time>2017-04-09T09:43:13Z</time>
      </trkpt>
      <trkpt lat="43.71394" lon="3.46354">
        <ele>466.4</ele>
        <time>2017-04-09T09:43:19Z</time>
      </trkpt>
      <trkpt lat="43.71387" lon="3.46353">
        <ele>466.7</ele>
        <time>2017-04-09T09:43:23Z</time>
      </trkpt>
      <trkpt lat="43.71379" lon="3.46355">
        <ele>467.2</ele>
        <time>2017-04-09T09:43:28Z</time>
      </trkpt>
      <trkpt lat="43.71371" lon="3.46357">
        <ele>467.8</ele>
        <time>2017-04-09T09:43:32Z</time>
      </trkpt>
      <trkpt lat="43.71363" lon="3.4636">
        <ele>468.5</ele>
        <time>2017-04-09T09:43:36Z</time>
      </trkpt>
      <trkpt lat="43.71354" lon="3.46362">
        <ele>469.3</ele>
        <time>2017-04-09T09:43:41Z</time>
      </trkpt>
      <trkpt lat="43.71346" lon="3.46365">
        <ele>469.9</ele>
        <time>2017-04-09T09:43:45Z</time>
      </trkpt>
      <trkpt lat="43.71337" lon="3.46366">
        <ele>470.4</ele>
        <time>2017-04-09T09:43:49Z</time>
      </trkpt>
      <trkpt lat="43.7133" lon="3.46369">
        <ele>470.8</ele>
        <time>2017-04-09T09:43:53Z</time>
      </trkpt>
      <trkpt lat="43.71322" lon="3.46369">
        <ele>471.3</ele>
        <time>2017-04-09T09:43:57Z</time>
      </trkpt>
      <trkpt lat="43.71315" lon="3.46368">
        <ele>471.8</ele>
        <time>2017-04-09T09:44:02Z</time>
      </trkpt>
      <trkpt lat="43.71307" lon="3.46365">
        <ele>472.3</ele>
        <time>2017-04-09T09:44:06Z</time>
      </trkpt>
      <trkpt lat="43.71299" lon="3.46362">
        <ele>473.3</ele>
        <time>2017-04-09T09:44:11Z</time>
      </trkpt>
      <trkpt lat="43.71293" lon="3.46355">
        <ele>474.5</ele>
        <time>2017-04-09T09:44:16Z</time>
      </trkpt>
      <trkpt lat="43.71287" lon="3.46348">
        <ele>475.4</ele>
        <time>2017-04-09T09:44:21Z</time>
      </trkpt>
      <trkpt lat="43.71284" lon="3.46339">
        <ele>476.2</ele>
        <time>2017-04-09T09:44:26Z</time>
      </trkpt>
      <trkpt lat="43.71281" lon="3.46328">
        <ele>477.1</ele>
        <time>2017-04-09T09:44:32Z</time>
      </trkpt>
      <trkpt lat="43.71279" lon="3.46318">
        <ele>477.6</ele>
        <time>2017-04-09T09:44:37Z</time>
      </trkpt>
      <trkpt lat="43.71282" lon="3.46308">
        <ele>478.5</ele>
        <time>2017-04-09T09:44:42Z</time>
      </trkpt>
      <trkpt lat="43.71288" lon="3.46303">
        <ele>480.4</ele>
        <time>2017-04-09T09:44:49Z</time>
      </trkpt>
      <trkpt lat="43.71289" lon="3.46304">
        <ele>482.2</ele>
        <time>2017-04-09T09:44:56Z</time>
      </trkpt>
      <trkpt lat="43.71302" lon="3.46304">
        <ele>483.6</ele>
        <time>2017-04-09T09:45:02Z</time>
      </trkpt>
      <trkpt lat="43.71309" lon="3.46302">
        <ele>484.8</ele>
        <time>2017-04-09T09:45:07Z</time>
      </trkpt>
      <trkpt lat="43.71317" lon="3.46297">
        <ele>486.1</ele>
        <time>2017-04-09T09:45:12Z</time>
      </trkpt>
      <trkpt lat="43.71322" lon="3.46289">
        <ele>487.6</ele>
        <time>2017-04-09T09:45:18Z</time>
      </trkpt>
      <trkpt lat="43.71318" lon="3.46281">
        <ele>489</ele>
        <time>2017-04-09T09:45:25Z</time>
      </trkpt>
      <trkpt lat="43.71313" lon="3.46273">
        <ele>490.4</ele>
        <time>2017-04-09T09:45:31Z</time>
      </trkpt>
      <trkpt lat="43.71311" lon="3.46268">
        <ele>492.1</ele>
        <time>2017-04-09T09:45:38Z</time>
      </trkpt>
      <trkpt lat="43.71307" lon="3.46258">
        <ele>492.5</ele>
        <time>2017-04-09T09:45:40Z</time>
      </trkpt>
      <trkpt lat="43.71302" lon="3.46249">
        <ele>493.7</ele>
        <time>2017-04-09T09:45:46Z</time>
      </trkpt>
      <trkpt lat="43.71299" lon="3.4624">
        <ele>495.2</ele>
        <time>2017-04-09T09:45:53Z</time>
      </trkpt>
      <trkpt lat="43.71296" lon="3.4623">
        <ele>495.9</ele>
        <time>2017-04-09T09:45:56Z</time>
      </trkpt>
      <trkpt lat="43.71292" lon="3.4622">
        <ele>497.2</ele>
        <time>2017-04-09T09:46:02Z</time>
      </trkpt>
      <trkpt lat="43.71287" lon="3.46211">
        <ele>498.4</ele>
        <time>2017-04-09T09:46:07Z</time>
      </trkpt>
      <trkpt lat="43.71285" lon="3.462">
        <ele>499.7</ele>
        <time>2017-04-09T09:46:12Z</time>
      </trkpt>
      <trkpt lat="43.71281" lon="3.46191">
        <ele>500.7</ele>
        <time>2017-04-09T09:46:18Z</time>
      </trkpt>
      <trkpt lat="43.7128" lon="3.46189">
        <ele>501.4</ele>
        <time>2017-04-09T09:46:24Z</time>
      </trkpt>
      <trkpt lat="43.71275" lon="3.4619">
        <ele>502.6</ele>
        <time>2017-04-09T09:46:46Z</time>
      </trkpt>
      <trkpt lat="43.71274" lon="3.46189">
        <ele>503.9</ele>
        <time>2017-04-09T09:47:01Z</time>
      </trkpt>
      <trkpt lat="43.7127" lon="3.46184">
        <ele>504.6</ele>
        <time>2017-04-09T09:47:08Z</time>
      </trkpt>
      <trkpt lat="43.71267" lon="3.46181">
        <ele>505.9</ele>
        <time>2017-04-09T09:47:15Z</time>
      </trkpt>
      <trkpt lat="43.71266" lon="3.4618">
        <ele>506.8</ele>
        <time>2017-04-09T09:47:22Z</time>
      </trkpt>
      <trkpt lat="43.71267" lon="3.46184">
        <ele>514.6</ele>
        <time>2017-04-09T09:50:22Z</time>
      </trkpt>
      <trkpt lat="43.71269" lon="3.46196">
        <ele>510.9</ele>
        <time>2017-04-09T09:53:53Z</time>
      </trkpt>
      <trkpt lat="43.7127" lon="3.46206">
        <ele>510.8</ele>
        <time>2017-04-09T09:53:56Z</time>
      </trkpt>
      <trkpt lat="43.71267" lon="3.46216">
        <ele>510.4</ele>
        <time>2017-04-09T09:53:59Z</time>
      </trkpt>
      <trkpt lat="43.71264" lon="3.4623">
        <ele>509.7</ele>
        <time>2017-04-09T09:54:02Z</time>
      </trkpt>
      <trkpt lat="43.71262" lon="3.46241">
        <ele>509.1</ele>
        <time>2017-04-09T09:54:04Z</time>
      </trkpt>
      <trkpt lat="43.71261" lon="3.46256">
        <ele>508.4</ele>
        <time>2017-04-09T09:54:06Z</time>
      </trkpt>
      <trkpt lat="43.71258" lon="3.46266">
        <ele>507.8</ele>
        <time>2017-04-09T09:54:08Z</time>
      </trkpt>
      <trkpt lat="43.71251" lon="3.46268">
        <ele>500.1</ele>
        <time>2017-04-09T09:54:10Z</time>
      </trkpt>
      <trkpt lat="43.7125" lon="3.46279">
        <ele>499.5</ele>
        <time>2017-04-09T09:54:12Z</time>
      </trkpt>
      <trkpt lat="43.71245" lon="3.46294">
        <ele>498.6</ele>
        <time>2017-04-09T09:54:15Z</time>
      </trkpt>
      <trkpt lat="43.71242" lon="3.46306">
        <ele>498</ele>
        <time>2017-04-09T09:54:17Z</time>
      </trkpt>
      <trkpt lat="43.71237" lon="3.46319">
        <ele>493.3</ele>
        <time>2017-04-09T09:54:20Z</time>
      </trkpt>
      <trkpt lat="43.71231" lon="3.46329">
        <ele>487.3</ele>
        <time>2017-04-09T09:54:22Z</time>
      </trkpt>
      <trkpt lat="43.71225" lon="3.46344">
        <ele>482.2</ele>
        <time>2017-04-09T09:54:24Z</time>
      </trkpt>
      <trkpt lat="43.71223" lon="3.46354">
        <ele>481.7</ele>
        <time>2017-04-09T09:54:26Z</time>
      </trkpt>
      <trkpt lat="43.71222" lon="3.46366">
        <ele>481.2</ele>
        <time>2017-04-09T09:54:28Z</time>
      </trkpt>
      <trkpt lat="43.71218" lon="3.46376">
        <ele>480.4</ele>
        <time>2017-04-09T09:54:30Z</time>
      </trkpt>
      <trkpt lat="43.71219" lon="3.46389">
        <ele>472.4</ele>
        <time>2017-04-09T09:54:32Z</time>
      </trkpt>
      <trkpt lat="43.71217" lon="3.46402">
        <ele>465.6</ele>
        <time>2017-04-09T09:54:34Z</time>
      </trkpt>
      <trkpt lat="43.71212" lon="3.46411">
        <ele>462.3</ele>
        <time>2017-04-09T09:54:36Z</time>
      </trkpt>
      <trkpt lat="43.71215" lon="3.46422">
        <ele>459.2</ele>
        <time>2017-04-09T09:54:38Z</time>
      </trkpt>
      <trkpt lat="43.71213" lon="3.46435">
        <ele>454.1</ele>
        <time>2017-04-09T09:54:40Z</time>
      </trkpt>
      <trkpt lat="43.71207" lon="3.46441">
        <ele>453.3</ele>
        <time>2017-04-09T09:54:43Z</time>
      </trkpt>
      <trkpt lat="43.71208" lon="3.46454">
        <ele>447.5</ele>
        <time>2017-04-09T09:54:45Z</time>
      </trkpt>
      <trkpt lat="43.7121" lon="3.46467">
        <ele>444.2</ele>
        <time>2017-04-09T09:54:47Z</time>
      </trkpt>
      <trkpt lat="43.71213" lon="3.46481">
        <ele>442.4</ele>
        <time>2017-04-09T09:54:49Z</time>
      </trkpt>
      <trkpt lat="43.71211" lon="3.46492">
        <ele>439.2</ele>
        <time>2017-04-09T09:54:52Z</time>
      </trkpt>
      <trkpt lat="43.71213" lon="3.46504">
        <ele>435.2</ele>
        <time>2017-04-09T09:54:55Z</time>
      </trkpt>
      <trkpt lat="43.71218" lon="3.46514">
        <ele>433.8</ele>
        <time>2017-04-09T09:54:57Z</time>
      </trkpt>
      <trkpt lat="43.71225" lon="3.46526">
        <ele>430.6</ele>
        <time>2017-04-09T09:54:59Z</time>
      </trkpt>
      <trkpt lat="43.71234" lon="3.46535">
        <ele>428.7</ele>
        <time>2017-04-09T09:55:01Z</time>
      </trkpt>
      <trkpt lat="43.71242" lon="3.46544">
        <ele>429</ele>
        <time>2017-04-09T09:55:03Z</time>
      </trkpt>
      <trkpt lat="43.71247" lon="3.46557">
        <ele>428.6</ele>
        <time>2017-04-09T09:55:05Z</time>
      </trkpt>
      <trkpt lat="43.71249" lon="3.46567">
        <ele>427.7</ele>
        <time>2017-04-09T09:55:06Z</time>
      </trkpt>
      <trkpt lat="43.71251" lon="3.46578">
        <ele>426.5</ele>
        <time>2017-04-09T09:55:07Z</time>
      </trkpt>
      <trkpt lat="43.71254" lon="3.46588">
        <ele>424.8</ele>
        <time>2017-04-09T09:55:08Z</time>
      </trkpt>
      <trkpt lat="43.71253" lon="3.46608">
        <ele>424.4</ele>
        <time>2017-04-09T09:55:10Z</time>
      </trkpt>
      <trkpt lat="43.7125" lon="3.46617">
        <ele>424.7</ele>
        <time>2017-04-09T09:55:11Z</time>
      </trkpt>
      <trkpt lat="43.71242" lon="3.46631">
        <ele>424.4</ele>
        <time>2017-04-09T09:55:13Z</time>
      </trkpt>
      <trkpt lat="43.71235" lon="3.46638">
        <ele>424.5</ele>
        <time>2017-04-09T09:55:15Z</time>
      </trkpt>
      <trkpt lat="43.71229" lon="3.46646">
        <ele>424.9</ele>
        <time>2017-04-09T09:55:17Z</time>
      </trkpt>
      <trkpt lat="43.71224" lon="3.46655">
        <ele>424.9</ele>
        <time>2017-04-09T09:55:20Z</time>
      </trkpt>
      <trkpt lat="43.71218" lon="3.46662">
        <ele>425.1</ele>
        <time>2017-04-09T09:55:23Z</time>
      </trkpt>
      <trkpt lat="43.71212" lon="3.46672">
        <ele>425.4</ele>
        <time>2017-04-09T09:55:26Z</time>
      </trkpt>
      <trkpt lat="43.71207" lon="3.4668">
        <ele>425.6</ele>
        <time>2017-04-09T09:55:28Z</time>
      </trkpt>
      <trkpt lat="43.71197" lon="3.46683">
        <ele>425.5</ele>
        <time>2017-04-09T09:55:30Z</time>
      </trkpt>
      <trkpt lat="43.71186" lon="3.46686">
        <ele>424.8</ele>
        <time>2017-04-09T09:55:32Z</time>
      </trkpt>
      <trkpt lat="43.71178" lon="3.46688">
        <ele>424.3</ele>
        <time>2017-04-09T09:55:33Z</time>
      </trkpt>
      <trkpt lat="43.71167" lon="3.46693">
        <ele>421.6</ele>
        <time>2017-04-09T09:55:35Z</time>
      </trkpt>
      <trkpt lat="43.71157" lon="3.46705">
        <ele>419.3</ele>
        <time>2017-04-09T09:55:37Z</time>
      </trkpt>
      <trkpt lat="43.7115" lon="3.46711">
        <ele>417.8</ele>
        <time>2017-04-09T09:55:38Z</time>
      </trkpt>
      <trkpt lat="43.71142" lon="3.46716">
        <ele>416.2</ele>
        <time>2017-04-09T09:55:39Z</time>
      </trkpt>
      <trkpt lat="43.71136" lon="3.46723">
        <ele>414.7</ele>
        <time>2017-04-09T09:55:40Z</time>
      </trkpt>
      <trkpt lat="43.71125" lon="3.46732">
        <ele>412.1</ele>
        <time>2017-04-09T09:55:42Z</time>
      </trkpt>
      <trkpt lat="43.71115" lon="3.46728">
        <ele>409.2</ele>
        <time>2017-04-09T09:55:44Z</time>
      </trkpt>
      <trkpt lat="43.71104" lon="3.46725">
        <ele>405.9</ele>
        <time>2017-04-09T09:55:46Z</time>
      </trkpt>
      <trkpt lat="43.71094" lon="3.46734">
        <ele>403.8</ele>
        <time>2017-04-09T09:55:48Z</time>
      </trkpt>
      <trkpt lat="43.71089" lon="3.46743">
        <ele>402.6</ele>
        <time>2017-04-09T09:55:49Z</time>
      </trkpt>
      <trkpt lat="43.7108" lon="3.46753">
        <ele>400.4</ele>
        <time>2017-04-09T09:55:51Z</time>
      </trkpt>
      <trkpt lat="43.71069" lon="3.46761">
        <ele>397.5</ele>
        <time>2017-04-09T09:55:53Z</time>
      </trkpt>
      <trkpt lat="43.71058" lon="3.4677">
        <ele>394.9</ele>
        <time>2017-04-09T09:55:55Z</time>
      </trkpt>
      <trkpt lat="43.71043" lon="3.46775">
        <ele>392</ele>
        <time>2017-04-09T09:55:57Z</time>
      </trkpt>
      <trkpt lat="43.71034" lon="3.46788">
        <ele>388.9</ele>
        <time>2017-04-09T09:55:59Z</time>
      </trkpt>
      <trkpt lat="43.7103" lon="3.46797">
        <ele>387.3</ele>
        <time>2017-04-09T09:56:00Z</time>
      </trkpt>
      <trkpt lat="43.71023" lon="3.46811">
        <ele>385.2</ele>
        <time>2017-04-09T09:56:02Z</time>
      </trkpt>
      <trkpt lat="43.71017" lon="3.46825">
        <ele>383.2</ele>
        <time>2017-04-09T09:56:04Z</time>
      </trkpt>
      <trkpt lat="43.71008" lon="3.46839">
        <ele>381.2</ele>
        <time>2017-04-09T09:56:06Z</time>
      </trkpt>
      <trkpt lat="43.71003" lon="3.46846">
        <ele>380</ele>
        <time>2017-04-09T09:56:07Z</time>
      </trkpt>
      <trkpt lat="43.70996" lon="3.46854">
        <ele>379.3</ele>
        <time>2017-04-09T09:56:08Z</time>
      </trkpt>
      <trkpt lat="43.7099" lon="3.46862">
        <ele>378.9</ele>
        <time>2017-04-09T09:56:09Z</time>
      </trkpt>
      <trkpt lat="43.70983" lon="3.4687">
        <ele>378.5</ele>
        <time>2017-04-09T09:56:10Z</time>
      </trkpt>
      <trkpt lat="43.70977" lon="3.46877">
        <ele>377.6</ele>
        <time>2017-04-09T09:56:11Z</time>
      </trkpt>
      <trkpt lat="43.70967" lon="3.46888">
        <ele>375.3</ele>
        <time>2017-04-09T09:56:13Z</time>
      </trkpt>
      <trkpt lat="43.70959" lon="3.46893">
        <ele>374</ele>
        <time>2017-04-09T09:56:15Z</time>
      </trkpt>
      <trkpt lat="43.70951" lon="3.46886">
        <ele>372.8</ele>
        <time>2017-04-09T09:56:17Z</time>
      </trkpt>
      <trkpt lat="43.7094" lon="3.46878">
        <ele>372</ele>
        <time>2017-04-09T09:56:19Z</time>
      </trkpt>
      <trkpt lat="43.7093" lon="3.46873">
        <ele>370.6</ele>
        <time>2017-04-09T09:56:21Z</time>
      </trkpt>
      <trkpt lat="43.7092" lon="3.46868">
        <ele>368.9</ele>
        <time>2017-04-09T09:56:23Z</time>
      </trkpt>
      <trkpt lat="43.70911" lon="3.46864">
        <ele>366.2</ele>
        <time>2017-04-09T09:56:25Z</time>
      </trkpt>
      <trkpt lat="43.709" lon="3.46861">
        <ele>364.9</ele>
        <time>2017-04-09T09:56:28Z</time>
      </trkpt>
      <trkpt lat="43.70889" lon="3.46859">
        <ele>363.1</ele>
        <time>2017-04-09T09:56:30Z</time>
      </trkpt>
      <trkpt lat="43.7088" lon="3.46853">
        <ele>361.4</ele>
        <time>2017-04-09T09:56:32Z</time>
      </trkpt>
      <trkpt lat="43.70873" lon="3.46845">
        <ele>359</ele>
        <time>2017-04-09T09:56:34Z</time>
      </trkpt>
      <trkpt lat="43.70862" lon="3.46837">
        <ele>356.7</ele>
        <time>2017-04-09T09:56:36Z</time>
      </trkpt>
      <trkpt lat="43.70849" lon="3.46832">
        <ele>354.4</ele>
        <time>2017-04-09T09:56:38Z</time>
      </trkpt>
      <trkpt lat="43.70835" lon="3.46833">
        <ele>352</ele>
        <time>2017-04-09T09:56:40Z</time>
      </trkpt>
      <trkpt lat="43.70823" lon="3.46832">
        <ele>348.9</ele>
        <time>2017-04-09T09:56:42Z</time>
      </trkpt>
      <trkpt lat="43.70811" lon="3.46829">
        <ele>347.2</ele>
        <time>2017-04-09T09:56:44Z</time>
      </trkpt>
      <trkpt lat="43.70798" lon="3.46826">
        <ele>345</ele>
        <time>2017-04-09T09:56:46Z</time>
      </trkpt>
      <trkpt lat="43.70789" lon="3.46824">
        <ele>343.5</ele>
        <time>2017-04-09T09:56:48Z</time>
      </trkpt>
      <trkpt lat="43.70781" lon="3.46813">
        <ele>342.5</ele>
        <time>2017-04-09T09:56:50Z</time>
      </trkpt>
      <trkpt lat="43.70773" lon="3.46808">
        <ele>341.7</ele>
        <time>2017-04-09T09:56:51Z</time>
      </trkpt>
      <trkpt lat="43.70767" lon="3.46804">
        <ele>340.9</ele>
        <time>2017-04-09T09:56:52Z</time>
      </trkpt>
      <trkpt lat="43.70755" lon="3.46797">
        <ele>340.3</ele>
        <time>2017-04-09T09:56:54Z</time>
      </trkpt>
      <trkpt lat="43.70743" lon="3.46792">
        <ele>339.5</ele>
        <time>2017-04-09T09:56:56Z</time>
      </trkpt>
      <trkpt lat="43.70731" lon="3.46787">
        <ele>339.3</ele>
        <time>2017-04-09T09:56:58Z</time>
      </trkpt>
      <trkpt lat="43.70719" lon="3.46781">
        <ele>339.1</ele>
        <time>2017-04-09T09:57:00Z</time>
      </trkpt>
      <trkpt lat="43.70712" lon="3.4678">
        <ele>339.7</ele>
        <time>2017-04-09T09:57:04Z</time>
      </trkpt>
    </trkseg>
  </trk>
</gpx>